<
# Wetter Temperatur Luftdruck Luftfeuchtigkeit Sichtweite Windgeschwindigkeit Windrichtung Zeit
1 Clouds 14 962 76 10000 1.29 165 23:58 04.08.2020
2 Clouds 13 1020 95 10000 1.29 165 23:40 04.08.2020
3 Clouds 13 1020 95 10000 1.32 193 23:20 04.08.2020
4 Clouds 13 964 77 10000 1.87 183 22:31 04.08.2020
5 Clouds 14 1020 96 10000 1.87 183 21:59 04.08.2020
6 Clouds 14 1020 96 10000 2.42 188 20:56 04.08.2020
7 Clouds 14 962 74 10000 2.58 193 19:33 04.08.2020
8 Clouds 14 961 67 10000 2.17 201 18:33 04.08.2020
9 Rain 14 1018 98 10000 2.87 193 17:31 04.08.2020
10 Rain 15 1018 98 10000 2.82 196 16:30 04.08.2020
11 Rain 14 1017 82 7000 2.1 220 15:40 04.08.2020
12 Rain 14 1017 98 10000 2.34 208 14:55 04.08.2020
13 Rain 14 1017 98 10000 1.16 285 13:47 04.08.2020
14 Rain 13 959 80 7810 3.68 328 11:36 04.08.2020
15 Rain 13 1015 98 7810 3.68 328 10:57 04.08.2020
16 Rain 13 1014 98 7810 3.68 328 10:35 04.08.2020
17 Rain 13 1013 98 10000 4.67 322 09:56 04.08.2020
18 Rain 13 1011 98 7817 0.45 153 07:33 04.08.2020
19 Rain 13 1011 98 7817 5.46 339 06:56 04.08.2020
20 Rain 14 953 81 2706 1.68 325 23:34 03.08.2020
21 Rain 14 952 80 3989 2.61 291 22:32 03.08.2020
22 Rain 15 1009 97 3989 0.45 311 21:46 03.08.2020
23 Rain 15 952 81 5966 3.24 301 21:21 03.08.2020
24 Rain 16 1009 97 6036 1.82 303 20:30 03.08.2020
25 Rain 17 952 80 6036 1.82 303 19:44 03.08.2020
26 Rain 17 952 73 10000 2.12 326 18:41 03.08.2020
27 Rain 18 1009 97 10000 2.18 340 18:19 03.08.2020
28 Rain 18 1009 98 10000 1.83 357 17:23 03.08.2020
29 Clouds 18 1010 98 10000 1.18 38 15:47 03.08.2020
30 Clouds 18 1011 98 10000 1.6 67 14:47 03.08.2020
31 Clouds 18 1011 98 10000 1.72 351 14:24 03.08.2020
32 Rain 16 1012 97 10000 1.44 341 12:47 03.08.2020
33 Rain 17 1012 98 10000 1.4 321 11:37 03.08.2020
34 Rain 17 1012 97 10000 2.02 304 10:30 03.08.2020
35 Rain 17 956 80 10000 1.34 313 09:27 03.08.2020
36 Rain 16 956 80 10000 1.94 316 07:36 03.08.2020
37 Rain 17 1014 96 9859 2.22 278 02:24 03.08.2020
38 Rain 17 1014 96 9859 2.22 278 01:52 03.08.2020
39 Rain 17 958 80 10000 2.21 279 00:46 03.08.2020
40 Rain 18 1015 94 7642 2.14 281 21:57 02.08.2020
41 Rain 18 1015 94 10000 2.26 286 21:22 02.08.2020
42 Rain 19 958 72 10000 2.26 286 20:51 02.08.2020
43 Rain 18 1015 91 8529 2.33 290 20:32 02.08.2020
44 Rain 20 958 69 8529 2.33 290 19:43 02.08.2020
45 Rain 21 958 70 10000 1.73 309 19:21 02.08.2020
46 Rain 22 1014 92 10000 2.04 314 18:40 02.08.2020
47 Rain 22 958 56 10000 2.26 321 17:22 02.08.2020
48 Rain 21 1015 96 10000 3.04 318 15:38 02.08.2020
49 Rain 20 1016 88 10000 1.5 150 14:49 02.08.2020
50 Rain 19 1016 82 10000 1.5 50 14:29 02.08.2020
51 Rain 19 1016 93 10000 2.1 60 13:47 02.08.2020
52 Rain 19 1017 93 5000 1 0 12:50 02.08.2020
53 Rain 19 1017 93 10000 2.86 293 12:25 02.08.2020
54 Rain 20 1016 91 10000 2.53 302 10:53 02.08.2020
55 Rain 20 1016 89 10000 1.88 290 10:32 02.08.2020
56 Clouds 20 1016 81 10000 0.82 271 09:39 02.08.2020
57 Clouds 20 1016 80 10000 0.93 176 08:47 02.08.2020
58 Clouds 20 958 62 10000 1.14 219 08:19 02.08.2020
59 Clouds 19 958 68 10000 2.5 233 04:53 02.08.2020
60 Clouds 20 1016 64 10000 1.5 270 02:48 02.08.2020
61 Rain 21 1016 92 10000 0.98 125 00:30 02.08.2020
62 Rain 20 1016 68 10000 3.1 160 23:29 01.08.2020
63 Rain 22 1016 81 5120 0.45 147 22:20 01.08.2020
64 Rain 28 958 42 10000 1.67 289 20:26 01.08.2020
65 Rain 30 957 38 10000 1.71 335 19:34 01.08.2020
66 Rain 30 957 35 10000 1.71 335 18:45 01.08.2020
67 Rain 31 1015 35 10000 5.1 310 17:59 01.08.2020
68 Clouds 33 956 24 10000 2.51 337 17:22 01.08.2020
69 Clouds 33 1014 43 10000 2.4 315 16:21 01.08.2020
70 Clear 32 1015 38 10000 4.6 270 15:23 01.08.2020
71 Clear 33 1016 43 10000 3.6 260 14:55 01.08.2020
72 Clear 31 1016 44 10000 1.08 39 13:26 01.08.2020
73 Clear 29 1016 52 10000 0.82 24 11:50 01.08.2020
74 Clear 28 1017 56 10000 0.46 307 10:59 01.08.2020
75 Clear 20 1016 89 10000 1.19 188 07:43 01.08.2020
76 Clear 19 1016 87 10000 1.03 188 05:51 01.08.2020
77 Clouds 21 1017 82 10000 1.17 191 01:55 01.08.2020
78 Clouds 21 1017 82 10000 1.12 183 01:36 01.08.2020
79 Clouds 21 1017 79 10000 1.12 183 00:37 01.08.2020
80 Clouds 21 1018 82 10000 2.1 150 22:53 31.07.2020
81 Clear 25 1017 54 10000 1.5 40 21:19 31.07.2020
82 Clear 29 960 39 10000 1.48 74 20:31 31.07.2020
83 Clear 28 1017 42 10000 2.1 330 19:59 31.07.2020
84 Clear 30 1017 35 10000 1 0 18:47 31.07.2020
85 Clear 31 1018 42 10000 3.1 340 17:40 31.07.2020
86 Clear 31 1018 40 10000 2.1 0 16:42 31.07.2020
87 Clear 32 1018 47 10000 2.69 13 15:35 31.07.2020
88 Clear 31 960 31 10000 1.93 12 13:48 31.07.2020
89 Clear 30 960 31 10000 1.59 14 13:22 31.07.2020
90 Clear 29 961 36 10000 1.36 14 12:20 31.07.2020
91 Clear 29 1020 55 10000 1.36 14 11:39 31.07.2020
92 Clear 28 1020 57 10000 1.17 6 10:51 31.07.2020
93 Clear 26 1020 66 10000 0.62 343 10:20 31.07.2020
94 Clear 23 961 50 10000 0.62 343 09:34 31.07.2020
95 Clear 20 1020 93 10000 0.4 18 08:52 31.07.2020
96 Clear 19 1019 93 10000 0.57 307 07:32 31.07.2020
97 Clear 18 962 69 10000 0.83 223 04:27 31.07.2020
98 Clear 19 963 69 10000 0.61 226 01:53 31.07.2020
99 Clear 20 1020 82 10000 0.77 151 00:37 31.07.2020
100 Clear 21 961 51 10000 0.77 151 23:52 30.07.2020
101 Clear 22 961 47 10000 0.68 66 22:49 30.07.2020
102 Clear 23 961 46 10000 1.06 66 22:30 30.07.2020
103 Clear 25 1019 59 10000 1.43 67 21:19 30.07.2020
104 Clear 25 962 52 10000 1.43 67 20:56 30.07.2020
105 Clear 28 962 38 10000 1.76 42 19:54 30.07.2020
106 Clear 29 960 28 10000 2.18 26 18:59 30.07.2020
107 Clear 30 962 33 10000 2.08 13 17:57 30.07.2020
108 Clear 29 1019 47 10000 1.64 360 16:59 30.07.2020
109 Clear 30 1020 48 10000 1.55 354 16:37 30.07.2020
110 Clear 30 1020 47 10000 1.55 354 15:58 30.07.2020
111 Clear 29 1020 48 10000 1.59 359 15:38 30.07.2020
112 Clear 29 1020 52 10000 1.59 359 14:58 30.07.2020
113 Clear 29 1020 51 10000 1.97 16 14:39 30.07.2020
114 Clear 29 1020 47 10000 1.87 26 14:21 30.07.2020
115 Clear 29 1020 48 10000 1.87 26 13:44 30.07.2020
116 Clear 28 962 33 10000 1.72 37 13:19 30.07.2020
117 Clear 27 963 39 10000 1.66 48 12:40 30.07.2020
118 Clear 26 1021 60 10000 1.66 48 11:37 30.07.2020
119 Clear 24 1021 69 10000 1.1 61 10:28 30.07.2020
120 Clear 23 1021 75 10000 1.11 52 09:45 30.07.2020
121 Clear 19 1021 94 10000 0.85 81 09:18 30.07.2020
122 Clear 19 1021 95 10000 0.85 81 08:44 30.07.2020
123 Clear 17 1021 93 10000 0.35 63 07:29 30.07.2020
124 Clouds 16 1020 88 10000 1.07 100 02:30 30.07.2020
125 Clouds 17 1020 87 10000 0.93 98 01:25 30.07.2020
126 Clouds 20 1020 81 10000 0.9 72 23:22 29.07.2020
127 Clouds 19 963 59 10000 0.9 72 22:40 29.07.2020
128 Clouds 21 1020 70 10000 1.03 55 21:51 29.07.2020
129 Clouds 23 1020 65 10000 1.7 81 21:32 29.07.2020
130 Clouds 24 1020 49 10000 2.1 20 20:45 29.07.2020
131 Clouds 24 962 44 10000 1.45 64 20:21 29.07.2020
132 Clouds 24 1019 44 10000 1 0 19:41 29.07.2020
133 Clouds 24 1019 47 10000 1.5 220 19:23 29.07.2020
134 Clouds 26 1019 51 10000 1.61 20 18:44 29.07.2020
135 Clouds 26 1019 52 10000 1.88 4 18:20 29.07.2020
136 Clouds 26 1019 51 10000 1.88 4 18:20 29.07.2020
137 Clouds 25 1020 51 10000 1.88 4 17:45 29.07.2020
138 Clouds 25 1020 50 10000 3.6 300 16:41 29.07.2020
139 Clouds 26 1020 50 10000 2.6 0 15:50 29.07.2020
140 Clouds 25 1020 54 10000 1.71 356 15:22 29.07.2020
141 Clouds 26 1020 55 10000 1.71 356 14:42 29.07.2020
142 Clouds 26 1020 53 10000 1.39 358 14:18 29.07.2020
143 Clouds 26 1021 52 10000 1.24 3 13:24 29.07.2020
144 Clouds 26 964 34 10000 1.24 3 12:39 29.07.2020
145 Clouds 23 1021 53 10000 1 0 12:20 29.07.2020
146 Clouds 22 1020 52 10000 1.54 343 11:41 29.07.2020
147 Clouds 22 1020 51 10000 1.7 338 10:58 29.07.2020
148 Clouds 21 1021 66 10000 1.88 326 10:27 29.07.2020
149 Clouds 19 1021 59 10000 2.1 330 09:33 29.07.2020
150 Clouds 17 1021 88 10000 1.89 307 08:22 29.07.2020
151 Clouds 18 1021 91 10000 1.65 294 07:30 29.07.2020
152 Clouds 16 1020 92 10000 1.96 290 05:45 29.07.2020
153 Rain 19 1019 94 10000 2.22 283 02:25 29.07.2020
154 Rain 20 1018 92 10000 2.92 290 00:36 29.07.2020
155 Rain 21 1017 85 10000 2.61 294 22:44 28.07.2020
156 Rain 21 1017 83 10000 2.47 287 22:20 28.07.2020
157 Rain 22 1017 77 10000 3.01 298 21:36 28.07.2020
158 Rain 24 959 60 10000 2.82 304 20:58 28.07.2020
159 Rain 24 958 50 10000 3.33 314 20:40 28.07.2020
160 Rain 25 1014 64 10000 0.45 201 19:57 28.07.2020
161 Rain 27 1015 65 10000 3.66 317 19:37 28.07.2020
162 Rain 27 957 43 10000 3.66 317 19:18 28.07.2020
163 Rain 27 1015 66 10000 3.66 317 18:43 28.07.2020
164 Rain 28 957 41 10000 3.52 306 17:56 28.07.2020
165 Rain 27 1015 58 10000 4.03 298 17:22 28.07.2020
166 Rain 27 1015 57 10000 0.45 327 17:22 28.07.2020
167 Rain 28 1015 51 10000 0.89 188 16:40 28.07.2020
168 Clouds 29 1014 50 10000 0.45 165 15:32 28.07.2020
169 Clouds 31 1012 46 10000 4.13 284 14:56 28.07.2020
170 Clear 30 1014 51 10000 5.1 230 14:34 28.07.2020
171 Clear 30 1014 45 10000 5.1 270 13:41 28.07.2020
172 Clear 29 1010 46 10000 2.24 235 12:50 28.07.2020
173 Clear 28 1015 51 10000 5.1 250 12:22 28.07.2020
174 Clear 28 1016 51 10000 5.7 250 11:57 28.07.2020
175 Clear 27 1019 56 10000 4.55 271 11:20 28.07.2020
176 Clear 27 1011 50 10000 2.24 240 10:44 28.07.2020
177 Clear 28 1015 51 10000 4.54 262 10:21 28.07.2020
178 Clear 24 1015 57 10000 3.6 220 09:39 28.07.2020
179 Clear 24 1015 57 10000 3.6 220 09:21 28.07.2020
180 Clear 21 1015 57 10000 3.6 220 08:43 28.07.2020
181 Rain 21 1015 74 10000 3.31 234 08:18 28.07.2020
182 Rain 20 1015 84 10000 3.31 234 07:46 28.07.2020
183 Clear 18 1014 87 10000 2.8 206 02:51 28.07.2020
184 Clouds 19 958 70 10000 2.74 204 02:20 28.07.2020
185 Clouds 18 958 69 10000 2.74 204 01:40 28.07.2020
186 Clouds 19 1015 81 10000 2.81 187 00:21 28.07.2020
187 Clouds 20 1015 77 10000 2.81 170 23:26 27.07.2020
188 Clouds 21 1015 75 10000 2.81 170 22:55 27.07.2020
189 Clouds 21 1015 77 10000 2.6 150 22:22 27.07.2020
190 Clouds 21 1015 72 10000 2.1 130 21:49 27.07.2020
191 Clear 23 958 55 10000 2.04 120 21:28 27.07.2020
192 Clear 23 1015 53 10000 2.1 170 20:42 27.07.2020
193 Clear 26 958 45 10000 1.76 90 20:20 27.07.2020
194 Clear 26 1015 50 10000 2.6 130 19:38 27.07.2020
195 Clear 27 1015 56 10000 2.26 81 18:58 27.07.2020
196 Clear 28 1015 55 10000 2.33 79 18:30 27.07.2020
197 Clear 28 1016 53 10000 2.33 79 17:45 27.07.2020
198 Clear 28 1016 53 10000 2.01 74 17:25 27.07.2020
199 Clear 28 959 35 10000 1.74 68 16:27 27.07.2020
200 Clear 28 1017 54 10000 0.45 202 15:55 27.07.2020
201 Clear 28 1017 52 10000 0.45 167 15:36 27.07.2020
202 Clear 28 1017 52 10000 1.57 75 15:18 27.07.2020
203 Clear 27 1018 52 10000 1.57 75 14:43 27.07.2020
204 Clear 26 1019 56 10000 2.02 80 14:19 27.07.2020
205 Clear 27 1019 55 10000 1.88 90 13:29 27.07.2020
206 Clear 27 1019 61 10000 1.88 90 12:54 27.07.2020
207 Clear 24 1019 62 10000 1.84 86 12:35 27.07.2020
208 Clear 24 962 44 10000 1.84 86 11:51 27.07.2020
209 Clear 24 962 46 10000 1.73 97 11:21 27.07.2020
210 Clear 23 1020 68 10000 1.73 97 10:41 27.07.2020
211 Clear 20 1020 96 10000 1.35 104 09:43 27.07.2020
212 Clear 18 1020 97 10000 0.77 154 09:20 27.07.2020
213 Clear 17 1020 97 10000 0.77 154 08:59 27.07.2020
214 Clear 17 1020 97 10000 0.77 154 08:40 27.07.2020
215 Clear 15 1020 96 10000 0.79 199 07:49 27.07.2020
216 Clear 13 1020 94 10000 1.07 209 06:46 27.07.2020
217 Clear 13 1020 94 10000 1.32 219 06:25 27.07.2020
218 Clouds 15 1020 93 10000 2.48 241 02:19 27.07.2020
219 Clouds 16 1021 93 10000 2.56 246 00:53 27.07.2020
220 Rain 17 963 72 10000 2.77 247 23:45 26.07.2020
221 Rain 17 963 71 10000 2.81 250 23:24 26.07.2020
222 Rain 17 1020 89 10000 2.81 250 22:38 26.07.2020
223 Rain 18 1019 88 10000 2.6 254 22:19 26.07.2020
224 Rain 20 1018 84 10000 2.6 254 21:44 26.07.2020
225 Rain 20 960 65 10000 2.96 251 21:21 26.07.2020
226 Rain 19 1017 82 10000 2.96 251 20:49 26.07.2020
227 Rain 20 1017 81 10000 3.36 263 20:24 26.07.2020
228 Rain 21 1017 78 10000 3.36 263 19:45 26.07.2020
229 Rain 22 1017 73 10000 3.77 269 19:23 26.07.2020
230 Rain 22 1017 63 10000 3.77 269 18:49 26.07.2020
231 Rain 22 1016 65 10000 0.45 239 18:28 26.07.2020
232 Rain 23 959 47 10000 4.1 276 17:50 26.07.2020
233 Rain 24 959 48 10000 4.47 274 17:27 26.07.2020
234 Rain 23 1015 50 10000 5.7 250 16:53 26.07.2020
235 Rain 24 959 45 10000 4.07 263 16:27 26.07.2020
236 Rain 24 1015 66 10000 0.45 198 15:45 26.07.2020
237 Rain 24 1016 56 10000 4.6 220 15:25 26.07.2020
238 Rain 24 1016 67 8849 0.45 224 14:59 26.07.2020
239 Rain 23 1016 68 8534 0.45 198 14:37 26.07.2020
240 Rain 22 1016 79 8534 0.45 147 13:54 26.07.2020
241 Rain 21 1016 83 10000 3.39 244 13:21 26.07.2020
242 Rain 20 1017 86 10000 3.39 244 12:45 26.07.2020
243 Rain 19 1016 82 10000 3.1 180 12:23 26.07.2020
244 Rain 18 1016 91 10000 0.45 142 11:51 26.07.2020
245 Rain 18 1016 92 10000 3.45 221 11:32 26.07.2020
246 Rain 18 959 75 10000 3.45 221 10:50 26.07.2020
247 Rain 18 959 75 10000 3.22 237 10:25 26.07.2020
248 Rain 17 1017 88 10000 2.73 211 09:42 26.07.2020
249 Rain 17 1016 82 5446 4.11 254 08:56 26.07.2020
250 Rain 17 1015 78 9708 4.28 265 08:21 26.07.2020
251 Rain 16 1013 84 10000 3.64 266 06:57 26.07.2020
252 Clouds 16 1013 83 10000 2.05 199 03:54 26.07.2020
253 Clouds 16 1014 80 10000 1.82 181 01:48 26.07.2020
254 Clouds 17 1014 78 10000 1.79 181 00:33 26.07.2020
255 Clouds 18 1014 76 10000 1.79 181 23:42 25.07.2020
256 Clouds 19 957 61 10000 1.54 174 22:58 25.07.2020
257 Clouds 18 1014 82 10000 2.6 160 22:22 25.07.2020
258 Clouds 21 1014 67 10000 0.45 206 21:37 25.07.2020
259 Clear 22 957 55 10000 0.3 143 21:18 25.07.2020
260 Clear 23 957 47 10000 0.3 143 20:39 25.07.2020
261 Clouds 24 1014 56 10000 0.52 324 19:55 25.07.2020
262 Clouds 24 1014 55 10000 1.28 308 19:27 25.07.2020
263 Clouds 24 1014 54 10000 1.28 308 18:47 25.07.2020
264 Clouds 25 1014 54 10000 1.82 297 18:28 25.07.2020
265 Clouds 25 1015 53 10000 1.82 297 17:57 25.07.2020
266 Clouds 25 1015 54 10000 1.82 297 17:38 25.07.2020
267 Clouds 25 1015 51 10000 2.26 290 17:19 25.07.2020
268 Clouds 24 1015 49 10000 2.26 290 16:47 25.07.2020
269 Clouds 25 1015 50 10000 0.45 192 16:26 25.07.2020
270 Clouds 25 1016 55 10000 2.63 291 15:45 25.07.2020
271 Clear 25 1016 51 10000 3.04 288 15:21 25.07.2020
272 Clear 24 959 42 10000 3.04 288 14:42 25.07.2020
273 Clouds 24 1016 56 10000 3 283 14:24 25.07.2020
274 Clear 24 1016 51 10000 3.09 293 13:41 25.07.2020
275 Clear 24 1016 49 10000 2.92 283 13:21 25.07.2020
276 Clear 23 1016 54 10000 2.92 283 12:55 25.07.2020
277 Clouds 22 1017 53 10000 3.1 250 12:21 25.07.2020
278 Clear 23 1057 49 10000 1.34 319 11:43 25.07.2020
279 Rain 22 1058 52 10000 1.79 13 11:20 25.07.2020
280 Rain 22 1013 58 10000 1.79 249 10:44 25.07.2020
281 Rain 21 1013 62 10000 0.45 257 10:25 25.07.2020
282 Rain 21 1016 70 10000 2.81 267 09:52 25.07.2020
283 Clear 18 1017 72 10000 3.6 210 09:27 25.07.2020
284 Clear 18 1016 80 10000 3.07 255 08:59 25.07.2020
285 Clouds 17 1016 81 10000 3.02 246 08:25 25.07.2020
286 Clouds 17 1017 82 10000 3.02 246 07:54 25.07.2020
287 Clouds 17 959 65 10000 2.95 239 07:34 25.07.2020
288 Clouds 16 959 66 10000 2.95 239 06:43 25.07.2020
289 Clouds 17 1016 72 10000 4.1 230 03:23 25.07.2020
290 Clouds 17 959 61 10000 3.57 249 02:35 25.07.2020
291 Clouds 17 958 64 10000 3.08 239 01:38 25.07.2020
292 Clouds 16 1016 72 10000 5.1 230 01:19 25.07.2020
293 Clouds 16 1016 72 10000 5.1 230 00:45 25.07.2020
294 Clouds 17 958 63 10000 3.26 244 00:22 25.07.2020
295 Clouds 17 1015 72 10000 4.6 230 23:55 24.07.2020
296 Clouds 18 958 61 10000 3.38 248 23:37 24.07.2020
297 Clouds 18 958 60 10000 3.38 248 23:19 24.07.2020
298 Clouds 18 958 58 10000 3.38 248 22:41 24.07.2020
299 Clouds 19 958 55 10000 3.54 248 22:22 24.07.2020
300 Clouds 18 958 56 10000 3.43 249 21:47 24.07.2020
301 Clouds 19 1014 72 10000 3.4 247 21:26 24.07.2020
302 Rain 19 1014 72 10000 3.57 251 20:48 24.07.2020
303 Rain 19 1014 71 10000 0.45 202 20:29 24.07.2020
304 Rain 19 1014 68 10000 0.45 179 19:47 24.07.2020
305 Rain 19 1014 77 10000 4.6 210 19:25 24.07.2020
306 Rain 19 1014 77 10000 5.1 230 18:42 24.07.2020
307 Rain 21 1014 68 10000 3.51 263 18:22 24.07.2020
308 Rain 20 1014 77 10000 6.7 240 17:45 24.07.2020
309 Rain 23 1014 62 8629 0.45 229 17:18 24.07.2020
310 Clouds 23 1014 60 10000 4.1 230 16:42 24.07.2020
311 Clouds 23 1014 53 10000 4.6 220 16:22 24.07.2020
312 Clouds 24 1014 46 10000 2.6 250 15:44 24.07.2020
313 Rain 23 1014 49 10000 2.6 290 15:22 24.07.2020
314 Rain 24 1056 38 10000 1.79 56 14:42 24.07.2020
315 Rain 25 1056 35 10000 1.79 127 14:22 24.07.2020
316 Rain 25 1056 32 10000 1.79 69 13:42 24.07.2020
317 Rain 24 1056 33 10000 2.24 107 13:20 24.07.2020
318 Rain 23 1056 33 10000 2.24 28 12:44 24.07.2020
319 Rain 22 1014 56 10000 2.6 240 12:19 24.07.2020
320 Rain 22 1014 67 10000 2.3 317 11:38 24.07.2020
321 Rain 22 1014 69 10000 2.3 317 11:18 24.07.2020
322 Rain 21 1014 73 10000 2.3 317 10:44 24.07.2020
323 Rain 21 1014 76 10000 1.8 293 10:19 24.07.2020
324 Rain 19 1014 77 10000 3.6 240 09:44 24.07.2020
325 Rain 18 1014 82 10000 3.6 220 09:26 24.07.2020
326 Rain 18 1013 91 10000 2.08 252 08:57 24.07.2020
327 Rain 18 1013 94 10000 2.08 252 08:37 24.07.2020
328 Rain 16 1013 94 10000 1.6 256 07:58 24.07.2020
329 Rain 16 1013 94 10000 1.6 256 07:37 24.07.2020
330 Clouds 16 956 74 10000 1.3 254 07:18 24.07.2020
331 Clouds 15 1013 93 10000 1.19 241 06:21 24.07.2020
332 Clouds 14 1013 93 10000 1.19 241 05:32 24.07.2020
333 Clouds 16 956 74 10000 1.23 222 04:43 24.07.2020
334 Clouds 16 1014 89 10000 1.09 234 02:22 24.07.2020
335 Clouds 16 957 68 10000 0.91 243 00:58 24.07.2020
336 Clouds 17 1014 85 10000 1.03 269 00:27 24.07.2020
337 Clouds 18 1015 83 10000 1.03 269 23:46 23.07.2020
338 Rain 18 958 67 10000 1.02 262 23:27 23.07.2020
339 Rain 19 1015 79 10000 1.02 262 22:57 23.07.2020
340 Rain 19 958 66 10000 1.02 262 22:37 23.07.2020
341 Rain 20 1015 76 10000 0.73 250 22:18 23.07.2020
342 Clouds 20 958 63 10000 0.64 163 21:38 23.07.2020
343 Rain 21 1015 74 10000 0.24 65 21:20 23.07.2020
344 Rain 22 958 61 10000 0.24 65 20:56 23.07.2020
345 Rain 22 1014 72 10000 0.24 65 20:38 23.07.2020
346 Rain 23 1015 70 10000 0.84 356 20:18 23.07.2020
347 Rain 24 1015 68 10000 0.84 356 19:42 23.07.2020
348 Rain 24 1015 66 10000 0.45 245 19:23 23.07.2020
349 Rain 25 1015 64 10000 1.36 345 18:58 23.07.2020
350 Rain 25 1015 63 10000 1.36 345 18:40 23.07.2020
351 Rain 25 1015 61 10000 1.58 332 18:20 23.07.2020
352 Rain 25 958 42 10000 1.58 332 17:40 23.07.2020
353 Clouds 25 958 42 10000 1.95 325 17:22 23.07.2020
354 Clouds 24 958 46 10000 1.95 325 16:44 23.07.2020
355 Clouds 24 1016 68 10000 2.23 318 16:24 23.07.2020
356 Clouds 24 1016 73 10000 2.23 318 15:48 23.07.2020
357 Clouds 25 959 46 10000 2.08 313 15:25 23.07.2020
358 Clouds 25 959 41 10000 2.08 313 14:57 23.07.2020
359 Clouds 25 1016 63 10000 1.86 337 14:36 23.07.2020
360 Clouds 25 1016 66 10000 1.86 337 14:18 23.07.2020
361 Clouds 25 1016 56 10000 1.86 337 13:47 23.07.2020
362 Clouds 25 1016 55 10000 1.84 332 13:27 23.07.2020
363 Clouds 25 1017 53 10000 1.84 332 12:57 23.07.2020
364 Clouds 24 1017 53 10000 3.6 250 12:38 23.07.2020
365 Clouds 24 1017 53 10000 3.6 250 12:18 23.07.2020
366 Clouds 24 1017 57 10000 1.5 0 11:39 23.07.2020
367 Clouds 23 1018 56 10000 1.5 230 11:21 23.07.2020
368 Clouds 23 1013 58 10000 1.79 323 10:50 23.07.2020
369 Clouds 23 1013 62 10000 1.34 288 10:26 23.07.2020
370 Clouds 22 1018 68 10000 2.58 295 09:56 23.07.2020
371 Clouds 22 1018 77 10000 2.58 295 09:38 23.07.2020
372 Clouds 19 1018 77 10000 3.1 200 09:20 23.07.2020
373 Clouds 19 1018 88 10000 0.45 209 08:44 23.07.2020
374 Clouds 17 1018 92 10000 0.45 196 08:23 23.07.2020
375 Clouds 17 1018 94 10000 2.61 255 07:44 23.07.2020
376 Clear 17 1018 94 10000 2.34 240 07:18 23.07.2020
377 Clear 16 1018 93 10000 2.25 239 06:34 23.07.2020
378 Clear 16 961 78 10000 2.25 239 05:47 23.07.2020
379 Clear 16 1018 92 10000 2.16 239 05:25 23.07.2020
380 Clear 15 961 74 10000 2.16 239 04:37 23.07.2020
381 Clear 16 961 72 10000 1.97 236 03:28 23.07.2020
382 Clouds 17 1018 81 10000 0.94 241 00:39 23.07.2020
383 Clouds 17 961 67 10000 0.94 241 00:21 23.07.2020
384 Clouds 18 1018 77 10000 0.94 241 23:42 22.07.2020
385 Clouds 18 1018 76 10000 0.67 174 23:24 22.07.2020
386 Clouds 19 961 63 10000 0.67 174 22:43 22.07.2020
387 Clouds 20 961 57 10000 0.79 140 22:24 22.07.2020
388 Clouds 19 1019 77 10000 2.6 160 21:59 22.07.2020
389 Clouds 21 961 57 10000 0.39 129 21:41 22.07.2020
390 Clouds 22 1018 60 10000 1 40 21:20 22.07.2020
391 Clouds 21 1018 60 10000 2.1 50 20:58 22.07.2020
392 Clouds 24 960 50 10000 1.33 50 20:38 22.07.2020
393 Clouds 22 1018 49 10000 2.6 40 20:20 22.07.2020
394 Clouds 22 1018 53 10000 3.1 30 19:56 22.07.2020
395 Clouds 23 1018 53 10000 1.92 42 19:38 22.07.2020
396 Clouds 23 1018 52 10000 1.92 42 19:19 22.07.2020
397 Clouds 24 1018 52 10000 1.92 42 18:44 22.07.2020
398 Clouds 24 1019 53 10000 2.52 41 18:22 22.07.2020
399 Clouds 25 1019 51 10000 2.52 41 17:43 22.07.2020
400 Clouds 25 1019 54 10000 2.92 41 17:24 22.07.2020
401 Clouds 25 1019 51 10000 2.92 41 16:56 22.07.2020
402 Clouds 25 1019 53 10000 2.92 41 16:37 22.07.2020
403 Clouds 26 1020 50 10000 3.05 36 16:19 22.07.2020
404 Clouds 25 1020 52 10000 3.05 36 15:56 22.07.2020
405 Clouds 26 1020 50 10000 0.5 0 15:56 22.07.2020
406 Clouds 25 1020 49 10000 3.05 36 15:37 22.07.2020
407 Clear 25 1020 49 10000 2.8 35 15:18 22.07.2020
408 Clouds 25 1021 47 10000 2.81 43 14:40 22.07.2020
409 Clouds 25 1021 48 10000 2.52 37 14:19 22.07.2020
410 Clouds 25 1021 52 10000 2.81 43 13:43 22.07.2020
411 Clouds 24 1022 50 10000 2.47 46 13:25 22.07.2020
412 Clouds 24 1022 49 10000 2.47 46 12:57 22.07.2020
413 Clouds 24 1022 47 10000 2.47 46 12:38 22.07.2020
414 Clouds 23 1022 49 10000 2.24 45 12:19 22.07.2020
415 Clouds 22 1022 51 10000 2.24 45 11:55 22.07.2020
416 Clouds 22 1022 53 10000 2.24 45 11:36 22.07.2020
417 Clouds 21 1023 59 10000 1.98 47 11:18 22.07.2020
418 Clouds 21 1023 67 10000 1.98 47 10:40 22.07.2020
419 Clouds 19 1023 72 10000 1.29 37 10:22 22.07.2020
420 Clouds 18 1022 83 10000 1.61 50 09:45 22.07.2020
421 Clouds 17 1023 87 10000 0.44 23 09:22 22.07.2020
422 Clouds 15 1023 91 10000 1.17 45 08:47 22.07.2020
423 Clouds 16 1022 93 10000 0.92 3 08:25 22.07.2020
424 Clouds 15 1022 93 10000 0.92 3 07:53 22.07.2020
425 Clouds 14 1022 93 10000 0.9 331 07:19 22.07.2020
426 Clouds 14 1022 92 10000 0.83 339 06:24 22.07.2020
427 Rain 14 1022 92 10000 0.83 339 05:56 22.07.2020
428 Rain 14 1022 91 10000 0.76 337 05:35 22.07.2020
429 Clouds 15 1021 91 10000 0.65 320 04:27 22.07.2020
430 Clouds 16 1022 91 10000 0.65 320 03:38 22.07.2020
431 Rain 17 1022 88 10000 0.85 2 02:18 22.07.2020
432 Clouds 18 1022 93 10000 2.1 240 00:50 22.07.2020
433 Clouds 18 1020 94 10000 0.98 15 00:18 22.07.2020
434 Clouds 18 1022 88 10000 1.5 210 23:41 21.07.2020
435 Rain 19 1018 83 10000 1.5 0 23:21 21.07.2020
436 Rain 19 1017 83 10000 1.5 0 22:57 21.07.2020
437 Rain 19 1021 84 10000 1.5 0 22:39 21.07.2020
438 Rain 19 1017 81 10000 1.5 0 22:39 21.07.2020
439 Rain 19 1017 80 10000 2.21 345 22:20 21.07.2020
440 Rain 19 1017 80 10000 2.21 345 22:20 21.07.2020
441 Rain 19 1020 89 10000 2.21 345 21:58 21.07.2020
442 Rain 20 1021 74 10000 2.25 336 21:39 21.07.2020
443 Rain 20 1021 74 10000 2.68 339 21:21 21.07.2020
444 Rain 21 1067 36 10000 0.45 210 20:48 21.07.2020
445 Rain 21 1020 69 10000 2.49 332 20:28 21.07.2020
446 Rain 22 1020 67 10000 2.49 332 19:59 21.07.2020
447 Rain 22 1020 65 10000 2.49 332 19:41 21.07.2020
448 Rain 23 1020 66 10000 2.74 330 19:19 21.07.2020
449 Rain 23 1020 66 10000 2.74 330 18:43 21.07.2020
450 Rain 24 1020 66 10000 3.06 323 18:24 21.07.2020
451 Rain 24 1020 62 10000 3.06 323 17:43 21.07.2020
452 Rain 24 1020 62 10000 3.24 317 17:25 21.07.2020
453 Rain 26 1020 64 10000 0.45 167 16:59 21.07.2020
454 Rain 25 1020 53 10000 3.24 317 16:38 21.07.2020
455 Rain 25 1020 54 10000 0.45 198 16:19 21.07.2020
456 Rain 27 1020 53 10000 3.47 312 15:43 21.07.2020
457 Rain 27 1020 53 10000 3.47 312 15:43 21.07.2020
458 Rain 28 1020 52 10000 3.59 316 15:23 21.07.2020
459 Rain 28 1020 51 10000 3.59 316 15:23 21.07.2020
460 Rain 28 1020 51 10000 3.59 316 15:23 21.07.2020
461 Rain 27 1021 49 10000 3.59 316 14:56 21.07.2020
462 Rain 27 1021 47 10000 3.1 0 14:37 21.07.2020
463 Rain 27 1021 50 10000 2.1 280 14:18 21.07.2020
464 Rain 26 1021 57 10000 2.1 200 13:40 21.07.2020
465 Rain 25 1021 57 10000 2.1 200 13:22 21.07.2020
466 Rain 26 1021 56 10000 3.52 296 12:55 21.07.2020
467 Rain 26 1021 54 10000 3.52 296 12:36 21.07.2020
468 Rain 25 1021 57 10000 2.1 240 12:18 21.07.2020
469 Rain 24 1020 56 10000 2.69 295 11:41 21.07.2020
470 Rain 23 1020 59 10000 2.21 300 11:21 21.07.2020
471 Rain 23 1019 60 10000 2.21 300 10:57 21.07.2020
472 Clouds 24 1020 60 10000 1.93 301 10:38 21.07.2020
473 Clouds 25 1020 62 10000 1.93 301 10:19 21.07.2020
474 Clouds 21 1021 64 10000 3.1 260 09:42 21.07.2020
475 Clouds 22 1020 69 10000 1.93 301 09:42 21.07.2020
476 Clouds 20 1021 68 10000 2.6 280 09:22 21.07.2020
477 Clouds 18 1020 82 10000 2.33 291 08:44 21.07.2020
478 Clouds 17 1020 89 10000 2.16 276 08:24 21.07.2020
479 Clouds 17 1020 90 10000 2.16 276 07:49 21.07.2020
480 Clouds 16 1020 90 10000 1.97 261 07:31 21.07.2020
481 Clouds 15 1020 89 10000 1.97 261 06:58 21.07.2020
482 Clouds 17 1019 89 10000 2.1 231 06:25 21.07.2020
483 Clouds 15 1019 85 10000 1.93 228 04:29 21.07.2020
484 Clouds 15 1019 83 10000 1.78 231 03:26 21.07.2020
485 Clear 16 1019 78 10000 1.45 237 01:58 21.07.2020
486 Clear 17 1019 75 10000 1.58 229 00:53 21.07.2020
487 Clear 17 1019 75 10000 1.61 203 00:30 21.07.2020
488 Clear 17 1019 75 10000 1.61 203 23:59 20.07.2020
489 Clear 17 1019 75 10000 1.61 203 23:39 20.07.2020
490 Clear 18 1019 76 10000 1.72 173 23:21 20.07.2020
491 Clear 18 1019 76 10000 1.72 173 22:58 20.07.2020
492 Clear 19 1019 75 10000 1.72 173 22:39 20.07.2020
493 Clear 20 1019 73 10000 1.51 160 22:18 20.07.2020
494 Clear 20 1014 66 10000 1.84 150 21:44 20.07.2020
495 Clear 22 1018 63 10000 1.38 120 21:25 20.07.2020
496 Clear 23 1018 44 10000 0.5 0 20:56 20.07.2020
497 Clear 23 1018 44 10000 0.5 0 20:56 20.07.2020
498 Clear 24 1018 48 10000 1.38 120 20:38 20.07.2020
499 Clouds 25 1018 48 10000 0.7 53 20:19 20.07.2020
500 Clouds 26 1018 34 10000 2.6 260 19:38 20.07.2020
501 Clouds 26 1018 34 10000 3.6 260 19:19 20.07.2020
502 Clouds 26 1018 34 10000 3.6 300 18:57 20.07.2020
503 Clouds 27 1018 36 10000 4.1 290 18:39 20.07.2020
504 Clouds 27 1018 40 10000 0.45 198 18:18 20.07.2020
505 Clouds 28 1018 41 10000 0.45 235 17:42 20.07.2020
506 Clouds 28 1018 41 10000 0.45 309 17:23 20.07.2020
507 Clouds 28 1018 47 10000 0.45 199 16:48 20.07.2020
508 Clouds 27 1018 41 10000 5.1 250 16:20 20.07.2020
509 Clouds 28 1018 45 10000 0.45 314 15:46 20.07.2020
510 Clouds 27 1018 46 10000 2.97 307 15:20 20.07.2020
511 Clouds 28 1018 47 10000 2.97 307 14:56 20.07.2020
512 Clouds 28 1018 50 10000 3.06 302 14:38 20.07.2020
513 Clouds 27 1018 49 10000 2.82 306 14:18 20.07.2020
514 Clouds 26 1018 51 10000 2.92 303 13:55 20.07.2020
515 Clouds 27 1018 47 10000 0.45 317 13:37 20.07.2020
516 Clouds 27 1018 47 10000 0.45 317 13:37 20.07.2020
517 Clouds 27 1018 50 10000 2.67 300 13:18 20.07.2020
518 Clouds 27 1018 56 10000 2.67 300 12:42 20.07.2020
519 Clear 26 1018 56 10000 2.42 290 12:21 20.07.2020
520 Clear 26 1018 57 10000 2.42 290 11:59 20.07.2020
521 Clear 25 1014 54 10000 0.89 271 11:40 20.07.2020
522 Clear 25 1018 60 10000 2.42 290 11:40 20.07.2020
523 Clear 25 1014 54 10000 0.89 271 11:22 20.07.2020
524 Clear 25 1018 61 10000 1.64 260 10:58 20.07.2020
525 Clear 25 1018 62 10000 1.7 247 10:39 20.07.2020
526 Clear 24 1018 64 10000 1.7 247 10:20 20.07.2020
527 Clear 21 1018 73 10000 1.7 247 09:40 20.07.2020
528 Clear 20 1018 72 10000 3.1 230 09:22 20.07.2020
529 Clear 19 1017 84 10000 2.05 241 08:49 20.07.2020
530 Clear 19 1017 84 10000 2.05 241 08:49 20.07.2020
531 Clouds 18 1017 90 10000 2.1 232 08:26 20.07.2020
532 Clouds 17 1017 93 10000 2.1 232 07:56 20.07.2020
533 Clouds 17 1017 93 10000 2.02 231 07:37 20.07.2020
534 Clouds 16 1017 93 10000 2.02 231 07:18 20.07.2020
535 Clouds 15 1017 91 10000 2.04 226 06:38 20.07.2020
536 Clouds 15 1017 88 10000 2.36 228 03:53 20.07.2020
537 Clouds 16 1017 86 10000 2.21 233 02:18 20.07.2020
538 Clouds 17 1018 84 10000 2.04 235 00:47 20.07.2020
539 Clouds 18 1017 83 10000 1.58 235 23:55 19.07.2020
540 Rain 18 1017 83 10000 1.35 251 23:36 19.07.2020
541 Rain 19 1017 83 10000 1.35 251 23:18 19.07.2020
542 Rain 18 1017 88 10000 1.5 140 22:42 19.07.2020
543 Rain 18 1017 88 10000 1.5 160 22:20 19.07.2020
544 Rain 18 1017 82 10000 1 150 21:55 19.07.2020
545 Rain 19 1017 82 10000 1 150 21:37 19.07.2020
546 Rain 20 1017 77 10000 1.5 250 21:19 19.07.2020
547 Rain 20 1017 60 10000 2.1 270 20:54 19.07.2020
548 Rain 21 1017 60 10000 2.1 270 20:36 19.07.2020
549 Rain 23 1017 56 10000 2.1 260 20:18 19.07.2020
550 Clouds 24 1016 49 10000 2.1 330 19:40 19.07.2020
551 Clouds 23 1016 49 10000 2.1 330 19:20 19.07.2020
552 Rain 24 1017 44 10000 1.5 310 18:58 19.07.2020
553 Rain 25 1017 44 10000 2.1 330 18:40 19.07.2020
554 Rain 25 1017 44 10000 2.1 330 18:22 19.07.2020
555 Rain 25 1017 47 10000 1.5 270 17:43 19.07.2020
556 Rain 25 1017 47 10000 2.1 270 17:24 19.07.2020
557 Rain 25 1017 50 10000 1.5 160 16:56 19.07.2020
558 Rain 25 1017 50 10000 1.5 160 16:37 19.07.2020
559 Clouds 25 1017 47 10000 1 0 16:18 19.07.2020
560 Rain 24 1017 56 10000 2.4 2 15:45 19.07.2020
561 Clear 24 1017 56 10000 2.08 7 15:26 19.07.2020
562 Clear 23 1017 55 10000 2.08 7 14:47 19.07.2020
563 Clouds 24 1018 52 10000 2.07 33 14:26 19.07.2020
564 Clouds 23 1018 56 10000 2.07 33 13:58 19.07.2020
565 Clouds 25 1018 53 10000 2.07 33 13:40 19.07.2020
566 Clouds 25 1018 53 10000 1.82 32 13:19 19.07.2020
567 Clouds 24 1018 55 10000 1.82 32 12:46 19.07.2020
568 Clouds 24 1018 55 10000 1.82 32 12:46 19.07.2020
569 Clouds 23 961 44 10000 1.33 33 12:24 19.07.2020
570 Clouds 22 591 91 10000 1.33 33 11:46 19.07.2020
571 Clouds 23 961 43 10000 0.78 56 11:27 19.07.2020
572 Clouds 23 961 43 10000 0.78 56 10:58 19.07.2020
573 Clouds 22 1018 60 10000 0.78 56 10:40 19.07.2020
574 Clouds 22 1018 66 10000 0.55 145 10:21 19.07.2020
575 Clouds 20 1019 73 10000 0.55 145 09:44 19.07.2020
576 Clouds 17 1019 68 10000 2.1 210 09:22 19.07.2020
577 Clouds 16 1019 84 10000 1.01 150 08:47 19.07.2020
578 Clouds 16 1018 77 10000 1.5 150 08:26 19.07.2020
579 Clouds 15 1018 86 10000 0.82 159 07:54 19.07.2020
580 Clouds 15 1018 87 10000 0.59 194 07:28 19.07.2020
581 Clouds 15 1018 86 10000 0.59 194 06:49 19.07.2020
582 Clouds 14 1018 86 10000 0.83 230 06:21 19.07.2020
583 Clouds 14 1018 86 10000 0.83 230 05:51 19.07.2020
584 Clouds 14 1019 86 10000 1.25 228 04:49 19.07.2020
585 Clouds 15 1019 86 10000 1.69 219 02:47 19.07.2020
586 Clouds 15 1020 86 10000 1.65 206 02:24 19.07.2020
587 Clouds 15 1020 86 10000 1.65 206 01:44 19.07.2020
588 Clouds 15 1020 85 10000 1.51 200 00:59 19.07.2020
589 Clouds 16 1020 84 10000 1.41 211 00:24 19.07.2020
590 Clouds 16 1020 84 10000 1.41 211 23:59 18.07.2020
591 Clouds 16 1020 84 10000 1.41 211 23:59 18.07.2020
592 Clouds 16 1020 83 10000 1.41 211 23:40 18.07.2020
593 Clouds 16 1020 83 10000 1.62 225 23:22 18.07.2020
594 Clouds 16 1020 83 10000 1.62 225 22:43 18.07.2020
595 Clouds 16 1020 83 10000 1.65 210 22:20 18.07.2020
596 Clouds 16 1020 77 10000 2.1 170 21:52 18.07.2020
597 Clouds 17 1020 83 10000 1.66 196 21:29 18.07.2020
598 Clouds 17 1020 82 10000 1.53 161 20:59 18.07.2020
599 Clouds 17 1020 82 10000 1.53 161 20:41 18.07.2020
600 Clouds 17 1019 80 10000 1.54 143 20:21 18.07.2020
601 Clouds 18 1019 78 10000 1.54 143 19:49 18.07.2020
602 Clouds 18 1019 77 10000 1.4 137 19:30 18.07.2020
603 Clouds 19 1019 75 10000 1.4 137 18:57 18.07.2020
604 Clouds 19 1019 73 10000 1.4 137 18:36 18.07.2020
605 Rain 19 1019 71 10000 1.19 123 18:18 18.07.2020
606 Rain 19 1019 69 10000 1.19 123 17:39 18.07.2020
607 Clouds 20 1020 66 10000 0.9 98 17:20 18.07.2020
608 Clouds 20 1019 66 10000 0.9 98 16:43 18.07.2020
609 Rain 20 1019 65 10000 1.05 48 16:22 18.07.2020
610 Rain 20 1019 64 10000 1.05 48 15:59 18.07.2020
611 Clouds 19 1020 52 10000 3.1 30 15:40 18.07.2020
612 Clouds 19 1020 55 10000 4.1 20 15:21 18.07.2020
613 Rain 20 1020 64 10000 2 28 14:42 18.07.2020
614 Rain 20 1020 61 10000 2.71 15 14:22 18.07.2020
615 Rain 21 1063 48 10000 0.45 279 13:56 18.07.2020
616 Rain 21 1063 49 10000 0.45 330 13:38 18.07.2020
617 Rain 20 1020 58 10000 3.08 3 13:20 18.07.2020
618 Rain 21 1020 60 10000 3.08 3 12:54 18.07.2020
619 Clouds 20 1020 52 10000 2.1 10 12:36 18.07.2020
620 Rain 20 1020 60 10000 2.67 344 12:18 18.07.2020
621 Clouds 20 1020 55 10000 2.1 0 11:41 18.07.2020
622 Rain 19 1020 62 10000 2.06 333 11:19 18.07.2020
623 Rain 19 1020 64 10000 2.06 333 10:48 18.07.2020
624 Clear 18 1020 70 10000 1.67 325 10:29 18.07.2020
625 Clear 17 1021 91 10000 1.67 325 09:59 18.07.2020
626 Clear 17 1021 95 10000 1.67 325 09:41 18.07.2020
627 Clear 14 1021 96 10000 1.22 313 09:21 18.07.2020
628 Clear 14 1021 96 10000 1.22 313 08:52 18.07.2020
629 Clear 13 1021 95 10000 1.18 279 08:31 18.07.2020
630 Clear 12 1021 95 10000 1.18 279 07:48 18.07.2020
631 Clear 12 1020 94 10000 1.26 257 07:26 18.07.2020
632 Clear 11 1020 93 10000 1.26 257 06:57 18.07.2020
633 Clear 11 1020 93 10000 1.26 257 06:38 18.07.2020
634 Clear 12 1021 92 10000 0.86 308 04:29 18.07.2020
635 Clear 12 1021 90 10000 0.8 288 03:38 18.07.2020
636 Clouds 14 1021 88 10000 0.86 280 01:46 18.07.2020
637 Clouds 14 1021 87 10000 0.73 284 01:19 18.07.2020
638 Clouds 14 1021 93 10000 1.5 170 00:35 18.07.2020
639 Clouds 15 1065 70 10000 0.44 315 23:56 17.07.2020
640 Clouds 14 1021 93 10000 1 150 23:38 17.07.2020
641 Clouds 15 1021 82 10000 0.5 355 23:18 17.07.2020
642 Clouds 15 1065 68 10000 0.5 355 22:42 17.07.2020
643 Clouds 15 1065 68 10000 0.6 18 22:20 17.07.2020
644 Clouds 16 1064 66 10000 0.6 18 21:58 17.07.2020
645 Clouds 16 1065 65 10000 0.6 18 21:39 17.07.2020
646 Rain 18 1020 72 10000 1.12 31 21:20 17.07.2020
647 Rain 18 1020 69 10000 1.12 31 20:56 17.07.2020
648 Rain 19 1020 67 10000 1.12 31 20:37 17.07.2020
649 Rain 19 1020 66 10000 1.83 23 20:18 17.07.2020
650 Rain 19 1020 62 10000 1.83 23 19:42 17.07.2020
651 Clouds 19 1020 52 10000 4.1 340 19:20 17.07.2020
652 Clouds 19 1020 49 10000 3.6 340 18:49 17.07.2020
653 Clouds 19 1020 49 10000 3.6 340 18:49 17.07.2020
654 Clouds 19 1020 42 10000 3.1 300 18:26 17.07.2020
655 Clouds 20 1020 45 10000 3.1 290 17:46 17.07.2020
656 Clouds 20 1020 45 10000 3.6 300 17:27 17.07.2020
657 Clouds 21 1020 63 10000 2.99 354 16:59 17.07.2020
658 Clouds 21 1020 64 10000 2.99 354 16:39 17.07.2020
659 Clouds 20 1020 52 10000 3.1 340 16:19 17.07.2020
660 Clouds 20 1019 63 10000 2.74 353 15:41 17.07.2020
661 Rain 20 1065 49 10000 2.24 76 15:21 17.07.2020
662 Clouds 18 1020 63 10000 2.6 350 14:55 17.07.2020
663 Rain 20 1019 65 10000 2.45 349 14:36 17.07.2020
664 Clouds 18 1020 67 10000 4.6 10 14:18 17.07.2020
665 Clouds 18 1020 72 10000 2.1 350 13:40 17.07.2020
666 Rain 19 1020 75 10000 1.69 350 13:20 17.07.2020
667 Rain 19 963 51 10000 1.69 350 12:44 17.07.2020
668 Rain 18 1020 79 10000 1.92 347 12:21 17.07.2020
669 Rain 17 1065 70 10000 0.45 107 11:58 17.07.2020
670 Rain 17 1066 72 10000 1.92 347 11:40 17.07.2020
671 Rain 17 1020 84 10000 1.5 334 11:20 17.07.2020
672 Rain 16 1020 89 10000 1.5 334 10:57 17.07.2020
673 Rain 16 1020 94 10000 1.5 334 10:39 17.07.2020
674 Clouds 16 1020 96 10000 1.36 334 10:20 17.07.2020
675 Clouds 15 1020 97 10000 1.36 334 09:56 17.07.2020
676 Clouds 15 1020 97 10000 1.19 311 09:37 17.07.2020
677 Rain 14 1019 97 10000 0.98 337 09:19 17.07.2020
678 Rain 14 1019 97 10000 0.98 337 08:42 17.07.2020
679 Rain 14 1019 97 10000 1.3 348 08:22 17.07.2020
680 Rain 13 1019 97 10000 1.3 348 07:49 17.07.2020
681 Rain 13 1019 97 10000 1.21 337 07:20 17.07.2020
682 Rain 13 1019 97 10000 1.21 337 06:52 17.07.2020
683 Rain 13 1019 97 10000 1.35 324 06:19 17.07.2020
684 Rain 13 1018 97 10000 1.54 311 04:59 17.07.2020
685 Rain 13 1019 97 10000 2.53 306 02:49 17.07.2020
686 Rain 13 1019 97 6594 2.51 309 01:46 17.07.2020
687 Rain 13 1019 96 5410 2.69 302 00:46 17.07.2020
688 Rain 13 1019 96 5214 2.74 293 00:22 17.07.2020
689 Rain 13 1019 96 5214 2.74 293 23:45 16.07.2020
690 Rain 13 1019 96 7128 2.77 285 23:22 16.07.2020
691 Rain 13 1019 96 7128 2.77 285 22:59 16.07.2020
692 Rain 13 1019 96 7128 2.77 285 22:40 16.07.2020
693 Rain 13 1019 96 7729 2.94 284 22:22 16.07.2020
694 Rain 14 1019 96 7729 2.94 284 21:56 16.07.2020
695 Rain 14 1019 95 8192 2.88 280 21:37 16.07.2020
696 Rain 14 1018 95 9508 2.73 284 21:19 16.07.2020
697 Rain 14 1018 95 9508 2.73 284 20:57 16.07.2020
698 Rain 14 1018 95 9508 2.73 284 20:38 16.07.2020
699 Rain 14 1018 95 9789 2.96 285 20:20 16.07.2020
700 Rain 14 1018 95 9789 2.96 285 19:47 16.07.2020
701 Rain 15 1018 95 10000 3.19 282 19:28 16.07.2020
702 Rain 14 1018 94 10000 3.19 282 18:56 16.07.2020
703 Rain 14 1018 94 10000 3.19 282 18:38 16.07.2020
704 Rain 15 1018 93 10000 3.41 279 18:19 16.07.2020
705 Rain 15 1018 93 10000 3.78 279 17:39 16.07.2020
706 Rain 15 1018 93 10000 3.78 279 17:19 16.07.2020
707 Rain 15 1018 92 10000 3.78 279 16:58 16.07.2020
708 Rain 15 1018 93 10000 3.86 277 16:39 16.07.2020
709 Rain 16 1018 93 10000 3.86 277 16:21 16.07.2020
710 Rain 15 1018 93 10000 3.86 277 15:45 16.07.2020
711 Rain 16 1018 93 10000 0.45 219 15:27 16.07.2020
712 Rain 16 1018 94 10000 4.03 275 14:58 16.07.2020
713 Rain 16 1018 93 10000 4.03 275 14:38 16.07.2020
714 Rain 16 1018 92 0 3.99 266 14:19 16.07.2020
715 Rain 16 1018 92 0 3.99 266 13:58 16.07.2020
716 Rain 16 1018 90 0 3.99 266 13:37 16.07.2020
717 Rain 15 1018 93 9000 2.1 270 13:19 16.07.2020
718 Rain 16 1061 76 0 1.34 76 12:42 16.07.2020
719 Rain 15 1061 75 0 0.89 30 12:21 16.07.2020
720 Rain 16 1061 77 0 0.45 13 11:57 16.07.2020
721 Rain 16 1018 90 0 3.19 268 11:36 16.07.2020
722 Rain 16 1018 90 0 3.25 269 11:18 16.07.2020
723 Rain 16 1018 91 0 3.25 269 11:18 16.07.2020
724 Rain 16 1018 93 0 3.25 269 10:55 16.07.2020
725 Rain 15 1018 94 0 2.97 268 10:36 16.07.2020
726 Rain 15 1018 95 0 2.97 268 10:18 16.07.2020
727 Rain 15 1018 96 0 2.97 268 09:41 16.07.2020
728 Rain 15 1018 96 0 1.64 244 09:22 16.07.2020
729 Rain 14 1018 96 0 1.64 244 08:43 16.07.2020
730 Rain 14 1018 96 0 2.13 251 08:25 16.07.2020
731 Rain 14 1018 96 0 2.13 251 07:48 16.07.2020
732 Rain 14 1018 96 0 2.45 252 07:27 16.07.2020
733 Rain 14 1018 96 0 2.45 252 06:59 16.07.2020
734 Rain 14 1018 96 0 2.45 252 06:40 16.07.2020
735 Clouds 14 1018 96 0 2.25 247 06:19 16.07.2020
736 Clouds 14 1018 96 0 2.28 249 05:38 16.07.2020
737 Clouds 13 1017 95 0 2.28 249 04:42 16.07.2020
738 Clouds 14 1018 95 0 2.35 248 03:52 16.07.2020
739 Clouds 14 1017 95 0 2.76 249 03:23 16.07.2020
740 Clouds 14 1018 95 0 2.73 249 02:34 16.07.2020
741 Clouds 14 1018 95 0 2.68 257 01:52 16.07.2020
742 Rain 14 1018 95 0 2.76 265 01:24 16.07.2020
743 Rain 15 1017 94 0 2.95 274 00:40 16.07.2020
744 Rain 15 1018 94 0 2.95 274 00:20 16.07.2020
745 Rain 14 1017 94 0 2.95 274 23:56 15.07.2020
746 Rain 15 1017 94 0 2.98 272 23:37 15.07.2020
747 Rain 15 1017 94 0 2.98 272 23:18 15.07.2020
748 Clouds 15 1017 93 0 2.98 272 22:39 15.07.2020
749 Clouds 15 1017 93 0 2.98 272 22:39 15.07.2020
750 Rain 15 1017 93 0 3.26 276 22:20 15.07.2020
751 Rain 15 1017 92 0 3.26 276 21:57 15.07.2020
752 Rain 15 1017 92 0 2.46 290 21:39 15.07.2020
753 Rain 15 1017 91 0 3.47 262 21:21 15.07.2020
754 Rain 15 1016 89 0 2.49 280 20:58 15.07.2020
755 Rain 15 1016 89 0 2.49 280 20:58 15.07.2020
756 Rain 15 1016 88 0 2.49 280 20:38 15.07.2020
757 Rain 15 1016 93 10000 2.6 210 20:20 15.07.2020
758 Rain 16 1015 87 10000 1.5 190 19:57 15.07.2020
759 Rain 15 1015 82 8000 4.1 270 19:39 15.07.2020
760 Rain 15 1015 82 8000 4.1 270 19:20 15.07.2020
761 Rain 15 1015 82 8000 4.1 270 19:20 15.07.2020
762 Clouds 17 1015 63 10000 2.6 300 18:57 15.07.2020
763 Rain 19 1059 40 0 2.04 273 18:37 15.07.2020
764 Clouds 19 1015 63 10000 2.6 300 18:19 15.07.2020
765 Clouds 19 1015 63 10000 3.1 330 17:54 15.07.2020
766 Rain 20 1015 67 0 2.04 273 17:36 15.07.2020
767 Rain 20 1015 66 0 2.78 280 17:18 15.07.2020
768 Rain 20 1015 66 0 3.16 304 16:41 15.07.2020
769 Rain 21 1015 68 0 3.16 304 16:22 15.07.2020
770 Rain 20 1015 70 0 3.16 304 15:57 15.07.2020
771 Rain 21 1015 69 0 3.08 301 15:39 15.07.2020
772 Rain 20 1015 70 0 3.08 301 15:21 15.07.2020
773 Rain 20 1015 70 0 5.08 264 14:43 15.07.2020
774 Rain 19 1015 73 0 5.08 264 14:21 15.07.2020
775 Rain 19 1015 75 0 5.08 264 13:59 15.07.2020
776 Rain 20 1015 74 0 5.08 264 13:41 15.07.2020
777 Rain 20 1015 67 0 4.23 258 13:21 15.07.2020
778 Clouds 20 1015 55 10000 3.6 290 12:42 15.07.2020
779 Rain 20 1014 61 0 2.35 257 12:22 15.07.2020
780 Rain 20 1013 62 0 2.35 257 11:59 15.07.2020
781 Clouds 19 1015 60 10000 2.1 0 11:40 15.07.2020
782 Clouds 19 1015 63 10000 1.5 190 11:20 15.07.2020
783 Rain 18 1013 65 0 1.99 288 10:56 15.07.2020
784 Rain 17 1015 85 0 3.15 309 10:38 15.07.2020
785 Rain 17 1015 85 0 3.15 309 10:20 15.07.2020
786 Rain 16 1015 84 0 3.15 309 09:43 15.07.2020
787 Rain 16 1015 83 0 2.69 286 09:25 15.07.2020
788 Clouds 15 1014 81 0 1.55 256 08:49 15.07.2020
789 Clouds 16 1014 81 0 2.01 241 08:28 15.07.2020
790 Clouds 15 1014 84 0 2.01 241 07:54 15.07.2020
791 Clouds 15 1014 77 10000 3.1 250 07:32 15.07.2020
792 Clouds 15 1013 86 0 2.04 221 06:48 15.07.2020
793 Clouds 14 1013 82 10000 2.1 200 06:26 15.07.2020
794 Clouds 14 1013 72 10000 0.5 0 05:51 15.07.2020
795 Clouds 13 1013 87 10000 3.6 220 04:42 15.07.2020
796 Clouds 15 1013 85 0 2.57 250 04:22 15.07.2020
797 Clouds 15 1014 82 10000 1 0 02:29 15.07.2020
798 Clouds 14 1014 67 10000 0.5 0 01:50 15.07.2020
799 Clouds 16 1014 63 10000 2.1 0 01:23 15.07.2020
800 Clouds 16 957 61 0 2.12 215 00:42 15.07.2020
801 Clouds 16 957 62 0 1.97 198 00:22 15.07.2020
802 Clouds 16 957 61 0 1.97 198 23:42 14.07.2020
803 Clouds 16 957 60 0 1.65 178 23:23 14.07.2020
804 Clouds 17 1014 66 0 1.46 160 22:40 14.07.2020
805 Clouds 16 1014 87 10000 1.5 160 22:19 14.07.2020
806 Clouds 17 1014 72 10000 0.5 120 21:56 14.07.2020
807 Clouds 17 1014 72 10000 0.5 120 21:56 14.07.2020
808 Clouds 18 1012 61 0 1.24 152 21:38 14.07.2020
809 Clouds 19 1012 56 0 1.4 116 21:19 14.07.2020
810 Clouds 21 1014 43 10000 2.1 40 20:57 14.07.2020
811 Clouds 21 1012 46 0 1.4 116 20:38 14.07.2020
812 Clouds 22 1014 49 0 1.85 75 20:19 14.07.2020
813 Clouds 23 1014 46 0 2.32 47 19:40 14.07.2020
814 Clouds 23 1014 45 0 2.32 47 19:22 14.07.2020
815 Clouds 23 1014 35 10000 4.1 310 18:56 14.07.2020
816 Clouds 23 1014 44 0 2.32 47 18:37 14.07.2020
817 Clouds 23 1014 47 0 2.54 30 18:19 14.07.2020
818 Clouds 23 1014 45 0 2.54 30 17:54 14.07.2020
819 Clouds 23 1015 35 10000 3.1 330 17:36 14.07.2020
820 Clouds 23 1015 33 10000 2.6 320 17:18 14.07.2020
821 Clouds 23 1015 38 10000 2.6 0 16:43 14.07.2020
822 Clouds 23 1015 37 10000 1.5 0 16:25 14.07.2020
823 Clouds 23 1015 35 10000 3.1 330 15:57 14.07.2020
824 Clouds 24 1015 48 0 2.71 21 15:38 14.07.2020
825 Clouds 24 1015 44 0 2.58 31 15:19 14.07.2020
826 Clouds 23 1015 43 0 2.58 31 14:45 14.07.2020
827 Clouds 24 1015 50 0 2.58 53 14:26 14.07.2020
828 Clouds 23 1015 50 0 2.87 50 13:55 14.07.2020
829 Clouds 23 1015 50 0 2.87 50 13:37 14.07.2020
830 Clouds 23 1015 50 0 2.89 56 13:19 14.07.2020
831 Clouds 21 1017 42 10000 1.5 0 12:39 14.07.2020
832 Clouds 21 1017 42 10000 1.5 0 12:21 14.07.2020
833 Clouds 21 1017 42 10000 1.5 0 11:55 14.07.2020
834 Clouds 20 1017 42 10000 1.5 0 11:37 14.07.2020
835 Clouds 22 1017 45 0 2.31 71 11:18 14.07.2020
836 Clouds 21 1017 52 0 2.37 68 10:42 14.07.2020
837 Clouds 20 1017 58 0 1.89 72 10:23 14.07.2020
838 Clouds 19 1017 75 0 1.89 72 09:42 14.07.2020
839 Clouds 15 1017 86 0 1.61 78 09:23 14.07.2020
840 Clouds 15 1018 92 0 1.32 77 08:58 14.07.2020
841 Clouds 14 1018 92 0 1.32 77 08:40 14.07.2020
842 Clouds 13 1018 93 0 0.81 94 08:22 14.07.2020
843 Clouds 13 1018 92 0 0.81 94 07:55 14.07.2020
844 Clouds 13 1018 91 0 0.79 146 07:36 14.07.2020
845 Clouds 13 1018 91 0 0.79 146 07:18 14.07.2020
846 Clouds 10 1018 89 0 0.98 163 06:27 14.07.2020
847 Clouds 10 1018 89 0 0.98 163 05:55 14.07.2020
848 Clouds 10 1018 88 0 1.07 151 04:55 14.07.2020
849 Clouds 10 1018 88 0 1.07 151 04:35 14.07.2020
850 Clouds 10 1019 86 0 1.36 134 03:34 14.07.2020
851 Clouds 13 1019 85 0 2.06 102 02:31 14.07.2020
852 Clouds 13 1018 74 0 2.29 101 01:52 14.07.2020
853 Clouds 13 1018 74 0 2.23 94 01:24 14.07.2020
854 Clouds 13 1020 93 10000 1 170 00:47 14.07.2020
855 Clouds 13 1020 87 10000 1 160 00:27 14.07.2020
856 Clouds 14 1020 87 10000 1 160 23:57 13.07.2020
857 Clouds 16 963 56 0 1.64 89 23:36 13.07.2020
858 Clouds 16 963 56 0 1.64 89 23:18 13.07.2020
859 Clouds 17 963 56 0 1.95 84 22:40 13.07.2020
860 Clouds 17 963 56 0 1.95 84 22:21 13.07.2020
861 Clouds 15 1020 59 10000 1.5 40 21:56 13.07.2020
862 Clouds 17 1020 59 10000 1.5 40 21:38 13.07.2020
863 Clouds 17 1020 55 10000 2.6 30 21:19 13.07.2020
864 Clouds 18 1020 52 10000 2.6 50 20:57 13.07.2020
865 Clouds 19 1020 52 10000 2.6 50 20:38 13.07.2020
866 Clouds 20 1020 46 0 2.36 74 20:20 13.07.2020
867 Clouds 20 1020 45 10000 2.6 60 19:45 13.07.2020
868 Clouds 21 1020 47 0 2.8 72 19:26 13.07.2020
869 Clouds 21 1020 46 0 2.8 72 18:59 13.07.2020
870 Clouds 21 1020 37 10000 4.1 40 18:40 13.07.2020
871 Clouds 22 1020 47 0 3.82 70 18:40 13.07.2020
872 Clouds 21 1020 40 10000 3.6 40 18:22 13.07.2020
873 Clouds 22 1020 40 10000 4.6 40 17:57 13.07.2020
874 Clouds 22 1020 40 10000 6.2 30 17:39 13.07.2020
875 Clouds 22 1020 40 10000 6.2 30 17:20 13.07.2020
876 Clouds 22 1021 40 10000 4.6 50 16:55 13.07.2020
877 Clouds 22 1021 37 10000 4.6 40 16:37 13.07.2020
878 Clouds 22 1021 37 10000 4.6 40 16:18 13.07.2020
879 Clouds 22 1021 37 10000 4.6 40 15:56 13.07.2020
880 Clouds 22 1021 37 10000 4.1 60 15:37 13.07.2020
881 Clouds 22 1021 37 10000 4.1 60 15:18 13.07.2020
882 Clouds 22 1021 37 10000 6.2 60 14:56 13.07.2020
883 Clouds 22 1021 37 10000 6.2 60 14:37 13.07.2020
884 Clouds 22 1022 37 10000 4.1 0 14:19 13.07.2020
885 Clouds 22 1022 40 10000 4.6 80 13:42 13.07.2020
886 Clouds 22 1022 37 10000 4.6 70 13:21 13.07.2020
887 Clouds 21 1023 39 10000 4.6 60 12:55 13.07.2020
888 Clouds 21 1023 39 10000 4.6 60 12:37 13.07.2020
889 Clouds 20 1023 39 10000 5.7 60 12:18 13.07.2020
890 Clouds 20 1023 42 10000 6.2 90 11:41 13.07.2020
891 Clouds 20 1023 51 0 0.89 240 11:23 13.07.2020
892 Clouds 19 1023 55 0 0.45 192 10:45 13.07.2020
893 Clouds 20 1023 55 0 4.54 85 10:21 13.07.2020
894 Clouds 18 1023 66 0 4.54 85 09:59 13.07.2020
895 Clouds 16 1023 67 10000 3.6 80 09:40 13.07.2020
896 Clouds 15 1023 72 10000 3.6 80 09:21 13.07.2020
897 Clouds 14 1024 92 0 3.12 81 08:49 13.07.2020
898 Clouds 13 1023 94 0 2.57 85 08:30 13.07.2020
899 Clouds 12 1023 93 0 2.1 86 07:31 13.07.2020
900 Clouds 11 1023 91 0 2.1 86 06:54 13.07.2020
901 Clouds 9 1023 90 0 2.16 90 06:36 13.07.2020
902 Clouds 10 1023 89 0 2.16 90 05:52 13.07.2020
903 Clouds 10 1024 88 0 2.29 96 04:30 13.07.2020
904 Clear 12 1024 83 0 2.38 93 01:49 13.07.2020
905 Clear 12 1025 81 0 2.29 98 01:25 13.07.2020
906 Clear 13 1069 56 0 2.29 98 00:46 13.07.2020
907 Clear 12 1069 56 0 2.41 96 00:25 13.07.2020
908 Clear 12 1069 55 0 2.41 96 23:57 12.07.2020
909 Clear 13 1069 55 0 2.62 90 23:39 12.07.2020
910 Clear 13 1070 56 0 2.62 90 23:20 12.07.2020
911 Clear 15 1070 53 0 2.62 90 22:38 12.07.2020
912 Clear 15 1069 51 0 2.57 82 22:20 12.07.2020
913 Clear 15 1069 51 0 2.57 82 22:20 12.07.2020
914 Clear 17 1024 62 0 2.57 82 21:57 12.07.2020
915 Clear 18 1025 60 0 2.51 69 21:39 12.07.2020
916 Clear 18 1025 59 0 2.51 69 21:20 12.07.2020
917 Clear 19 1028 49 0 2.51 69 20:58 12.07.2020
918 Clear 20 1025 55 0 2.51 69 20:39 12.07.2020
919 Clear 20 1025 53 0 2.69 64 20:19 12.07.2020
920 Clear 20 1025 50 0 2.69 64 19:55 12.07.2020
921 Clear 20 1025 50 0 2.69 64 19:36 12.07.2020
922 Clear 21 1025 50 0 3.34 59 19:18 12.07.2020
923 Clear 21 1025 50 0 3.34 59 18:42 12.07.2020
924 Clear 21 1025 49 0 3.69 57 18:19 12.07.2020
925 Clear 21 1025 48 0 3.69 57 17:58 12.07.2020
926 Clouds 21 1025 48 0 3.71 54 17:37 12.07.2020
927 Clouds 22 1025 48 0 3.71 54 17:19 12.07.2020
928 Clouds 21 1025 49 0 3.71 54 16:44 12.07.2020
929 Clear 21 1025 42 10000 4.1 50 16:20 12.07.2020
930 Clear 21 1025 42 10000 4.6 50 15:43 12.07.2020
931 Clear 21 1026 45 10000 3.1 80 15:25 12.07.2020
932 Clear 21 1026 48 10000 4.1 60 14:56 12.07.2020
933 Clear 21 1026 54 0 3.53 49 14:37 12.07.2020
934 Clear 20 1026 45 10000 3.6 60 14:18 12.07.2020
935 Clear 21 1026 52 0 3.39 51 13:39 12.07.2020
936 Clear 21 1026 64 0 3.35 53 13:20 12.07.2020
937 Clear 21 1026 68 0 3.35 53 12:54 12.07.2020
938 Clear 19 1026 59 10000 4.1 60 12:36 12.07.2020
939 Clear 20 1026 73 0 3.29 54 12:18 12.07.2020
940 Clear 19 1026 69 0 3.29 54 12:18 12.07.2020
941 Clear 19 1026 75 0 3.29 54 11:43 12.07.2020
942 Clear 19 1026 71 0 2.8 56 11:20 12.07.2020
943 Clear 19 1026 72 0 2.8 56 10:42 12.07.2020
944 Clear 18 1026 79 0 2.17 62 10:23 12.07.2020
945 Clear 18 1026 83 0 2.17 62 09:58 12.07.2020
946 Clear 16 1026 93 0 2.17 62 09:40 12.07.2020
947 Clear 15 1026 95 0 1.36 69 09:20 12.07.2020
948 Clear 14 1026 96 0 1.36 69 08:54 12.07.2020
949 Clear 13 1026 96 0 0.95 76 08:36 12.07.2020
950 Clear 13 1026 96 0 0.95 76 08:18 12.07.2020
951 Clear 12 1025 95 0 0.95 76 07:42 12.07.2020
952 Clear 11 1025 95 0 0.58 59 07:21 12.07.2020
953 Clear 11 1025 94 0 0.58 59 06:51 12.07.2020
954 Clear 11 1025 93 0 0.45 16 06:21 12.07.2020
955 Clear 11 1024 93 0 0.45 16 05:33 12.07.2020
956 Clear 11 1024 93 0 0.4 334 04:56 12.07.2020
957 Clear 12 1024 92 0 0.5 315 04:26 12.07.2020
958 Clear 12 1024 91 0 0.58 305 03:34 12.07.2020
959 Clear 12 1024 91 0 0.58 305 02:55 12.07.2020
960 Clouds 12 1024 94 0 0.63 332 01:46 12.07.2020
961 Clouds 13 1024 93 0 0.77 324 00:54 12.07.2020
962 Clouds 14 1025 87 0 0.9 328 00:23 12.07.2020
963 Clouds 14 1025 87 0 0.9 328 23:58 11.07.2020
964 Clouds 14 1025 87 0 0.89 347 23:39 11.07.2020
965 Clouds 14 1025 88 0 0.89 347 23:20 11.07.2020
966 Clouds 15 1024 88 0 0.89 347 22:56 11.07.2020
967 Clouds 15 1024 87 0 1.1 7 22:37 11.07.2020
968 Clouds 14 1024 93 10000 1.5 220 22:18 11.07.2020
969 Clouds 17 966 62 0 1.1 7 21:42 11.07.2020
970 Rain 16 1024 84 0 1.46 319 21:23 11.07.2020
971 Rain 17 1024 83 0 1.46 319 20:59 11.07.2020
972 Rain 17 1024 83 0 0.45 180 20:40 11.07.2020
973 Rain 17 1024 83 0 1.33 315 20:21 11.07.2020
974 Rain 19 1023 82 0 1.33 315 19:59 11.07.2020
975 Rain 19 1023 82 0 1.33 315 19:40 11.07.2020
976 Rain 19 965 49 0 0.79 305 19:22 11.07.2020
977 Rain 19 1023 83 0 0.79 305 18:56 11.07.2020
978 Rain 19 965 56 0 0.46 140 18:38 11.07.2020
979 Rain 19 965 57 0 0.46 140 18:19 11.07.2020
980 Rain 18 1023 93 0 0.46 140 17:55 11.07.2020
981 Rain 18 1023 95 0 0.46 140 17:37 11.07.2020
982 Rain 18 1023 96 0 1.14 108 17:19 11.07.2020
983 Rain 18 1023 97 0 1.14 108 16:43 11.07.2020
984 Rain 18 1023 97 0 1.3 75 16:24 11.07.2020
985 Rain 18 1023 98 0 1.3 75 15:58 11.07.2020
986 Rain 16 1023 98 0 1.3 75 15:40 11.07.2020
987 Clouds 16 1023 98 0 2 61 15:20 11.07.2020
988 Clouds 16 1023 98 0 2 61 14:57 11.07.2020
989 Clouds 16 1023 97 0 2 61 14:37 11.07.2020
990 Rain 16 1023 97 0 1.83 41 14:19 11.07.2020
991 Rain 16 1022 97 0 1.83 41 13:42 11.07.2020
992 Rain 15 1022 97 0 1.86 30 13:22 11.07.2020
993 Rain 16 1022 97 0 1.86 30 12:58 11.07.2020
994 Rain 16 1022 98 0 1.09 342 12:40 11.07.2020
995 Rain 16 1022 97 0 1.09 342 12:20 11.07.2020
996 Rain 16 965 76 0 1.09 342 11:56 11.07.2020
997 Rain 15 1022 97 0 1.09 342 11:38 11.07.2020
998 Rain 15 1022 97 0 1.89 265 11:18 11.07.2020
999 Rain 15 964 78 0 1.89 265 10:41 11.07.2020
1000 Rain 15 1021 97 0 2.13 261 10:23 11.07.2020
1001 Rain 16 964 79 0 2.13 261 09:45 11.07.2020
1002 Rain 15 1020 97 0 1.43 233 09:21 11.07.2020
1003 Rain 15 1020 97 0 1.43 233 08:59 11.07.2020
1004 Rain 15 1020 97 0 1.42 299 08:37 11.07.2020
1005 Rain 15 1020 97 0 1.42 299 08:18 11.07.2020
1006 Rain 15 1020 97 0 1.42 299 07:41 11.07.2020
1007 Rain 15 1020 97 0 3.41 318 07:20 11.07.2020
1008 Rain 15 1020 96 0 3.41 318 06:55 11.07.2020
1009 Rain 15 1019 96 0 2.8 326 06:22 11.07.2020
1010 Rain 15 1019 96 0 2.43 338 05:22 11.07.2020
1011 Rain 15 1019 96 0 2.43 338 04:55 11.07.2020
1012 Rain 15 1019 96 0 1.71 326 04:32 11.07.2020
1013 Rain 15 1019 96 0 0.77 295 03:24 11.07.2020
1014 Rain 16 1019 96 0 2.41 282 02:40 11.07.2020
1015 Rain 16 1018 95 0 2.12 266 01:49 11.07.2020
1016 Rain 17 1018 95 0 1.31 232 01:18 11.07.2020
1017 Rain 17 1019 95 0 1.31 232 00:41 11.07.2020
1018 Rain 18 1019 95 0 1.37 216 00:22 11.07.2020
1019 Rain 18 1018 95 0 1.37 216 23:58 10.07.2020
1020 Rain 18 1018 95 0 1.37 216 23:40 10.07.2020
1021 Rain 18 1018 95 0 0.14 154 23:20 10.07.2020
1022 Rain 18 1018 95 0 0.14 154 22:46 10.07.2020
1023 Rain 18 1018 94 0 0.41 194 22:22 10.07.2020
1024 Rain 18 1018 94 0 0.41 194 21:59 10.07.2020
1025 Rain 19 1017 93 0 0.53 285 21:38 10.07.2020
1026 Rain 19 1017 93 0 1.83 286 21:19 10.07.2020
1027 Rain 19 1018 92 0 1.83 286 20:43 10.07.2020
1028 Rain 19 1017 90 0 3.33 304 20:24 10.07.2020
1029 Rain 20 1016 85 0 3.33 304 19:59 10.07.2020
1030 Rain 21 1016 79 0 0.89 222 19:41 10.07.2020
1031 Rain 23 958 65 0 4.2 312 19:21 10.07.2020
1032 Clouds 25 1014 53 10000 6.2 220 18:55 10.07.2020
1033 Rain 27 1014 47 10000 5.7 220 18:37 10.07.2020
1034 Rain 27 1014 47 10000 5.7 220 18:18 10.07.2020
1035 Rain 28 1013 44 10000 6.7 260 17:42 10.07.2020
1036 Rain 29 1013 45 10000 6.7 250 17:23 10.07.2020
1037 Rain 29 1013 39 10000 8.7 240 16:57 10.07.2020
1038 Rain 30 1014 42 10000 8.7 240 16:39 10.07.2020
1039 Rain 30 1014 42 10000 8.7 240 16:18 10.07.2020
1040 Rain 30 1014 45 10000 5.7 240 15:44 10.07.2020
1041 Clouds 29 1013 45 0 0.45 219 15:21 10.07.2020
1042 Clouds 30 1014 39 10000 5.7 260 14:54 10.07.2020
1043 Clear 30 1014 42 10000 5.1 260 14:36 10.07.2020
1044 Clear 29 1014 42 10000 5.1 260 14:18 10.07.2020
1045 Clear 29 1014 42 10000 6.2 250 13:55 10.07.2020
1046 Clear 29 1014 42 10000 6.2 250 13:36 10.07.2020
1047 Clear 30 1014 39 10000 6.2 260 13:18 10.07.2020
1048 Clear 29 1014 37 10000 5.7 280 12:42 10.07.2020
1049 Clear 29 1014 37 10000 5.7 270 12:24 10.07.2020
1050 Clear 29 1009 38 0 2.68 184 11:58 10.07.2020
1051 Clear 29 1014 44 10000 3.6 250 11:38 10.07.2020
1052 Clear 29 1014 42 10000 4.1 220 11:18 10.07.2020
1053 Clear 29 956 28 0 4.41 280 10:54 10.07.2020
1054 Clear 28 956 28 0 4.41 280 10:36 10.07.2020
1055 Clear 28 1014 42 0 0.45 192 10:18 10.07.2020
1056 Clear 25 1014 56 0 3.64 260 09:37 10.07.2020
1057 Clear 22 1014 68 0 3.11 236 09:19 10.07.2020
1058 Clear 22 1014 71 0 0.45 181 08:56 10.07.2020
1059 Clear 21 1014 76 0 3.11 236 08:38 10.07.2020
1060 Clouds 20 1014 79 0 2.78 209 08:20 10.07.2020
1061 Clouds 18 1015 84 0 2.78 203 07:42 10.07.2020
1062 Clouds 18 1015 84 0 2.78 203 07:22 10.07.2020
1063 Clouds 17 1015 84 0 2.78 203 06:49 10.07.2020
1064 Clouds 16 1015 83 0 2.58 202 05:58 10.07.2020
1065 Clear 16 1015 82 0 2.52 200 04:43 10.07.2020
1066 Clear 17 1015 78 0 2.67 201 03:38 10.07.2020
1067 Clear 17 1016 75 0 2.64 206 02:52 10.07.2020
1068 Clear 17 1016 72 0 2.12 204 01:50 10.07.2020
1069 Clear 18 1016 68 0 1.91 205 00:49 10.07.2020
1070 Clear 18 1016 65 0 1.88 203 00:21 10.07.2020
1071 Clear 19 1016 64 0 1.88 203 23:55 09.07.2020
1072 Clear 19 1016 62 0 1.65 198 23:36 09.07.2020
1073 Clear 19 1016 62 0 1.65 198 23:18 09.07.2020
1074 Clear 20 1012 64 0 0.45 190 22:55 09.07.2020
1075 Clear 21 1016 61 0 1.65 198 22:37 09.07.2020
1076 Clear 22 1016 61 0 1.2 204 22:18 09.07.2020
1077 Clear 24 958 36 0 1.29 187 21:39 09.07.2020
1078 Clear 24 1016 51 0 0.72 230 21:19 09.07.2020
1079 Clear 24 1016 51 0 0.72 230 21:19 09.07.2020
1080 Clear 25 958 40 0 0.87 190 20:59 09.07.2020
1081 Clouds 26 1015 45 0 0.99 258 20:39 09.07.2020
1082 Clouds 26 1016 45 0 0.99 258 20:21 09.07.2020
1083 Clouds 27 1016 41 0 0.99 258 19:43 09.07.2020
1084 Clouds 28 1016 40 0 0.45 175 19:22 09.07.2020
1085 Clouds 28 1016 40 0 0.45 175 19:22 09.07.2020
1086 Clouds 26 1016 40 0 1.95 272 18:57 09.07.2020
1087 Clouds 28 1016 40 0 0.45 205 18:39 09.07.2020
1088 Clouds 28 1016 34 10000 6.2 250 18:19 09.07.2020
1089 Clouds 28 1016 42 0 2.44 276 17:43 09.07.2020
1090 Clouds 28 1016 40 0 0.45 199 17:23 09.07.2020
1091 Clouds 28 1016 45 0 1.96 280 16:58 09.07.2020
1092 Clouds 27 1017 45 0 0.45 180 16:38 09.07.2020
1093 Clouds 27 1017 44 0 1.1 278 16:19 09.07.2020
1094 Clouds 27 1017 48 0 1.1 278 15:58 09.07.2020
1095 Clouds 26 1018 38 10000 4.1 240 15:38 09.07.2020
1096 Clouds 26 1018 38 10000 4.1 240 15:19 09.07.2020
1097 Clouds 26 1018 38 10000 4.6 240 14:58 09.07.2020
1098 Clouds 27 1018 47 0 0.45 188 14:39 09.07.2020
1099 Clouds 27 1018 48 0 0.67 298 14:20 09.07.2020
1100 Clouds 26 1018 46 0 0.45 180 13:56 09.07.2020
1101 Clouds 27 1018 48 0 0.45 196 13:56 09.07.2020
1102 Clouds 26 961 39 0 2.79 274 13:38 09.07.2020
1103 Clouds 26 961 42 0 2.43 266 13:19 09.07.2020
1104 Clouds 24 961 49 0 1.94 255 12:42 09.07.2020
1105 Clouds 24 1019 49 0 1.94 255 12:23 09.07.2020
1106 Clouds 24 1019 46 0 0.45 327 11:58 09.07.2020
1107 Clouds 24 1019 49 0 0.45 346 11:40 09.07.2020
1108 Clouds 24 961 45 0 1.4 255 11:21 09.07.2020
1109 Clouds 24 1019 52 0 1.4 255 10:57 09.07.2020
1110 Clouds 24 962 44 0 1.49 259 10:38 09.07.2020
1111 Clouds 23 962 44 0 1.49 259 10:20 09.07.2020
1112 Clouds 21 1020 58 0 0.45 205 09:43 09.07.2020
1113 Clear 19 1019 60 10000 4.1 220 09:23 09.07.2020
1114 Clear 19 1019 69 0 2 247 08:54 09.07.2020
1115 Clouds 18 1019 72 0 2.09 237 08:36 09.07.2020
1116 Clouds 17 1058 83 0 0.45 285 08:18 09.07.2020
1117 Clouds 16 962 67 0 2.09 237 07:42 09.07.2020
1118 Clouds 16 962 67 0 2.09 227 07:21 09.07.2020
1119 Clouds 15 962 73 0 2.09 227 06:40 09.07.2020
1120 Clouds 14 962 73 0 2.26 215 06:19 09.07.2020
1121 Clouds 15 1018 81 0 1.97 219 04:29 09.07.2020
1122 Clouds 16 1019 79 0 1.74 208 03:24 09.07.2020
1123 Clouds 16 1019 76 0 1.66 219 02:18 09.07.2020
1124 Clouds 17 1019 74 0 1.42 230 01:23 09.07.2020
1125 Clouds 17 962 62 0 1.42 230 00:46 09.07.2020
1126 Clouds 18 962 61 0 1.01 245 00:23 09.07.2020
1127 Clouds 18 1019 69 0 1.01 245 23:46 08.07.2020
1128 Clouds 19 1019 68 0 1.3 298 23:27 08.07.2020
1129 Clouds 19 1019 67 0 1.3 298 22:57 08.07.2020
1130 Clouds 19 962 55 0 1.3 298 22:38 08.07.2020
1131 Clouds 20 1019 64 0 2.6 308 22:20 08.07.2020
1132 Clouds 20 961 53 0 2.6 308 21:58 08.07.2020
1133 Clouds 20 1019 60 10000 3.6 340 21:38 08.07.2020
1134 Clouds 21 961 50 0 2.39 306 21:20 08.07.2020
1135 Clouds 22 960 43 0 2.39 306 20:54 08.07.2020
1136 Clouds 23 1018 54 0 2.87 301 20:36 08.07.2020
1137 Clouds 23 1018 53 0 2.87 301 20:18 08.07.2020
1138 Clouds 23 1018 50 0 2.87 301 19:42 08.07.2020
1139 Clouds 24 1017 49 0 0.45 232 19:22 08.07.2020
1140 Clouds 24 960 40 0 3.18 287 18:57 08.07.2020
1141 Clouds 24 1017 40 10000 4.6 260 18:39 08.07.2020
1142 Clouds 24 1017 40 10000 4.6 260 18:19 08.07.2020
1143 Clouds 24 1017 40 10000 4.6 260 18:19 08.07.2020
1144 Clouds 25 1018 38 10000 6.2 270 17:55 08.07.2020
1145 Clouds 25 1018 38 10000 6.2 270 17:37 08.07.2020
1146 Clouds 25 1017 41 10000 5.7 260 17:19 08.07.2020
1147 Clouds 25 1017 38 10000 5.7 270 16:40 08.07.2020
1148 Clouds 25 1017 40 10000 5.7 280 16:22 08.07.2020
1149 Clouds 25 1017 40 10000 5.7 260 15:59 08.07.2020
1150 Clouds 25 1017 40 10000 5.7 260 15:41 08.07.2020
1151 Clouds 25 1017 42 0 0.45 276 15:20 08.07.2020
1152 Clouds 25 1017 38 10000 5.7 250 14:58 08.07.2020
1153 Clear 25 1017 38 10000 5.7 250 14:40 08.07.2020
1154 Clear 24 1018 38 10000 5.1 250 14:19 08.07.2020
1155 Clear 25 1017 42 0 0.89 230 13:44 08.07.2020
1156 Clear 24 1018 39 0 0.45 315 13:23 08.07.2020
1157 Clear 23 1018 46 0 0.45 242 12:46 08.07.2020
1158 Clouds 22 1015 45 0 1.79 340 12:22 08.07.2020
1159 Clouds 22 960 40 0 3.65 280 11:59 08.07.2020
1160 Clouds 22 961 41 0 3.65 280 11:38 08.07.2020
1161 Clouds 21 961 43 0 3.42 283 11:20 08.07.2020
1162 Clouds 21 1018 50 0 0.45 271 10:54 08.07.2020
1163 Clouds 21 1018 53 0 0.45 321 10:36 08.07.2020
1164 Clouds 21 1018 53 0 0.45 321 10:36 08.07.2020
1165 Clouds 20 1018 52 0 0.45 181 10:18 08.07.2020
1166 Clouds 19 1019 55 10000 3.6 240 09:41 08.07.2020
1167 Clouds 17 1019 63 10000 2.6 200 09:21 08.07.2020
1168 Clouds 16 1019 77 0 2.95 257 08:43 08.07.2020
1169 Clear 15 1018 81 0 2.57 236 08:24 08.07.2020
1170 Clear 14 961 58 0 2.57 236 07:47 08.07.2020
1171 Clear 13 1019 90 0 2.03 228 07:24 08.07.2020
1172 Clear 12 1018 89 0 2.03 228 06:55 08.07.2020
1173 Clear 10 1018 88 0 2.03 228 06:36 08.07.2020
1174 Clear 10 1018 86 0 1.68 230 05:55 08.07.2020
1175 Clear 10 1018 86 0 1.68 230 05:33 08.07.2020
1176 Clear 10 1018 85 0 1.68 225 04:37 08.07.2020
1177 Clear 10 1019 83 0 1.95 210 02:49 08.07.2020
1178 Clear 11 1019 81 0 1.98 196 01:54 08.07.2020
1179 Clear 12 1019 81 0 1.98 196 01:32 08.07.2020
1180 Clear 13 1019 79 0 1.1 181 00:37 08.07.2020
1181 Clear 13 1019 78 0 1.1 181 00:18 08.07.2020
1182 Clear 14 962 61 0 1.1 181 23:41 07.07.2020
1183 Clear 14 1019 73 0 1.15 157 23:20 07.07.2020
1184 Clear 15 962 56 0 1.15 157 22:54 07.07.2020
1185 Clear 15 962 56 0 1.15 157 22:36 07.07.2020
1186 Clear 16 962 55 0 1.01 118 22:18 07.07.2020
1187 Clear 17 961 47 0 0.44 98 21:41 07.07.2020
1188 Clear 18 1019 56 0 0.88 60 21:22 07.07.2020
1189 Clear 18 1019 53 0 0.88 60 20:59 07.07.2020
1190 Clear 19 1019 53 0 0.88 60 20:41 07.07.2020
1191 Clear 19 961 41 0 1.49 44 20:23 07.07.2020
1192 Clear 20 1019 50 0 1.49 44 19:55 07.07.2020
1193 Clear 20 1019 51 0 2.35 29 19:36 07.07.2020
1194 Clear 20 1019 49 0 2.35 29 19:18 07.07.2020
1195 Clear 20 1019 50 0 2.35 29 18:55 07.07.2020
1196 Clear 21 1019 50 0 2.35 29 18:36 07.07.2020
1197 Clear 21 1019 51 0 2.86 21 18:18 07.07.2020
1198 Clear 21 1019 48 0 2.86 21 17:43 07.07.2020
1199 Clear 21 1019 47 0 3.08 21 17:23 07.07.2020
1200 Clear 21 1019 48 0 3.08 21 16:58 07.07.2020
1201 Clear 21 1019 48 0 3.08 21 16:58 07.07.2020
1202 Clear 21 1020 48 0 3.08 21 16:40 07.07.2020
1203 Clear 21 1020 50 0 3.09 21 16:21 07.07.2020
1204 Clear 21 1020 46 0 3.09 21 15:55 07.07.2020
1205 Clear 21 1020 43 0 2.74 22 15:36 07.07.2020
1206 Clear 21 1020 47 0 2.74 22 15:18 07.07.2020
1207 Clear 21 1020 43 0 2.74 22 14:42 07.07.2020
1208 Clear 20 1020 50 0 2.22 23 14:23 07.07.2020
1209 Clear 20 1021 44 0 2.43 28 13:43 07.07.2020
1210 Clear 20 1021 47 0 0.45 290 13:20 07.07.2020
1211 Clear 20 1021 47 0 2.12 28 12:56 07.07.2020
1212 Clear 19 1021 48 0 1.94 20 12:36 07.07.2020
1213 Clear 19 1021 48 0 2.12 28 12:36 07.07.2020
1214 Clear 19 1021 46 0 1.94 20 12:18 07.07.2020
1215 Clear 18 964 44 0 1.94 20 11:43 07.07.2020
1216 Clear 18 1021 53 0 1.2 26 11:22 07.07.2020
1217 Clear 17 964 44 0 1.2 26 10:58 07.07.2020
1218 Clear 17 1022 53 0 1.2 26 10:39 07.07.2020
1219 Clear 17 1022 53 0 0.53 59 10:20 07.07.2020
1220 Clear 15 965 47 0 0.53 59 09:42 07.07.2020
1221 Clear 15 1022 67 0 0.24 330 09:21 07.07.2020
1222 Clear 14 1022 73 0 0.24 330 08:57 07.07.2020
1223 Clear 14 1022 75 0 0.24 330 08:39 07.07.2020
1224 Clouds 13 1022 80 0 0.7 269 08:19 07.07.2020
1225 Clouds 12 1023 86 0 0.7 269 07:38 07.07.2020
1226 Clouds 11 1023 87 0 1.03 251 07:19 07.07.2020
1227 Clouds 10 1023 87 0 1.03 251 06:45 07.07.2020
1228 Clouds 10 1023 86 0 1.28 258 06:26 07.07.2020
1229 Clouds 10 1022 85 0 1.28 258 05:43 07.07.2020
1230 Clouds 9 1022 82 0 1.65 273 04:53 07.07.2020
1231 Clouds 10 1022 78 0 1.88 274 03:49 07.07.2020
1232 Clouds 10 1022 76 0 2.11 268 03:30 07.07.2020
1233 Clouds 10 1022 76 0 2.11 268 03:30 07.07.2020
1234 Clouds 11 1022 70 0 2.88 260 01:55 07.07.2020
1235 Clouds 12 1022 67 0 2.96 263 01:18 07.07.2020
1236 Clouds 13 1022 63 0 2.96 263 00:41 07.07.2020
1237 Clouds 13 1022 62 0 2.98 271 00:21 07.07.2020
1238 Clouds 14 1022 60 0 2.98 271 23:44 06.07.2020
1239 Clouds 14 1018 57 0 0.89 236 23:25 06.07.2020
1240 Clouds 14 1065 62 0 3.33 287 22:59 06.07.2020
1241 Clouds 14 1065 60 0 0.89 111 22:39 06.07.2020
1242 Clouds 15 1021 55 0 3.19 293 22:19 06.07.2020
1243 Clouds 15 1021 55 0 3.19 293 22:19 06.07.2020
1244 Clouds 15 1021 54 0 0.45 342 21:57 06.07.2020
1245 Clouds 16 1020 54 0 3.65 308 21:37 06.07.2020
1246 Clouds 16 1020 53 0 0.45 350 21:19 06.07.2020
1247 Clouds 16 1020 53 0 0.45 338 20:55 06.07.2020
1248 Clouds 17 1019 55 0 0.45 190 20:36 06.07.2020
1249 Clouds 18 961 37 0 4.02 313 20:18 06.07.2020
1250 Clouds 18 1019 52 0 0.89 227 19:54 06.07.2020
1251 Clouds 19 960 36 0 4.25 298 19:36 06.07.2020
1252 Clouds 20 960 36 0 4.25 298 19:18 06.07.2020
1253 Clouds 20 1017 63 10000 3.6 270 18:41 06.07.2020
1254 Clouds 18 1017 63 10000 3.6 270 18:23 06.07.2020
1255 Clouds 20 1017 59 10000 5.1 240 17:58 06.07.2020
1256 Clouds 20 1017 59 10000 5.1 240 17:40 06.07.2020
1257 Clouds 19 1017 63 10000 5.7 240 17:20 06.07.2020
1258 Rain 17 1017 63 10000 4.6 240 16:43 06.07.2020
1259 Clouds 19 1017 63 10000 3.6 250 16:25 06.07.2020
1260 Clouds 18 1062 52 0 2.68 34 15:59 06.07.2020
1261 Clouds 16 1017 59 10000 4.1 260 15:41 06.07.2020
1262 Clouds 16 1017 64 0 0.45 227 15:23 06.07.2020
1263 Clouds 16 1017 61 0 2.77 239 14:55 06.07.2020
1264 Clouds 16 1059 56 0 4.47 75 14:37 06.07.2020
1265 Rain 16 1059 49 0 4.02 116 14:19 06.07.2020
1266 Clouds 17 1017 59 10000 6.2 300 13:46 06.07.2020
1267 Rain 17 1059 43 0 2.68 62 13:27 06.07.2020
1268 Rain 18 1060 40 0 3.13 0 12:57 06.07.2020
1269 Rain 18 1059 45 0 2.68 27 12:39 06.07.2020
1270 Rain 18 1059 42 0 2.68 37 12:18 06.07.2020
1271 Rain 18 1059 43 0 4.02 61 11:57 06.07.2020
1272 Rain 18 959 59 0 3.76 294 11:37 06.07.2020
1273 Rain 19 1016 79 0 0.45 314 11:19 06.07.2020
1274 Rain 20 1016 74 0 0.45 117 10:42 06.07.2020
1275 Rain 21 1015 69 0 0.89 148 10:22 06.07.2020
1276 Rain 20 958 56 0 6.63 309 09:58 06.07.2020
1277 Clouds 22 1015 60 10000 6.7 260 09:39 06.07.2020
1278 Clouds 22 1015 60 10000 6.7 260 09:21 06.07.2020
1279 Rain 22 1015 60 10000 5.7 250 08:55 06.07.2020
1280 Clouds 21 1014 73 0 0.45 322 08:36 06.07.2020
1281 Clouds 21 1014 74 0 0.45 186 08:18 06.07.2020
1282 Clouds 20 1014 78 0 0.45 201 07:43 06.07.2020
1283 Rain 20 1014 81 0 0.45 195 07:23 06.07.2020
1284 Clear 18 1015 82 0 3.16 248 06:39 06.07.2020
1285 Clear 18 1015 82 0 3.16 248 06:21 06.07.2020
1286 Clear 17 1015 81 0 3.16 248 05:38 06.07.2020
1287 Clear 17 1015 83 0 3.29 246 04:54 06.07.2020
1288 Clear 18 1016 80 0 3.44 240 03:42 06.07.2020
1289 Clear 19 1016 79 0 3.52 251 02:23 06.07.2020
1290 Clouds 19 1016 78 0 3.13 256 01:39 06.07.2020
1291 Clouds 20 1016 80 0 3.13 256 00:39 06.07.2020
1292 Clouds 21 1016 79 0 2.79 249 00:20 06.07.2020
1293 Clouds 20 1016 76 0 2.79 249 23:44 05.07.2020
1294 Clouds 21 1016 74 0 2.65 260 23:25 05.07.2020
1295 Clouds 21 1016 72 0 2.65 260 22:59 05.07.2020
1296 Clouds 22 959 51 0 2.65 260 22:40 05.07.2020
1297 Clouds 22 1016 69 0 2.85 271 22:20 05.07.2020
1298 Clouds 23 959 50 0 2.85 271 21:58 05.07.2020
1299 Clouds 23 1016 66 0 2.65 276 21:40 05.07.2020
1300 Clouds 23 1016 65 0 2.76 287 21:18 05.07.2020
1301 Clouds 23 1056 53 0 2.24 13 20:58 05.07.2020
1302 Clouds 24 1056 53 0 2.24 292 20:39 05.07.2020
1303 Rain 25 1016 60 0 2.9 290 20:20 05.07.2020
1304 Rain 26 1016 61 0 2.9 290 20:20 05.07.2020
1305 Rain 25 1017 53 10000 5.1 260 19:55 05.07.2020
1306 Clouds 26 1017 50 10000 5.1 250 19:36 05.07.2020
1307 Rain 27 1016 57 0 3.49 286 19:18 05.07.2020
1308 Clouds 26 1017 50 10000 5.7 240 18:41 05.07.2020
1309 Clear 28 1017 55 0 0.45 9 18:21 05.07.2020
1310 Clear 28 1017 57 0 4.12 282 17:56 05.07.2020
1311 Clouds 27 1017 50 10000 5.7 270 17:38 05.07.2020
1312 Clear 28 1017 56 0 4.23 282 17:19 05.07.2020
1313 Clear 27 1017 55 0 0.45 348 16:44 05.07.2020
1314 Clear 27 1017 56 0 0.45 267 16:25 05.07.2020
1315 Clear 27 1018 53 0 1.34 223 15:58 05.07.2020
1316 Clear 27 1018 54 0 0.89 182 15:37 05.07.2020
1317 Clear 27 1018 56 0 0.89 247 15:19 05.07.2020
1318 Clear 27 1018 52 0 0.89 280 14:42 05.07.2020
1319 Rain 27 1019 50 0 0.89 286 14:23 05.07.2020
1320 Rain 26 1019 52 0 0.45 336 13:54 05.07.2020
1321 Rain 26 1019 51 0 0.45 311 13:36 05.07.2020
1322 Clouds 26 961 40 0 4.22 269 13:18 05.07.2020
1323 Clouds 24 1020 50 10000 6.2 250 12:38 05.07.2020
1324 Clouds 23 1020 50 10000 6.2 250 12:20 05.07.2020
1325 Clouds 23 962 43 0 3.86 265 11:55 05.07.2020
1326 Clouds 23 1020 57 0 0.45 202 11:36 05.07.2020
1327 Clouds 24 1018 57 0 4.28 264 11:18 05.07.2020
1328 Clouds 22 632 95 0 4.28 264 10:42 05.07.2020
1329 Clouds 22 1020 60 0 0.89 195 10:20 05.07.2020
1330 Clouds 22 1020 63 0 0.45 273 09:59 05.07.2020
1331 Clouds 22 1020 63 0 0.45 263 09:41 05.07.2020
1332 Clear 20 1020 60 10000 5.1 220 09:20 05.07.2020
1333 Clear 20 1020 72 0 0.45 198 08:53 05.07.2020
1334 Clear 19 1020 75 0 0.45 205 08:34 05.07.2020
1335 Clouds 17 1020 82 0 3.69 242 07:51 05.07.2020
1336 Clouds 17 1020 84 0 3.12 233 07:30 05.07.2020
1337 Clouds 16 1020 85 0 3.12 233 06:54 05.07.2020
1338 Clear 14 1020 84 0 2.72 231 06:20 05.07.2020
1339 Clear 15 1020 82 0 2.99 234 03:54 05.07.2020
1340 Clear 16 1021 79 0 3 240 02:57 05.07.2020
1341 Clouds 16 1021 79 0 3.17 245 02:33 05.07.2020
1342 Clouds 16 1020 77 0 3.11 244 01:43 05.07.2020
1343 Clouds 17 1020 77 0 3.15 238 01:20 05.07.2020
1344 Clouds 17 1020 76 0 3.15 238 00:45 05.07.2020
1345 Clouds 18 1020 75 0 3 229 00:26 05.07.2020
1346 Clouds 18 1020 74 0 3 229 23:55 04.07.2020
1347 Clouds 18 1020 73 0 2.64 224 23:32 04.07.2020
1348 Clouds 19 1020 71 0 2.64 224 22:59 04.07.2020
1349 Clouds 19 1020 70 0 2.64 224 22:40 04.07.2020
1350 Clouds 20 1020 68 0 1.89 242 22:22 04.07.2020
1351 Clouds 20 1020 67 0 1.89 242 21:58 04.07.2020
1352 Clouds 20 1059 55 0 1.79 11 21:40 04.07.2020
1353 Clouds 21 1020 63 0 2.04 265 21:21 04.07.2020
1354 Clouds 22 1018 56 0 1.79 291 20:42 04.07.2020
1355 Clouds 23 1019 60 0 2.13 272 20:21 04.07.2020
1356 Clouds 23 1019 59 0 2.13 272 20:21 04.07.2020
1357 Clouds 23 1019 58 0 2.13 272 19:57 04.07.2020
1358 Clouds 23 1019 57 0 2.13 272 19:39 04.07.2020
1359 Clouds 24 1019 56 0 2.93 281 19:20 04.07.2020
1360 Clouds 24 1019 58 0 2.93 281 18:44 04.07.2020
1361 Clouds 24 1019 55 0 3.04 284 18:23 04.07.2020
1362 Clouds 24 1019 54 0 3.04 284 17:55 04.07.2020
1363 Clouds 24 1019 55 0 3.04 284 17:37 04.07.2020
1364 Clouds 24 1019 54 0 2.55 289 17:18 04.07.2020
1365 Clouds 24 1020 53 10000 3.1 250 16:55 04.07.2020
1366 Clouds 24 1020 55 0 2.41 297 16:36 04.07.2020
1367 Clouds 24 1020 55 0 2.41 297 16:18 04.07.2020
1368 Clouds 24 1020 54 0 2.41 297 15:41 04.07.2020
1369 Clouds 24 1020 55 0 1.85 303 15:23 04.07.2020
1370 Clouds 24 1020 53 0 1.85 303 14:57 04.07.2020
1371 Clouds 24 1020 54 0 0.45 239 14:37 04.07.2020
1372 Clouds 24 1021 55 0 1.76 326 14:18 04.07.2020
1373 Clouds 23 1021 56 0 1.76 326 13:42 04.07.2020
1374 Clouds 23 963 48 0 1.48 329 13:20 04.07.2020
1375 Clouds 22 963 43 0 1.48 329 12:59 04.07.2020
1376 Clouds 22 964 47 0 1.48 329 12:40 04.07.2020
1377 Clouds 22 964 51 0 1.04 334 12:19 04.07.2020
1378 Clouds 22 1021 57 0 1.04 334 11:45 04.07.2020
1379 Clouds 21 964 51 0 0.88 327 11:24 04.07.2020
1380 Clouds 21 1021 57 0 0.88 327 10:57 04.07.2020
1381 Clouds 21 1021 63 0 0.88 327 10:38 04.07.2020
1382 Clouds 20 964 55 0 0.79 282 10:20 04.07.2020
1383 Clouds 19 1022 73 0 0.79 282 09:55 04.07.2020
1384 Clouds 19 1022 80 0 0.77 283 09:36 04.07.2020
1385 Clouds 18 964 62 0 1.1 243 09:18 04.07.2020
1386 Clouds 17 964 66 0 1.1 243 08:45 04.07.2020
1387 Clear 15 1022 95 0 0.45 202 08:26 04.07.2020
1388 Clear 15 1021 95 0 1.37 248 07:44 04.07.2020
1389 Clear 14 1021 95 0 1.53 238 07:26 04.07.2020
1390 Clear 13 1021 94 0 1.53 238 06:51 04.07.2020
1391 Clear 13 964 80 0 1.68 225 06:20 04.07.2020
1392 Clear 12 964 82 0 1.61 221 05:34 04.07.2020
1393 Clear 13 1021 92 0 1.54 221 04:31 04.07.2020
1394 Clear 14 1021 90 0 1.35 208 02:49 04.07.2020
1395 Clear 14 964 78 0 0.55 232 02:19 04.07.2020
1396 Clear 14 964 76 0 0.37 265 01:26 04.07.2020
1397 Clear 15 964 76 0 0.37 265 00:40 04.07.2020
1398 Clear 15 1021 85 0 0.51 289 00:22 04.07.2020
1399 Clear 15 1021 82 0 0.51 289 23:40 03.07.2020
1400 Clear 16 1021 80 0 0.32 293 23:19 03.07.2020
1401 Clear 16 1021 79 0 0.32 293 22:55 03.07.2020
1402 Clouds 17 963 68 0 0.38 7 22:37 03.07.2020
1403 Clouds 17 1021 77 0 0.38 7 22:19 03.07.2020
1404 Clouds 18 1020 74 0 0.9 351 21:41 03.07.2020
1405 Clouds 19 1020 73 0 0.79 337 21:20 03.07.2020
1406 Clouds 19 962 55 0 0.79 337 20:55 03.07.2020
1407 Clouds 19 962 55 0 0.79 337 20:55 03.07.2020
1408 Clouds 20 1020 67 0 1.16 339 20:37 03.07.2020
1409 Clouds 20 962 53 0 1.16 339 20:19 03.07.2020
1410 Clouds 20 962 52 0 1.16 339 19:41 03.07.2020
1411 Rain 21 1019 66 0 1.79 342 19:20 03.07.2020
1412 Rain 20 1019 67 0 0.45 202 18:57 03.07.2020
1413 Rain 21 962 47 0 2.43 332 18:39 03.07.2020
1414 Rain 21 962 49 0 2.43 332 18:20 03.07.2020
1415 Rain 21 1020 64 0 2.43 332 17:43 03.07.2020
1416 Rain 21 1020 64 0 2.4 327 17:22 03.07.2020
1417 Rain 21 1020 65 0 0.45 265 16:46 03.07.2020
1418 Rain 21 1020 65 0 2.23 319 16:28 03.07.2020
1419 Rain 21 1020 64 0 2.23 319 15:57 03.07.2020
1420 Rain 22 962 48 0 2.23 319 15:38 03.07.2020
1421 Clouds 21 1020 55 10000 3.1 220 15:20 03.07.2020
1422 Rain 21 1020 65 0 2.26 315 14:41 03.07.2020
1423 Rain 21 1020 67 0 2.76 304 14:22 03.07.2020
1424 Rain 20 1020 70 0 0.45 282 13:59 03.07.2020
1425 Rain 20 963 55 0 2.76 304 13:40 03.07.2020
1426 Rain 19 1020 69 0 2.65 302 13:22 03.07.2020
1427 Rain 19 1020 72 0 2.65 302 12:40 03.07.2020
1428 Rain 18 963 58 0 2.32 298 12:22 03.07.2020
1429 Rain 18 1020 79 0 2.32 298 11:44 03.07.2020
1430 Rain 18 963 62 0 2.24 291 11:25 03.07.2020
1431 Rain 17 1020 91 0 2.24 291 10:59 03.07.2020
1432 Clouds 17 963 68 0 1.84 287 10:41 03.07.2020
1433 Clouds 17 1020 97 0 1.84 287 10:21 03.07.2020
1434 Clouds 16 963 66 0 1.84 287 10:21 03.07.2020
1435 Clouds 17 1020 97 0 1.84 287 09:59 03.07.2020
1436 Clouds 16 1020 97 0 1.82 295 09:39 03.07.2020
1437 Clouds 16 1020 97 0 1.9 282 09:20 03.07.2020
1438 Clouds 15 962 76 0 1.9 282 08:56 03.07.2020
1439 Clouds 15 962 78 0 1.9 282 08:37 03.07.2020
1440 Clouds 15 962 81 0 1.77 255 08:18 03.07.2020
1441 Clouds 15 1019 97 0 1.77 255 07:43 03.07.2020
1442 Rain 15 1019 97 0 1.94 247 07:21 03.07.2020
1443 Rain 15 1018 97 0 1.94 247 06:30 03.07.2020
1444 Rain 15 1018 97 0 2.26 259 05:43 03.07.2020
1445 Rain 15 1017 96 0 2.3 268 03:59 03.07.2020
1446 Clouds 15 1017 96 0 2.55 271 02:56 03.07.2020
1447 Rain 16 1017 96 0 2.49 278 02:31 03.07.2020
1448 Clouds 16 1017 96 0 2.72 265 01:41 03.07.2020
1449 Rain 16 1017 96 0 2.94 282 01:20 03.07.2020
1450 Rain 16 1017 95 0 2.94 282 00:41 03.07.2020
1451 Rain 16 1017 95 0 2.94 282 00:41 03.07.2020
1452 Rain 17 1016 95 0 4.05 298 23:59 02.07.2020
1453 Rain 17 1016 95 0 3.67 305 23:39 02.07.2020
1454 Rain 17 959 87 0 3.67 305 23:19 02.07.2020
1455 Rain 17 1016 95 0 3.67 305 22:56 02.07.2020
1456 Rain 17 1016 95 0 2.42 297 22:38 02.07.2020
1457 Rain 17 1016 95 0 2.42 297 22:20 02.07.2020
1458 Rain 17 1016 94 0 2.42 297 21:54 02.07.2020
1459 Rain 17 1015 94 0 2.8 281 21:36 02.07.2020
1460 Rain 17 1015 94 0 1.84 292 21:18 02.07.2020
1461 Rain 18 1015 93 0 2.8 281 20:42 02.07.2020
1462 Rain 19 1015 92 0 2.22 279 20:20 02.07.2020
1463 Rain 19 1014 91 0 2.22 279 19:56 02.07.2020
1464 Rain 19 957 76 0 2.22 279 19:38 02.07.2020
1465 Rain 20 1014 86 0 0.45 209 19:20 02.07.2020
1466 Rain 22 1014 77 0 0.45 171 18:57 02.07.2020
1467 Rain 22 1014 75 0 2.34 295 18:38 02.07.2020
1468 Rain 22 1014 74 0 2.77 306 18:20 02.07.2020
1469 Rain 23 956 58 0 2.77 306 17:39 02.07.2020
1470 Rain 23 956 58 0 3.49 305 17:20 02.07.2020
1471 Rain 23 956 60 0 3.49 305 16:56 02.07.2020
1472 Rain 23 1014 73 0 0.45 132 16:38 02.07.2020
1473 Rain 24 1014 72 0 0.45 179 16:19 02.07.2020
1474 Rain 24 1013 71 0 0.45 123 15:55 02.07.2020
1475 Rain 24 1013 70 0 3.74 298 15:36 02.07.2020
1476 Rain 24 1013 70 0 0.45 202 15:36 02.07.2020
1477 Rain 24 1014 69 0 0.45 247 15:18 02.07.2020
1478 Rain 23 1014 70 0 0.45 311 14:43 02.07.2020
1479 Rain 24 1014 69 0 0.45 165 14:20 02.07.2020
1480 Clouds 24 1013 68 0 3.61 287 13:56 02.07.2020
1481 Clouds 24 1014 70 0 0.45 237 13:36 02.07.2020
1482 Rain 24 1014 68 0 0.45 331 13:18 02.07.2020
1483 Rain 24 1014 65 0 0.45 310 12:41 02.07.2020
1484 Rain 23 957 56 0 3.12 269 12:22 02.07.2020
1485 Rain 23 957 57 0 3.12 269 11:46 02.07.2020
1486 Rain 22 1014 74 0 2.95 268 11:27 02.07.2020
1487 Rain 21 1014 78 0 2.95 268 10:59 02.07.2020
1488 Rain 21 1014 83 0 2.95 268 10:41 02.07.2020
1489 Clouds 20 1014 90 0 2.75 259 10:23 02.07.2020
1490 Clouds 19 957 71 0 2.75 259 09:44 02.07.2020
1491 Clouds 19 1014 91 0 2.86 261 09:22 02.07.2020
1492 Clouds 18 1014 91 0 2.86 261 08:59 02.07.2020
1493 Clouds 18 1014 91 0 2.86 261 08:40 02.07.2020
1494 Rain 18 1014 91 0 2.77 259 08:20 02.07.2020
1495 Rain 17 1014 91 0 2.77 259 07:42 02.07.2020
1496 Rain 18 1014 90 0 2.79 258 07:22 02.07.2020
1497 Rain 17 1014 90 0 2.79 258 06:47 02.07.2020
1498 Rain 17 957 77 0 3.7 263 06:27 02.07.2020
1499 Rain 18 957 70 0 3.7 263 05:49 02.07.2020
1500 Rain 18 1014 89 0 3.13 259 04:58 02.07.2020
1501 Clear 17 1013 89 0 3.24 249 03:34 02.07.2020
1502 Rain 17 956 72 0 3.03 227 01:51 02.07.2020
1503 Rain 18 956 76 0 3.61 216 00:45 02.07.2020
1504 Rain 18 1012 84 0 4.61 207 00:21 02.07.2020
1505 Rain 18 1012 85 0 0.45 231 23:45 01.07.2020
1506 Rain 18 1012 85 0 3.57 212 23:26 01.07.2020
1507 Rain 18 1012 87 0 0.45 178 22:55 01.07.2020
1508 Rain 18 1012 86 0 3.57 212 22:37 01.07.2020
1509 Clouds 18 1013 86 0 0.45 198 22:19 01.07.2020
1510 Clouds 18 1012 87 0 0.45 192 21:58 01.07.2020
1511 Clouds 19 1012 86 0 0.96 187 21:39 01.07.2020
1512 Rain 18 1012 84 0 1.59 169 21:20 01.07.2020
1513 Rain 19 1012 80 0 1.59 169 20:54 01.07.2020
1514 Rain 20 1011 76 0 1.59 169 20:36 01.07.2020
1515 Rain 20 1011 70 0 0.58 223 20:18 01.07.2020
1516 Rain 22 1012 75 0 0.45 315 19:42 01.07.2020
1517 Rain 22 1011 76 0 0.45 165 19:23 01.07.2020
1518 Rain 24 1011 78 0 0.89 185 18:58 01.07.2020
1519 Rain 28 953 46 0 2.45 279 18:40 01.07.2020
1520 Rain 28 1011 48 10000 1.5 170 18:21 01.07.2020
1521 Rain 26 1011 64 0 0.45 191 17:55 01.07.2020
1522 Clouds 27 1011 56 0 2.36 289 17:37 01.07.2020
1523 Clouds 28 1011 55 0 2.36 289 17:18 01.07.2020
1524 Clouds 28 1011 54 0 2.36 289 16:42 01.07.2020
1525 Clear 29 1011 53 0 2.61 288 16:24 01.07.2020
1526 Clear 29 1011 51 0 0.45 329 15:43 01.07.2020
1527 Clear 29 1011 51 0 0.45 314 15:25 01.07.2020
1528 Clear 29 1011 52 0 0.45 309 14:59 01.07.2020
1529 Clear 28 1011 54 0 0.45 287 14:41 01.07.2020
1530 Clouds 28 1011 52 0 0.45 351 14:20 01.07.2020
1531 Clouds 28 954 45 0 2.42 295 13:55 01.07.2020
1532 Clouds 28 954 44 0 2.42 295 13:37 01.07.2020
1533 Clouds 28 1012 52 0 0.45 218 13:37 01.07.2020
1534 Clouds 27 955 44 0 2.03 290 13:18 01.07.2020
1535 Clouds 27 1012 55 0 2.03 290 12:54 01.07.2020
1536 Clouds 27 1013 52 0 1.67 279 12:36 01.07.2020
1537 Clouds 27 1013 52 0 1.67 279 12:18 01.07.2020
1538 Clouds 26 1013 58 0 0.45 208 11:40 01.07.2020
1539 Clouds 25 1013 61 0 0.94 261 11:21 01.07.2020
1540 Clouds 25 1013 58 0 0.94 261 10:57 01.07.2020
1541 Clouds 25 1013 62 0 0.94 261 10:39 01.07.2020
1542 Clear 24 1013 61 0 0.99 218 10:20 01.07.2020
1543 Clear 20 1014 68 10000 1 0 09:39 01.07.2020
1544 Clear 20 1014 68 10000 1 0 09:20 01.07.2020
1545 Clear 19 1013 89 0 1.12 205 08:59 01.07.2020
1546 Clear 19 1013 90 0 1.12 205 08:40 01.07.2020
1547 Clear 18 1013 92 0 1.26 212 08:20 01.07.2020
1548 Clear 17 1013 92 0 1.26 212 07:44 01.07.2020
1549 Clear 16 1013 92 0 1.42 218 07:25 01.07.2020
1550 Clear 16 1013 92 0 1.42 218 06:59 01.07.2020
1551 Clear 16 1013 92 0 1.42 218 06:59 01.07.2020
1552 Clear 15 1013 92 0 1.42 218 06:41 01.07.2020
1553 Clear 14 1013 91 0 1.47 226 06:21 01.07.2020
1554 Clear 14 1013 89 0 1.73 231 04:30 01.07.2020
1555 Clear 14 1013 86 0 1.73 231 03:45 01.07.2020
1556 Clear 14 1013 86 0 1.84 230 03:26 01.07.2020
1557 Clear 16 1014 85 0 1.26 220 02:35 01.07.2020
1558 Clear 16 1014 83 0 1.19 231 01:45 01.07.2020
1559 Clear 17 1014 81 0 1.11 234 00:41 01.07.2020
1560 Clear 17 1014 80 0 1.21 228 00:23 01.07.2020
1561 Clear 18 1014 76 0 1.21 228 23:41 30.06.2020
1562 Clear 18 1014 75 0 1.04 228 23:22 30.06.2020
1563 Clear 18 1014 75 0 1.04 228 23:22 30.06.2020
1564 Clear 18 1014 75 0 1.04 228 22:56 30.06.2020
1565 Clear 19 1014 74 0 0.8 253 22:38 30.06.2020
1566 Clear 19 1013 73 0 0.8 253 22:18 30.06.2020
1567 Clear 19 1013 87 10000 1.5 200 21:40 30.06.2020
1568 Clear 21 1013 60 0 0.77 280 21:19 30.06.2020
1569 Clear 22 1013 53 10000 2.1 280 20:44 30.06.2020
1570 Clear 23 1013 55 0 1.69 282 20:22 30.06.2020
1571 Clear 24 1013 54 0 1.69 282 20:00 30.06.2020
1572 Clear 24 1013 53 0 1.69 282 19:41 30.06.2020
1573 Clear 24 1013 52 0 2.5 285 19:19 30.06.2020
1574 Clear 24 1013 52 0 2.5 285 19:19 30.06.2020
1575 Clear 24 1013 47 10000 4.6 280 18:43 30.06.2020
1576 Clear 25 1013 51 0 0.45 263 18:21 30.06.2020
1577 Clear 25 1013 48 0 0.45 325 17:59 30.06.2020
1578 Clear 24 1013 46 10000 6.2 240 17:37 30.06.2020
1579 Clear 25 1013 46 10000 6.2 240 17:19 30.06.2020
1580 Clear 24 1014 49 10000 6.7 230 16:43 30.06.2020
1581 Clear 25 1013 55 0 0.45 265 16:24 30.06.2020
1582 Clear 25 1013 55 0 0.45 294 15:59 30.06.2020
1583 Clear 25 1014 54 0 0.45 193 15:40 30.06.2020
1584 Clear 25 1014 54 0 0.45 315 15:40 30.06.2020
1585 Clear 25 1014 55 0 0.45 333 15:21 30.06.2020
1586 Clear 24 1014 52 0 0.45 316 14:56 30.06.2020
1587 Clear 24 1014 58 0 0.45 319 14:38 30.06.2020
1588 Clear 24 1014 54 0 0.89 314 14:18 30.06.2020
1589 Clear 24 1014 56 0 0.45 287 13:40 30.06.2020
1590 Clear 24 1014 55 0 5 276 13:20 30.06.2020
1591 Clear 23 1015 54 0 0.45 282 12:58 30.06.2020
1592 Clear 22 1013 61 0 4.98 273 12:40 30.06.2020
1593 Clear 22 1013 60 0 4.98 273 12:21 30.06.2020
1594 Clear 22 1015 59 0 4.98 273 11:58 30.06.2020
1595 Clear 22 1015 58 0 0.45 279 11:39 30.06.2020
1596 Clear 21 1015 62 0 4.45 267 11:19 30.06.2020
1597 Clear 21 1015 65 0 0.45 252 10:58 30.06.2020
1598 Rain 26 1016 59 0 0.45 126 16:40 28.06.2020
1599 Rain 26 1016 59 0 0.45 142 16:22 28.06.2020
1600 Rain 26 1017 57 10000 5.1 280 15:56 28.06.2020
1601 Rain 26 1016 58 0 0.45 280 15:38 28.06.2020
1602 Rain 27 1017 57 0 0.45 295 15:18 28.06.2020
1603 Rain 26 1017 58 0 0.45 88 14:46 28.06.2020
1604 Clouds 26 1017 58 0 0.45 268 14:27 28.06.2020
1605 Clouds 27 1017 57 0 0.45 317 13:58 28.06.2020
1606 Clouds 27 1017 61 0 0.45 290 13:38 28.06.2020
1607 Clouds 27 1017 57 0 0.45 260 13:19 28.06.2020
1608 Clouds 27 1017 55 0 0.45 331 12:56 28.06.2020
1609 Clouds 27 1017 59 0 4.26 291 12:37 28.06.2020
1610 Clouds 26 1017 55 0 0.45 221 12:19 28.06.2020
1611 Clouds 27 1017 47 0 0.45 214 11:56 28.06.2020
1612 Clouds 26 1016 54 0 3.76 284 11:37 28.06.2020
1613 Rain 27 1017 47 0 3.55 279 11:19 28.06.2020
1614 Rain 25 1017 54 0 3.55 279 10:55 28.06.2020
1615 Rain 25 1017 54 0 3.55 279 10:36 28.06.2020
1616 Rain 25 1017 55 0 2.01 247 10:18 28.06.2020
1617 Rain 23 1017 72 0 2.01 247 09:39 28.06.2020
1618 Clouds 21 1017 78 0 1.68 194 09:20 28.06.2020
1619 Clouds 20 1017 81 0 1.68 194 08:47 28.06.2020
1620 Clouds 18 1017 85 0 1.52 193 08:25 28.06.2020
1621 Clouds 18 1017 90 0 1.52 193 07:49 28.06.2020
1622 Clouds 18 1017 90 0 1.59 212 07:29 28.06.2020
1623 Clouds 17 1017 90 0 1.59 212 06:43 28.06.2020
1624 Clouds 15 1017 90 0 1.89 215 06:24 28.06.2020
1625 Clouds 15 1017 89 0 1.94 215 05:26 28.06.2020
1626 Clear 16 1017 87 0 2.24 219 03:33 28.06.2020
1627 Clear 16 1017 86 0 2.38 210 02:40 28.06.2020
1628 Rain 16 1017 86 0 2.36 218 01:56 28.06.2020
1629 Clouds 18 1017 85 0 2.35 210 01:27 28.06.2020
1630 Clouds 17 1017 81 0 2.35 210 00:48 28.06.2020
1631 Clouds 18 1017 80 0 2.24 202 00:27 28.06.2020
1632 Clouds 19 1017 79 0 2.24 202 23:43 27.06.2020
1633 Clouds 19 1017 78 0 2.06 188 23:24 27.06.2020
1634 Clouds 19 1017 77 0 2.06 188 22:59 27.06.2020
1635 Clouds 20 1017 76 0 2.06 188 22:40 27.06.2020
1636 Rain 20 1017 75 0 1.25 186 22:22 27.06.2020
1637 Rain 21 1017 74 0 1.25 186 21:56 27.06.2020
1638 Rain 22 1055 49 0 0.89 28 21:38 27.06.2020
1639 Rain 22 1017 69 0 0.89 194 21:19 27.06.2020
1640 Clouds 22 1016 56 10000 3.1 270 20:44 27.06.2020
1641 Rain 25 1015 56 0 3.77 244 20:19 27.06.2020
1642 Rain 25 1015 56 0 3.77 244 20:19 27.06.2020
1643 Rain 25 1015 50 10000 3.6 280 19:56 27.06.2020
1644 Rain 27 1015 50 0 0.45 331 19:37 27.06.2020
1645 Rain 27 1015 47 10000 3.6 280 19:18 27.06.2020
1646 Rain 28 1015 44 10000 2.6 270 18:47 27.06.2020
1647 Clouds 28 1014 45 0 3.24 306 18:28 27.06.2020
1648 Clouds 28 1014 47 0 3.24 306 17:59 27.06.2020
1649 Clouds 28 1014 47 0 3.24 306 17:59 27.06.2020
1650 Clouds 28 1014 44 10000 3.6 290 17:39 27.06.2020
1651 Clouds 28 1014 46 0 2.94 303 17:19 27.06.2020
1652 Clouds 28 1015 49 0 2.94 303 16:56 27.06.2020
1653 Clouds 28 1015 50 0 2.73 302 16:38 27.06.2020
1654 Clouds 28 1015 51 0 2.73 302 16:18 27.06.2020
1655 Clouds 28 1015 53 0 2.73 302 15:42 27.06.2020
1656 Clouds 28 1015 50 0 2.54 306 15:22 27.06.2020
1657 Clouds 28 1016 49 0 2.54 306 14:43 27.06.2020
1658 Clear 27 1016 51 0 0.45 234 14:25 27.06.2020
1659 Clear 27 1016 57 0 3.73 281 13:59 27.06.2020
1660 Clear 26 1016 62 0 3.73 281 13:38 27.06.2020
1661 Clear 25 1016 64 0 3.06 271 13:20 27.06.2020
1662 Clear 25 1017 65 0 3.06 271 12:58 27.06.2020
1663 Clear 25 1017 62 0 0.45 210 12:40 27.06.2020
1664 Clear 25 1017 63 0 0.45 210 12:21 27.06.2020
1665 Clear 26 1016 60 0 0.45 311 11:55 27.06.2020
1666 Clouds 26 1016 58 0 0.45 216 11:37 27.06.2020
1667 Clouds 25 1015 59 0 3.83 262 11:18 27.06.2020
1668 Clear 25 1016 58 0 3.57 251 10:39 27.06.2020
1669 Clear 25 1016 63 0 3.57 251 10:19 27.06.2020
1670 Clear 24 1016 65 0 3.57 251 09:57 27.06.2020
1671 Clear 23 1016 56 10000 2.1 220 09:37 27.06.2020
1672 Clear 21 1016 56 10000 1.5 220 09:19 27.06.2020
1673 Clear 20 1016 88 0 2.77 237 08:41 27.06.2020
1674 Clouds 19 1016 91 0 2.47 229 08:22 27.06.2020
1675 Clouds 18 1016 93 0 2.47 229 07:47 27.06.2020
1676 Clouds 18 1016 93 0 2.32 215 07:25 27.06.2020
1677 Clouds 17 1015 92 0 2.32 215 06:51 27.06.2020
1678 Clouds 17 1015 92 0 2.45 206 06:33 27.06.2020
1679 Clouds 17 1015 91 0 2.32 206 04:44 27.06.2020
1680 Clouds 17 1015 91 0 2.03 216 04:18 27.06.2020
1681 Clouds 17 1015 91 0 2.03 216 03:43 27.06.2020
1682 Clouds 18 1015 91 0 1.87 241 02:42 27.06.2020
1683 Clouds 18 1015 91 0 2.47 236 02:23 27.06.2020
1684 Clouds 18 1016 89 0 0.45 189 01:28 27.06.2020
1685 Clouds 18 1016 86 0 0.45 162 00:47 27.06.2020
1686 Clouds 19 1017 83 0 0.45 245 23:48 26.06.2020
1687 Rain 19 1017 81 0 3.71 243 23:29 26.06.2020
1688 Rain 19 1017 81 0 0.45 211 22:59 26.06.2020
1689 Rain 20 1016 76 0 2.84 243 22:41 26.06.2020
1690 Rain 20 1016 64 10000 4.6 280 22:23 26.06.2020
1691 Rain 22 1015 64 10000 3.6 260 21:58 26.06.2020
1692 Rain 22 1015 64 10000 3.6 260 21:58 26.06.2020
1693 Rain 23 1015 67 0 1.93 252 21:39 26.06.2020
1694 Rain 24 1014 65 0 0.45 268 21:21 26.06.2020
1695 Rain 23 1014 64 10000 2.6 240 20:58 26.06.2020
1696 Rain 23 1014 64 10000 2.6 240 20:38 26.06.2020
1697 Rain 24 1014 64 0 1.6 284 20:18 26.06.2020
1698 Rain 25 1014 61 0 1.6 284 19:40 26.06.2020
1699 Rain 26 1013 60 0 2.96 292 19:20 26.06.2020
1700 Rain 26 1014 54 10000 4.6 230 18:43 26.06.2020
1701 Rain 26 1014 59 0 3.86 284 18:25 26.06.2020
1702 Clouds 26 1014 57 10000 5.1 210 17:55 26.06.2020
1703 Clouds 26 1014 57 10000 5.1 210 17:37 26.06.2020
1704 Clouds 26 1015 57 10000 4.6 240 17:19 26.06.2020
1705 Clouds 25 1015 53 10000 7.2 240 16:42 26.06.2020
1706 Clouds 26 1015 53 10000 7.2 220 16:23 26.06.2020
1707 Clouds 26 1015 57 10000 6.2 240 15:41 26.06.2020
1708 Clouds 25 1016 57 10000 7.2 230 15:22 26.06.2020
1709 Clouds 25 1016 57 10000 7.2 230 14:59 26.06.2020
1710 Clouds 26 1015 57 10000 5.7 240 14:40 26.06.2020
1711 Clouds 26 1015 62 0 0.45 197 14:22 26.06.2020
1712 Clouds 26 1016 60 10000 3.6 240 13:57 26.06.2020
1713 Clouds 27 1015 56 0 0.45 203 13:38 26.06.2020
1714 Clouds 27 1016 57 0 0.45 157 13:18 26.06.2020
1715 Clouds 25 1016 57 0 0.28 230 12:41 26.06.2020
1716 Clouds 25 1016 56 0 0.28 230 12:23 26.06.2020
1717 Clouds 24 1017 53 0 0.28 230 11:59 26.06.2020
1718 Clouds 23 1016 58 0 0.45 323 11:39 26.06.2020
1719 Clouds 23 1016 52 0 0.45 167 11:21 26.06.2020
1720 Clouds 23 1016 58 0 1.06 119 10:58 26.06.2020
1721 Clouds 22 1016 60 0 1.06 119 10:38 26.06.2020
1722 Clouds 22 1016 64 0 1.35 102 10:19 26.06.2020
1723 Clouds 20 1016 81 0 1.35 102 09:44 26.06.2020
1724 Clouds 17 1016 91 0 1.23 116 09:25 26.06.2020
1725 Clouds 17 1016 95 0 1.23 116 08:57 26.06.2020
1726 Clear 15 1016 95 0 1.28 95 08:29 26.06.2020
1727 Clear 14 1016 95 0 1.07 118 07:53 26.06.2020
1728 Clear 13 1017 95 0 1.01 134 07:25 26.06.2020
1729 Clear 13 1017 94 0 1.01 134 06:59 26.06.2020
1730 Clear 11 1017 94 0 1.13 131 06:41 26.06.2020
1731 Clear 11 1017 93 0 1.13 131 06:23 26.06.2020
1732 Clear 10 1017 92 0 1.13 131 05:48 26.06.2020
1733 Clear 11 1017 91 0 1.26 136 04:39 26.06.2020
1734 Clear 12 1017 89 0 1.32 120 02:22 26.06.2020
1735 Clear 13 1018 87 0 1.41 124 01:22 26.06.2020
1736 Clear 13 1018 93 10000 1.41 124 00:42 26.06.2020
1737 Clear 14 1018 85 0 1.56 115 00:20 26.06.2020
1738 Clear 15 1019 82 10000 1 110 23:45 25.06.2020
1739 Clear 15 1019 77 10000 2.6 100 23:20 25.06.2020
1740 Clear 15 1019 82 10000 2.1 100 22:57 25.06.2020
1741 Clear 17 1019 78 0 1.33 108 22:38 25.06.2020
1742 Clear 17 1019 77 0 1.33 108 22:19 25.06.2020
1743 Clear 17 1018 72 10000 3.1 90 21:56 25.06.2020
1744 Clear 17 1018 72 10000 3.1 90 21:38 25.06.2020
1745 Clear 19 1018 68 0 1.68 77 21:20 25.06.2020
1746 Clear 19 1018 67 0 1.68 77 20:55 25.06.2020
1747 Clear 20 1018 66 0 1.68 77 20:37 25.06.2020
1748 Clouds 20 1018 66 0 1.74 72 20:19 25.06.2020
1749 Rain 21 1018 63 0 2.01 79 19:41 25.06.2020
1750 Rain 22 1018 63 0 2.01 79 19:20 25.06.2020
1751 Rain 22 1018 64 0 2.01 79 18:59 25.06.2020
1752 Clouds 21 1018 56 10000 2.6 80 18:39 25.06.2020
1753 Rain 22 1018 63 0 2.29 74 18:20 25.06.2020
1754 Rain 22 1018 60 0 2.29 74 17:44 25.06.2020
1755 Rain 22 1018 60 0 2.29 74 17:44 25.06.2020
1756 Rain 22 1019 49 10000 0.5 0 17:20 25.06.2020
1757 Rain 22 1019 49 10000 0.5 0 16:58 25.06.2020
1758 Clouds 21 1019 52 10000 2.6 50 16:37 25.06.2020
1759 Clouds 21 1019 56 10000 2.6 0 16:19 25.06.2020
1760 Clouds 22 1019 56 10000 3.1 40 15:43 25.06.2020
1761 Clouds 21 1019 56 10000 1.5 0 15:25 25.06.2020
1762 Rain 22 1019 64 0 0.45 159 14:55 25.06.2020
1763 Rain 22 1020 69 0 2.76 41 14:37 25.06.2020
1764 Clear 22 1020 69 0 2.42 37 14:18 25.06.2020
1765 Clear 21 1020 74 0 2.42 37 13:42 25.06.2020
1766 Clear 19 1020 63 10000 4.1 60 13:20 25.06.2020
1767 Clear 19 1020 79 0 2.43 48 12:59 25.06.2020
1768 Clear 19 1020 77 0 2.43 48 12:40 25.06.2020
1769 Clear 19 1020 75 0 2.45 53 12:20 25.06.2020
1770 Clear 18 1020 73 0 2.45 53 11:43 25.06.2020
1771 Clear 17 1020 73 0 2.44 61 11:22 25.06.2020
1772 Clouds 17 1020 72 10000 1.5 80 10:45 25.06.2020
1773 Clouds 17 1020 75 0 2.01 74 10:26 25.06.2020
1774 Clouds 17 1020 76 0 2.01 74 09:59 25.06.2020
1775 Clouds 18 1020 76 0 2.01 74 09:40 25.06.2020
1776 Clear 16 1020 72 10000 2.6 50 09:20 25.06.2020
1777 Clear 16 1020 79 0 2.19 74 08:45 25.06.2020
1778 Clear 15 1020 83 0 2.31 77 08:19 25.06.2020
1779 Clear 15 1020 85 0 2.31 77 07:45 25.06.2020
1780 Clouds 15 1020 86 0 1.96 68 07:26 25.06.2020
1781 Clouds 14 1020 86 0 1.96 68 06:48 25.06.2020
1782 Clouds 12 1020 93 10000 1.5 20 06:27 25.06.2020
1783 Clouds 12 1020 87 10000 1.5 20 05:51 25.06.2020
1784 Clear 14 1020 82 10000 2.6 20 03:58 25.06.2020
1785 Clear 14 1020 82 10000 2.6 20 03:34 25.06.2020
1786 Clouds 14 1021 72 10000 1.5 30 02:42 25.06.2020
1787 Clouds 14 1021 72 10000 2.6 70 01:59 25.06.2020
1788 Clouds 15 1022 67 10000 3.1 60 01:26 25.06.2020
1789 Clouds 15 1021 63 10000 1.5 60 00:44 25.06.2020
1790 Clouds 15 1022 63 10000 2.6 60 00:21 25.06.2020
1791 Clouds 15 1022 59 10000 3.6 60 23:44 24.06.2020
1792 Clouds 16 1022 59 10000 3.1 50 23:26 24.06.2020
1793 Clouds 16 1022 55 10000 3.1 40 22:59 24.06.2020
1794 Clouds 16 1022 55 10000 3.1 40 22:41 24.06.2020
1795 Clouds 16 1022 55 10000 2.1 50 22:20 24.06.2020
1796 Clouds 17 1021 55 10000 2.6 50 21:56 24.06.2020
1797 Clouds 19 1021 55 10000 2.6 50 21:37 24.06.2020
1798 Clouds 20 1021 48 10000 2.6 40 21:19 24.06.2020
1799 Clouds 21 1021 49 10000 3.6 50 20:58 24.06.2020
1800 Clouds 21 1021 49 10000 3.6 50 20:39 24.06.2020
1801 Clouds 22 1021 48 0 2.62 48 20:20 24.06.2020
1802 Clouds 22 1021 48 0 2.62 48 19:57 24.06.2020
1803 Clouds 23 1021 43 10000 4.6 30 19:38 24.06.2020
1804 Clouds 23 1021 48 0 0.45 343 19:19 24.06.2020
1805 Clouds 23 1021 46 0 3.11 49 18:58 24.06.2020
1806 Clouds 23 1021 47 0 3.11 49 18:39 24.06.2020
1807 Clouds 23 1021 43 10000 3.6 10 18:20 24.06.2020
1808 Clouds 23 1021 43 10000 3.6 10 17:55 24.06.2020
1809 Clouds 23 1021 43 10000 4.6 20 17:36 24.06.2020
1810 Clouds 23 1021 43 10000 4.6 20 17:18 24.06.2020
1811 Clouds 24 1021 43 10000 5.7 20 16:55 24.06.2020
1812 Clouds 24 1021 48 0 4.48 49 16:37 24.06.2020
1813 Clouds 24 1021 48 0 0.45 5 16:19 24.06.2020
1814 Clouds 24 1021 48 0 0.45 13 15:54 24.06.2020
1815 Clear 24 1021 47 0 3.87 54 15:36 24.06.2020
1816 Clear 24 1021 51 0 0.45 143 15:18 24.06.2020
1817 Clear 24 1022 51 0 3.87 54 14:40 24.06.2020
1818 Clear 24 1022 50 0 4.11 61 14:22 24.06.2020
1819 Clouds 23 1022 49 10000 4.1 10 13:42 24.06.2020
1820 Clouds 23 1022 46 10000 3.6 50 13:21 24.06.2020
1821 Clouds 23 1022 52 10000 3.6 20 12:46 24.06.2020
1822 Clouds 22 1023 53 10000 2.6 30 12:22 24.06.2020
1823 Clouds 23 1023 56 10000 3.1 0 11:59 24.06.2020
1824 Clouds 22 1023 56 10000 3.1 0 11:41 24.06.2020
1825 Clear 22 1022 58 0 3.49 62 11:23 24.06.2020
1826 Clear 22 1022 65 0 3.49 62 10:55 24.06.2020
1827 Clear 21 1023 64 0 2.94 69 10:36 24.06.2020
1828 Clear 21 1023 64 0 2.94 69 10:18 24.06.2020
1829 Clear 20 1023 67 0 2.94 69 09:42 24.06.2020
1830 Clear 17 1023 72 10000 2.1 10 09:21 24.06.2020
1831 Clear 16 1022 94 0 3.07 79 08:41 24.06.2020
1832 Clear 15 1023 94 0 2.63 83 08:20 24.06.2020
1833 Clear 14 1022 94 0 2.63 83 07:50 24.06.2020
1834 Clear 13 1022 94 0 2.05 96 07:31 24.06.2020
1835 Clear 11 1022 92 0 2.05 96 06:50 24.06.2020
1836 Clear 11 1022 91 0 1.91 93 06:25 24.06.2020
1837 Clear 11 1022 90 0 1.91 93 05:54 24.06.2020
1838 Clear 12 1023 89 0 1.83 81 04:46 24.06.2020
1839 Clear 12 1023 89 0 1.57 77 04:27 24.06.2020
1840 Clear 12 1023 88 0 1.57 77 03:34 24.06.2020
1841 Clear 12 1024 87 10000 2.6 30 02:45 24.06.2020
1842 Clear 13 1023 87 0 1.86 75 01:41 24.06.2020
1843 Clear 13 1024 100 10000 1 150 00:47 24.06.2020
1844 Clear 14 1024 93 10000 1 160 00:27 24.06.2020
1845 Clear 14 1024 93 10000 1 140 23:46 23.06.2020
1846 Clear 17 1024 80 0 1.6 112 23:20 23.06.2020
1847 Clear 17 1024 78 0 1.6 112 22:54 23.06.2020
1848 Clear 18 1024 75 0 1.71 92 22:36 23.06.2020
1849 Clear 19 1024 73 0 1.71 92 22:18 23.06.2020
1850 Clear 20 1024 59 10000 2.1 30 21:41 23.06.2020
1851 Clear 21 1024 59 0 2.21 89 21:20 23.06.2020
1852 Clear 20 1024 52 10000 4.1 10 20:56 23.06.2020
1853 Clear 20 1024 52 10000 4.1 10 20:56 23.06.2020
1854 Clear 20 1024 52 10000 4.1 10 20:37 23.06.2020
1855 Clear 23 1023 43 10000 3.6 20 20:19 23.06.2020
1856 Clear 23 1023 43 10000 3.6 20 19:49 23.06.2020
1857 Clear 23 1023 46 10000 4.1 330 19:28 23.06.2020
1858 Clear 24 1023 53 0 2.31 56 18:42 23.06.2020
1859 Clear 24 1023 53 0 2.31 56 18:42 23.06.2020
1860 Clear 24 1023 52 0 2.97 39 18:19 23.06.2020
1861 Clear 24 1023 52 0 2.97 39 18:19 23.06.2020
1862 Clear 24 1023 46 10000 4.1 350 17:59 23.06.2020
1863 Clear 24 1023 46 10000 4.1 350 17:39 23.06.2020
1864 Clear 24 1023 46 10000 3.1 30 17:21 23.06.2020
1865 Clear 24 1024 46 10000 3.1 330 16:56 23.06.2020
1866 Clear 24 1024 47 10000 3.6 360 16:38 23.06.2020
1867 Clear 24 1024 47 10000 3.6 360 16:38 23.06.2020
1868 Clear 24 1024 47 10000 3.6 360 16:20 23.06.2020
1869 Clouds 24 1024 53 10000 3.1 30 15:55 23.06.2020
1870 Clouds 24 1024 53 10000 3.1 30 15:37 23.06.2020
1871 Clouds 24 1024 53 10000 3.1 30 15:18 23.06.2020
1872 Clouds 24 1024 56 10000 4.1 40 14:42 23.06.2020
1873 Clouds 24 1024 49 10000 2.6 350 14:19 23.06.2020
1874 Clouds 24 1024 53 10000 2.6 10 13:56 23.06.2020
1875 Clouds 25 1024 58 0 0.45 259 13:38 23.06.2020
1876 Clouds 24 1024 59 0 3.91 47 13:20 23.06.2020
1877 Clouds 24 1024 58 0 0.45 302 12:42 23.06.2020
1878 Clouds 23 1025 60 10000 3.6 40 12:22 23.06.2020
1879 Clouds 23 1025 64 10000 3.1 10 11:58 23.06.2020
1880 Clouds 23 1024 66 0 2.76 51 11:40 23.06.2020
1881 Clouds 22 1024 64 0 2.76 51 11:19 23.06.2020
1882 Clouds 22 1025 67 0 2.76 51 10:56 23.06.2020
1883 Clouds 22 1025 67 0 2.76 51 10:38 23.06.2020
1884 Clouds 22 1025 71 0 1.88 55 10:20 23.06.2020
1885 Clouds 18 1025 77 10000 1.5 30 09:42 23.06.2020
1886 Clouds 18 1025 92 0 1.32 42 09:20 23.06.2020
1887 Clouds 18 1025 95 0 1.32 42 08:58 23.06.2020
1888 Clouds 17 1025 95 0 1.32 42 08:39 23.06.2020
1889 Clear 16 1025 95 0 0.84 22 08:20 23.06.2020
1890 Clear 15 1024 94 0 0.84 22 07:41 23.06.2020
1891 Clear 15 1024 93 0 0.45 4 07:22 23.06.2020
1892 Clear 14 1024 93 0 0.45 4 06:50 23.06.2020
1893 Clear 14 1024 93 0 0.16 12 06:31 23.06.2020
1894 Clear 13 1024 92 0 0.16 12 05:45 23.06.2020
1895 Clear 14 1024 90 0 0.2 345 04:39 23.06.2020
1896 Clear 15 1024 90 0 0.69 270 03:18 23.06.2020
1897 Clear 15 1024 100 10000 1 220 02:42 23.06.2020
1898 Clear 16 1024 89 0 0.61 274 02:24 23.06.2020
1899 Clear 16 1024 89 0 1.03 269 01:43 23.06.2020
1900 Clear 15 1025 93 10000 1 0 01:20 23.06.2020
1901 Rain 16 1024 86 0 0.89 268 00:24 23.06.2020
1902 Rain 17 1024 85 0 0.89 268 23:59 22.06.2020
1903 Rain 17 1024 84 0 1.06 293 23:39 22.06.2020
1904 Rain 17 1024 93 10000 2.1 220 23:19 22.06.2020
1905 Rain 17 1024 93 10000 1 180 22:58 22.06.2020
1906 Rain 18 1024 93 10000 1 180 22:40 22.06.2020
1907 Rain 18 1024 93 10000 1 180 22:40 22.06.2020
1908 Rain 17 1024 87 10000 1.5 170 22:20 22.06.2020
1909 Rain 18 1069 54 0 1.68 308 21:58 22.06.2020
1910 Clouds 20 1024 78 0 1.94 300 21:40 22.06.2020
1911 Clouds 19 1024 77 0 1.94 300 21:21 22.06.2020
1912 Clouds 20 1024 75 0 1.94 300 20:55 22.06.2020
1913 Clouds 21 1024 74 0 1.94 300 20:36 22.06.2020
1914 Rain 21 1024 73 0 2.31 306 20:18 22.06.2020
1915 Rain 22 1024 74 0 2.31 306 19:43 22.06.2020
1916 Rain 22 1024 72 0 2.71 301 19:19 22.06.2020
1917 Clouds 21 1024 82 10000 2.6 240 18:56 22.06.2020
1918 Rain 22 1024 71 0 2.39 288 18:36 22.06.2020
1919 Rain 22 1024 69 0 2.39 288 18:18 22.06.2020
1920 Clouds 21 1024 68 10000 4.1 240 17:55 22.06.2020
1921 Clouds 23 1024 64 10000 4.1 240 17:37 22.06.2020
1922 Rain 23 1025 68 10000 3.6 200 17:18 22.06.2020
1923 Rain 23 1024 74 0 1.55 269 16:42 22.06.2020
1924 Rain 22 1024 76 0 0.45 327 16:18 22.06.2020
1925 Rain 24 1071 35 0 2.24 149 15:57 22.06.2020
1926 Rain 22 1024 78 0 0.84 325 15:39 22.06.2020
1927 Rain 22 1025 78 0 0.45 212 15:21 22.06.2020
1928 Rain 21 1025 84 0 1.61 260 14:39 22.06.2020
1929 Rain 20 1025 83 0 2.53 263 14:20 22.06.2020
1930 Rain 20 1025 77 0 2.53 263 13:57 22.06.2020
1931 Clouds 21 1025 64 10000 4.6 240 13:38 22.06.2020
1932 Clouds 21 1025 64 10000 4.6 240 13:20 22.06.2020
1933 Clouds 21 1025 68 10000 2.6 290 12:44 22.06.2020
1934 Clouds 21 1025 68 10000 2.6 290 12:44 22.06.2020
1935 Clouds 21 1025 68 10000 2.6 290 12:23 22.06.2020
1936 Clouds 21 1025 64 10000 2.6 270 11:59 22.06.2020
1937 Clouds 19 1025 77 10000 3.1 260 11:37 22.06.2020
1938 Clouds 20 1025 72 10000 3.6 260 11:19 22.06.2020
1939 Rain 20 1024 75 0 3.81 283 10:55 22.06.2020
1940 Rain 20 1024 77 0 3.81 283 10:37 22.06.2020
1941 Rain 19 1024 83 0 4.19 287 10:18 22.06.2020
1942 Rain 18 1024 86 0 4.19 287 09:56 22.06.2020
1943 Rain 17 1024 86 0 4.11 285 09:37 22.06.2020
1944 Clouds 17 1024 87 0 3.41 273 09:18 22.06.2020
1945 Clouds 17 1024 91 0 3.41 273 08:54 22.06.2020
1946 Clouds 16 1024 93 0 3.01 258 08:36 22.06.2020
1947 Clouds 16 1024 93 0 3.01 258 08:18 22.06.2020
1948 Clouds 15 1024 94 0 3.01 258 07:44 22.06.2020
1949 Clear 14 1024 94 0 2.78 249 07:23 22.06.2020
1950 Clear 14 1024 94 0 2.78 249 06:38 22.06.2020
1951 Clear 14 1023 87 10000 2.96 249 06:19 22.06.2020
1952 Clear 14 1023 94 0 3.09 249 05:41 22.06.2020
1953 Clear 13 1023 90 0 2.83 237 03:22 22.06.2020
1954 Clouds 14 1023 88 0 2.74 236 01:39 22.06.2020
1955 Clouds 15 1023 86 0 2.65 242 00:54 22.06.2020
1956 Clouds 15 1023 85 0 2.52 247 00:29 22.06.2020
1957 Clouds 16 1023 84 0 2.52 247 23:56 21.06.2020
1958 Clouds 16 1023 84 0 2.51 257 23:37 21.06.2020
1959 Clouds 16 1023 83 0 2.51 257 23:19 21.06.2020
1960 Clouds 16 1023 82 0 2.51 257 22:55 21.06.2020
1961 Clouds 16 1022 87 10000 3.1 210 22:36 21.06.2020
1962 Rain 16 1022 87 10000 3.1 220 22:18 21.06.2020
1963 Rain 16 1022 87 10000 3.1 220 21:55 21.06.2020
1964 Rain 18 1021 77 10000 3.1 220 21:37 21.06.2020
1965 Rain 19 1021 74 0 2.38 277 21:19 21.06.2020
1966 Rain 19 1021 63 10000 3.1 230 20:56 21.06.2020
1967 Rain 20 1021 70 0 2.34 281 20:36 21.06.2020
1968 Rain 20 1021 68 0 2.34 281 20:18 21.06.2020
1969 Rain 21 1021 52 10000 3.6 340 20:18 21.06.2020
1970 Rain 21 1021 56 10000 1.5 310 19:41 21.06.2020
1971 Rain 21 1021 56 10000 1.5 310 19:21 21.06.2020
1972 Clouds 21 1021 56 10000 2.6 340 18:57 21.06.2020
1973 Rain 21 1021 66 0 2.9 281 18:39 21.06.2020
1974 Clouds 21 1021 60 10000 3.1 330 18:21 21.06.2020
1975 Rain 21 1021 64 0 2.9 281 17:57 21.06.2020
1976 Rain 20 1021 66 0 3.01 281 17:38 21.06.2020
1977 Rain 20 1021 68 0 3.01 281 17:19 21.06.2020
1978 Rain 20 1021 56 10000 3.6 280 16:41 21.06.2020
1979 Rain 21 1020 63 0 1.79 241 16:22 21.06.2020
1980 Rain 21 1020 63 0 2.68 251 15:57 21.06.2020
1981 Rain 20 1022 56 10000 5.1 290 15:37 21.06.2020
1982 Rain 20 1021 72 0 2.52 287 15:18 21.06.2020
1983 Rain 20 1021 71 0 2.34 308 14:39 21.06.2020
1984 Rain 20 1021 70 0 2.34 308 14:20 21.06.2020
1985 Rain 20 1021 69 0 2.34 308 13:56 21.06.2020
1986 Rain 20 1021 68 0 2.34 308 13:38 21.06.2020
1987 Rain 20 1021 66 0 0.45 122 13:19 21.06.2020
1988 Rain 19 1022 75 0 2.7 325 12:44 21.06.2020
1989 Rain 19 1022 75 0 2.7 325 12:44 21.06.2020
1990 Rain 19 1022 72 0 3.31 319 12:26 21.06.2020
1991 Rain 19 1022 74 0 3.31 319 11:59 21.06.2020
1992 Rain 19 1022 73 0 3.31 319 11:41 21.06.2020
1993 Rain 19 1022 73 0 3.35 309 11:23 21.06.2020
1994 Rain 19 1021 76 0 3.35 309 10:57 21.06.2020
1995 Rain 19 1022 76 0 2.82 295 10:38 21.06.2020
1996 Rain 19 1022 74 0 2.82 295 10:20 21.06.2020
1997 Clear 16 1022 82 10000 3.6 250 09:43 21.06.2020
1998 Clear 15 1022 82 10000 3.6 250 09:22 21.06.2020
1999 Clear 15 1021 96 0 0.45 234 08:57 21.06.2020
2000 Clear 14 1021 97 0 2.63 279 08:39 21.06.2020
2001 Clouds 14 1021 97 0 2.5 265 08:19 21.06.2020
2002 Clouds 13 1021 97 0 2.5 265 07:42 21.06.2020
2003 Clouds 13 1021 97 0 2.5 250 07:23 21.06.2020
2004 Clouds 13 1021 97 0 2.5 250 06:51 21.06.2020
2005 Clouds 12 1064 72 0 2.65 242 06:28 21.06.2020
2006 Clouds 12 1064 73 0 2.65 242 05:57 21.06.2020
2007 Clouds 13 1021 96 0 2.89 241 04:42 21.06.2020
2008 Clouds 12 1021 96 0 2.59 239 03:19 21.06.2020
2009 Clouds 13 1021 96 0 2.59 239 02:36 21.06.2020
2010 Clouds 13 1021 96 0 2.11 244 01:47 21.06.2020
2011 Clouds 13 1021 96 0 1.74 252 01:20 21.06.2020
2012 Clouds 14 1022 96 0 1.74 252 00:46 21.06.2020
2013 Clouds 14 1022 96 0 1.6 264 00:26 21.06.2020
2014 Clouds 14 1022 96 0 1.6 264 23:57 20.06.2020
2015 Rain 14 1022 96 0 1.37 291 23:37 20.06.2020
2016 Rain 14 1022 96 0 1.37 291 23:18 20.06.2020
2017 Rain 14 1021 96 0 1.37 291 22:54 20.06.2020
2018 Rain 14 1021 96 0 1.84 319 22:36 20.06.2020
2019 Rain 14 1022 96 0 1.84 319 22:18 20.06.2020
2020 Rain 14 1021 96 0 1.84 319 21:54 20.06.2020
2021 Rain 14 1021 96 0 1.92 298 21:36 20.06.2020
2022 Rain 14 1021 96 0 2.14 317 21:18 20.06.2020
2023 Rain 15 1021 96 0 2.05 309 20:54 20.06.2020
2024 Rain 15 1021 96 0 2.06 315 20:36 20.06.2020
2025 Rain 15 1021 96 0 2.06 315 20:18 20.06.2020
2026 Rain 15 1021 97 0 2.06 315 19:41 20.06.2020
2027 Rain 16 1021 96 0 2.28 319 19:21 20.06.2020
2028 Rain 15 1021 93 10000 4.1 230 18:43 20.06.2020
2029 Rain 16 1021 93 10000 4.1 230 18:21 20.06.2020
2030 Rain 16 1021 96 0 3.22 322 17:58 20.06.2020
2031 Rain 16 1021 97 0 3.22 322 17:40 20.06.2020
2032 Rain 16 1021 97 0 3.22 322 17:40 20.06.2020
2033 Rain 15 1022 93 10000 3.1 220 17:20 20.06.2020
2034 Rain 15 1022 93 10000 5.1 230 16:56 20.06.2020
2035 Clouds 15 1022 87 10000 3.1 210 16:38 20.06.2020
2036 Clouds 15 1022 87 10000 3.1 210 16:18 20.06.2020
2037 Rain 16 1022 93 8000 2.6 340 15:42 20.06.2020
2038 Rain 16 1022 82 10000 3.1 20 15:18 20.06.2020
2039 Rain 17 1022 82 10000 3.1 20 14:55 20.06.2020
2040 Rain 18 1020 86 0 2.68 218 14:36 20.06.2020
2041 Rain 17 1021 72 10000 4.6 280 14:18 20.06.2020
2042 Rain 17 1021 85 0 2.38 270 13:41 20.06.2020
2043 Rain 18 1022 81 0 2.77 263 13:19 20.06.2020
2044 Rain 18 1021 73 0 2.77 263 12:43 20.06.2020
2045 Rain 17 1022 77 10000 4.6 270 12:22 20.06.2020
2046 Rain 17 1022 72 10000 3.6 270 11:58 20.06.2020
2047 Clouds 17 1021 77 10000 4.6 250 11:38 20.06.2020
2048 Clouds 17 1021 77 10000 3.6 250 11:20 20.06.2020
2049 Clouds 17 1021 77 10000 3.6 250 10:57 20.06.2020
2050 Clouds 16 1021 77 10000 4.6 250 10:38 20.06.2020
2051 Rain 16 1021 72 8000 5.1 240 10:18 20.06.2020
2052 Clouds 15 1021 77 10000 4.6 240 09:40 20.06.2020
2053 Clouds 15 1021 88 0 0.45 200 09:22 20.06.2020
2054 Clouds 15 1021 90 0 3.44 261 08:57 20.06.2020
2055 Clouds 14 1021 91 0 3.44 261 08:38 20.06.2020
2056 Clouds 14 1021 91 0 3.44 259 08:20 20.06.2020
2057 Clouds 13 1021 92 0 3.44 259 07:50 20.06.2020
2058 Clouds 13 1021 92 0 3.35 254 07:25 20.06.2020
2059 Clouds 13 1021 91 0 3.35 254 06:43 20.06.2020
2060 Clouds 12 1021 90 0 3.35 247 06:20 20.06.2020
2061 Clouds 12 1021 90 0 3.35 247 05:47 20.06.2020
2062 Clouds 13 1020 91 0 3.29 246 03:25 20.06.2020
2063 Clouds 13 1020 91 0 2.87 236 01:54 20.06.2020
2064 Clouds 13 1020 91 0 2.87 236 01:36 20.06.2020
2065 Clouds 14 1020 92 0 3.05 238 00:45 20.06.2020
2066 Clouds 14 1020 93 0 2.97 246 00:20 20.06.2020
2067 Clouds 14 1020 93 0 2.97 246 23:41 19.06.2020
2068 Clouds 14 1020 93 0 2.66 249 23:20 19.06.2020
2069 Clouds 14 1020 93 0 2.66 249 22:56 19.06.2020
2070 Clouds 14 1020 92 0 2.66 249 22:37 19.06.2020
2071 Clouds 14 1020 93 0 2.57 242 22:19 19.06.2020
2072 Clouds 14 1020 92 0 2.57 242 21:55 19.06.2020
2073 Clouds 14 1020 92 0 2.41 242 21:37 19.06.2020
2074 Clouds 14 1019 92 0 2.41 242 21:18 19.06.2020
2075 Clouds 14 1019 92 0 2.41 242 20:56 19.06.2020
2076 Clouds 14 1019 92 0 2.81 239 20:38 19.06.2020
2077 Clouds 14 1019 91 0 2.81 239 20:20 19.06.2020
2078 Clouds 14 1019 92 0 2.81 239 19:54 19.06.2020
2079 Clouds 14 1019 92 0 3.04 236 19:36 19.06.2020
2080 Clouds 14 1019 93 0 0.45 231 19:18 19.06.2020
2081 Clouds 14 1019 95 0 3.04 236 18:40 19.06.2020
2082 Clouds 14 1019 95 0 0.45 207 18:21 19.06.2020
2083 Clouds 14 1019 95 0 3.28 244 17:54 19.06.2020
2084 Clouds 14 1019 96 0 3.28 244 17:36 19.06.2020
2085 Clouds 14 1019 96 0 4.1 259 17:18 19.06.2020
2086 Clouds 14 1019 96 0 4.1 259 16:41 19.06.2020
2087 Clouds 14 1018 97 0 5.04 265 16:22 19.06.2020
2088 Rain 14 1018 97 0 5.04 265 15:58 19.06.2020
2089 Rain 14 1019 97 0 5.04 265 15:40 19.06.2020
2090 Rain 14 1018 97 0 0.45 277 15:19 19.06.2020
2091 Rain 14 1019 97 0 5.75 263 14:55 19.06.2020
2092 Rain 14 1019 97 0 5.64 245 14:37 19.06.2020
2093 Rain 14 1019 97 0 5.64 245 14:18 19.06.2020
2094 Rain 14 1019 96 0 5.64 245 13:41 19.06.2020
2095 Rain 14 1019 96 0 5.71 243 13:23 19.06.2020
2096 Rain 13 1019 96 0 5.71 243 12:46 19.06.2020
2097 Rain 13 1019 96 0 5.77 243 12:22 19.06.2020
2098 Rain 13 1018 96 0 0.45 200 11:57 19.06.2020
2099 Rain 13 1018 96 0 5.77 243 11:38 19.06.2020
2100 Rain 13 1018 96 0 5.43 245 11:18 19.06.2020
2101 Rain 13 1018 96 0 5.43 245 11:18 19.06.2020
2102 Rain 13 1018 96 0 5.43 245 10:45 19.06.2020
2103 Rain 13 1018 96 0 0.45 246 10:26 19.06.2020
2104 Rain 13 1018 96 0 4.96 251 09:58 19.06.2020
2105 Rain 13 1018 96 0 4.76 260 09:40 19.06.2020
2106 Rain 13 1018 96 0 3.88 263 09:20 19.06.2020
2107 Rain 13 1017 96 0 3.88 263 08:44 19.06.2020
2108 Clouds 13 1017 96 0 3.47 265 08:26 19.06.2020
2109 Clouds 13 1017 96 0 3.47 265 07:56 19.06.2020
2110 Clouds 13 1017 96 0 3.47 265 07:38 19.06.2020
2111 Rain 13 1017 96 0 3.23 259 07:19 19.06.2020
2112 Rain 13 1017 96 0 2.9 255 06:25 19.06.2020
2113 Rain 13 1017 95 0 2.9 255 05:44 19.06.2020
2114 Clouds 13 1016 95 0 2.52 253 04:25 19.06.2020
2115 Rain 13 1016 93 0 1.99 256 02:51 19.06.2020
2116 Clouds 14 1016 92 0 1.63 249 00:56 19.06.2020
2117 Clouds 14 1015 91 0 1.63 249 00:37 19.06.2020
2118 Clouds 15 1015 90 0 1.43 248 00:19 19.06.2020
2119 Clouds 15 1015 88 0 1.43 248 23:41 18.06.2020
2120 Clouds 15 1015 88 0 1.03 266 23:23 18.06.2020
2121 Clouds 15 1015 87 0 1.03 266 22:59 18.06.2020
2122 Clouds 15 1014 84 0 1.03 266 22:39 18.06.2020
2123 Clouds 16 1014 82 0 1.09 312 22:18 18.06.2020
2124 Clouds 18 1014 74 0 1.67 340 21:39 18.06.2020
2125 Clouds 18 1014 71 0 1.67 340 21:20 18.06.2020
2126 Clouds 19 1013 66 0 1.67 340 20:58 18.06.2020
2127 Clear 20 1013 63 0 2.34 343 20:40 18.06.2020
2128 Clear 20 1013 62 0 2.34 343 20:19 18.06.2020
2129 Clear 21 1013 60 0 2.34 343 19:56 18.06.2020
2130 Clear 21 1013 62 0 2.34 343 19:37 18.06.2020
2131 Clear 22 1013 58 0 2.54 336 19:18 18.06.2020
2132 Clear 22 1013 55 0 2.54 336 18:38 18.06.2020
2133 Clouds 22 1013 53 0 2.78 325 18:19 18.06.2020
2134 Clouds 22 1012 54 0 2.78 325 17:45 18.06.2020
2135 Clouds 22 1013 56 0 3.08 320 17:26 18.06.2020
2136 Clouds 22 1013 56 0 3.08 320 17:26 18.06.2020
2137 Clouds 22 1013 57 0 3.08 320 16:57 18.06.2020
2138 Clouds 21 1013 57 0 3.08 320 16:39 18.06.2020
2139 Clouds 22 1013 56 0 3.09 314 16:20 18.06.2020
2140 Clouds 22 1013 54 0 3.09 314 15:57 18.06.2020
2141 Clouds 22 1014 52 0 3.23 307 15:39 18.06.2020
2142 Clouds 22 1014 53 0 0.45 273 15:20 18.06.2020
2143 Clouds 22 1014 55 0 3.23 307 14:56 18.06.2020
2144 Clouds 22 1014 56 0 3.29 311 14:37 18.06.2020
2145 Clouds 21 1014 55 0 3.29 311 14:19 18.06.2020
2146 Clouds 21 1015 59 0 3.29 311 13:47 18.06.2020
2147 Clouds 21 1015 59 0 0.45 300 13:28 18.06.2020
2148 Clouds 21 1015 57 0 3.35 308 12:57 18.06.2020
2149 Clouds 20 1055 55 0 0.45 345 12:39 18.06.2020
2150 Clouds 20 1015 60 0 3.24 300 12:20 18.06.2020
2151 Clouds 19 1015 60 0 3.24 300 11:57 18.06.2020
2152 Clouds 19 1015 64 0 3.04 290 11:38 18.06.2020
2153 Clouds 19 1015 66 0 0.45 211 11:19 18.06.2020
2154 Clouds 18 1015 66 0 3.04 290 10:40 18.06.2020
2155 Clouds 17 1015 75 0 0.45 284 10:19 18.06.2020
2156 Clouds 17 1015 77 0 0.45 260 09:46 18.06.2020
2157 Clouds 15 1015 77 10000 4.6 250 09:27 18.06.2020
2158 Clouds 14 1015 92 0 2.93 260 08:58 18.06.2020
2159 Clouds 14 1015 94 0 2.85 252 08:38 18.06.2020
2160 Clouds 13 1015 95 0 2.85 252 08:20 18.06.2020
2161 Clouds 13 1015 97 0 2.85 252 07:45 18.06.2020
2162 Clouds 12 1015 97 0 2.38 246 07:26 18.06.2020
2163 Clouds 12 1015 97 0 2.38 246 06:42 18.06.2020
2164 Clouds 11 1014 96 0 2.55 251 05:40 18.06.2020
2165 Clouds 12 1014 96 0 3.35 256 04:21 18.06.2020
2166 Clouds 13 1014 96 0 3.4 252 02:37 18.06.2020
2167 Rain 13 1014 96 0 4.55 261 01:28 18.06.2020
2168 Rain 13 1014 96 0 4.55 261 00:54 18.06.2020
2169 Rain 13 1014 96 0 4.55 261 00:32 18.06.2020
2170 Rain 13 1014 96 0 5.15 264 23:58 17.06.2020
2171 Rain 13 1014 96 0 5.52 262 23:39 17.06.2020
2172 Rain 13 1013 96 0 5.52 262 23:20 17.06.2020
2173 Rain 13 1013 96 0 0.45 180 22:57 17.06.2020
2174 Rain 13 1013 97 0 5.52 262 22:38 17.06.2020
2175 Rain 13 1013 97 0 0.45 182 22:20 17.06.2020
2176 Rain 13 1013 97 0 0.45 182 22:20 17.06.2020
2177 Rain 13 1013 97 0 0.45 232 21:55 17.06.2020
2178 Rain 14 1012 97 0 0.45 200 21:36 17.06.2020
2179 Rain 14 1012 96 0 6.43 252 21:18 17.06.2020
2180 Rain 14 1012 96 0 6.43 252 21:18 17.06.2020
2181 Rain 13 1012 100 0 0.45 180 20:38 17.06.2020
2182 Rain 14 1012 96 0 6.62 251 20:19 17.06.2020
2183 Rain 14 1012 96 0 6.62 251 20:19 17.06.2020
2184 Rain 14 1012 95 0 0.45 200 19:55 17.06.2020
2185 Rain 14 1012 95 0 6.62 251 19:36 17.06.2020
2186 Rain 14 1011 93 0 0.45 220 19:18 17.06.2020
2187 Rain 14 1011 91 0 0.89 308 18:41 17.06.2020
2188 Rain 13 1011 93 8000 7.7 250 18:23 17.06.2020
2189 Rain 20 1010 80 0 1.34 179 17:44 17.06.2020
2190 Rain 19 1010 80 0 1.34 179 17:44 17.06.2020
2191 Rain 20 1010 77 10000 10.3 240 17:22 17.06.2020
2192 Rain 23 1009 66 0 3.85 260 16:57 17.06.2020
2193 Rain 23 1009 66 0 3.85 260 16:57 17.06.2020
2194 Rain 23 1009 67 0 3.85 260 16:39 17.06.2020
2195 Thunderstorm 22 1009 64 10000 3.6 60 16:21 17.06.2020
2196 Rain 23 1009 63 0 0.45 188 15:56 17.06.2020
2197 Rain 23 1009 66 0 2.03 47 15:38 17.06.2020
2198 Rain 23 1009 66 0 0.89 334 15:19 17.06.2020
2199 Rain 23 1009 63 0 0.45 94 14:57 17.06.2020
2200 Rain 23 1009 68 0 3.72 62 14:39 17.06.2020
2201 Rain 23 1010 69 0 2.73 54 14:19 17.06.2020
2202 Rain 22 1010 74 0 2.73 54 13:56 17.06.2020
2203 Clouds 21 1010 80 0 2.39 48 13:36 17.06.2020
2204 Clouds 21 1010 78 0 2.39 48 13:18 17.06.2020
2205 Clouds 20 1011 79 0 2.39 48 12:42 17.06.2020
2206 Rain 19 1011 84 0 1.29 40 12:22 17.06.2020
2207 Rain 18 1011 88 0 1.29 40 11:57 17.06.2020
2208 Rain 18 1011 90 0 1.29 40 11:37 17.06.2020
2209 Rain 17 1011 91 0 0.43 33 11:18 17.06.2020
2210 Rain 17 1012 92 0 0.43 33 10:38 17.06.2020
2211 Clouds 16 1011 94 0 0.15 22 10:19 17.06.2020
2212 Clouds 16 1012 95 0 0.15 22 09:58 17.06.2020
2213 Clouds 15 1012 96 0 0.94 40 09:40 17.06.2020
2214 Clouds 15 1012 96 0 0.4 348 09:20 17.06.2020
2215 Clouds 14 1012 97 0 0.4 348 08:45 17.06.2020
2216 Clouds 14 1012 98 0 0.27 267 08:20 17.06.2020
2217 Clouds 14 1012 98 0 0.27 267 07:56 17.06.2020
2218 Clouds 14 1012 98 0 0.43 234 07:37 17.06.2020
2219 Clouds 14 1012 98 0 0.43 234 07:19 17.06.2020
2220 Clouds 13 1012 98 0 0.43 234 06:55 17.06.2020
2221 Clouds 13 1012 98 0 0.43 234 06:36 17.06.2020
2222 Clouds 13 1012 100 7000 1.5 160 06:18 17.06.2020
2223 Clouds 13 1012 98 0 0.89 249 04:53 17.06.2020
2224 Clouds 13 1014 98 0 1.1 247 02:49 17.06.2020
2225 Clouds 14 1014 97 0 1.04 256 01:29 17.06.2020
2226 Clouds 14 1015 97 0 1.04 256 00:38 17.06.2020
2227 Clouds 14 1015 97 0 0.77 253 00:20 17.06.2020
2228 Clouds 14 1015 97 0 0.77 253 23:56 16.06.2020
2229 Clouds 15 1015 96 0 0.84 257 23:37 16.06.2020
2230 Clouds 15 1015 96 0 0.84 257 23:19 16.06.2020
2231 Clouds 15 1015 96 0 0.84 257 22:54 16.06.2020
2232 Clouds 15 1015 96 0 1.04 269 22:36 16.06.2020
2233 Clouds 16 1015 95 0 1.04 269 22:18 16.06.2020
2234 Clouds 16 1015 94 0 1.04 269 21:45 16.06.2020
2235 Clouds 17 1014 92 0 0.5 260 21:23 16.06.2020
2236 Clouds 17 1014 90 0 0.5 260 20:57 16.06.2020
2237 Clouds 18 1014 89 0 0.5 260 20:39 16.06.2020
2238 Clouds 18 1014 88 0 0.34 338 20:19 16.06.2020
2239 Clouds 18 1014 87 0 0.34 338 19:57 16.06.2020
2240 Clouds 18 1015 86 0 0.34 338 19:38 16.06.2020
2241 Clouds 19 1015 85 0 0.69 322 19:20 16.06.2020
2242 Clouds 19 1015 82 0 0.69 322 18:54 16.06.2020
2243 Clouds 19 1015 80 0 1.26 280 18:36 16.06.2020
2244 Clouds 19 1015 81 0 1.26 280 18:18 16.06.2020
2245 Clouds 19 1015 78 0 1.26 280 17:54 16.06.2020
2246 Clouds 19 1015 78 0 1.84 264 17:36 16.06.2020
2247 Clouds 19 1015 83 0 1.84 264 17:18 16.06.2020
2248 Clouds 19 1016 87 0 1.84 264 16:42 16.06.2020
2249 Clouds 18 1016 89 0 2.29 259 16:20 16.06.2020
2250 Clouds 18 1016 90 0 2.29 259 15:58 16.06.2020
2251 Rain 17 1016 93 8000 1.5 260 15:39 16.06.2020
2252 Rain 17 1016 93 8000 1.5 260 15:21 16.06.2020
2253 Rain 18 1015 92 0 2.42 263 14:57 16.06.2020
2254 Rain 17 1015 92 0 2.84 252 14:38 16.06.2020
2255 Rain 17 1015 92 0 2.84 252 14:20 16.06.2020
2256 Clouds 16 1015 93 0 2.84 252 13:46 16.06.2020
2257 Clouds 15 1015 94 0 2.79 251 13:26 16.06.2020
2258 Clouds 15 1015 94 0 2.79 251 12:57 16.06.2020
2259 Clouds 16 1015 93 0 2.7 253 12:38 16.06.2020
2260 Clouds 16 1015 93 0 2.7 253 12:19 16.06.2020
2261 Clouds 15 1015 94 0 2.7 253 11:54 16.06.2020
2262 Clouds 15 1015 93 0 2.7 253 11:36 16.06.2020
2263 Clouds 14 1017 99 0 2.46 251 11:18 16.06.2020
2264 Clouds 14 1015 94 0 2.46 251 10:42 16.06.2020
2265 Rain 14 1015 94 0 2.4 251 10:21 16.06.2020
2266 Rain 14 1015 94 0 2.4 251 09:57 16.06.2020
2267 Rain 14 1015 94 0 2.4 251 09:39 16.06.2020
2268 Clouds 14 1015 94 0 1.44 257 09:21 16.06.2020
2269 Rain 14 1015 94 0 1.44 257 08:43 16.06.2020
2270 Rain 13 1015 94 0 1.46 266 08:25 16.06.2020
2271 Rain 13 1017 99 0 1.46 266 07:47 16.06.2020
2272 Rain 13 1017 99 0 1.89 269 07:26 16.06.2020
2273 Rain 13 1017 98 0 1.89 269 06:48 16.06.2020
2274 Rain 13 1017 98 0 2.35 265 06:26 16.06.2020
2275 Rain 13 1017 98 0 2.35 265 06:26 16.06.2020
2276 Rain 13 1017 98 0 2.54 260 05:38 16.06.2020
2277 Rain 13 1017 98 0 2.41 257 04:31 16.06.2020
2278 Rain 13 1018 98 0 2.81 257 02:58 16.06.2020
2279 Rain 13 1018 98 0 2.86 252 01:59 16.06.2020
2280 Rain 13 1018 98 0 2.84 249 01:27 16.06.2020
2281 Rain 13 1016 94 0 2.84 249 00:43 16.06.2020
2282 Rain 13 1016 94 0 2.91 246 00:19 16.06.2020
2283 Rain 13 1016 94 0 2.91 246 23:42 15.06.2020
2284 Rain 13 1017 94 0 3.14 246 23:22 15.06.2020
2285 Rain 13 1017 94 0 3.14 246 22:55 15.06.2020
2286 Rain 13 1017 94 0 3.14 246 22:37 15.06.2020
2287 Rain 13 1016 93 0 3.12 245 22:18 15.06.2020
2288 Rain 13 1016 93 0 3.12 245 21:56 15.06.2020
2289 Rain 13 1016 93 0 3.44 247 21:37 15.06.2020
2290 Rain 13 1016 93 0 3.82 245 21:19 15.06.2020
2291 Rain 13 1016 93 0 3.82 245 21:19 15.06.2020
2292 Rain 13 1016 93 0 3.82 245 20:56 15.06.2020
2293 Rain 13 1016 93 0 3.82 245 20:37 15.06.2020
2294 Rain 13 1016 93 0 4.24 246 20:19 15.06.2020
2295 Rain 13 1016 93 0 4.24 246 19:55 15.06.2020
2296 Rain 13 1016 93 0 4.56 246 19:37 15.06.2020
2297 Rain 13 1016 93 0 4.56 246 19:19 15.06.2020
2298 Rain 13 1016 93 0 4.56 246 18:55 15.06.2020
2299 Rain 14 1016 93 0 4.56 246 18:36 15.06.2020
2300 Rain 14 1016 93 0 4.45 245 18:18 15.06.2020
2301 Rain 14 1016 93 0 4.45 245 17:42 15.06.2020
2302 Rain 14 1016 93 0 4.61 246 17:21 15.06.2020
2303 Rain 14 1016 93 0 4.61 246 17:21 15.06.2020
2304 Rain 15 1016 93 0 4.61 246 16:59 15.06.2020
2305 Rain 14 1016 93 0 4.73 252 16:40 15.06.2020
2306 Rain 14 1015 93 0 4.73 252 16:19 15.06.2020
2307 Rain 14 1015 93 0 4.73 252 15:56 15.06.2020
2308 Rain 14 1015 93 0 4.73 252 15:56 15.06.2020
2309 Rain 15 1015 93 0 4.73 252 15:36 15.06.2020
2310 Rain 15 1015 93 0 5.14 257 15:18 15.06.2020
2311 Rain 15 1015 93 0 5.14 257 14:42 15.06.2020
2312 Rain 15 1015 93 0 5.3 257 14:21 15.06.2020
2313 Rain 15 1016 93 0 5.3 257 13:59 15.06.2020
2314 Rain 15 1016 93 0 5.3 257 13:41 15.06.2020
2315 Rain 15 1015 94 0 5.34 258 13:22 15.06.2020
2316 Rain 14 1015 93 0 5.34 258 12:57 15.06.2020
2317 Rain 14 1015 93 0 5.34 258 12:39 15.06.2020
2318 Rain 14 1015 94 0 5.09 259 12:21 15.06.2020
2319 Rain 14 1015 94 0 5.09 259 11:44 15.06.2020
2320 Rain 14 1015 94 0 5.02 262 11:25 15.06.2020
2321 Rain 14 1015 94 0 5.02 262 10:55 15.06.2020
2322 Rain 14 1015 94 0 5.02 262 10:36 15.06.2020
2323 Rain 14 1015 94 0 5.21 264 10:18 15.06.2020
2324 Rain 13 1015 94 0 5.26 261 09:41 15.06.2020
2325 Rain 13 1015 94 0 5.19 260 09:21 15.06.2020
2326 Rain 13 1017 98 0 0.45 184 08:42 15.06.2020
2327 Rain 13 1017 98 0 0.45 215 08:23 15.06.2020
2328 Rain 13 1017 98 0 0.45 188 07:48 15.06.2020
2329 Rain 13 1017 98 0 5.68 257 07:29 15.06.2020
2330 Rain 13 1016 98 0 0.45 199 06:50 15.06.2020
2331 Rain 13 1016 98 0 5.82 258 06:26 15.06.2020
2332 Rain 13 1016 98 0 0.45 322 05:47 15.06.2020
2333 Rain 12 1016 98 0 0.45 158 05:27 15.06.2020
2334 Rain 13 1016 98 0 5.34 256 04:21 15.06.2020
2335 Rain 13 1016 98 0 0.45 234 03:47 15.06.2020
2336 Rain 12 1017 98 0 0.45 198 02:55 15.06.2020
2337 Rain 13 1017 98 0 5.6 252 01:59 15.06.2020
2338 Rain 13 1017 98 0 5.6 252 01:39 15.06.2020
2339 Rain 13 1015 93 0 5.61 251 01:21 15.06.2020
2340 Rain 13 1015 93 0 5.61 251 00:40 15.06.2020
2341 Rain 13 1015 93 0 5.65 250 00:20 15.06.2020
2342 Rain 13 1015 93 0 5.65 250 23:55 14.06.2020
2343 Rain 13 1015 93 0 5.65 250 23:36 14.06.2020
2344 Rain 13 1015 92 0 5.68 248 23:18 14.06.2020
2345 Rain 13 1015 92 0 5.68 248 22:55 14.06.2020
2346 Rain 13 1015 92 0 5.29 248 22:37 14.06.2020
2347 Rain 13 1015 92 0 5.29 248 22:18 14.06.2020
2348 Rain 13 1015 92 0 5.29 248 21:55 14.06.2020
2349 Rain 13 1015 92 0 5.32 248 21:36 14.06.2020
2350 Rain 13 1014 92 0 5.41 251 21:18 14.06.2020
2351 Rain 13 1016 97 0 5.32 248 20:55 14.06.2020
2352 Rain 13 1016 97 0 5.32 248 20:55 14.06.2020
2353 Rain 13 1016 97 0 0.45 254 20:36 14.06.2020
2354 Rain 13 1016 97 0 5.24 250 20:18 14.06.2020
2355 Rain 14 1016 97 0 0.45 242 19:55 14.06.2020
2356 Rain 14 1016 97 0 0.45 311 19:36 14.06.2020
2357 Rain 14 1016 97 0 0.45 320 19:18 14.06.2020
2358 Rain 14 1015 97 0 5.42 252 18:55 14.06.2020
2359 Rain 14 1015 97 0 5.42 252 18:37 14.06.2020
2360 Rain 14 1015 97 0 0.45 191 18:18 14.06.2020
2361 Rain 14 1015 96 0 0.45 263 17:40 14.06.2020
2362 Rain 14 1015 96 0 5.85 256 17:20 14.06.2020
2363 Rain 14 1015 96 0 0.45 209 16:59 14.06.2020
2364 Rain 14 1015 96 0 0.45 195 16:40 14.06.2020
2365 Rain 14 1015 95 0 0.45 192 16:19 14.06.2020
2366 Rain 14 1015 95 0 0.45 300 15:57 14.06.2020
2367 Rain 14 1015 95 0 0.45 212 15:37 14.06.2020
2368 Rain 14 1015 95 0 0.45 197 15:18 14.06.2020
2369 Rain 14 1015 95 0 0.45 196 14:41 14.06.2020
2370 Rain 14 1015 95 0 0.45 199 14:23 14.06.2020
2371 Rain 14 1015 95 0 7.19 258 13:59 14.06.2020
2372 Rain 14 1015 95 0 0.45 205 13:41 14.06.2020
2373 Rain 14 1015 95 0 0.45 181 13:22 14.06.2020
2374 Rain 14 1015 94 0 0.45 209 12:59 14.06.2020
2375 Rain 14 1015 94 0 0.45 255 12:40 14.06.2020
2376 Rain 14 1015 93 0 0.45 192 12:21 14.06.2020
2377 Rain 14 1015 91 0 0.45 214 11:58 14.06.2020
2378 Rain 14 1015 91 0 0.45 224 11:40 14.06.2020
2379 Rain 14 1015 92 0 0.45 182 11:21 14.06.2020
2380 Rain 14 1014 93 10000 6.7 230 10:57 14.06.2020
2381 Rain 14 1014 93 10000 5.7 240 10:38 14.06.2020
2382 Rain 14 1014 93 10000 5.7 240 10:18 14.06.2020
2383 Rain 14 1014 93 10000 6.7 240 09:42 14.06.2020
2384 Rain 14 1014 93 10000 6.7 240 09:23 14.06.2020
2385 Rain 13 1014 93 10000 6.7 240 08:42 14.06.2020
2386 Rain 13 1014 93 10000 6.7 240 08:22 14.06.2020
2387 Rain 13 1014 93 10000 6.7 230 07:53 14.06.2020
2388 Rain 13 1013 93 10000 5.7 240 07:35 14.06.2020
2389 Rain 14 1017 83 0 1.34 266 06:58 14.06.2020
2390 Rain 14 1013 97 0 0.45 213 05:56 14.06.2020
2391 Rain 14 1013 97 0 6.48 262 05:34 14.06.2020
2392 Rain 14 1012 100 10000 6.7 240 04:39 14.06.2020
2393 Rain 14 1012 96 0 0.45 219 03:55 14.06.2020
2394 Rain 15 1012 96 0 0.89 342 02:43 14.06.2020
2395 Rain 15 1011 96 0 1.34 310 02:23 14.06.2020
2396 Rain 15 1012 95 0 1.34 291 01:30 14.06.2020
2397 Rain 17 1013 89 0 0.89 166 00:49 14.06.2020
2398 Rain 18 1011 81 0 2.24 302 00:29 14.06.2020
2399 Rain 19 1010 68 10000 2.1 310 23:49 13.06.2020
2400 Rain 20 1010 68 10000 2.1 310 23:31 13.06.2020
2401 Rain 20 1009 68 10000 3.1 320 22:59 13.06.2020
2402 Rain 21 1009 76 0 2.38 273 22:38 13.06.2020
2403 Rain 21 1009 77 10000 1.5 310 22:19 13.06.2020
2404 Rain 21 1009 72 10000 0.5 280 21:58 13.06.2020
2405 Rain 21 1009 60 10000 1 0 21:40 13.06.2020
2406 Rain 22 1009 69 0 1.2 301 21:21 13.06.2020
2407 Rain 23 1009 53 10000 2.1 330 20:54 13.06.2020
2408 Rain 24 1008 63 0 1.2 301 20:36 13.06.2020
2409 Rain 25 1008 60 0 0.78 298 20:18 13.06.2020
2410 Rain 25 1008 50 10000 3.1 310 19:40 13.06.2020
2411 Rain 25 1008 47 10000 2.6 350 19:20 13.06.2020
2412 Rain 25 1008 47 10000 2.6 350 18:59 13.06.2020
2413 Rain 25 1009 50 10000 2.6 340 18:40 13.06.2020
2414 Clouds 25 1009 50 10000 2.6 30 18:20 13.06.2020
2415 Clouds 25 1009 50 10000 2.6 30 17:57 13.06.2020
2416 Clouds 25 1009 53 10000 3.1 10 17:39 13.06.2020
2417 Clouds 26 1009 58 0 2.32 356 17:20 13.06.2020
2418 Clouds 26 1009 57 0 2.32 356 16:55 13.06.2020
2419 Clouds 26 1009 58 0 0.45 355 16:37 13.06.2020
2420 Clouds 26 1009 57 0 2.74 335 16:18 13.06.2020
2421 Clouds 26 1010 57 0 2.74 335 15:44 13.06.2020
2422 Clouds 24 1010 56 10000 4.6 350 15:26 13.06.2020
2423 Clouds 25 1011 53 10000 2.6 270 14:55 13.06.2020
2424 Clouds 24 1011 56 10000 1.5 340 14:36 13.06.2020
2425 Clouds 24 1011 56 10000 3.1 260 14:18 13.06.2020
2426 Clouds 23 1011 64 10000 3.1 270 13:41 13.06.2020
2427 Clouds 24 1011 64 10000 3.1 270 13:23 13.06.2020
2428 Clouds 24 1010 62 0 1.34 304 12:44 13.06.2020
2429 Clouds 22 1011 60 10000 3.6 260 12:26 13.06.2020
2430 Clouds 21 1011 60 10000 4.6 240 11:59 13.06.2020
2431 Clouds 21 1012 64 10000 5.1 240 11:39 13.06.2020
2432 Clouds 21 1012 64 10000 5.1 240 11:19 13.06.2020
2433 Clouds 21 1055 53 0 1.34 296 10:57 13.06.2020
2434 Clouds 21 1055 53 0 0.89 216 10:38 13.06.2020
2435 Clouds 21 1012 65 0 0.89 203 10:19 13.06.2020
2436 Clouds 20 1012 67 0 0.89 316 09:45 13.06.2020
2437 Clouds 18 1012 68 10000 5.7 240 09:27 13.06.2020
2438 Clouds 18 1011 74 0 0.45 202 08:55 13.06.2020
2439 Clouds 18 1011 75 0 0.45 205 08:37 13.06.2020
2440 Clear 17 1011 77 0 0.45 285 08:19 13.06.2020
2441 Clear 17 1011 79 0 0.45 257 07:42 13.06.2020
2442 Clear 16 1011 81 0 0.45 184 07:22 13.06.2020
2443 Clear 14 1011 95 0 4.48 253 06:38 13.06.2020
2444 Clear 14 1010 96 0 3.81 255 06:19 13.06.2020
2445 Clear 13 1010 95 0 2.93 245 05:27 13.06.2020
2446 Clear 14 1009 94 0 2.23 242 04:34 13.06.2020
2447 Clear 14 1008 93 0 1.24 241 02:55 13.06.2020
2448 Clear 14 1008 93 0 0.05 128 02:37 13.06.2020
2449 Clear 15 1008 91 0 0.05 128 01:48 13.06.2020
2450 Clear 15 1008 90 0 0.92 73 01:22 13.06.2020
2451 Clear 16 1008 89 0 0.92 73 00:48 13.06.2020
2452 Clear 16 1007 89 0 1.71 77 00:27 13.06.2020
2453 Clear 17 1007 86 0 1.71 77 23:58 12.06.2020
2454 Clear 17 1007 84 0 2.32 82 23:38 12.06.2020
2455 Clear 18 1007 82 0 2.32 82 23:18 12.06.2020
2456 Clear 18 1007 77 0 2.32 82 22:42 12.06.2020
2457 Clear 19 1007 72 0 2.64 88 22:19 12.06.2020
2458 Clear 20 1007 65 0 2.64 88 21:56 12.06.2020
2459 Clear 22 1007 61 0 2.59 83 21:37 12.06.2020
2460 Clear 22 1007 58 0 2.64 83 21:19 12.06.2020
2461 Clear 22 1007 49 10000 2.6 60 20:56 12.06.2020
2462 Clear 24 1007 55 0 3.15 83 20:37 12.06.2020
2463 Clear 24 1006 55 0 3.15 83 20:19 12.06.2020
2464 Clear 25 1006 44 10000 4.6 60 19:39 12.06.2020
2465 Clear 25 1006 52 0 0.45 106 19:21 12.06.2020
2466 Clear 26 1006 50 0 0.45 108 18:58 12.06.2020
2467 Clear 26 1006 50 0 4.71 77 18:36 12.06.2020
2468 Clear 26 1006 47 0 0.45 340 18:18 12.06.2020
2469 Clear 27 1006 46 0 0.45 315 17:40 12.06.2020
2470 Clear 26 1006 44 0 0.45 210 17:22 12.06.2020
2471 Clear 26 1006 43 0 0.45 343 16:45 12.06.2020
2472 Clear 26 1006 47 0 0.45 262 16:21 12.06.2020
2473 Clear 26 1006 47 0 0.45 248 15:50 12.06.2020
2474 Clear 26 1007 49 0 0.45 126 15:28 12.06.2020
2475 Clear 26 1007 46 0 0.45 209 14:59 12.06.2020
2476 Clear 26 1007 46 0 0.45 259 14:41 12.06.2020
2477 Clear 25 1007 49 0 0.45 119 14:21 12.06.2020
2478 Clear 25 1007 49 0 0.45 336 13:56 12.06.2020
2479 Clear 25 1007 50 0 0.45 25 13:37 12.06.2020
2480 Clear 24 1007 50 0 0.45 221 13:18 12.06.2020
2481 Clear 23 1008 49 10000 5.1 90 12:39 12.06.2020
2482 Clear 22 1008 49 10000 5.1 90 12:19 12.06.2020
2483 Clear 21 1008 56 10000 5.1 70 11:44 12.06.2020
2484 Clear 21 1051 59 0 1.79 234 11:23 12.06.2020
2485 Clear 21 1008 60 0 0.45 348 10:57 12.06.2020
2486 Clear 20 1009 65 0 0.45 338 10:39 12.06.2020
2487 Clear 20 1009 66 0 4.05 92 10:21 12.06.2020
2488 Clear 18 1052 66 0 1.34 290 09:44 12.06.2020
2489 Clear 17 1009 72 10000 2.6 70 09:20 12.06.2020
2490 Clear 16 1009 87 0 2.96 100 08:42 12.06.2020
2491 Clear 15 1009 95 0 2.44 94 08:23 12.06.2020
2492 Clear 13 1009 97 0 2.44 94 07:43 12.06.2020
2493 Clear 12 1009 97 0 1.26 103 07:24 12.06.2020
2494 Clear 10 1009 96 0 1.26 103 06:44 12.06.2020
2495 Clear 10 1009 96 0 1.05 157 06:24 12.06.2020
2496 Clear 9 1009 96 0 1.05 157 05:50 12.06.2020
2497 Clear 10 1009 96 0 1.3 141 05:25 12.06.2020
2498 Clear 10 1010 96 0 1.3 119 03:58 12.06.2020
2499 Clear 11 1010 96 0 1.17 116 02:43 12.06.2020
2500 Clear 11 1010 96 0 1.24 112 01:52 12.06.2020
2501 Clear 12 1010 96 0 1.2 101 01:23 12.06.2020
2502 Clear 12 1010 96 0 1.2 101 00:42 12.06.2020
2503 Clear 13 1010 96 0 1.06 109 00:24 12.06.2020
2504 Clear 12 1010 96 0 1.06 109 23:59 11.06.2020
2505 Clear 12 1010 95 0 1.06 109 23:40 11.06.2020
2506 Clear 12 1010 95 0 1.06 109 23:40 11.06.2020
2507 Clear 13 1010 95 0 1 118 23:21 11.06.2020
2508 Clear 13 1010 95 0 1 118 22:57 11.06.2020
2509 Clear 14 1010 94 0 1 118 22:38 11.06.2020
2510 Clear 14 1010 94 0 1.19 111 22:19 11.06.2020
2511 Clear 14 1010 94 0 1.19 111 22:19 11.06.2020
2512 Clear 14 1010 93 0 1.19 111 21:55 11.06.2020
2513 Clear 15 1010 90 0 1.34 100 21:37 11.06.2020
2514 Clear 16 1010 89 0 1.12 90 21:19 11.06.2020
2515 Clear 17 1009 82 0 1.12 90 20:43 11.06.2020
2516 Clouds 18 1009 81 0 1.61 93 20:21 11.06.2020
2517 Clouds 18 1009 81 0 1.61 93 19:45 11.06.2020
2518 Clouds 19 1009 81 0 2.27 88 19:23 11.06.2020
2519 Clouds 18 1009 83 0 2.27 88 18:59 11.06.2020
2520 Clouds 18 1009 82 0 2.27 88 18:41 11.06.2020
2521 Clouds 18 1009 81 0 2.41 72 18:20 11.06.2020
2522 Rain 19 1009 85 0 2.41 72 17:56 11.06.2020
2523 Rain 18 1009 89 0 2.41 72 17:37 11.06.2020
2524 Rain 19 1009 88 0 2 46 17:19 11.06.2020
2525 Rain 19 1009 80 0 2 46 16:56 11.06.2020
2526 Clouds 19 1009 68 0 1.78 23 16:37 11.06.2020
2527 Clouds 20 1009 68 0 1.78 23 16:19 11.06.2020
2528 Clouds 19 1009 72 0 1.78 23 15:42 11.06.2020
2529 Clouds 19 1009 68 10000 1.5 0 15:23 11.06.2020
2530 Clouds 19 1009 67 10000 1.5 350 14:56 11.06.2020
2531 Rain 19 1009 70 0 1.77 316 14:38 11.06.2020
2532 Clouds 19 1009 66 0 1.95 297 14:19 11.06.2020
2533 Clouds 19 1009 75 0 1.95 297 13:54 11.06.2020
2534 Clouds 19 1010 77 0 2.37 280 13:36 11.06.2020
2535 Clouds 18 1010 77 0 2.37 280 13:18 11.06.2020
2536 Clouds 18 1010 76 0 2.37 280 12:39 11.06.2020
2537 Clouds 16 1010 87 10000 2.6 250 12:21 11.06.2020
2538 Clouds 16 1010 87 10000 1 0 11:59 11.06.2020
2539 Clouds 15 1010 87 10000 1 0 11:41 11.06.2020
2540 Clouds 15 1010 87 10000 1 0 11:23 11.06.2020
2541 Clouds 14 1010 87 10000 1.5 340 10:59 11.06.2020
2542 Clouds 13 1010 87 10000 1.5 340 10:41 11.06.2020
2543 Rain 13 1010 93 9000 1.5 300 10:19 11.06.2020
2544 Rain 12 1010 97 0 2.46 227 09:44 11.06.2020
2545 Clouds 12 1010 97 0 2.03 202 09:26 11.06.2020
2546 Clouds 13 1010 97 0 2.03 202 08:55 11.06.2020
2547 Clouds 12 1010 97 0 1.64 205 08:36 11.06.2020
2548 Rain 12 1010 97 0 1.64 205 08:18 11.06.2020
2549 Rain 12 1010 97 0 1.64 205 07:41 11.06.2020
2550 Clouds 12 1010 97 0 1.37 221 07:23 11.06.2020
2551 Clouds 12 1010 97 0 1.37 221 06:33 11.06.2020
2552 Rain 12 1009 97 0 1.42 246 05:57 11.06.2020
2553 Rain 12 1009 97 0 1.25 226 04:48 11.06.2020
2554 Rain 12 1009 97 0 1.14 314 03:25 11.06.2020
2555 Rain 12 1010 97 0 1.14 314 02:49 11.06.2020
2556 Rain 12 1010 97 0 1.07 4 01:57 11.06.2020
2557 Rain 12 1010 97 0 1.5 8 01:35 11.06.2020
2558 Rain 12 1010 96 0 1.5 8 00:59 11.06.2020
2559 Rain 12 1010 96 0 1.5 8 00:39 11.06.2020
2560 Rain 12 1010 96 0 1.82 16 00:20 11.06.2020
2561 Rain 13 1010 96 0 1.82 16 23:43 10.06.2020
2562 Rain 13 1010 96 0 2.15 27 23:23 10.06.2020
2563 Rain 13 1011 96 0 2.15 27 22:55 10.06.2020
2564 Rain 13 1010 95 0 2.15 27 22:37 10.06.2020
2565 Rain 13 1011 95 0 2.4 26 22:18 10.06.2020
2566 Rain 13 1011 95 0 2.4 26 22:18 10.06.2020
2567 Rain 13 1010 95 0 2.4 26 21:55 10.06.2020
2568 Rain 13 1010 95 0 2.61 13 21:37 10.06.2020
2569 Rain 13 1010 95 0 2.61 13 21:18 10.06.2020
2570 Rain 14 1010 95 0 2.61 13 20:55 10.06.2020
2571 Rain 14 1010 94 0 2.61 13 20:37 10.06.2020
2572 Rain 14 1010 94 0 2.24 12 20:19 10.06.2020
2573 Rain 14 1010 94 0 2.24 12 19:39 10.06.2020
2574 Rain 14 1010 94 0 1.91 20 19:19 10.06.2020
2575 Rain 14 1010 94 0 1.91 20 18:57 10.06.2020
2576 Rain 14 1010 94 0 1.92 24 18:39 10.06.2020
2577 Rain 14 1010 94 0 1.92 24 18:19 10.06.2020
2578 Rain 14 1011 94 0 1.92 24 17:55 10.06.2020
2579 Rain 15 1011 94 0 1.92 24 17:36 10.06.2020
2580 Rain 15 1011 94 0 2.43 9 17:18 10.06.2020
2581 Rain 14 1011 94 0 2.43 9 16:56 10.06.2020
2582 Rain 15 1011 94 0 2.43 9 16:38 10.06.2020
2583 Rain 14 1011 93 0 2.7 1 16:18 10.06.2020
2584 Rain 14 1011 93 0 2.7 1 15:40 10.06.2020
2585 Rain 14 1011 93 0 2.7 1 15:40 10.06.2020
2586 Rain 14 1011 92 0 2.82 359 15:21 10.06.2020
2587 Rain 14 1011 93 0 2.82 359 14:56 10.06.2020
2588 Rain 15 1011 93 0 2.82 359 14:38 10.06.2020
2589 Rain 15 1011 93 0 2.05 356 14:19 10.06.2020
2590 Rain 15 1011 93 0 2.05 356 13:40 10.06.2020
2591 Rain 15 1011 93 0 1.92 339 13:21 10.06.2020
2592 Rain 15 1011 93 0 1.92 339 12:44 10.06.2020
2593 Rain 14 1011 93 0 1.9 320 12:20 10.06.2020
2594 Rain 14 1012 94 0 1.9 320 11:58 10.06.2020
2595 Rain 14 1012 94 0 1.9 320 11:40 10.06.2020
2596 Rain 14 1012 94 0 1.7 310 11:19 10.06.2020
2597 Rain 14 1012 95 0 1.7 310 10:57 10.06.2020
2598 Rain 14 1012 95 0 1.7 310 10:39 10.06.2020
2599 Clouds 14 1012 95 0 1.48 300 10:20 10.06.2020
2600 Clouds 14 1012 95 0 1.48 300 09:42 10.06.2020
2601 Clouds 13 1012 95 0 1.32 259 09:23 10.06.2020
2602 Clouds 13 1012 96 0 1.32 259 08:57 10.06.2020
2603 Clouds 13 1012 96 0 1.18 259 08:38 10.06.2020
2604 Clouds 13 1012 95 0 1.18 259 08:20 10.06.2020
2605 Clouds 13 1012 96 0 1.18 259 07:39 10.06.2020
2606 Clouds 13 1012 95 0 1.14 264 07:20 10.06.2020
2607 Clouds 12 1012 95 0 1.14 264 06:44 10.06.2020
2608 Clouds 12 1012 95 0 1.22 266 06:23 10.06.2020
2609 Clouds 12 1012 95 0 1.22 266 05:56 10.06.2020
2610 Clouds 12 1012 95 0 1.2 274 05:26 10.06.2020
2611 Clouds 12 1012 95 0 0.97 282 04:35 10.06.2020
2612 Rain 12 1012 94 0 1.19 295 02:57 10.06.2020
2613 Clouds 13 1060 81 0 0.45 71 02:22 10.06.2020
2614 Clouds 13 1061 80 0 1.74 262 01:37 10.06.2020
2615 Clouds 13 1061 78 0 0.89 85 00:40 10.06.2020
2616 Clouds 13 1061 76 0 1.61 277 00:22 10.06.2020
2617 Clouds 13 1013 100 10000 2.1 10 23:57 09.06.2020
2618 Clouds 13 1013 100 10000 2.1 10 23:39 09.06.2020
2619 Clouds 12 1013 93 10000 2.6 10 23:20 09.06.2020
2620 Clouds 12 1013 93 10000 1.5 320 22:56 09.06.2020
2621 Clouds 13 1013 89 0 1.22 312 22:38 09.06.2020
2622 -273 0 0 0 0 0 22:19 09.06.2020
2623 Clouds 14 1060 69 0 0.45 68 21:56 09.06.2020
2624 Clouds 13 1013 89 0 1.22 312 21:38 09.06.2020
2625 Clouds 13 1013 88 0 1.23 338 21:20 09.06.2020
2626 Clouds 14 1013 88 0 1.23 338 20:56 09.06.2020
2627 Clouds 14 1013 88 0 1.23 338 20:38 09.06.2020
2628 Clouds 14 1013 88 0 1.3 5 20:18 09.06.2020
2629 Clouds 14 1013 87 10000 3.1 30 19:57 09.06.2020
2630 Clouds 13 1013 93 10000 3.1 20 19:38 09.06.2020
2631 Clouds 13 1013 93 10000 3.1 20 19:20 09.06.2020
2632 Clouds 14 1013 87 10000 4.1 30 18:46 09.06.2020
2633 Clouds 14 1013 87 10000 4.1 10 18:28 09.06.2020
2634 Clouds 14 1013 87 10000 3.6 10 17:59 09.06.2020
2635 Clouds 14 1013 87 10000 3.6 10 17:41 09.06.2020
2636 Clouds 14 1013 82 10000 4.1 20 17:22 09.06.2020
2637 Clouds 14 1013 87 10000 4.6 20 17:00 09.06.2020
2638 Clouds 14 1013 87 10000 3.6 20 16:40 09.06.2020
2639 Clouds 14 1013 87 10000 3.6 20 16:21 09.06.2020
2640 Clouds 14 1013 93 10000 2.6 20 15:55 09.06.2020
2641 Clouds 14 1013 93 10000 2.6 20 15:36 09.06.2020
2642 Clouds 14 1013 93 10000 2.6 30 15:18 09.06.2020
2643 Rain 14 1013 94 0 2.62 48 14:40 09.06.2020
2644 Rain 14 1013 97 0 3.03 48 14:20 09.06.2020
2645 Clouds 13 1013 93 8000 3.6 40 13:57 09.06.2020
2646 Clouds 13 1013 97 0 2.99 42 13:38 09.06.2020
2647 Clouds 13 1013 97 0 2.99 42 13:20 09.06.2020
2648 Clouds 13 1013 97 0 2.99 42 12:42 09.06.2020
2649 Clouds 13 1013 97 0 2.99 42 12:42 09.06.2020
2650 Drizzle 12 1013 93 4700 3.6 40 12:21 09.06.2020
2651 Mist 12 1013 100 3500 3.6 40 11:59 09.06.2020
2652 Rain 12 1013 97 0 2.52 37 11:40 09.06.2020
2653 Rain 12 1013 97 0 2.52 37 11:20 09.06.2020
2654 Rain 12 1013 97 0 2.52 37 10:58 09.06.2020
2655 Rain 12 1013 97 0 2.52 37 10:40 09.06.2020
2656 Rain 12 1013 97 0 2.1 47 10:21 09.06.2020
2657 Rain 12 1012 97 0 2.1 47 09:44 09.06.2020
2658 Rain 12 1012 96 0 2.77 45 09:24 09.06.2020
2659 Rain 11 1012 96 0 2.77 45 08:56 09.06.2020
2660 Rain 11 1012 96 0 2.77 45 08:38 09.06.2020
2661 Rain 11 1012 96 0 2.84 43 08:19 09.06.2020
2662 Rain 11 1012 96 0 2.84 43 07:38 09.06.2020
2663 Rain 11 1012 96 0 2.89 23 07:19 09.06.2020
2664 Rain 11 1012 96 0 2.89 23 06:54 09.06.2020
2665 Rain 11 1012 96 0 2.58 17 06:34 09.06.2020
2666 Rain 11 1012 95 0 2.11 15 05:35 09.06.2020
2667 Rain 11 1012 94 0 1.75 13 03:34 09.06.2020
2668 Rain 11 1013 89 0 0.94 54 01:43 09.06.2020
2669 Rain 12 1013 88 0 1.2 76 01:19 09.06.2020
2670 Rain 12 1013 87 0 1.2 76 00:55 09.06.2020
2671 Rain 12 1013 86 0 1.6 91 00:36 09.06.2020
2672 Rain 12 1013 85 0 1.6 91 00:18 09.06.2020
2673 Rain 12 1013 82 0 1.6 91 23:40 08.06.2020
2674 Clouds 13 1013 82 0 1.75 96 23:19 08.06.2020
2675 Clouds 13 1013 82 0 1.75 96 22:55 08.06.2020
2676 Clouds 13 1013 81 0 1.98 84 22:37 08.06.2020
2677 Clouds 13 1013 81 0 1.98 84 22:19 08.06.2020
2678 Clouds 13 1013 80 0 1.98 84 21:55 08.06.2020
2679 Clouds 13 1013 80 0 2.46 65 21:36 08.06.2020
2680 Clouds 13 1013 79 0 2.46 65 21:18 08.06.2020
2681 Clouds 14 1013 78 0 2.46 65 20:54 08.06.2020
2682 Clouds 14 1013 78 0 2.46 65 20:36 08.06.2020
2683 Clouds 14 1013 76 0 2.38 53 20:18 08.06.2020
2684 Clouds 15 1013 72 0 2.38 53 19:41 08.06.2020
2685 Clouds 15 1013 72 0 2.48 56 19:20 08.06.2020
2686 Clouds 15 1013 70 0 2.48 56 18:42 08.06.2020
2687 Clouds 16 1013 69 0 3.13 57 18:20 08.06.2020
2688 Clouds 16 1013 69 0 3.13 57 18:20 08.06.2020
2689 Clouds 15 1013 69 0 3.13 57 17:57 08.06.2020
2690 Clouds 16 1013 68 0 3.19 61 17:39 08.06.2020
2691 Clouds 16 1013 68 0 3.19 61 17:21 08.06.2020
2692 Clouds 16 1013 66 0 3.19 61 16:58 08.06.2020
2693 Clouds 16 1013 67 0 3.19 61 16:39 08.06.2020
2694 Clouds 17 1013 66 0 0.45 306 16:21 08.06.2020
2695 Clouds 17 1013 67 0 3.52 61 15:42 08.06.2020
2696 Clouds 16 1013 67 0 3.74 62 15:21 08.06.2020
2697 Clouds 16 1013 66 0 3.74 62 14:58 08.06.2020
2698 Clouds 16 1013 68 0 0.45 325 14:38 08.06.2020
2699 Clouds 15 1013 65 0 0.45 246 14:19 08.06.2020
2700 Clouds 16 1013 66 0 0.45 225 13:43 08.06.2020
2701 Clouds 16 1013 65 0 0.45 301 13:23 08.06.2020
2702 Clouds 16 1014 70 0 0.45 109 12:43 08.06.2020
2703 Clouds 14 1013 71 10000 4.6 80 12:20 08.06.2020
2704 Clouds 14 1013 71 10000 4.6 70 11:59 08.06.2020
2705 Clouds 13 1014 76 10000 4.1 70 11:40 08.06.2020
2706 Clouds 13 1014 76 10000 4.1 70 11:22 08.06.2020
2707 Clouds 14 1014 76 0 3.21 71 11:22 08.06.2020
2708 Clouds 14 1014 83 0 0.45 198 10:58 08.06.2020
2709 Clouds 13 1014 94 0 2.74 72 10:38 08.06.2020
2710 Clouds 12 1014 95 0 2.74 72 10:20 08.06.2020
2711 Clouds 12 1014 97 0 2.74 72 09:57 08.06.2020
2712 Clouds 12 1014 97 0 2.74 72 09:57 08.06.2020
2713 Clouds 12 1014 97 0 2.69 69 09:39 08.06.2020
2714 Clouds 11 1014 97 0 1.61 77 09:21 08.06.2020
2715 Clouds 11 1014 97 0 1.61 77 08:46 08.06.2020
2716 Clouds 10 1014 97 0 0.94 98 08:22 08.06.2020
2717 Clouds 10 1013 97 0 0.94 98 07:46 08.06.2020
2718 Clouds 10 1013 97 0 0.82 101 07:23 08.06.2020
2719 Clouds 9 1013 97 0 0.82 101 06:50 08.06.2020
2720 Clouds 9 1013 97 0 0.96 99 06:30 08.06.2020
2721 Clouds 9 1013 97 0 0.96 99 05:51 08.06.2020
2722 Clouds 9 1013 97 0 0.21 176 04:29 08.06.2020
2723 Clouds 9 1013 96 0 0.71 172 02:32 08.06.2020
2724 Clouds 9 1013 96 0 0.82 159 01:55 08.06.2020
2725 Clouds 9 1013 96 0 0.87 147 01:30 08.06.2020
2726 Clouds 9 1013 96 0 0.87 147 00:33 08.06.2020
2727 Clouds 9 1013 96 0 0.76 131 23:59 07.06.2020
2728 Clouds 9 1013 96 0 0.4 147 23:37 07.06.2020
2729 Clouds 9 1013 96 0 0.4 147 23:18 07.06.2020
2730 Clouds 9 1013 96 0 0.4 147 22:40 07.06.2020
2731 Clouds 9 1013 96 0 0.18 173 22:20 07.06.2020
2732 -273 0 0 0 0 0 22:00 07.06.2020
2733 Clouds 9 1013 96 0 1.02 228 21:41 07.06.2020
2734 Clouds 9 1013 96 0 1.04 357 21:23 07.06.2020
2735 Rain 9 1013 96 0 1.04 357 20:57 07.06.2020
2736 Rain 10 1013 96 0 1.26 304 20:38 07.06.2020
2737 Rain 10 1013 96 0 1.26 304 20:20 07.06.2020
2738 Rain 10 1013 96 0 1.26 304 19:56 07.06.2020
2739 Rain 9 1013 96 0 1.26 304 19:38 07.06.2020
2740 Rain 9 1013 96 0 1.82 262 19:19 07.06.2020
2741 Rain 9 1012 96 0 1.82 262 18:56 07.06.2020
2742 Rain 9 1012 96 0 1.82 262 18:37 07.06.2020
2743 Rain 9 1012 95 0 2.38 259 18:19 07.06.2020
2744 Rain 9 1012 96 0 2.38 259 17:55 07.06.2020
2745 Rain 9 1012 95 0 2.38 259 17:37 07.06.2020
2746 Rain 9 1012 96 0 2.78 255 17:19 07.06.2020
2747 Rain 10 1012 95 0 0.45 199 16:42 07.06.2020
2748 Rain 10 1011 93 10000 4.6 290 16:21 07.06.2020
2749 Rain 11 1011 87 7000 4.6 280 15:40 07.06.2020
2750 Rain 11 1011 87 7000 4.6 280 15:21 07.06.2020
2751 Rain 11 1010 100 8000 4.1 280 14:41 07.06.2020
2752 Rain 11 1010 100 8000 4.1 280 14:41 07.06.2020
2753 Rain 11 1010 100 8000 4.1 280 14:41 07.06.2020
2754 Rain 11 1010 100 8000 4.1 280 14:41 07.06.2020
2755 Rain 11 1010 93 10000 4.1 270 14:22 07.06.2020
2756 Rain 12 1010 93 2700 4.1 270 13:48 07.06.2020
2757 Rain 12 1009 93 3200 3.6 300 13:22 07.06.2020
2758 Rain 12 1009 93 2700 1.5 290 12:57 07.06.2020
2759 Rain 12 1009 96 0 2.4 304 12:39 07.06.2020
2760 Rain 12 1009 96 0 2.4 304 12:39 07.06.2020
2761 Rain 12 1009 96 0 2.01 327 12:20 07.06.2020
2762 Rain 12 1009 97 0 2.01 327 11:55 07.06.2020
2763 Rain 12 1008 97 0 2.01 327 11:36 07.06.2020
2764 Rain 12 1008 97 0 3.7 354 11:18 07.06.2020
2765 Rain 12 1008 96 0 3.7 354 10:45 07.06.2020
2766 Rain 13 1008 97 0 4.95 348 10:20 07.06.2020
2767 Rain 13 1008 97 0 4.95 348 10:20 07.06.2020
2768 Rain 13 1008 96 0 4.95 348 09:59 07.06.2020
2769 Rain 13 1007 97 0 4.95 348 09:39 07.06.2020
2770 Clouds 13 1007 97 0 0.45 172 09:20 07.06.2020
2771 Clouds 13 1007 97 0 2.95 341 08:58 07.06.2020
2772 Clouds 13 1007 93 10000 3.6 300 08:39 07.06.2020
2773 Clouds 13 1007 97 0 0.73 76 08:21 07.06.2020
2774 Clouds 13 1006 97 0 0.73 76 07:38 07.06.2020
2775 Clouds 13 1006 97 0 1.79 116 06:54 07.06.2020
2776 Clouds 13 1006 96 0 1.96 107 05:53 07.06.2020
2777 Clouds 13 1006 96 0 1.85 158 04:22 07.06.2020
2778 Clouds 13 1006 96 0 1.85 158 03:46 07.06.2020
2779 Rain 13 1007 95 0 1.8 198 02:18 07.06.2020
2780 Rain 13 1007 95 0 2.54 166 01:26 07.06.2020
2781 Rain 13 1008 95 0 2.54 166 00:48 07.06.2020
2782 Rain 13 1008 95 0 2.69 165 00:21 07.06.2020
2783 Rain 13 1008 94 0 2.69 165 23:59 06.06.2020
2784 Rain 13 1008 94 0 3.22 152 23:38 06.06.2020
2785 Rain 13 1008 94 0 3.22 152 23:20 06.06.2020
2786 Rain 13 1008 94 0 3.22 152 22:57 06.06.2020
2787 Rain 13 1008 94 0 3.22 152 22:39 06.06.2020
2788 Rain 14 1008 93 0 3.31 155 22:20 06.06.2020
2789 Rain 14 1008 93 0 3.31 155 21:56 06.06.2020
2790 Rain 14 1008 93 0 2.76 172 21:38 06.06.2020
2791 Rain 14 1007 92 0 2.82 159 21:19 06.06.2020
2792 Rain 14 1007 91 0 2.82 159 20:40 06.06.2020
2793 Rain 14 1007 90 0 2.16 139 20:20 06.06.2020
2794 Rain 14 1007 90 0 2.16 139 19:58 06.06.2020
2795 Rain 15 1007 88 0 2.16 139 19:40 06.06.2020
2796 Rain 15 1007 86 0 0.97 151 19:21 06.06.2020
2797 Rain 15 1007 87 10000 4.1 360 18:56 06.06.2020
2798 Rain 16 1006 82 10000 3.1 10 18:38 06.06.2020
2799 Rain 16 1006 82 10000 3.1 10 18:20 06.06.2020
2800 Clouds 17 1006 77 10000 4.6 350 17:43 06.06.2020
2801 Clouds 17 1006 77 10000 5.1 350 17:21 06.06.2020
2802 Clouds 17 1006 77 10000 5.1 350 17:21 06.06.2020
2803 Clouds 17 1006 67 10000 4.6 330 16:57 06.06.2020
2804 Clouds 18 1006 67 10000 4.6 330 16:39 06.06.2020
2805 Clouds 18 1006 68 10000 2.6 220 16:20 06.06.2020
2806 Clouds 19 1006 59 10000 3.6 250 15:54 06.06.2020
2807 Rain 19 1004 67 0 2.79 272 15:36 06.06.2020
2808 Rain 19 1004 62 0 2.79 272 15:18 06.06.2020
2809 Rain 18 1004 66 0 2.79 272 14:39 06.06.2020
2810 Rain 18 1004 65 0 2.91 271 14:20 06.06.2020
2811 Rain 18 1005 65 0 1.34 263 13:54 06.06.2020
2812 Rain 19 1006 62 0 0.45 267 13:36 06.06.2020
2813 Rain 19 1006 62 0 0.45 244 13:18 06.06.2020
2814 Rain 19 1006 60 0 1.34 227 12:41 06.06.2020
2815 Rain 19 1006 62 0 0.89 196 12:21 06.06.2020
2816 Rain 19 1006 65 0 0.45 199 11:58 06.06.2020
2817 Rain 18 1006 70 0 0.45 200 11:38 06.06.2020
2818 Clouds 18 1006 71 0 6.38 265 11:19 06.06.2020
2819 Clouds 17 1006 72 0 6.38 265 10:57 06.06.2020
2820 Clouds 17 1006 73 0 6.38 265 10:39 06.06.2020
2821 Clouds 16 1005 72 0 0.45 191 10:20 06.06.2020
2822 Clouds 16 1005 72 0 0.45 217 09:45 06.06.2020
2823 Clouds 16 1006 72 0 0.45 227 09:27 06.06.2020
2824 Clouds 15 1005 71 0 0.45 202 08:56 06.06.2020
2825 Clouds 15 1005 73 0 0.45 201 08:38 06.06.2020
2826 Clouds 15 1005 74 0 0.45 190 08:18 06.06.2020
2827 Clouds 14 1005 75 0 0.45 178 07:45 06.06.2020
2828 Clouds 14 1005 75 0 1.58 177 07:20 06.06.2020
2829 Clouds 14 1005 76 0 0.45 187 06:46 06.06.2020
2830 Clouds 14 1004 71 10000 5.1 220 06:27 06.06.2020
2831 Clouds 14 1004 71 10000 6.2 240 05:50 06.06.2020
2832 Clouds 14 1002 73 0 2.79 216 05:25 06.06.2020
2833 Clouds 13 1002 75 0 2.79 216 04:38 06.06.2020
2834 Clouds 14 1005 73 0 0.45 230 02:36 06.06.2020
2835 Clouds 14 1005 70 0 0.45 209 01:42 06.06.2020
2836 Clouds 14 1005 69 0 0.45 206 01:18 06.06.2020
2837 Clouds 15 1004 68 0 0.89 207 00:43 06.06.2020
2838 Clouds 14 1004 70 0 0.45 248 00:25 06.06.2020
2839 Clouds 13 1004 71 0 0.45 197 23:40 05.06.2020
2840 Clouds 13 1004 71 0 7.03 247 23:21 05.06.2020
2841 Clouds 14 1004 70 0 0.45 208 22:59 05.06.2020
2842 Clouds 14 1004 70 0 0.45 203 22:41 05.06.2020
2843 Clouds 14 1004 69 0 0.89 192 22:23 05.06.2020
2844 -273 0 0 0 0 0 21:58 05.06.2020
2845 Clouds 14 1003 68 0 0.45 207 21:40 05.06.2020
2846 Clouds 15 1003 67 0 0.89 232 21:20 05.06.2020
2847 Clouds 15 1003 67 0 0.89 300 20:57 05.06.2020
2848 Clouds 15 1003 67 0 0.45 254 20:38 05.06.2020
2849 Clouds 16 1003 66 0 0.45 219 20:19 05.06.2020
2850 Clouds 16 1002 66 0 0.45 207 19:40 05.06.2020
2851 Clouds 16 1002 66 0 0.45 207 19:40 05.06.2020
2852 Clouds 16 1002 67 0 0.45 311 19:22 05.06.2020
2853 Clouds 16 1002 67 0 0.89 192 18:56 05.06.2020
2854 Clouds 16 1002 68 0 0.45 298 18:38 05.06.2020
2855 Clouds 16 1002 71 0 0.45 192 18:19 05.06.2020
2856 Clouds 16 1002 70 0 0.45 205 17:56 05.06.2020
2857 Clouds 16 1002 69 0 0.45 223 17:37 05.06.2020
2858 Clouds 15 1002 68 0 0.45 276 17:18 05.06.2020
2859 Clouds 16 1002 65 0 0.89 279 16:38 05.06.2020
2860 Rain 16 1001 66 0 1.34 195 16:20 05.06.2020
2861 Rain 16 1001 68 0 1.34 212 15:43 05.06.2020
2862 Rain 16 1001 68 0 1.34 212 15:43 05.06.2020
2863 Rain 15 1000 86 0 2.24 279 15:22 05.06.2020
2864 Rain 15 1000 83 0 0.45 283 14:58 05.06.2020
2865 Rain 16 1000 71 0 1.79 283 14:40 05.06.2020
2866 Rain 16 1001 75 0 0.45 332 14:22 05.06.2020
2867 Rain 16 1001 79 0 0.45 296 13:58 05.06.2020
2868 Rain 16 1001 79 0 0.45 328 13:58 05.06.2020
2869 Rain 14 1001 88 0 2.4 241 13:38 05.06.2020
2870 Rain 13 1001 90 0 2.4 241 13:19 05.06.2020
2871 Rain 14 1001 85 0 2.4 241 12:42 05.06.2020
2872 Rain 14 1001 85 0 1.59 270 12:20 05.06.2020
2873 Rain 14 1001 89 0 1.59 270 11:56 05.06.2020
2874 Rain 13 1001 91 0 0.45 218 11:37 05.06.2020
2875 Rain 13 1001 92 0 2.7 266 11:19 05.06.2020
2876 Rain 13 1001 89 0 2.7 266 10:42 05.06.2020
2877 Rain 13 1001 89 0 1.51 268 10:21 05.06.2020
2878 Clouds 12 1001 91 0 1.51 268 09:58 05.06.2020
2879 Clouds 12 1001 92 0 0.45 325 09:40 05.06.2020
2880 Rain 12 1001 93 0 0.45 323 09:21 05.06.2020
2881 Rain 12 1001 94 0 2.91 275 08:59 05.06.2020
2882 Rain 11 1001 94 0 2.91 275 08:41 05.06.2020
2883 Rain 11 1001 94 0 3.14 294 08:19 05.06.2020
2884 Rain 11 1000 93 0 0.45 180 07:55 05.06.2020
2885 Rain 11 1000 93 0 3.14 294 07:36 05.06.2020
2886 Rain 11 1000 92 0 3.59 293 06:54 05.06.2020
2887 Clouds 11 999 91 0 0.45 202 05:24 05.06.2020
2888 Clouds 11 998 91 0 0.45 205 04:44 05.06.2020
2889 Clouds 11 998 91 0 3.82 246 03:53 05.06.2020
2890 Clouds 11 998 91 0 4.1 244 02:44 05.06.2020
2891 Rain 11 998 91 0 3.81 238 02:18 05.06.2020
2892 Rain 11 998 91 0 3.99 245 01:52 05.06.2020
2893 Rain 12 999 92 0 0.45 198 00:59 05.06.2020
2894 Clouds 12 999 92 0 4.07 244 00:39 05.06.2020
2895 Rain 12 998 92 0 0.45 189 00:19 05.06.2020
2896 Rain 12 998 92 0 0.45 199 23:46 04.06.2020
2897 Rain 12 998 92 0 0.45 225 23:26 04.06.2020
2898 Rain 12 999 92 0 0.45 316 22:55 04.06.2020
2899 Rain 13 998 92 0 6.07 250 22:36 04.06.2020
2900 Rain 13 998 92 0 0.45 223 22:18 04.06.2020
2901 Rain 13 998 92 0 0.45 207 21:41 04.06.2020
2902 Rain 13 998 92 0 5.04 251 21:23 04.06.2020
2903 Rain 14 998 91 0 5.04 251 20:59 04.06.2020
2904 Rain 14 998 91 0 0.45 277 20:40 04.06.2020
2905 Clouds 14 998 91 0 0.45 198 20:21 04.06.2020
2906 Clouds 14 998 90 0 3.99 254 19:59 04.06.2020
2907 Rain 15 998 90 0 4.27 253 19:38 04.06.2020
2908 Rain 15 997 90 0 0.45 236 19:20 04.06.2020
2909 Rain 16 997 89 0 4.27 253 18:56 04.06.2020
2910 Rain 15 997 88 0 0.45 198 18:37 04.06.2020
2911 Rain 15 997 87 0 4.98 254 18:19 04.06.2020
2912 Rain 16 997 84 0 4.98 254 17:42 04.06.2020
2913 Rain 17 997 81 0 4.29 261 17:21 04.06.2020
2914 Rain 17 997 77 0 4.29 261 16:56 04.06.2020
2915 Rain 17 997 73 0 4.29 261 16:38 04.06.2020
2916 Clouds 17 996 67 0 0.89 248 16:18 04.06.2020
2917 Clouds 18 996 63 0 0.45 250 15:42 04.06.2020
2918 Rain 18 995 71 0 2.82 282 15:24 04.06.2020
2919 Rain 18 997 65 0 0.89 252 14:40 04.06.2020
2920 Rain 19 998 64 0 3.44 297 14:21 04.06.2020
2921 Rain 19 998 63 0 3.44 297 13:56 04.06.2020
2922 Rain 19 998 65 0 0.45 259 13:38 04.06.2020
2923 Rain 19 999 65 0 0.45 346 13:20 04.06.2020
2924 Rain 19 999 66 0 3.71 292 12:56 04.06.2020
2925 Rain 19 999 67 0 3.71 292 12:38 04.06.2020
2926 Rain 19 999 66 0 0.45 293 12:20 04.06.2020
2927 Rain 18 999 68 0 0.45 195 11:54 04.06.2020
2928 Rain 18 999 70 0 3.24 285 11:36 04.06.2020
2929 Rain 18 999 71 0 3 269 11:18 04.06.2020
2930 Rain 17 999 74 0 3 269 10:39 04.06.2020
2931 Rain 17 999 76 0 2.83 252 10:21 04.06.2020
2932 Rain 17 999 76 0 2.83 252 09:56 04.06.2020
2933 Rain 17 999 76 0 2.83 252 09:38 04.06.2020
2934 Clouds 17 999 74 0 2.09 245 09:19 04.06.2020
2935 Clouds 17 999 73 0 2.09 245 08:41 04.06.2020
2936 Clouds 17 997 71 0 2.71 247 08:22 04.06.2020
2937 Clouds 16 999 77 0 2.71 247 07:33 04.06.2020
2938 Clouds 14 1000 79 0 2.44 235 06:58 04.06.2020
2939 Clouds 14 1000 79 0 2.44 235 06:58 04.06.2020
2940 Clouds 14 1000 79 0 2.44 235 06:40 04.06.2020
2941 Clouds 14 1000 79 0 2.44 235 06:39 04.06.2020
2942 Clouds 14 1040 82 0 2.92 236 06:20 04.06.2020
2943 Clouds 14 999 76 0 2.47 226 05:33 04.06.2020
2944 Rain 14 1000 75 0 2.05 234 03:51 04.06.2020
2945 Rain 14 999 69 0 1.8 249 02:38 04.06.2020
2946 Rain 15 1043 68 0 1.79 45 01:42 04.06.2020
2947 Rain 16 1043 64 0 2.68 61 01:19 04.06.2020
2948 Clouds 17 1044 49 0 3.13 52 00:28 04.06.2020
2949 Clouds 17 1043 54 0 2.17 199 23:41 03.06.2020
2950 Rain 17 1044 53 0 2.01 191 23:20 03.06.2020
2951 -273 0 0 0 0 0 22:58 03.06.2020
2952 Rain 15 1003 82 10000 1 180 22:39 03.06.2020
2953 Rain 15 1003 82 10000 1 150 22:18 03.06.2020
2954 Rain 18 1003 72 10000 0.5 0 21:56 03.06.2020
2955 Rain 20 1003 56 0 1.62 198 21:38 03.06.2020
2956 Clouds 20 1003 54 0 1.11 154 21:20 03.06.2020
2957 Clouds 20 1003 54 0 1.11 154 21:20 03.06.2020
2958 Clouds 20 1003 59 10000 2.6 220 20:54 03.06.2020
2959 Clouds 22 1003 46 0 1.11 154 20:36 03.06.2020
2960 Clouds 22 1003 45 0 0.94 152 20:18 03.06.2020
2961 Clouds 23 1003 45 0 0.94 152 19:54 03.06.2020
2962 Clouds 23 1003 47 0 0.48 105 19:36 03.06.2020
2963 Clouds 23 1003 46 0 0.48 105 19:18 03.06.2020
2964 Clouds 23 1003 49 0 0.48 105 18:41 03.06.2020
2965 Clouds 24 1003 47 0 0.72 345 18:21 03.06.2020
2966 Clouds 25 1004 40 10000 2.1 340 17:55 03.06.2020
2967 Clouds 25 1005 38 10000 1 0 17:37 03.06.2020
2968 Clouds 25 1005 38 10000 1 0 17:18 03.06.2020
2969 Clouds 25 1004 39 0 1.61 352 16:41 03.06.2020
2970 Clouds 25 1004 37 0 1.83 341 16:20 03.06.2020
2971 Clouds 25 1006 41 10000 3.6 320 15:58 03.06.2020
2972 Clouds 25 1006 41 10000 3.6 320 15:40 03.06.2020
2973 Clouds 25 1005 34 0 1.62 329 15:20 03.06.2020
2974 Clouds 25 1005 34 0 0.45 198 15:20 03.06.2020
2975 Clouds 25 1006 36 0 1.62 329 14:46 03.06.2020
2976 Clouds 25 1006 36 0 1.45 328 14:25 03.06.2020
2977 Clouds 25 1006 34 0 1.45 328 13:56 03.06.2020
2978 Clouds 26 1007 37 0 0.45 196 13:38 03.06.2020
2979 Clouds 25 1007 35 0 0.45 190 13:18 03.06.2020
2980 Clouds 25 1007 35 0 1.19 323 12:42 03.06.2020
2981 Clouds 24 1008 38 10000 2.6 180 12:21 03.06.2020
2982 Clouds 24 1008 35 0 0.78 290 11:46 03.06.2020
2983 Clouds 24 1008 38 0 0.75 253 11:27 03.06.2020
2984 Clouds 23 1009 43 0 0.75 253 10:57 03.06.2020
2985 Clouds 23 1009 46 0 1.13 225 10:39 03.06.2020
2986 Clouds 22 1009 47 0 1.13 225 10:20 03.06.2020
2987 Clouds 21 1009 51 0 1.13 225 09:44 03.06.2020
2988 Clouds 18 1010 59 10000 2.6 230 09:20 03.06.2020
2989 Clouds 16 1010 63 10000 2.6 200 08:56 03.06.2020
2990 Clouds 16 1009 67 0 1.51 211 08:36 03.06.2020
2991 Clouds 15 1009 71 0 1.68 213 08:18 03.06.2020
2992 Clouds 13 1010 79 0 1.68 213 07:42 03.06.2020
2993 Clouds 13 1010 81 0 1.84 210 07:20 03.06.2020
2994 Clouds 12 1010 83 0 1.84 210 06:50 03.06.2020
2995 Clouds 11 1010 82 0 1.84 210 06:30 03.06.2020
2996 Rain 12 1010 81 0 1.83 200 05:46 03.06.2020
2997 Rain 11 1011 78 0 1.58 192 04:46 03.06.2020
2998 Rain 12 1011 78 0 1.55 195 03:50 03.06.2020
2999 Rain 11 1012 71 10000 1.5 180 02:47 03.06.2020
3000 Clouds 12 1012 74 0 1.44 203 01:52 03.06.2020
3001 Clouds 13 1013 70 0 1.47 200 00:43 03.06.2020
3002 Clouds 13 1013 69 0 1.29 190 00:25 03.06.2020
3003 Clouds 14 1013 67 0 1.29 190 23:51 02.06.2020
3004 Clouds 14 1013 66 0 1.33 169 23:28 02.06.2020
3005 Clouds 14 1014 71 10000 1.5 150 23:28 02.06.2020
3006 Clouds 15 1014 76 10000 2.6 160 22:57 02.06.2020
3007 Clouds 16 1014 62 0 1.48 154 22:38 02.06.2020
3008 Clouds 16 1014 60 0 1.48 154 22:19 02.06.2020
3009 Clouds 17 1014 58 10000 1.5 160 21:56 02.06.2020
3010 Clouds 18 1014 55 0 1.91 108 21:37 02.06.2020
3011 Clouds 18 1014 54 0 1.91 108 21:19 02.06.2020
3012 Clouds 19 1014 37 10000 2.1 30 20:57 02.06.2020
3013 Clouds 20 1014 37 10000 2.1 30 20:39 02.06.2020
3014 Clear 21 1014 43 0 1.82 89 20:20 02.06.2020
3015 Clear 22 1014 37 10000 2.1 10 19:43 02.06.2020
3016 Clear 22 1014 40 0 1.95 73 19:25 02.06.2020
3017 Clear 23 1014 41 0 1.95 73 18:57 02.06.2020
3018 Clear 23 1014 39 0 1.95 73 18:39 02.06.2020
3019 Clear 23 1014 37 0 2.75 58 18:20 02.06.2020
3020 Clear 23 1015 41 0 2.75 58 17:55 02.06.2020
3021 Clear 23 1015 40 0 2.75 58 17:37 02.06.2020
3022 Clear 23 1015 41 0 0.45 159 17:18 02.06.2020
3023 Clear 23 1015 40 0 0.45 344 16:41 02.06.2020
3024 Clear 23 1016 37 0 3.3 47 16:21 02.06.2020
3025 Clear 22 1016 35 10000 4.1 360 15:59 02.06.2020
3026 Clear 23 1016 35 10000 4.1 360 15:40 02.06.2020
3027 Clear 22 1017 43 10000 3.1 350 15:20 02.06.2020
3028 Clear 22 1017 40 10000 4.1 20 14:46 02.06.2020
3029 Clear 22 1017 42 10000 4.6 30 14:27 02.06.2020
3030 Clear 23 1017 41 0 3.66 45 13:55 02.06.2020
3031 Clear 23 1018 41 0 0.45 142 13:36 02.06.2020
3032 Clear 22 1018 44 0 0.45 17 13:18 02.06.2020
3033 Clear 22 1018 43 0 0.45 340 12:55 02.06.2020
3034 Clouds 21 1018 49 10000 3.6 80 12:37 02.06.2020
3035 Clouds 21 1018 49 10000 3.6 80 12:18 02.06.2020
3036 Clear 21 1018 44 0 3.16 49 11:41 02.06.2020
3037 Clear 20 1018 46 0 2.97 59 11:22 02.06.2020
3038 Clear 20 1018 50 0 2.97 59 10:55 02.06.2020
3039 Clear 20 1019 53 0 2.97 59 10:37 02.06.2020
3040 Clear 20 1019 54 0 2.64 68 10:19 02.06.2020
3041 Clear 19 1019 61 0 2.64 68 09:42 02.06.2020
3042 Clear 16 1019 63 10000 1 0 09:21 02.06.2020
3043 Clear 13 1019 86 0 2.55 78 08:54 02.06.2020
3044 Clear 13 1019 89 0 1.98 83 08:28 02.06.2020
3045 Clear 12 1019 91 0 1.98 83 07:58 02.06.2020
3046 Clear 10 1019 90 0 1.56 85 07:33 02.06.2020
3047 Clear 10 1018 90 0 1.56 85 06:59 02.06.2020
3048 Clear 8 1019 90 0 1.56 85 06:38 02.06.2020
3049 Clear 7 1018 88 0 1.35 89 05:38 02.06.2020
3050 Clear 8 1018 87 0 1.42 97 04:41 02.06.2020
3051 Clear 9 1019 84 0 1.5 87 02:37 02.06.2020
3052 Clear 9 1019 93 10000 0.5 70 01:55 02.06.2020
3053 Clear 11 1019 81 0 2.22 82 00:51 02.06.2020
3054 Clear 12 1020 78 0 1.86 67 00:22 02.06.2020
3055 Clear 11 1019 81 10000 0.5 180 23:39 01.06.2020
3056 Clear 12 1020 74 0 1.95 64 23:20 01.06.2020
3057 Clear 13 1019 71 10000 2.1 150 22:58 01.06.2020
3058 Clear 13 1019 71 10000 2.1 150 22:39 01.06.2020
3059 Clear 13 1019 71 10000 2.1 150 22:39 01.06.2020
3060 Clear 16 1019 67 0 2.21 69 22:19 01.06.2020
3061 Clear 16 1019 68 0 2.21 69 22:19 01.06.2020
3062 Clear 16 1019 54 10000 2.1 140 21:55 01.06.2020
3063 Clear 14 1019 54 10000 2.1 140 21:36 01.06.2020
3064 Clear 18 1019 54 0 2.5 55 21:18 01.06.2020
3065 Clear 19 1019 45 10000 3.1 80 20:54 01.06.2020
3066 Clear 20 1019 51 0 2.87 55 20:36 01.06.2020
3067 Clear 20 1019 50 0 2.87 55 20:18 01.06.2020
3068 Clear 20 1019 50 0 2.87 55 20:18 01.06.2020
3069 Clear 21 1019 47 0 2.87 55 19:42 01.06.2020
3070 Clear 21 1019 46 0 3.39 58 19:20 01.06.2020
3071 Clear 21 1019 47 0 3.39 58 18:58 01.06.2020
3072 Clear 21 1019 46 0 3.39 58 18:39 01.06.2020
3073 Clear 21 1019 46 0 4.16 63 18:19 01.06.2020
3074 Clear 22 1019 46 0 4.16 63 17:55 01.06.2020
3075 Clear 22 1019 46 0 4.37 64 17:36 01.06.2020
3076 Clear 22 1019 44 0 0.45 279 17:18 01.06.2020
3077 Clear 21 1020 42 10000 6.2 50 16:39 01.06.2020
3078 Clear 21 1020 42 10000 6.2 50 16:20 01.06.2020
3079 Clear 21 1020 49 10000 3.1 60 15:56 01.06.2020
3080 Clear 21 1020 49 10000 4.6 80 15:37 01.06.2020
3081 Clear 21 1020 49 10000 4.6 80 15:18 01.06.2020
3082 Clear 21 1020 45 10000 6.7 50 14:56 01.06.2020
3083 Clear 21 1020 42 10000 5.1 80 14:38 01.06.2020
3084 Clear 21 1020 42 10000 5.1 80 14:20 01.06.2020
3085 Clouds 21 1020 48 10000 5.1 80 13:43 01.06.2020
3086 Clouds 20 1020 48 10000 5.1 80 13:22 01.06.2020
3087 Clouds 20 1020 52 10000 4.6 60 12:59 01.06.2020
3088 Clouds 19 1021 52 10000 5.7 80 12:40 01.06.2020
3089 Clouds 20 1021 52 10000 5.7 80 12:40 01.06.2020
3090 Clouds 19 1021 52 10000 5.7 80 12:40 01.06.2020
3091 Clouds 19 1021 52 10000 5.7 80 12:40 01.06.2020
3092 Clear 18 1021 59 10000 4.6 50 12:22 01.06.2020
3093 Clear 18 1021 59 10000 4.6 50 11:58 01.06.2020
3094 Clear 18 1021 63 10000 5.1 50 11:37 01.06.2020
3095 Clear 19 1021 59 0 0.45 203 11:19 01.06.2020
3096 Clear 19 1021 59 0 0.45 203 11:19 01.06.2020
3097 Clear 18 1021 61 0 0.89 196 10:56 01.06.2020
3098 Clear 18 1021 62 0 0.45 213 10:36 01.06.2020
3099 Clear 17 1021 66 0 0.45 111 10:18 01.06.2020
3100 Clear 16 1021 67 10000 5.1 70 09:46 01.06.2020
3101 Clear 14 1021 67 10000 5.1 70 09:26 01.06.2020
3102 Clear 13 1021 81 0 0.45 215 08:57 01.06.2020
3103 Clear 12 1021 85 0 0.45 235 08:37 01.06.2020
3104 Clear 12 1021 87 0 0.45 192 08:18 01.06.2020
3105 Clear 11 1021 90 0 2.41 79 07:41 01.06.2020
3106 Clear 11 1021 90 0 1.93 80 07:22 01.06.2020
3107 Clear 9 1021 87 0 1.93 80 06:49 01.06.2020
3108 Clouds 9 1021 85 0 1.75 85 05:57 01.06.2020
3109 Clouds 9 1021 83 0 1.77 91 05:18 01.06.2020
3110 Clouds 9 1021 87 10000 2.6 100 03:57 01.06.2020
3111 Clouds 9 1021 81 10000 2.6 80 03:39 01.06.2020
3112 Clouds 10 1021 76 10000 2.6 70 02:56 01.06.2020
3113 Clouds 11 1022 78 0 2.73 86 01:40 01.06.2020
3114 Clouds 11 1022 71 10000 2.6 100 01:18 01.06.2020
3115 Clouds 12 1022 71 10000 3.1 90 00:56 01.06.2020
3116 Clouds 12 1022 66 10000 3.1 80 00:37 01.06.2020
3117 Clouds 12 1022 66 10000 3.1 80 00:19 01.06.2020
3118 Clouds 12 1022 66 10000 3.1 90 23:41 31.05.2020
3119 Clouds 12 1022 73 0 2.66 91 23:22 31.05.2020
3120 Clouds 12 1022 72 0 2.66 91 22:59 31.05.2020
3121 Clouds 12 1022 66 10000 4.6 60 22:40 31.05.2020
3122 Clouds 13 1022 70 0 2.69 98 22:22 31.05.2020
3123 Clouds 13 1021 58 10000 5.7 50 21:57 31.05.2020
3124 Clouds 14 1022 68 0 3.53 90 21:39 31.05.2020
3125 Clouds 14 1021 67 0 3.64 92 21:20 31.05.2020
3126 Clouds 14 1021 61 0 3.64 92 20:45 31.05.2020
3127 Clouds 15 1021 54 0 4.32 80 20:25 31.05.2020
3128 Clouds 16 1020 54 0 4.32 80 19:56 31.05.2020
3129 Clouds 16 1020 52 0 3.77 67 19:38 31.05.2020
3130 Clouds 16 1020 51 0 3.77 67 19:20 31.05.2020
3131 Clouds 16 1020 49 0 3.77 67 18:56 31.05.2020
3132 Clouds 17 1020 48 0 2.84 60 18:37 31.05.2020
3133 Clouds 17 1020 50 0 2.84 60 18:18 31.05.2020
3134 Clouds 16 1020 41 10000 3.1 20 17:42 31.05.2020
3135 Clouds 16 1020 41 10000 3.1 20 17:24 31.05.2020
3136 Clouds 16 1020 41 10000 2.6 20 16:42 31.05.2020
3137 Clouds 16 1020 41 10000 2.6 20 16:22 31.05.2020
3138 Clouds 16 1020 41 10000 4.1 10 15:57 31.05.2020
3139 Clouds 17 1020 41 10000 3.6 30 15:37 31.05.2020
3140 Clouds 17 1020 41 10000 3.6 30 15:19 31.05.2020
3141 Clouds 16 1020 41 10000 3.6 30 14:42 31.05.2020
3142 Clouds 16 1020 44 10000 4.6 20 14:19 31.05.2020
3143 Clouds 16 1020 44 10000 4.6 20 14:19 31.05.2020
3144 Clouds 16 1020 44 10000 4.6 20 13:56 31.05.2020
3145 Clouds 16 1020 44 10000 2.6 90 13:37 31.05.2020
3146 Clouds 16 1020 44 10000 2.6 90 13:19 31.05.2020
3147 Clouds 17 1020 47 0 3.32 47 12:55 31.05.2020
3148 Clouds 15 1019 47 10000 2.6 50 12:36 31.05.2020
3149 Clouds 15 1020 50 10000 3.1 60 12:18 31.05.2020
3150 Clouds 14 1020 54 10000 3.6 20 11:44 31.05.2020
3151 Clouds 15 1020 52 0 0.45 32 11:21 31.05.2020
3152 Clouds 15 1020 54 0 2.71 49 10:55 31.05.2020
3153 Clouds 15 1020 57 0 2.37 54 10:37 31.05.2020
3154 Clouds 15 1020 60 0 2.37 54 10:18 31.05.2020
3155 Clouds 13 1020 68 0 2.4 49 09:42 31.05.2020
3156 Clouds 10 1019 71 10000 1.5 50 09:22 31.05.2020
3157 Clouds 11 1019 71 10000 1.5 80 08:57 31.05.2020
3158 Clouds 10 1019 90 0 0.7 48 08:37 31.05.2020
3159 Clouds 10 1019 91 0 0.7 48 08:19 31.05.2020
3160 Clouds 9 1019 93 0 0.7 48 07:40 31.05.2020
3161 Clouds 8 1019 93 0 0.32 120 07:20 31.05.2020
3162 Clouds 6 1019 91 0 0.32 120 06:50 31.05.2020
3163 Clouds 4 1019 93 10000 0.56 123 06:31 31.05.2020
3164 Clouds 5 1019 90 0 0.56 123 05:43 31.05.2020
3165 Clouds 6 1019 89 0 1 85 04:27 31.05.2020
3166 Clouds 6 1019 89 0 1 85 03:48 31.05.2020
3167 Clouds 6 1020 100 10000 0.5 0 02:59 31.05.2020
3168 Clouds 6 1020 100 10000 1 110 01:49 31.05.2020
3169 Clouds 8 1020 85 0 1.55 34 01:27 31.05.2020
3170 Clouds 9 1020 82 0 1.21 46 00:30 31.05.2020
3171 Clouds 10 1020 77 0 1.21 46 23:56 30.05.2020
3172 Clouds 11 1020 75 0 1.53 77 23:38 30.05.2020
3173 Clouds 11 1020 74 0 1.53 77 23:19 30.05.2020
3174 Clouds 12 1020 67 0 1.53 77 22:41 30.05.2020
3175 Clouds 12 1020 66 0 2.25 79 22:23 30.05.2020
3176 Clouds 12 1020 65 0 2.25 79 21:56 30.05.2020
3177 Clouds 13 1020 62 10000 1.5 120 21:38 30.05.2020
3178 Clouds 13 1020 64 0 2.34 74 21:20 30.05.2020
3179 Clouds 13 1020 63 0 2.34 74 20:56 30.05.2020
3180 Clouds 13 1020 62 0 2.88 74 20:38 30.05.2020
3181 Clouds 14 1020 61 0 2.88 74 20:20 30.05.2020
3182 Clouds 14 1020 60 0 2.88 74 19:43 30.05.2020
3183 Clouds 14 1020 61 0 3.54 68 19:22 30.05.2020
3184 Clouds 14 1020 61 0 3.54 68 18:54 30.05.2020
3185 Clouds 14 1020 60 0 4.04 55 18:36 30.05.2020
3186 Clouds 14 1020 62 0 4.04 55 18:18 30.05.2020
3187 Clouds 14 1020 65 0 4.04 55 17:38 30.05.2020
3188 Clouds 14 1020 63 0 4.33 44 17:19 30.05.2020
3189 Clouds 14 1020 63 0 4.33 44 16:44 30.05.2020
3190 Clouds 14 1020 64 0 3.63 32 16:23 30.05.2020
3191 Clouds 14 1020 63 0 3.63 32 15:58 30.05.2020
3192 Clouds 14 1020 62 0 0.45 63 15:39 30.05.2020
3193 Clouds 14 1020 58 0 0.45 101 15:21 30.05.2020
3194 Clouds 15 1020 55 0 0.45 50 14:42 30.05.2020
3195 Clouds 15 1020 58 0 0.45 231 14:22 30.05.2020
3196 Clouds 15 1020 52 0 0.45 133 13:42 30.05.2020
3197 Clear 16 1020 52 0 0.45 162 13:20 30.05.2020
3198 Clear 16 1020 50 0 0.45 28 12:42 30.05.2020
3199 Clear 16 1020 50 0 3.07 47 12:20 30.05.2020
3200 Clear 15 1020 50 10000 5.1 20 11:57 30.05.2020
3201 Clear 15 1020 58 0 3.07 47 11:39 30.05.2020
3202 Clear 14 1020 63 0 0.45 47 11:20 30.05.2020
3203 Clear 14 1021 58 10000 2.1 0 10:40 30.05.2020
3204 Clear 14 1021 64 0 0.45 340 10:21 30.05.2020
3205 Clear 14 1021 76 10000 3.6 30 09:49 30.05.2020
3206 Clear 11 1021 76 10000 3.6 30 09:31 30.05.2020
3207 Clouds 10 1021 95 0 2.79 78 08:51 30.05.2020
3208 Clouds 9 1021 95 0 2.79 78 08:32 30.05.2020
3209 Clear 8 1021 94 0 2.56 76 07:49 30.05.2020
3210 Clear 6 1021 93 0 2.23 72 07:25 30.05.2020
3211 Clear 5 1021 92 0 2.23 72 06:58 30.05.2020
3212 Clear 4 1021 91 0 2.01 71 06:24 30.05.2020
3213 Clear 4 1021 91 0 2.01 71 05:49 30.05.2020
3214 Clear 5 1021 89 0 2.27 77 03:57 30.05.2020
3215 Clear 7 1022 89 0 2.61 89 02:31 30.05.2020
3216 Clear 7 1022 88 0 3.16 76 01:51 30.05.2020
3217 Clear 7 1022 93 10000 3.24 74 00:42 30.05.2020
3218 Clear 8 1022 93 10000 3.05 80 00:21 30.05.2020
3219 Clear 8 1022 87 10000 2.6 90 23:58 29.05.2020
3220 Clear 8 1023 87 10000 2.1 90 23:38 29.05.2020
3221 Clear 10 1023 81 0 3.07 72 23:19 29.05.2020
3222 Clear 11 1023 78 0 3.07 72 22:42 29.05.2020
3223 Clear 12 1023 78 0 3.28 60 22:21 29.05.2020
3224 Clear 12 1023 77 0 3.28 60 21:59 29.05.2020
3225 Clear 12 1023 76 0 3.28 60 21:39 29.05.2020
3226 Clouds 13 1023 74 0 3.53 58 21:20 29.05.2020
3227 Clouds 13 1023 72 0 3.53 58 20:56 29.05.2020
3228 Clouds 14 1023 71 0 3.63 68 20:37 29.05.2020
3229 Clouds 14 1023 71 0 3.63 68 20:18 29.05.2020
3230 Clouds 14 1023 69 0 3.63 68 19:42 29.05.2020
3231 Clouds 15 1023 68 0 4.05 61 19:24 29.05.2020
3232 Clouds 15 1023 69 0 4.05 61 18:48 29.05.2020
3233 Rain 15 1023 71 0 4.09 52 18:23 29.05.2020
3234 Rain 15 1024 69 0 4.09 52 17:59 29.05.2020
3235 Rain 15 1024 69 0 4.09 52 17:39 29.05.2020
3236 Rain 15 1024 67 0 4.45 50 17:20 29.05.2020
3237 Rain 16 1024 66 0 4.45 50 16:46 29.05.2020
3238 Rain 16 1024 66 0 4.45 50 16:46 29.05.2020
3239 Clouds 16 1024 67 0 4.13 58 16:28 29.05.2020
3240 Clouds 16 1024 67 0 4.13 58 15:59 29.05.2020
3241 Clouds 16 1024 66 0 4.13 58 15:41 29.05.2020
3242 Clouds 16 1025 64 0 4.11 60 15:21 29.05.2020
3243 Clouds 15 1025 54 10000 5.1 70 14:57 29.05.2020
3244 Clouds 16 1025 62 0 0.45 184 14:38 29.05.2020
3245 Clouds 15 1025 54 10000 5.1 30 14:19 29.05.2020
3246 Clouds 15 1026 58 10000 3.1 40 13:43 29.05.2020
3247 Clouds 15 1026 58 10000 3.1 40 13:22 29.05.2020
3248 Rain 15 1026 62 10000 4.1 50 12:57 29.05.2020
3249 Clouds 14 1026 58 10000 3.1 50 12:39 29.05.2020
3250 Clouds 13 1026 62 10000 3.6 30 12:19 29.05.2020
3251 Clouds 13 1026 71 10000 3.1 40 11:42 29.05.2020
3252 Clouds 13 1026 68 0 3.41 73 11:24 29.05.2020
3253 Clouds 13 1026 71 0 3.41 73 10:55 29.05.2020
3254 Clouds 12 1026 77 0 2.82 72 10:36 29.05.2020
3255 Clouds 12 1026 78 0 2.82 72 10:18 29.05.2020
3256 Clear 11 1026 71 10000 2.6 30 09:41 29.05.2020
3257 Clouds 10 1026 76 10000 2.1 10 09:19 29.05.2020
3258 Clear 9 1026 76 10000 2.1 10 08:48 29.05.2020
3259 Clear 9 1027 94 0 2.48 71 08:26 29.05.2020
3260 Clear 8 1027 94 0 2.48 71 07:52 29.05.2020
3261 Clear 7 1027 94 0 1.89 83 07:33 29.05.2020
3262 Clear 8 1027 93 0 1.89 83 06:58 29.05.2020
3263 Clear 7 1027 92 0 1.89 83 06:40 29.05.2020
3264 Clear 7 1027 92 0 1.75 85 06:22 29.05.2020
3265 Clear 7 1027 92 0 1.75 85 05:45 29.05.2020
3266 Clear 8 1027 90 0 1.94 59 02:35 29.05.2020
3267 Clouds 8 1028 90 0 2.29 94 01:28 29.05.2020
3268 Clouds 8 1028 88 0 2.29 94 00:54 29.05.2020
3269 Clouds 8 1028 87 0 2.29 94 00:33 29.05.2020
3270 Clouds 9 1028 86 0 2.69 76 23:59 28.05.2020
3271 Clouds 9 1028 86 0 2.69 76 23:39 28.05.2020
3272 Clear 9 1028 86 0 3 68 23:18 28.05.2020
3273 Clear 10 1028 85 0 3 68 22:42 28.05.2020
3274 Clear 10 1028 85 0 3 76 22:24 28.05.2020
3275 Rain 11 1028 86 0 3 76 21:57 28.05.2020
3276 Rain 11 1028 87 0 2.07 46 21:38 28.05.2020
3277 Rain 12 1027 86 0 2.07 46 21:20 28.05.2020
3278 Rain 13 1027 83 0 2.07 46 20:57 28.05.2020
3279 Rain 13 1027 83 0 2.07 46 20:57 28.05.2020
3280 Clear 14 1026 81 0 0.45 184 20:38 28.05.2020
3281 Clouds 14 1027 81 0 2.97 42 20:18 28.05.2020
3282 Clouds 15 1026 80 0 0.45 215 19:55 28.05.2020
3283 Clouds 15 1026 80 0 0.45 219 19:37 28.05.2020
3284 Clouds 15 1026 80 0 0.45 202 19:18 28.05.2020
3285 Clouds 15 1027 78 0 3.5 11 18:42 28.05.2020
3286 Clouds 15 1026 77 0 4.11 3 18:22 28.05.2020
3287 Clouds 15 1026 85 0 4.11 3 17:43 28.05.2020
3288 Clouds 15 1026 85 0 4.11 3 17:43 28.05.2020
3289 Rain 15 1026 89 0 4.31 5 17:23 28.05.2020
3290 Rain 15 1026 92 0 4.31 5 16:59 28.05.2020
3291 Rain 15 1026 92 0 3.66 5 16:39 28.05.2020
3292 Rain 16 1027 92 0 3.66 5 16:20 28.05.2020
3293 Rain 16 1027 92 0 0.45 197 15:46 28.05.2020
3294 Rain 15 1027 88 0 3.38 10 15:25 28.05.2020
3295 Rain 17 1027 75 0 3.38 10 14:59 28.05.2020
3296 Rain 16 1027 76 0 0.45 145 14:40 28.05.2020
3297 Rain 16 1028 80 0 2.4 333 14:21 28.05.2020
3298 Rain 14 1028 87 0 2.4 333 13:44 28.05.2020
3299 Clouds 14 1028 87 0 1.82 329 13:25 28.05.2020
3300 Rain 13 1028 81 0 1.82 329 12:43 28.05.2020
3301 Rain 13 1028 76 0 2 6 12:19 28.05.2020
3302 Rain 14 1028 62 10000 5.1 360 11:54 28.05.2020
3303 Rain 15 1028 63 10000 2.6 330 11:36 28.05.2020
3304 Rain 14 1028 58 10000 2.1 250 11:18 28.05.2020
3305 Rain 14 1028 71 10000 2.6 220 10:42 28.05.2020
3306 Rain 14 1028 73 0 4.78 3 10:24 28.05.2020
3307 Rain 14 1028 73 0 4.78 3 09:56 28.05.2020
3308 Rain 12 1028 74 0 3.73 332 09:38 28.05.2020
3309 Clouds 13 1028 75 0 2.66 305 09:18 28.05.2020
3310 Clouds 12 1028 76 0 2.66 305 08:43 28.05.2020
3311 Clouds 12 1028 77 0 2.99 290 08:22 28.05.2020
3312 Clouds 11 1028 79 0 2.99 290 07:41 28.05.2020
3313 Clouds 11 1028 79 0 2.46 256 07:23 28.05.2020
3314 Clouds 10 1028 78 0 2.46 256 06:45 28.05.2020
3315 Clouds 10 1028 77 0 2.23 253 06:27 28.05.2020
3316 Clouds 10 1028 75 0 2.23 253 05:39 28.05.2020
3317 Clouds 11 1028 74 0 2.31 246 04:38 28.05.2020
3318 Clouds 11 1028 75 0 2.35 240 04:18 28.05.2020
3319 Clouds 10 1029 77 0 2.27 239 02:59 28.05.2020
3320 Clouds 10 1029 77 0 2.27 239 02:38 28.05.2020
3321 Clouds 10 1029 76 0 1.98 238 01:45 28.05.2020
3322 Clouds 10 1030 71 10000 1 0 00:50 28.05.2020
3323 Clouds 11 1030 74 0 1.45 246 00:21 28.05.2020
3324 Clouds 11 1030 73 0 1.45 246 23:56 27.05.2020
3325 Clouds 11 1030 72 0 1.11 235 23:38 27.05.2020
3326 Clouds 12 1030 71 0 1.11 235 23:19 27.05.2020
3327 Clouds 11 1030 76 10000 1.5 150 22:43 27.05.2020
3328 Clear 12 1030 71 10000 1 130 22:24 27.05.2020
3329 Clear 14 1030 56 0 0.43 247 21:58 27.05.2020
3330 Clouds 14 1030 47 10000 2.1 60 21:40 27.05.2020
3331 Clouds 15 1030 58 0 0.12 27 21:21 27.05.2020
3332 Clouds 17 1030 52 0 0.12 27 20:58 27.05.2020
3333 Clouds 17 1030 42 10000 3.1 20 20:40 27.05.2020
3334 Clouds 17 1030 42 10000 3.1 20 20:40 27.05.2020
3335 Clouds 17 1030 42 10000 3.1 20 20:40 27.05.2020
3336 Clear 18 1030 47 0 0.98 73 20:20 27.05.2020
3337 Clear 19 1030 45 0 0.98 73 19:46 27.05.2020
3338 Clear 19 1030 44 0 1.98 62 19:21 27.05.2020
3339 Clear 19 1030 44 0 1.98 62 18:58 27.05.2020
3340 Clear 19 1030 45 0 2.88 52 18:39 27.05.2020
3341 Clear 19 1030 42 0 2.88 52 18:19 27.05.2020
3342 Clear 19 1030 42 0 2.88 52 17:43 27.05.2020
3343 Clear 20 1030 43 0 3.17 53 17:25 27.05.2020
3344 Clear 20 1031 41 0 3.17 53 16:57 27.05.2020
3345 Clear 20 1031 41 0 3.17 53 16:57 27.05.2020
3346 Clear 20 1031 43 0 3.32 54 16:38 27.05.2020
3347 Clear 20 1031 43 0 3.32 54 16:20 27.05.2020
3348 Clear 19 1031 43 0 0.45 306 15:55 27.05.2020
3349 Clear 20 1031 46 0 0.45 60 15:37 27.05.2020
3350 Clear 19 1031 43 0 0.45 17 15:18 27.05.2020
3351 Clear 19 1032 45 0 0.45 84 14:42 27.05.2020
3352 Clear 19 1032 43 0 3.62 57 14:42 27.05.2020
3353 Clear 19 1032 45 0 0.45 171 14:20 27.05.2020
3354 Clear 19 1032 47 0 0.45 176 13:44 27.05.2020
3355 Clear 19 1032 45 0 0.45 139 13:25 27.05.2020
3356 Clear 19 1033 44 0 3.63 70 12:57 27.05.2020
3357 Clear 18 1033 44 0 3.63 70 12:39 27.05.2020
3358 Clouds 17 1033 41 10000 2.6 40 12:21 27.05.2020
3359 Clear 17 1033 53 0 3.59 73 11:39 27.05.2020
3360 Clear 17 1033 50 0 0.45 350 11:21 27.05.2020
3361 Clear 17 1033 51 0 0.45 229 10:57 27.05.2020
3362 Clear 17 1033 51 0 0.45 229 10:57 27.05.2020
3363 Clear 17 1033 52 0 0.45 102 10:38 27.05.2020
3364 Clear 17 1033 53 0 0.45 202 10:19 27.05.2020
3365 Clear 15 1033 67 0 0.45 188 09:41 27.05.2020
3366 Clear 13 1033 62 10000 2.6 70 09:22 27.05.2020
3367 Clear 11 1033 62 10000 2.1 60 08:56 27.05.2020
3368 Clear 10 1033 93 0 2.58 85 08:36 27.05.2020
3369 Clouds 10 1033 93 0 1.83 95 08:18 27.05.2020
3370 Clouds 8 1033 93 0 1.83 95 07:49 27.05.2020
3371 Clouds 7 1033 93 0 1.31 108 07:30 27.05.2020
3372 Clouds 7 1033 93 0 1.31 108 07:30 27.05.2020
3373 Clouds 6 1033 92 0 1.31 108 06:47 27.05.2020
3374 Clouds 4 1033 100 10000 2.1 150 06:20 27.05.2020
3375 Clouds 5 1033 91 0 1.24 126 05:49 27.05.2020
3376 Clear 5 1033 91 0 1.41 120 05:22 27.05.2020
3377 Clear 7 1034 88 0 1.23 102 02:34 27.05.2020
3378 Clouds 7 1034 87 10000 0.5 0 01:53 27.05.2020
3379 Clouds 7 1034 87 10000 0.5 0 01:30 27.05.2020
3380 Clouds 8 1034 87 10000 1 0 00:46 27.05.2020
3381 Clouds 8 1034 87 10000 1.5 160 00:20 27.05.2020
3382 Clouds 9 1034 81 10000 0.5 0 23:57 26.05.2020
3383 Clouds 9 1034 76 10000 1 130 23:38 26.05.2020
3384 Clouds 10 1034 76 10000 1 130 23:20 26.05.2020
3385 Clouds 10 1034 62 10000 2.6 60 22:41 26.05.2020
3386 Clouds 12 1034 62 10000 2.6 60 22:22 26.05.2020
3387 Clouds 13 1033 62 10000 2.6 40 21:59 26.05.2020
3388 Clouds 14 1033 72 0 1.71 100 21:40 26.05.2020
3389 Rain 14 1033 64 0 2.26 78 21:22 26.05.2020
3390 Rain 15 1033 62 0 2.26 78 20:57 26.05.2020
3391 Rain 15 1033 59 0 2.61 47 20:39 26.05.2020
3392 Rain 15 1033 58 0 2.61 47 20:19 26.05.2020
3393 Rain 16 1033 55 0 2.61 47 19:40 26.05.2020
3394 Clouds 16 1033 53 0 2.75 21 19:20 26.05.2020
3395 Clouds 17 1032 53 0 2.75 21 18:58 26.05.2020
3396 Clouds 17 1032 56 0 2.75 21 18:39 26.05.2020
3397 Clouds 16 1032 54 0 3.09 17 18:20 26.05.2020
3398 Clouds 16 1033 55 0 3.09 17 17:42 26.05.2020
3399 Clouds 17 1033 55 0 3.56 19 17:23 26.05.2020
3400 Clouds 17 1032 54 0 0.45 84 16:49 26.05.2020
3401 Clouds 16 1033 58 0 3.44 18 16:23 26.05.2020
3402 Clouds 17 1033 55 0 3.44 18 15:59 26.05.2020
3403 Clouds 17 1033 57 0 3.44 18 15:41 26.05.2020
3404 Clear 16 1033 60 0 0.45 166 15:20 26.05.2020
3405 Clear 16 1033 59 0 2.94 20 14:55 26.05.2020
3406 Clear 16 1033 56 0 2.94 20 14:37 26.05.2020
3407 Clouds 16 1033 57 0 3.2 37 14:18 26.05.2020
3408 Clouds 16 1033 58 0 3.2 37 13:41 26.05.2020
3409 Clouds 16 1033 55 0 2.97 24 13:22 26.05.2020
3410 Clouds 15 1033 54 10000 4.1 320 12:44 26.05.2020
3411 Clouds 15 1033 58 0 2.65 9 12:23 26.05.2020
3412 Clouds 15 1033 65 0 2.65 9 11:59 26.05.2020
3413 Clouds 15 1033 61 0 2.65 9 11:41 26.05.2020
3414 Clouds 14 1033 63 0 0.45 38 11:20 26.05.2020
3415 Clouds 15 1033 67 0 0.45 338 10:47 26.05.2020
3416 Clouds 15 1033 63 0 1.68 22 10:20 26.05.2020
3417 Clouds 14 1033 66 0 1.68 22 09:59 26.05.2020
3418 Clouds 13 1077 58 0 0.45 107 09:38 26.05.2020
3419 Clouds 12 1033 71 10000 1.5 350 09:19 26.05.2020
3420 Clouds 11 1033 94 0 1.78 25 08:41 26.05.2020
3421 Clouds 10 1033 94 0 1.65 28 08:22 26.05.2020
3422 Clouds 8 1033 92 0 1.65 28 07:44 26.05.2020
3423 Clouds 8 1032 91 0 1.27 24 07:23 26.05.2020
3424 Clouds 7 1032 90 0 1.27 24 06:54 26.05.2020
3425 Clouds 7 1032 90 0 1.27 24 06:35 26.05.2020
3426 Clouds 6 1032 88 0 0.94 26 05:48 26.05.2020
3427 Clouds 7 1032 88 0 0.65 34 05:28 26.05.2020
3428 Clouds 7 1032 87 0 0.65 34 04:50 26.05.2020
3429 Clouds 8 1032 87 0 0.33 115 04:31 26.05.2020
3430 Clouds 8 1032 86 0 0.33 115 03:52 26.05.2020
3431 Clouds 9 1032 83 0 0.73 149 02:44 26.05.2020
3432 Clouds 9 1032 81 10000 0.5 0 01:48 26.05.2020
3433 Clouds 9 1032 81 10000 0.5 0 01:27 26.05.2020
3434 Clear 11 1032 81 10000 2.1 270 00:37 26.05.2020
3435 Clear 11 1032 81 10000 2.1 270 00:19 26.05.2020
3436 Clear 11 1032 81 10000 2.1 250 23:55 25.05.2020
3437 Clear 13 1078 63 0 2.27 353 23:36 25.05.2020
3438 Clear 13 1078 63 0 2.27 353 23:18 25.05.2020
3439 Clear 12 1032 71 10000 3.1 270 22:55 25.05.2020
3440 Clear 14 1078 57 0 0.89 165 22:36 25.05.2020
3441 Clear 14 1078 56 0 0.89 109 22:18 25.05.2020
3442 Clear 15 1031 62 10000 3.1 280 21:55 25.05.2020
3443 Rain 15 1031 66 0 3.46 315 21:36 25.05.2020
3444 Clear 15 1031 64 0 3.28 322 21:18 25.05.2020
3445 Clear 16 1030 62 0 0.89 169 20:42 25.05.2020
3446 Rain 16 1030 64 0 0.45 323 20:22 25.05.2020
3447 Rain 17 1030 65 0 3.96 314 19:59 25.05.2020
3448 Rain 16 1030 64 0 0.45 327 19:40 25.05.2020
3449 Rain 17 1030 64 0 0.45 24 19:18 25.05.2020
3450 Rain 17 1030 63 0 0.45 311 18:57 25.05.2020
3451 Rain 16 1030 64 0 0.45 305 18:38 25.05.2020
3452 Rain 17 1030 63 0 0.45 182 18:20 25.05.2020
3453 Rain 17 1030 65 0 0.89 38 17:44 25.05.2020
3454 Rain 16 1030 67 0 0.45 101 17:23 25.05.2020
3455 Rain 16 1030 77 0 0.45 309 16:58 25.05.2020
3456 Rain 16 1030 77 0 0.89 287 16:40 25.05.2020
3457 Rain 15 1030 79 0 5.59 309 16:20 25.05.2020
3458 Rain 16 1030 67 0 0.89 209 15:45 25.05.2020
3459 Rain 17 1077 50 0 2.68 179 15:20 25.05.2020
3460 Rain 17 1077 51 0 2.68 120 14:59 25.05.2020
3461 Rain 17 1030 67 0 0.89 304 14:40 25.05.2020
3462 Rain 16 1030 71 0 0.45 203 14:22 25.05.2020
3463 Rain 16 1030 68 0 0.89 263 13:55 25.05.2020
3464 Rain 15 1030 79 0 0.45 311 13:37 25.05.2020
3465 Rain 15 1030 75 0 0.89 331 13:18 25.05.2020
3466 Rain 14 1031 90 0 0.45 336 12:39 25.05.2020
3467 Rain 13 1031 87 0 0.45 344 12:21 25.05.2020
3468 Rain 13 1031 85 0 4.57 295 11:57 25.05.2020
3469 Rain 13 1031 82 0 4.48 301 11:37 25.05.2020
3470 Rain 13 1031 82 0 0.45 309 11:18 25.05.2020
3471 Rain 13 1031 82 0 0.45 309 10:41 25.05.2020
3472 Rain 12 1031 84 0 3.39 298 10:21 25.05.2020
3473 Rain 12 1031 86 0 0.45 223 09:56 25.05.2020
3474 Rain 12 1031 86 0 3.39 298 09:38 25.05.2020
3475 Rain 11 1031 87 0 3.36 283 09:19 25.05.2020
3476 Clouds 11 1031 76 10000 3.6 250 08:44 25.05.2020
3477 Rain 11 1031 88 0 3.38 279 08:24 25.05.2020
3478 Rain 11 1031 88 0 3.38 279 07:59 25.05.2020
3479 Rain 11 1031 88 0 3.38 279 07:41 25.05.2020
3480 Rain 11 1031 88 0 3.36 271 07:20 25.05.2020
3481 Rain 11 1031 89 0 3.36 271 06:46 25.05.2020
3482 Rain 11 1031 89 0 0.45 211 06:27 25.05.2020
3483 Rain 11 1030 85 0 3.02 255 03:46 25.05.2020
3484 Rain 11 1076 72 0 0.45 66 03:22 25.05.2020
3485 Rain 12 1031 71 10000 3.1 250 02:44 25.05.2020
3486 Rain 12 1031 71 10000 3.1 240 01:46 25.05.2020
3487 Clouds 12 1076 72 0 3.08 256 01:28 25.05.2020
3488 Clouds 12 1075 72 0 0.89 52 00:36 25.05.2020
3489 Clouds 12 1031 71 10000 3.1 240 00:18 25.05.2020
3490 Clouds 13 1076 73 0 3.04 253 23:43 24.05.2020
3491 Clouds 13 1076 72 0 2.92 259 23:23 24.05.2020
3492 Clouds 13 1076 72 0 2.92 259 22:59 24.05.2020
3493 Clouds 13 1075 70 0 0.89 92 22:41 24.05.2020
3494 Clouds 13 1075 68 0 0.45 99 22:19 24.05.2020
3495 Clouds 14 1075 62 0 0.89 61 21:56 24.05.2020
3496 Clouds 14 1075 62 0 0.89 61 21:56 24.05.2020
3497 Clouds 14 1030 58 0 2.97 280 21:38 24.05.2020
3498 Clouds 14 1030 59 0 2.97 280 21:19 24.05.2020
3499 Clouds 15 1030 63 0 2.88 283 20:44 24.05.2020
3500 Clouds 15 1030 60 0 3.51 295 20:22 24.05.2020
3501 Clouds 16 1029 60 0 0.45 0 19:59 24.05.2020
3502 Clouds 16 1029 61 0 3.51 295 19:41 24.05.2020
3503 Clouds 16 1029 62 0 4.38 298 19:19 24.05.2020
3504 Clouds 16 1029 63 0 4.38 298 19:19 24.05.2020
3505 Clouds 16 1029 63 0 4.38 298 18:57 24.05.2020
3506 Clouds 16 1029 57 0 0.45 288 18:38 24.05.2020
3507 Rain 16 1029 57 0 0.45 281 18:20 24.05.2020
3508 Rain 16 1029 55 0 0.89 242 17:55 24.05.2020
3509 Rain 17 1029 51 0 0.89 207 17:36 24.05.2020
3510 Rain 17 1029 53 0 0.89 355 17:36 24.05.2020
3511 Rain 17 1029 51 0 0.89 263 17:18 24.05.2020
3512 Rain 17 1029 55 0 0.89 294 16:39 24.05.2020
3513 Rain 16 1029 55 0 0.89 204 16:21 24.05.2020
3514 Rain 16 1029 54 0 0.89 263 15:58 24.05.2020
3515 Rain 16 1029 53 0 1.34 180 15:39 24.05.2020
3516 Clouds 16 1029 57 0 0.89 194 15:19 24.05.2020
3517 Clouds 16 1030 55 0 1.34 319 14:55 24.05.2020
3518 Clouds 16 1030 57 0 0.45 203 14:37 24.05.2020
3519 Clouds 16 1030 59 0 0.89 207 14:18 24.05.2020
3520 Clouds 16 1030 50 0 1.34 320 13:55 24.05.2020
3521 Clouds 16 1030 51 0 0.89 297 13:36 24.05.2020
3522 Clouds 17 1030 50 0 0.89 284 13:18 24.05.2020
3523 Clouds 17 1030 49 0 1.34 190 12:54 24.05.2020
3524 Clouds 16 1030 50 0 0.89 333 12:36 24.05.2020
3525 Clouds 15 1031 50 10000 8.2 260 12:18 24.05.2020
3526 Clouds 15 1070 46 0 2.24 83 11:42 24.05.2020
3527 Rain 15 1073 47 0 2.68 76 11:23 24.05.2020
3528 Rain 14 1030 70 0 0.89 322 10:59 24.05.2020
3529 Rain 14 1030 69 0 0.89 201 10:40 24.05.2020
3530 Rain 14 1030 69 0 0.89 201 10:40 24.05.2020
3531 Rain 14 1030 70 0 0.45 269 10:21 24.05.2020
3532 Rain 13 1031 78 0 0.45 313 09:55 24.05.2020
3533 Rain 12 1029 78 0 1.34 313 09:37 24.05.2020
3534 Clouds 11 1031 91 0 0.45 213 09:18 24.05.2020
3535 Rain 10 1031 94 0 0.45 209 08:40 24.05.2020
3536 Clouds 9 1031 94 0 4.26 267 08:22 24.05.2020
3537 Clouds 9 1030 95 0 4.26 267 07:54 24.05.2020
3538 Rain 9 1030 94 0 3.93 259 07:36 24.05.2020
3539 Rain 8 1030 95 0 3.93 259 07:18 24.05.2020
3540 Rain 8 1030 95 0 3.93 259 06:38 24.05.2020
3541 Clouds 8 1030 95 0 3.76 246 05:49 24.05.2020
3542 Clouds 7 1030 94 0 3.87 241 03:49 24.05.2020
3543 Clear 7 1030 94 0 3.93 254 03:26 24.05.2020
3544 Clouds 8 1030 94 0 4.2 270 02:24 24.05.2020
3545 Clouds 9 1030 94 0 3.58 262 00:59 24.05.2020
3546 Clouds 9 1030 94 0 3.58 262 00:36 24.05.2020
3547 Clouds 9 1030 94 0 3.24 272 00:18 24.05.2020
3548 Clouds 9 1030 94 0 3.24 272 23:38 23.05.2020
3549 Clouds 10 1029 94 0 3.37 289 23:19 23.05.2020
3550 Clouds 9 1029 94 0 3.37 289 22:55 23.05.2020
3551 Rain 9 1029 94 0 4.06 301 22:37 23.05.2020
3552 Clouds 9 1029 94 0 3.37 289 22:37 23.05.2020
3553 Rain 9 1029 94 0 4.06 301 22:18 23.05.2020
3554 Rain 9 1028 94 0 4.06 301 21:56 23.05.2020
3555 Rain 9 1028 94 0 4.06 301 21:36 23.05.2020
3556 Rain 9 1028 94 0 4.36 283 21:18 23.05.2020
3557 Rain 9 1028 94 0 4.36 283 20:41 23.05.2020
3558 Rain 9 1028 94 0 4.46 271 20:20 23.05.2020
3559 Rain 9 1028 94 0 4.46 271 19:59 23.05.2020
3560 Rain 10 1028 93 0 4.46 271 19:41 23.05.2020
3561 Rain 10 1028 93 0 3.97 260 19:19 23.05.2020
3562 Rain 10 1028 93 0 0.45 309 18:55 23.05.2020
3563 Rain 10 1028 92 0 3.97 260 18:36 23.05.2020
3564 Rain 10 1027 92 0 3.73 261 18:18 23.05.2020
3565 Rain 11 1027 92 0 3.73 261 17:54 23.05.2020
3566 Rain 10 1026 91 0 4.42 273 17:36 23.05.2020
3567 Rain 11 1026 91 0 4.42 273 17:18 23.05.2020
3568 Rain 11 1025 90 0 0.45 269 16:55 23.05.2020
3569 Rain 11 1024 89 0 0.45 172 16:37 23.05.2020
3570 Rain 11 1024 88 0 0.45 155 16:18 23.05.2020
3571 Rain 13 1022 100 3200 9.3 320 15:41 23.05.2020
3572 Rain 19 1021 79 0 2.68 313 15:23 23.05.2020
3573 Rain 21 1019 62 0 0.89 187 14:55 23.05.2020
3574 Rain 23 1019 71 0 1.79 298 14:36 23.05.2020
3575 Rain 23 1019 70 0 1.79 270 14:18 23.05.2020
3576 Rain 22 1019 66 0 4.84 266 13:39 23.05.2020
3577 Rain 21 1019 69 0 4.84 266 13:19 23.05.2020
3578 Rain 21 1020 70 0 4.84 266 12:54 23.05.2020
3579 Rain 21 1021 70 0 0.45 198 12:36 23.05.2020
3580 Rain 21 1021 72 0 2.73 242 12:18 23.05.2020
3581 Rain 19 1021 85 0 2.73 242 11:42 23.05.2020
3582 Clouds 18 1022 87 0 2.21 222 11:20 23.05.2020
3583 Rain 18 1022 88 0 2.21 222 10:56 23.05.2020
3584 Rain 18 1022 88 0 2.21 222 10:38 23.05.2020
3585 Rain 17 1022 88 0 2.47 213 10:19 23.05.2020
3586 Rain 17 1022 85 0 2.47 213 09:56 23.05.2020
3587 Rain 17 1019 83 0 0.45 268 09:38 23.05.2020
3588 Clouds 17 1021 92 0 2.36 201 09:19 23.05.2020
3589 Clouds 18 1022 72 10000 1.5 220 08:42 23.05.2020
3590 Rain 18 1022 72 10000 1.5 220 08:19 23.05.2020
3591 Rain 17 1022 77 10000 2.6 220 08:19 23.05.2020
3592 Rain 16 1022 77 10000 2.6 210 07:46 23.05.2020
3593 Rain 16 1022 77 10000 2.6 210 07:28 23.05.2020
3594 Rain 16 1022 74 0 3.73 219 06:53 23.05.2020
3595 Rain 16 1022 74 0 3.73 219 06:35 23.05.2020
3596 Rain 17 1022 67 10000 3.6 230 04:49 23.05.2020
3597 Rain 18 1022 60 0 3.69 249 03:30 23.05.2020
3598 Rain 17 1022 59 10000 3.1 230 02:57 23.05.2020
3599 Rain 20 1022 49 10000 2.1 250 01:57 23.05.2020
3600 Clouds 19 1021 49 0 3.05 248 01:21 23.05.2020
3601 Clouds 20 1021 49 0 3.05 248 00:46 23.05.2020
3602 Clouds 20 1022 50 0 2.45 229 00:25 23.05.2020
3603 Clouds 20 1023 49 0 2.45 229 23:57 22.05.2020
3604 Clouds 19 1023 45 10000 2.1 240 23:38 22.05.2020
3605 Clouds 20 1023 45 10000 2.6 230 23:19 22.05.2020
3606 Clouds 20 1021 46 0 2.59 212 22:44 22.05.2020
3607 Clouds 21 1023 40 10000 3.6 230 22:22 22.05.2020
3608 Clouds 21 1023 45 10000 2.6 250 21:57 22.05.2020
3609 Clouds 21 1022 45 10000 3.6 170 21:39 22.05.2020
3610 Clouds 21 1021 60 0 2.06 255 21:20 22.05.2020
3611 Clouds 21 1023 60 10000 2.1 210 20:46 22.05.2020
3612 Clouds 22 1021 48 0 2.48 275 20:21 22.05.2020
3613 Clouds 23 1023 49 10000 1.5 280 19:59 22.05.2020
3614 Clouds 23 1021 46 0 2.48 275 19:40 22.05.2020
3615 Clouds 23 1023 47 0 0.45 209 19:22 22.05.2020
3616 Clouds 24 1022 46 0 3.34 279 18:39 22.05.2020
3617 Clouds 24 1022 47 0 3.63 274 18:21 22.05.2020
3618 Clouds 24 1022 47 0 3.63 274 17:58 22.05.2020
3619 Clouds 25 1023 49 0 3.96 282 17:38 22.05.2020
3620 Clouds 25 1022 47 0 3.96 282 17:18 22.05.2020
3621 Clouds 25 1023 42 0 0.45 213 16:44 22.05.2020
3622 Clouds 25 1023 44 0 0.45 218 16:20 22.05.2020
3623 Clouds 25 1023 46 0 0.45 211 15:59 22.05.2020
3624 Clouds 25 1023 45 0 0.45 200 15:41 22.05.2020
3625 Clouds 25 1023 46 0 0.45 200 15:20 22.05.2020
3626 Clouds 25 1023 48 0 2.71 283 14:44 22.05.2020
3627 Clouds 24 1023 46 0 2.45 287 14:25 22.05.2020
3628 Clouds 24 1023 47 0 0.45 167 13:49 22.05.2020
3629 Clouds 24 1023 51 0 2.19 292 13:21 22.05.2020
3630 Clouds 23 1023 50 0 0.45 252 12:59 22.05.2020
3631 Clouds 23 1022 47 0 2.19 292 12:39 22.05.2020
3632 Clouds 23 1022 47 0 1.94 284 12:20 22.05.2020
3633 Clouds 23 1022 51 0 1.94 284 11:44 22.05.2020
3634 Clouds 23 1023 53 0 1.66 258 11:21 22.05.2020
3635 Clouds 23 1023 53 0 1.66 258 11:21 22.05.2020
3636 Clouds 23 1023 53 0 1.66 258 11:21 22.05.2020
3637 Clouds 22 1023 61 0 1.66 258 10:56 22.05.2020
3638 Clouds 21 1023 60 0 1.72 243 10:38 22.05.2020
3639 Clouds 21 1023 61 0 1.72 243 10:19 22.05.2020
3640 Clouds 21 1023 63 0 1.72 243 10:19 22.05.2020
3641 Clouds 20 1023 66 0 1.72 243 09:46 22.05.2020
3642 Clouds 17 1023 63 10000 3.1 220 09:21 22.05.2020
3643 Clouds 16 1023 84 0 1.72 231 08:57 22.05.2020
3644 Clouds 15 1023 87 0 1.67 210 08:39 22.05.2020
3645 Clouds 15 1023 89 0 1.67 210 08:18 22.05.2020
3646 Clouds 13 1023 91 0 1.67 210 07:48 22.05.2020
3647 Clouds 12 1023 90 0 1.42 219 07:22 22.05.2020
3648 Clouds 11 1022 90 0 1.42 219 06:46 22.05.2020
3649 Clouds 11 1022 89 0 1.46 219 06:28 22.05.2020
3650 Clouds 11 1022 88 0 1.46 219 05:35 22.05.2020
3651 Clear 11 1022 86 0 1.63 219 04:48 22.05.2020
3652 Clear 11 1022 84 0 1.79 227 03:50 22.05.2020
3653 Clear 11 1022 84 0 1.98 225 03:29 22.05.2020
3654 Clouds 12 1022 83 0 1.86 225 02:23 22.05.2020
3655 Clouds 12 1022 82 0 1.86 225 01:42 22.05.2020
3656 Clear 12 1023 81 10000 2.1 170 01:20 22.05.2020
3657 Clear 12 1023 87 10000 2.1 160 00:33 22.05.2020
3658 Clear 14 1023 81 0 1.78 200 23:57 21.05.2020
3659 Clear 14 1023 79 0 1.78 200 23:39 21.05.2020
3660 Clear 14 1023 77 0 1.51 182 23:20 21.05.2020
3661 Clear 14 1023 75 0 1.51 182 22:57 21.05.2020
3662 Clear 15 1023 73 0 1.51 182 22:37 21.05.2020
3663 Clear 15 1023 70 0 1.34 155 22:19 21.05.2020
3664 Clear 17 1022 63 10000 0.5 0 21:47 21.05.2020
3665 Clear 18 1022 63 0 1.1 72 21:27 21.05.2020
3666 Clear 18 1022 62 0 1.1 72 21:27 21.05.2020
3667 Clear 19 1022 48 10000 2.1 350 20:57 21.05.2020
3668 Clouds 20 1022 52 0 1.77 45 20:39 21.05.2020
3669 Clouds 21 1022 52 0 1.77 45 20:20 21.05.2020
3670 Clouds 22 1021 43 10000 3.1 350 19:40 21.05.2020
3671 Clouds 22 1021 49 0 2.31 20 19:19 21.05.2020
3672 Clouds 22 1021 49 0 2.31 20 18:56 21.05.2020
3673 Clouds 22 1021 49 0 2.62 22 18:36 21.05.2020
3674 Clouds 22 1021 49 0 2.62 22 18:18 21.05.2020
3675 Clouds 22 1021 50 0 2.62 22 17:45 21.05.2020
3676 Clouds 22 1021 50 0 2.75 25 17:26 21.05.2020
3677 Clouds 22 1021 53 0 2.75 25 16:48 21.05.2020
3678 Clouds 22 1021 54 0 2.76 25 16:28 21.05.2020
3679 Clouds 22 1022 54 0 2.76 25 15:59 21.05.2020
3680 Clouds 21 1022 53 0 2.76 25 15:40 21.05.2020
3681 Clouds 22 1022 54 0 2.75 26 15:21 21.05.2020
3682 Clouds 22 1022 51 0 2.64 16 14:41 21.05.2020
3683 Clouds 22 1022 54 0 2.64 16 14:22 21.05.2020
3684 Clouds 22 1022 55 0 2.64 16 13:56 21.05.2020
3685 Clouds 21 1022 58 0 2.64 16 13:37 21.05.2020
3686 Clouds 21 1022 56 0 2.54 18 13:18 21.05.2020
3687 Clouds 21 1022 65 0 2.54 18 12:39 21.05.2020
3688 Clouds 20 1022 58 0 2.39 20 12:20 21.05.2020
3689 Clouds 20 1023 63 0 2.39 20 11:57 21.05.2020
3690 Clouds 20 1023 60 0 2.39 20 11:39 21.05.2020
3691 Clouds 20 1022 62 0 2.15 15 11:20 21.05.2020
3692 Clouds 19 1022 66 0 2.15 15 10:43 21.05.2020
3693 Clouds 18 1022 68 0 1.54 10 10:23 21.05.2020
3694 Clouds 18 1022 70 0 1.54 10 09:59 21.05.2020
3695 Clouds 17 1022 72 0 1.54 10 09:40 21.05.2020
3696 Clouds 17 1022 72 0 1.54 10 09:40 21.05.2020
3697 Clouds 15 1025 74 0 0.75 5 09:22 21.05.2020
3698 Clouds 15 1022 87 0 0.44 322 08:56 21.05.2020
3699 Clouds 14 1022 89 0 0.39 274 08:37 21.05.2020
3700 Clouds 13 1022 89 0 0.39 274 08:19 21.05.2020
3701 Clouds 12 1022 91 0 0.39 274 07:41 21.05.2020
3702 Clouds 12 1022 91 0 0.41 221 07:22 21.05.2020
3703 Clouds 11 1021 100 10000 1 190 06:37 21.05.2020
3704 Clouds 11 1021 89 0 0.4 201 05:50 21.05.2020
3705 Clouds 11 1021 92 0 0.39 248 04:18 21.05.2020
3706 Clouds 12 1021 89 0 0.55 250 03:21 21.05.2020
3707 Clouds 12 1022 88 0 0.58 237 02:31 21.05.2020
3708 Clouds 11 1022 87 0 0.55 245 01:51 21.05.2020
3709 Clear 12 1022 86 0 0.72 227 01:24 21.05.2020
3710 Clear 12 1022 85 0 0.72 227 00:54 21.05.2020
3711 Clear 12 1022 84 0 0.57 200 00:27 21.05.2020
3712 Clear 12 1022 82 0 0.57 200 23:59 20.05.2020
3713 Clear 13 1022 82 0 0.57 200 23:40 20.05.2020
3714 Clear 13 1022 80 0 0.25 197 23:19 20.05.2020
3715 Clear 14 1022 76 0 0.25 197 22:55 20.05.2020
3716 Clear 14 1021 75 0 0.25 197 22:36 20.05.2020
3717 Clear 14 1021 76 10000 1 80 22:18 20.05.2020
3718 Clear 17 1019 60 0 0.26 66 21:39 20.05.2020
3719 Clouds 17 1019 60 0 0.97 3 21:20 20.05.2020
3720 Clouds 18 1019 60 0 0.97 3 20:44 20.05.2020
3721 Clouds 18 1019 60 0 0.97 3 20:44 20.05.2020
3722 Clouds 19 1019 59 0 1.07 22 20:24 20.05.2020
3723 Clouds 19 1019 60 0 1.07 22 19:54 20.05.2020
3724 Clouds 19 1019 58 0 1.81 23 19:36 20.05.2020
3725 Clouds 20 1019 57 0 1.81 23 19:18 20.05.2020
3726 Clouds 19 1021 59 10000 4.1 360 18:42 20.05.2020
3727 Clouds 20 1019 57 0 2.88 27 18:21 20.05.2020
3728 Clouds 20 1019 55 0 2.88 27 17:41 20.05.2020
3729 Clouds 20 1019 54 0 3.56 23 17:22 20.05.2020
3730 Clouds 20 1020 52 10000 3.6 340 16:56 20.05.2020
3731 Clouds 21 1019 52 0 3.56 23 16:38 20.05.2020
3732 Clouds 20 1021 52 10000 4.1 330 16:19 20.05.2020
3733 Clouds 20 1021 52 10000 3.6 10 15:43 20.05.2020
3734 Clouds 20 1020 55 0 3.83 15 15:25 20.05.2020
3735 Clouds 20 1021 59 0 0.45 25 14:45 20.05.2020
3736 Clouds 20 1021 61 0 3.77 33 14:24 20.05.2020
3737 Clouds 19 1021 52 10000 3.1 350 13:59 20.05.2020
3738 Clouds 19 1021 58 0 0.45 217 13:39 20.05.2020
3739 Rain 19 1021 62 0 3.6 37 13:18 20.05.2020
3740 Rain 18 1021 69 0 3.6 37 12:42 20.05.2020
3741 Rain 18 1021 68 0 3.14 36 12:21 20.05.2020
3742 Rain 18 1021 67 0 3.14 36 11:39 20.05.2020
3743 Rain 17 1021 66 0 2.19 33 11:20 20.05.2020
3744 Rain 17 1021 67 0 2.19 33 10:55 20.05.2020
3745 Clouds 17 1020 67 0 1.26 45 10:37 20.05.2020
3746 Clouds 17 1020 67 0 1.26 45 10:19 20.05.2020
3747 Clouds 16 1020 71 0 1.26 45 09:41 20.05.2020
3748 Clouds 15 1020 71 10000 1.5 360 09:20 20.05.2020
3749 Clouds 14 1066 66 0 0.89 120 08:42 20.05.2020
3750 Clouds 14 1066 66 0 1.79 97 08:20 20.05.2020
3751 Clouds 14 1066 67 0 1.79 28 07:54 20.05.2020
3752 Clouds 14 1066 66 0 1.34 78 07:36 20.05.2020
3753 Clouds 14 1066 67 0 0.89 78 07:18 20.05.2020
3754 Clouds 13 1065 69 0 0.45 65 06:24 20.05.2020
3755 Clouds 14 1066 67 0 0.89 65 05:18 20.05.2020
3756 Clouds 13 1020 71 10000 2.1 30 04:25 20.05.2020
3757 Clouds 13 1020 71 10000 2.6 20 03:37 20.05.2020
3758 Clouds 15 1020 59 10000 3.6 360 01:58 20.05.2020
3759 Clouds 15 1020 62 10000 1.5 350 01:25 20.05.2020
3760 Clouds 13 1020 51 10000 2.1 340 00:42 20.05.2020
3761 Clouds 16 1020 51 10000 2.1 340 00:23 20.05.2020
3762 Clouds 16 1019 55 10000 2.1 320 23:40 19.05.2020
3763 Clouds 16 1019 55 10000 2.1 320 23:19 19.05.2020
3764 Clouds 16 1019 51 10000 1.5 330 22:56 19.05.2020
3765 Clouds 17 1019 51 10000 1.5 330 22:38 19.05.2020
3766 Clouds 18 1065 54 0 2.38 332 22:18 19.05.2020
3767 Clouds 19 1064 53 0 2.38 332 21:55 19.05.2020
3768 Clouds 17 1019 42 10000 1.5 320 21:37 19.05.2020
3769 Clouds 19 1065 48 0 2.6 345 21:18 19.05.2020
3770 Clouds 20 1065 45 0 2.6 345 20:56 19.05.2020
3771 Clouds 20 1017 43 0 2.6 345 20:38 19.05.2020
3772 Clouds 21 1017 43 0 0.45 355 20:38 19.05.2020
3773 Rain 21 1065 43 0 1.34 87 20:19 19.05.2020
3774 Rain 21 1065 43 0 1.34 87 20:19 19.05.2020
3775 Rain 22 1065 41 0 1.34 106 19:39 19.05.2020
3776 Rain 23 1064 40 0 1.34 113 19:21 19.05.2020
3777 Rain 23 1064 37 0 2.24 106 18:57 19.05.2020
3778 Rain 23 1018 51 0 2.7 13 18:38 19.05.2020
3779 Rain 23 1018 50 0 2.7 13 18:20 19.05.2020
3780 Rain 23 1018 40 10000 3.1 10 17:41 19.05.2020
3781 Rain 23 1018 50 0 3.6 12 17:21 19.05.2020
3782 Rain 24 1018 47 0 3.6 12 16:58 19.05.2020
3783 Rain 24 1018 47 0 3.6 12 16:38 19.05.2020
3784 Clouds 23 1019 43 10000 4.1 20 16:19 19.05.2020
3785 Rain 23 1019 49 0 3.76 13 15:46 19.05.2020
3786 Clouds 23 1019 48 0 0.45 17 15:21 19.05.2020
3787 Clouds 23 1020 49 10000 3.1 30 14:57 19.05.2020
3788 Clouds 23 1020 46 10000 2.6 350 14:39 19.05.2020
3789 Clear 23 1020 44 0 0.45 159 14:20 19.05.2020
3790 Clear 23 1020 45 0 3.63 19 13:57 19.05.2020
3791 Clear 23 1020 46 0 2.98 21 13:39 19.05.2020
3792 Clear 22 1066 27 0 2.24 109 13:20 19.05.2020
3793 Clear 22 1020 49 0 2.98 21 12:56 19.05.2020
3794 Clear 21 1066 26 0 0.89 76 12:37 19.05.2020
3795 Clear 21 1067 24 0 0.89 63 12:19 19.05.2020
3796 Clear 21 1021 49 0 2.32 25 11:54 19.05.2020
3797 Clear 21 1021 51 0 2.32 25 11:36 19.05.2020
3798 Clear 21 1021 53 0 1.82 34 11:18 19.05.2020
3799 Clear 19 1021 51 0 1.82 34 10:42 19.05.2020
3800 Clear 19 1021 53 0 1.32 35 10:23 19.05.2020
3801 Clear 19 1021 60 0 1.32 35 09:55 19.05.2020
3802 Clear 16 1022 63 10000 1.03 358 09:37 19.05.2020
3803 Clear 16 1021 78 0 0.5 356 09:18 19.05.2020
3804 Clear 14 1022 92 0 0.5 356 08:41 19.05.2020
3805 Clear 13 1021 93 0 0.93 307 08:23 19.05.2020
3806 Clear 10 1022 92 0 0.93 307 07:42 19.05.2020
3807 Clear 10 1021 91 0 1.01 281 07:24 19.05.2020
3808 Clear 9 1021 90 0 1.01 281 06:41 19.05.2020
3809 Clear 8 1021 89 0 1.02 253 06:22 19.05.2020
3810 Clear 8 1021 88 0 1.02 253 05:40 19.05.2020
3811 Clear 8 1021 87 0 1.11 250 04:55 19.05.2020
3812 Clear 8 1021 87 0 1.11 250 04:55 19.05.2020
3813 Clear 9 1022 86 0 1.23 243 03:45 19.05.2020
3814 Clear 11 1022 82 0 0.27 275 01:30 19.05.2020
3815 Clear 11 1022 80 0 0.27 275 00:43 19.05.2020
3816 Clear 12 1022 80 0 0.44 351 00:22 19.05.2020
3817 Clear 13 1022 77 0 0.44 351 23:40 18.05.2020
3818 Clear 14 1022 74 0 0.97 347 23:21 18.05.2020
3819 Clear 15 1066 52 0 0.45 56 23:00 18.05.2020
3820 Clear 14 1023 62 10000 0.5 30 22:40 18.05.2020
3821 Clear 15 1066 51 0 0.45 49 22:21 18.05.2020
3822 Clear 15 1066 52 0 0.45 63 22:21 18.05.2020
3823 Clear 16 1022 55 10000 1.5 360 21:54 18.05.2020
3824 Clear 17 1022 56 0 1.27 348 21:36 18.05.2020
3825 Clear 18 1022 45 10000 2.6 330 21:18 18.05.2020
3826 Clear 19 1021 42 10000 2.6 330 20:42 18.05.2020
3827 Clear 20 1021 46 0 1.76 3 20:22 18.05.2020
3828 Clear 20 1021 37 10000 2.6 340 19:58 18.05.2020
3829 Clear 22 1021 44 0 1.88 11 19:40 18.05.2020
3830 Clear 22 1021 43 0 2.38 19 19:19 18.05.2020
3831 Clear 22 1021 42 0 2.38 19 18:46 18.05.2020
3832 Clear 22 1022 42 0 2.83 20 18:24 18.05.2020
3833 Clear 22 1022 43 0 2.83 20 17:55 18.05.2020
3834 Clear 22 1021 43 0 2.83 20 17:36 18.05.2020
3835 Clear 22 1021 43 0 2.93 22 17:18 18.05.2020
3836 Clear 22 1021 43 0 2.93 22 17:18 18.05.2020
3837 Clear 23 1022 40 0 0.45 42 16:43 18.05.2020
3838 Clear 23 1022 40 0 2.78 30 16:21 18.05.2020
3839 Clear 23 1022 40 0 2.78 30 15:58 18.05.2020
3840 Clear 23 1022 41 0 0.45 225 15:39 18.05.2020
3841 Clear 22 1022 38 0 2.67 32 15:21 18.05.2020
3842 Clear 22 1023 40 10000 2.1 0 14:56 18.05.2020
3843 Clear 22 1023 41 0 0.45 180 14:38 18.05.2020
3844 Clear 22 1023 38 0 2.79 34 14:20 18.05.2020
3845 Clear 21 1023 41 0 2.79 34 13:41 18.05.2020
3846 Clear 21 1023 44 0 2.79 35 13:21 18.05.2020
3847 Clear 20 1023 38 0 2.79 35 12:58 18.05.2020
3848 Clear 20 1024 42 0 2.79 35 12:40 18.05.2020
3849 Clear 19 1024 48 10000 2.6 10 12:19 18.05.2020
3850 -273 0 0 0 0 0 11:59 18.05.2020
3851 Clear 20 1024 51 0 2.34 49 11:40 18.05.2020
3852 Clear 19 1024 49 0 1.93 63 11:22 18.05.2020
3853 Clear 18 1024 51 0 1.93 63 10:46 18.05.2020
3854 Clear 18 1024 55 0 1.9 64 10:24 18.05.2020
3855 Clear 17 1024 56 0 1.41 51 09:46 18.05.2020
3856 Clear 13 1024 62 10000 0.5 0 09:27 18.05.2020
3857 Clear 12 1024 90 0 1.31 29 08:59 18.05.2020
3858 Clear 11 1024 93 0 1.31 29 08:39 18.05.2020
3859 Clear 11 1024 94 0 1.19 356 08:21 18.05.2020
3860 Clear 9 1024 93 0 1.19 356 07:43 18.05.2020
3861 Clear 8 1024 92 0 0.48 287 07:23 18.05.2020
3862 Clear 6 1023 90 0 0.48 287 06:47 18.05.2020
3863 Clear 6 1023 90 0 0.82 229 06:23 18.05.2020
3864 Clear 6 1023 90 0 0.82 229 05:43 18.05.2020
3865 Clear 7 1023 89 0 0.52 299 03:53 18.05.2020
3866 Clear 7 1023 87 0 0.36 214 03:22 18.05.2020
3867 Clouds 8 1023 85 0 0.65 27 01:46 18.05.2020
3868 Clouds 9 1023 84 0 1.21 14 00:45 18.05.2020
3869 Clouds 10 1023 82 0 1.43 8 00:19 18.05.2020
3870 Clouds 10 1023 80 0 1.43 8 23:55 17.05.2020
3871 Clouds 12 1023 78 0 1.43 8 23:37 17.05.2020
3872 Clouds 12 1023 76 0 1.38 8 23:18 17.05.2020
3873 Clouds 12 1023 74 0 1.38 8 22:54 17.05.2020
3874 Clouds 12 1023 71 0 1.32 7 22:36 17.05.2020
3875 Clouds 13 1023 69 0 1.32 7 22:18 17.05.2020
3876 Clouds 14 1022 53 0 1.32 7 21:41 17.05.2020
3877 Clouds 15 1022 58 0 1.15 17 21:20 17.05.2020
3878 Clouds 16 1022 41 10000 3.1 10 20:57 17.05.2020
3879 Clear 18 1020 43 0 1.62 24 20:39 17.05.2020
3880 Clear 19 1020 43 0 1.62 24 20:19 17.05.2020
3881 Clear 19 1021 37 10000 3.6 330 19:47 17.05.2020
3882 Clear 19 1021 37 10000 3.6 330 19:28 17.05.2020
3883 Clear 20 1020 43 0 2.15 27 18:59 17.05.2020
3884 Clear 20 1021 46 0 2.15 27 18:39 17.05.2020
3885 Clear 20 1021 44 0 2.88 28 18:21 17.05.2020
3886 Clear 20 1021 45 0 0.45 226 17:42 17.05.2020
3887 Clear 20 1021 47 0 3.3 21 17:24 17.05.2020
3888 Clear 20 1021 43 0 3.3 21 16:59 17.05.2020
3889 Clear 20 1021 42 0 3.3 21 16:39 17.05.2020
3890 Clear 21 1022 40 0 3.34 14 16:20 17.05.2020
3891 Clear 20 1022 40 0 3.34 14 16:20 17.05.2020
3892 Clear 21 1022 37 10000 1 0 15:56 17.05.2020
3893 Clear 20 1022 42 10000 3.1 10 15:37 17.05.2020
3894 Clear 20 1022 39 7000 1 0 15:18 17.05.2020
3895 Clear 20 1022 39 10000 1.5 110 14:42 17.05.2020
3896 Clear 20 1022 39 10000 1.5 110 14:24 17.05.2020
3897 Clouds 19 1022 39 10000 2.6 0 13:57 17.05.2020
3898 Clouds 19 1022 43 0 2.5 18 13:37 17.05.2020
3899 Clouds 19 1022 44 0 2.01 23 13:18 17.05.2020
3900 Clouds 6 1020 91 0 0.67 276 04:26 17.05.2020
3901 Clouds 7 1020 88 0 0.42 337 02:29 17.05.2020
3902 Clouds 7 1020 88 0 0.43 331 01:58 17.05.2020
3903 Clouds 7 1020 87 0 0.43 331 01:38 17.05.2020
3904 Clouds 9 1020 86 0 0.67 24 00:40 17.05.2020
3905 Clouds 9 1020 85 0 0.88 48 00:19 17.05.2020
3906 Clouds 10 1019 82 0 0.88 48 23:40 16.05.2020
3907 Clouds 11 1019 81 0 1.72 69 23:20 16.05.2020
3908 Clouds 11 1019 78 0 1.72 69 22:58 16.05.2020
3909 Clouds 12 1019 77 0 1.72 69 22:40 16.05.2020
3910 Clouds 12 1019 76 0 1.84 65 22:20 16.05.2020
3911 Clouds 12 1019 62 10000 1 80 21:46 16.05.2020
3912 Clouds 14 1020 67 0 1.75 66 21:28 16.05.2020
3913 Clouds 14 1019 54 10000 2.6 60 20:59 16.05.2020
3914 Clouds 15 1019 51 10000 4.1 10 20:41 16.05.2020
3915 Clouds 15 1020 62 0 2.32 76 20:22 16.05.2020
3916 Clouds 16 1020 61 0 2.32 76 19:58 16.05.2020
3917 Clouds 15 1019 51 10000 4.1 20 19:40 16.05.2020
3918 Clouds 16 1020 61 0 2.78 59 19:22 16.05.2020
3919 Clouds 16 1020 48 10000 4.1 40 18:43 16.05.2020
3920 Clouds 16 1020 48 10000 4.1 40 18:25 16.05.2020
3921 Clouds 17 1020 58 0 2.89 59 17:58 16.05.2020
3922 Clouds 18 1020 56 0 2.89 59 17:40 16.05.2020
3923 Clouds 17 1020 58 0 2.53 65 17:20 16.05.2020
3924 Clouds 17 1020 48 10000 2.6 150 16:42 16.05.2020
3925 Clouds 16 1020 48 10000 2.6 150 16:23 16.05.2020
3926 Clouds 16 1020 48 10000 2.6 150 16:23 16.05.2020
3927 Clouds 17 1020 48 10000 1 0 15:58 16.05.2020
3928 Clouds 16 1021 47 10000 2.1 70 15:40 16.05.2020
3929 Clouds 16 1021 48 10000 1 0 15:20 16.05.2020
3930 Clouds 16 1021 48 10000 1 0 14:55 16.05.2020
3931 Clouds 16 1021 50 10000 4.1 20 14:37 16.05.2020
3932 Clouds 16 1021 51 10000 2.6 0 14:19 16.05.2020
3933 Clouds 16 1021 47 10000 2.6 90 13:42 16.05.2020
3934 Clouds 17 1021 52 0 3.18 78 13:23 16.05.2020
3935 Clouds 16 1021 53 0 0.45 149 12:57 16.05.2020
3936 Clouds 16 1022 54 0 3.18 78 12:39 16.05.2020
3937 Clouds 14 1022 58 10000 5.1 80 12:18 16.05.2020
3938 Clouds 14 1022 58 0 0.45 246 11:41 16.05.2020
3939 Clouds 14 1022 60 0 0.45 218 11:22 16.05.2020
3940 Clouds 14 1022 62 0 3.21 82 10:58 16.05.2020
3941 Clouds 13 1022 66 0 0.45 311 10:39 16.05.2020
3942 Clouds 13 1022 76 0 3.03 85 10:20 16.05.2020
3943 Clouds 12 1022 91 0 0.45 305 09:46 16.05.2020
3944 Clouds 9 1022 81 10000 3.1 70 09:28 16.05.2020
3945 Clouds 7 1022 96 0 1.88 90 08:55 16.05.2020
3946 Clouds 6 1022 96 0 1.88 90 08:36 16.05.2020
3947 Clouds 5 1022 95 0 1.54 102 08:18 16.05.2020
3948 Clouds 5 1022 95 0 1.54 102 07:42 16.05.2020
3949 Clear 4 1022 94 0 1.33 110 07:21 16.05.2020
3950 Clear 3 1021 94 0 1.33 110 06:47 16.05.2020
3951 Clear 3 1021 93 0 1.15 108 06:20 16.05.2020
3952 Clear 3 1021 93 0 1.15 108 05:43 16.05.2020
3953 Clear 3 1021 93 0 1.11 110 05:24 16.05.2020
3954 Clear 4 1021 90 0 0.82 166 03:29 16.05.2020
3955 Clear 5 1021 90 0 0.82 166 02:49 16.05.2020
3956 Clear 5 1021 90 0 1.01 173 02:20 16.05.2020
3957 Clear 5 1021 89 0 1.01 173 01:41 16.05.2020
3958 Clear 6 1067 57 0 1.26 176 00:59 16.05.2020
3959 Clear 6 1067 56 0 1.26 176 00:41 16.05.2020
3960 Clear 6 1067 55 0 1.12 181 00:20 16.05.2020
3961 Clear 7 1021 100 10000 1.5 140 23:40 15.05.2020
3962 Clear 8 1067 53 0 1.09 178 23:20 15.05.2020
3963 Clear 8 1067 50 0 1.09 178 22:56 15.05.2020
3964 Clear 9 1067 46 0 0.45 178 22:38 15.05.2020
3965 Clear 9 1067 44 0 0.45 127 22:18 15.05.2020
3966 Clear 9 1020 93 10000 1 180 21:39 15.05.2020
3967 Clouds 9 1021 84 0 1.17 170 21:21 15.05.2020
3968 Clouds 9 1021 83 0 1.17 170 20:58 15.05.2020
3969 Clouds 10 1020 82 0 1.51 161 20:40 15.05.2020
3970 Clouds 10 1020 81 0 1.51 161 20:22 15.05.2020
3971 Clouds 10 1020 81 0 1.51 161 20:22 15.05.2020
3972 Clouds 10 1020 74 0 1.13 166 19:55 15.05.2020
3973 Clouds 11 1019 74 0 1.51 161 19:37 15.05.2020
3974 Clouds 10 1020 76 10000 1.5 180 19:18 15.05.2020
3975 Clouds 10 1020 76 10000 1.5 160 18:42 15.05.2020
3976 Clouds 10 1019 70 10000 1.5 190 18:23 15.05.2020
3977 Clouds 10 1020 82 0 1.8 159 17:39 15.05.2020
3978 Clouds 10 1020 82 0 1.49 143 17:19 15.05.2020
3979 Clouds 10 1019 76 10000 1 0 16:57 15.05.2020
3980 Clouds 10 1019 86 0 1.38 137 16:38 15.05.2020
3981 Clouds 10 1019 87 0 0.45 178 16:19 15.05.2020
3982 Clouds 9 1019 90 0 1.49 118 15:55 15.05.2020
3983 Clouds 8 1018 81 10000 2.1 100 15:37 15.05.2020
3984 Clouds 8 1018 81 10000 2.1 100 15:18 15.05.2020
3985 Clouds 8 1017 81 10000 2.6 70 14:42 15.05.2020
3986 Clouds 8 1018 95 0 2.01 76 14:24 15.05.2020
3987 Clouds 8 1017 95 0 2.01 76 13:58 15.05.2020
3988 Rain 8 1017 95 0 2.01 76 13:39 15.05.2020
3989 Rain 8 1017 95 0 2.24 65 13:20 15.05.2020
3990 Rain 8 1016 95 0 2.24 65 12:40 15.05.2020
3991 Rain 8 1016 96 0 2.73 60 12:19 15.05.2020
3992 Rain 8 1016 95 0 2.73 60 11:57 15.05.2020
3993 Rain 8 1015 96 0 3.1 57 11:38 15.05.2020
3994 Rain 8 1015 100 0 3.1 57 11:20 15.05.2020
3995 Rain 7 1014 96 0 3.1 57 10:58 15.05.2020
3996 Rain 7 1014 96 0 3.1 57 10:39 15.05.2020
3997 Rain 7 1014 96 0 3.42 51 10:21 15.05.2020
3998 Rain 7 1013 96 0 3.42 51 09:58 15.05.2020
3999 Rain 7 1013 96 0 3.42 51 09:37 15.05.2020
4000 Rain 8 1013 95 0 3.75 43 09:18 15.05.2020
4001 Rain 7 1013 95 0 3.4 57 08:55 15.05.2020
4002 Rain 7 1012 95 0 3.4 57 08:37 15.05.2020
4003 Rain 7 1012 95 0 3.95 59 08:18 15.05.2020
4004 Rain 7 1011 95 0 3.95 59 07:42 15.05.2020
4005 Rain 7 1011 95 0 4.11 56 07:24 15.05.2020
4006 Rain 8 1011 94 0 4.11 56 06:38 15.05.2020
4007 Rain 8 1011 93 0 4.44 63 05:49 15.05.2020
4008 Rain 8 1010 90 0 3.98 63 04:27 15.05.2020
4009 Clouds 8 1011 88 0 3.98 63 03:40 15.05.2020
4010 Clouds 8 1011 89 0 4.28 62 02:30 15.05.2020
4011 Clouds 9 1011 90 0 4.03 66 01:19 15.05.2020
4012 Rain 8 1012 90 0 4.03 66 00:46 15.05.2020
4013 Rain 9 1012 89 0 3.98 65 00:28 15.05.2020
4014 Clouds 9 1013 88 0 3.98 65 23:44 14.05.2020
4015 Clouds 9 1013 88 0 3.52 67 23:22 14.05.2020
4016 Rain 9 1013 89 0 3.52 67 22:59 14.05.2020
4017 Rain 10 1013 89 0 3.52 67 22:40 14.05.2020
4018 Rain 10 1013 89 0 3.55 63 22:19 14.05.2020
4019 Clouds 10 1013 88 0 0.45 309 21:56 14.05.2020
4020 Clouds 10 1013 89 0 3.55 63 21:38 14.05.2020
4021 Clouds 10 1013 89 0 3.56 58 21:19 14.05.2020
4022 Clouds 11 1013 88 0 3.56 58 20:55 14.05.2020
4023 Clouds 11 1013 88 0 3.56 58 20:36 14.05.2020
4024 Clouds 10 1013 88 0 3.3 59 20:18 14.05.2020
4025 Clouds 11 1013 87 0 3.3 59 19:41 14.05.2020
4026 Clouds 11 1013 87 0 3.31 59 19:21 14.05.2020
4027 Clouds 11 1013 86 0 3.31 59 18:58 14.05.2020
4028 Clouds 11 1013 86 0 3.31 59 18:38 14.05.2020
4029 Clouds 11 1013 85 0 3.65 57 18:20 14.05.2020
4030 Clouds 11 1013 85 0 3.65 57 17:59 14.05.2020
4031 Clouds 11 1013 85 0 3.65 57 17:38 14.05.2020
4032 Clouds 12 1013 85 0 3.7 60 17:19 14.05.2020
4033 Clouds 11 1013 84 0 3.7 60 16:59 14.05.2020
4034 Clouds 11 1013 84 0 3.7 60 16:39 14.05.2020
4035 Clouds 11 1013 82 0 3.43 64 16:20 14.05.2020
4036 Clouds 12 1013 82 0 3.43 64 15:57 14.05.2020
4037 Clouds 12 1013 81 0 3.43 64 15:39 14.05.2020
4038 Clouds 12 1013 81 0 2.99 71 15:19 14.05.2020
4039 Clouds 11 1013 83 0 2.99 71 14:56 14.05.2020
4040 Clouds 11 1014 86 0 2.67 67 14:37 14.05.2020
4041 Clouds 11 1014 87 0 2.67 67 14:19 14.05.2020
4042 Clouds 11 1014 89 0 2.67 67 13:55 14.05.2020
4043 Clouds 11 1014 92 0 2.4 69 13:37 14.05.2020
4044 Clouds 10 1014 93 0 2.4 69 13:18 14.05.2020
4045 Clouds 10 1014 94 0 2.4 69 12:56 14.05.2020
4046 Clouds 10 1014 95 0 2.4 69 12:37 14.05.2020
4047 Clouds 9 1014 95 0 2 81 12:18 14.05.2020
4048 Clouds 9 1014 96 0 2 81 11:55 14.05.2020
4049 Clouds 9 1014 96 0 2 81 11:37 14.05.2020
4050 Clouds 9 1014 96 0 2.23 81 11:19 14.05.2020
4051 Rain 9 1014 97 0 2.23 81 10:41 14.05.2020
4052 Rain 8 1014 97 0 1.76 59 10:22 14.05.2020
4053 Clouds 8 1014 96 0 1.46 44 09:43 14.05.2020
4054 Rain 7 1014 96 0 1.33 26 09:24 14.05.2020
4055 Rain 7 1013 96 0 1.33 26 08:59 14.05.2020
4056 Rain 7 1013 96 0 1.24 359 08:37 14.05.2020
4057 Rain 7 1013 96 0 1.24 359 08:18 14.05.2020
4058 Rain 6 1013 96 0 1.24 359 07:44 14.05.2020
4059 Rain 6 1013 96 0 1.08 341 07:21 14.05.2020
4060 Rain 6 1013 96 0 1.08 341 06:43 14.05.2020
4061 Rain 6 1012 96 0 1.27 332 06:24 14.05.2020
4062 Rain 6 1012 96 0 1.27 332 05:42 14.05.2020
4063 Rain 7 1011 96 0 1.49 337 04:45 14.05.2020
4064 Rain 6 1011 95 0 2.24 350 03:43 14.05.2020
4065 Rain 7 1011 95 0 3.21 346 03:20 14.05.2020
4066 Rain 7 1014 84 0 3.63 350 02:35 14.05.2020
4067 Rain 7 1009 92 0 0.89 321 01:52 14.05.2020
4068 Clouds 7 1012 84 0 2.21 343 00:54 14.05.2020
4069 Clouds 7 1012 84 0 1.49 18 00:28 14.05.2020
4070 Clouds 7 1011 83 0 1.49 18 23:55 13.05.2020
4071 Clouds 7 1011 83 0 1.49 18 23:37 13.05.2020
4072 Rain 7 1011 83 0 2.25 29 23:18 13.05.2020
4073 Rain 7 1012 82 0 2.25 29 22:41 13.05.2020
4074 Rain 7 1012 82 0 2.01 15 22:22 13.05.2020
4075 Rain 8 1012 82 0 2.01 15 21:59 13.05.2020
4076 Rain 8 1012 82 0 2.01 15 21:40 13.05.2020
4077 Rain 8 1012 82 0 3.24 26 21:19 13.05.2020
4078 Rain 8 1012 81 0 3.24 26 20:56 13.05.2020
4079 Rain 8 1006 89 0 3.24 26 20:38 13.05.2020
4080 Rain 8 1006 89 0 3.39 6 20:19 13.05.2020
4081 Rain 9 1006 89 0 3.39 6 19:42 13.05.2020
4082 Rain 9 1006 89 0 2.92 52 19:24 13.05.2020
4083 Rain 9 1006 89 0 2.92 52 18:45 13.05.2020
4084 Rain 9 1006 90 0 3.41 62 18:22 13.05.2020
4085 Rain 9 1007 90 0 3.41 62 17:59 13.05.2020
4086 Rain 9 1007 90 0 3.41 62 17:38 13.05.2020
4087 Clouds 10 1007 87 0 3.36 60 17:18 13.05.2020
4088 Clouds 10 1007 83 0 3.36 60 16:41 13.05.2020
4089 Rain 10 1012 77 0 3.01 70 16:20 13.05.2020
4090 Rain 10 1012 78 0 3.01 70 15:59 13.05.2020
4091 Rain 10 1012 78 0 0.45 91 15:41 13.05.2020
4092 Rain 10 1012 77 0 0.45 37 15:18 13.05.2020
4093 Rain 10 1013 76 0 2.6 61 14:56 13.05.2020
4094 Rain 10 1013 75 0 2.6 61 14:38 13.05.2020
4095 Rain 9 1010 87 10000 3.1 50 14:19 13.05.2020
4096 Rain 10 1010 87 10000 3.1 70 13:55 13.05.2020
4097 Clouds 10 1010 87 10000 3.1 60 13:37 13.05.2020
4098 Clouds 9 1010 87 10000 3.1 60 13:19 13.05.2020
4099 Clouds 11 1015 71 0 4.25 71 12:42 13.05.2020
4100 Clouds 10 1015 71 0 3.67 62 12:21 13.05.2020
4101 Clouds 10 1015 71 0 0.89 89 11:57 13.05.2020
4102 Clouds 10 1015 71 0 0.89 89 11:57 13.05.2020
4103 Clouds 10 1015 72 0 0.89 112 11:38 13.05.2020
4104 Clouds 10 1015 72 0 0.89 112 11:20 13.05.2020
4105 Clouds 10 1015 71 0 3.61 56 10:59 13.05.2020
4106 Clouds 10 1015 73 0 2.57 65 10:38 13.05.2020
4107 Clouds 10 1015 73 0 2.57 65 10:19 13.05.2020
4108 Clouds 10 1015 75 0 0.89 64 09:56 13.05.2020
4109 Clouds 9 1016 76 0 2.41 62 09:38 13.05.2020
4110 Clouds 8 1016 77 0 1.44 67 09:19 13.05.2020
4111 Clouds 7 1015 78 0 1.44 67 08:40 13.05.2020
4112 Clouds 7 1015 79 0 0.89 112 08:21 13.05.2020
4113 Clouds 6 1015 80 0 1.06 103 07:58 13.05.2020
4114 Clouds 6 1015 80 0 1.06 103 07:34 13.05.2020
4115 Clouds 6 1016 79 0 1.17 142 06:55 13.05.2020
4116 Clouds 6 1015 79 0 1.17 103 06:36 13.05.2020
4117 Clouds 6 1015 78 0 1.17 103 05:50 13.05.2020
4118 Clouds 6 1015 78 0 1.04 64 04:22 13.05.2020
4119 Clouds 6 1011 86 0 1.76 90 02:58 13.05.2020
4120 Clouds 6 1016 76 0 1.81 88 02:20 13.05.2020
4121 Clouds 6 1011 82 0 2.03 99 01:21 13.05.2020
4122 Clouds 6 1016 75 0 2.18 84 00:39 13.05.2020
4123 Clouds 6 1016 75 0 2.18 84 00:18 13.05.2020
4124 Clouds 6 1013 87 0 2.18 84 23:39 12.05.2020
4125 Clouds 6 1017 72 0 2.15 81 23:21 12.05.2020
4126 Clouds 6 1013 73 0 2.15 81 22:57 12.05.2020
4127 Clouds 6 1013 73 0 2.15 81 22:38 12.05.2020
4128 Clouds 7 1017 69 0 2.46 90 22:20 12.05.2020
4129 Clouds 7 1014 71 0 2.46 90 21:55 12.05.2020
4130 Clouds 8 1017 63 0 2.48 84 21:36 12.05.2020
4131 Clouds 8 1017 62 0 2.48 84 21:18 12.05.2020
4132 Clouds 9 1017 62 0 2.48 84 20:56 12.05.2020
4133 Clouds 9 1017 60 0 2.48 84 20:38 12.05.2020
4134 Clouds 10 1017 58 0 1.79 115 20:19 12.05.2020
4135 Clouds 10 1017 58 0 2.53 75 19:55 12.05.2020
4136 Clouds 11 1017 57 0 0.45 129 19:37 12.05.2020
4137 Clouds 11 1018 56 0 0.89 115 19:18 12.05.2020
4138 Clouds 11 1018 54 0 1.34 139 18:41 12.05.2020
4139 Clouds 11 1014 57 0 1.34 66 18:23 12.05.2020
4140 Clouds 11 1018 53 0 1.34 112 17:57 12.05.2020
4141 Clouds 12 1018 51 0 1.79 25 17:38 12.05.2020
4142 Clouds 10 1015 57 10000 2.1 0 17:20 12.05.2020
4143 Clouds 10 1015 49 10000 2.6 0 16:42 12.05.2020
4144 Clouds 10 1015 49 10000 2.6 0 16:22 12.05.2020
4145 Clouds 10 1016 61 10000 2.1 130 15:56 12.05.2020
4146 Clouds 10 1016 61 10000 2.6 120 15:37 12.05.2020
4147 Clouds 10 1016 51 10000 2.6 110 15:18 12.05.2020
4148 Clouds 9 1016 51 10000 2.6 110 14:55 12.05.2020
4149 Clouds 9 1016 61 10000 1.5 0 14:36 12.05.2020
4150 Clouds 9 1016 61 10000 1.5 0 14:18 12.05.2020
4151 Clouds 9 1016 61 10000 2.6 80 13:55 12.05.2020
4152 Clouds 9 1016 54 0 1.34 102 13:37 12.05.2020
4153 Clouds 9 1016 54 0 0.89 119 13:18 12.05.2020
4154 Clouds 9 1016 61 0 0.45 104 12:56 12.05.2020
4155 Clouds 9 1055 38 0 0.45 113 12:38 12.05.2020
4156 Clouds 8 1017 62 0 1.34 56 12:20 12.05.2020
4157 Clouds 7 1017 71 10000 2.1 50 11:57 12.05.2020
4158 Clouds 7 1017 71 10000 2.1 50 11:57 12.05.2020
4159 Clouds 7 1017 64 0 0.45 154 11:37 12.05.2020
4160 Clouds 7 1071 47 0 1.34 39 11:19 12.05.2020
4161 Clouds 6 1017 68 0 0.45 167 10:55 12.05.2020
4162 Clouds 5 1017 86 10000 1.5 50 10:37 12.05.2020
4163 Clouds 4 1017 78 10000 2.6 40 10:18 12.05.2020
4164 Clouds 5 1048 52 0 1.34 298 09:57 12.05.2020
4165 Clouds 4 1017 78 10000 3.1 30 09:38 12.05.2020
4166 Clouds 3 1017 78 10000 3.1 30 09:19 12.05.2020
4167 Clouds 4 1066 59 0 0.45 117 08:41 12.05.2020
4168 Clouds 4 1050 61 0 0.45 56 08:21 12.05.2020
4169 Clouds 3 1064 63 0 0.89 49 07:57 12.05.2020
4170 Clouds 3 1064 64 0 0.45 69 07:39 12.05.2020
4171 Clouds 3 1062 66 0 2.51 32 07:19 12.05.2020
4172 Clouds 3 1015 91 0 2.51 32 06:38 12.05.2020
4173 Clouds 3 1015 91 0 2.51 32 06:38 12.05.2020
4174 Clouds 3 1015 92 0 2.47 23 06:19 12.05.2020
4175 Clouds 3 1014 92 0 2.47 23 05:45 12.05.2020
4176 Clouds 3 1014 94 0 2.66 23 04:41 12.05.2020
4177 Snow 3 1013 94 0 2.98 354 03:22 12.05.2020
4178 Snow 3 1062 52 0 3.15 347 02:27 12.05.2020
4179 Snow 3 1062 49 0 0.89 133 01:48 12.05.2020
4180 Snow 2 1011 94 0 0.45 297 00:59 12.05.2020
4181 Snow 3 1010 93 0 0.89 262 00:25 12.05.2020
4182 Snow 4 1010 92 0 0.89 269 23:58 11.05.2020
4183 Snow 3 1010 93 10000 5.7 330 23:40 11.05.2020
4184 Rain 5 1013 79 0 1.79 281 23:20 11.05.2020
4185 Rain 5 1013 79 0 0.89 305 22:58 11.05.2020
4186 Rain 5 1008 92 0 1.34 278 22:40 11.05.2020
4187 Rain 6 1012 79 0 0.45 285 22:19 11.05.2020
4188 Rain 5 1007 100 10000 5.1 300 21:57 11.05.2020
4189 Clouds 7 1011 78 0 4.4 311 21:38 11.05.2020
4190 Rain 7 1010 78 0 1.79 288 21:19 11.05.2020
4191 Rain 7 1010 77 0 1.34 267 20:57 11.05.2020
4192 Rain 7 1009 76 0 3.13 276 20:38 11.05.2020
4193 Rain 7 1009 76 0 4.79 315 20:19 11.05.2020
4194 Rain 9 1009 76 0 1.34 273 19:55 11.05.2020
4195 Rain 8 1003 93 0 0.89 266 19:36 11.05.2020
4196 Rain 8 999 86 0 0.89 198 19:18 11.05.2020
4197 Clouds 9 1003 100 10000 4.6 310 18:55 11.05.2020
4198 Rain 12 1006 77 0 0.89 310 18:36 11.05.2020
4199 Rain 12 1006 77 0 0.89 284 18:18 11.05.2020
4200 Rain 12 1006 77 0 0.89 284 18:18 11.05.2020
4201 Rain 13 1005 75 0 0.89 300 17:41 11.05.2020
4202 Rain 12 1005 75 0 0.89 300 17:22 11.05.2020
4203 Rain 15 1004 71 0 1.34 291 16:59 11.05.2020
4204 Rain 16 1053 34 0 3.13 158 16:40 11.05.2020
4205 Clouds 18 998 68 10000 3.6 280 16:21 11.05.2020
4206 Rain 19 995 72 0 5.85 271 15:57 11.05.2020
4207 Rain 19 995 72 0 5.85 271 15:39 11.05.2020
4208 Rain 19 996 75 0 1.34 271 15:18 11.05.2020
4209 Rain 19 996 76 0 0.89 312 14:54 11.05.2020
4210 Rain 18 996 78 0 0.45 342 14:36 11.05.2020
4211 Rain 18 996 78 0 0.45 11 14:18 11.05.2020
4212 Rain 17 994 79 0 4.22 251 13:41 11.05.2020
4213 Rain 18 993 74 0 1.79 340 13:19 11.05.2020
4214 Rain 17 1001 75 0 0.45 268 12:58 11.05.2020
4215 Rain 16 1001 78 0 4.39 263 12:40 11.05.2020
4216 Clouds 16 994 83 0 1.34 306 12:21 11.05.2020
4217 Clouds 15 1001 77 0 1.45 305 11:56 11.05.2020
4218 Clouds 15 994 83 0 0.45 290 11:38 11.05.2020
4219 Clouds 15 994 83 0 0.45 290 11:19 11.05.2020
4220 Clouds 14 994 84 0 0.85 46 10:55 11.05.2020
4221 Clouds 14 1001 80 0 0.85 46 10:37 11.05.2020
4222 Clouds 14 1001 83 0 1.56 70 10:18 11.05.2020
4223 Clouds 14 1001 84 0 1.56 70 09:55 11.05.2020
4224 Clouds 13 1001 84 0 2.43 75 09:37 11.05.2020
4225 Clouds 13 994 90 0 0.45 96 09:18 11.05.2020
4226 Clouds 13 994 91 0 2.51 72 08:40 11.05.2020
4227 Clouds 13 994 91 0 0.45 52 08:22 11.05.2020
4228 Clouds 13 995 91 0 0.45 92 07:56 11.05.2020
4229 Clouds 13 1002 85 0 2.61 89 07:38 11.05.2020
4230 Clouds 13 995 91 0 2.61 89 07:19 11.05.2020
4231 Clouds 12 1003 86 0 2.61 89 06:33 11.05.2020
4232 Clouds 12 1003 85 0 2.39 98 05:49 11.05.2020
4233 Clouds 12 997 91 0 1.99 120 05:20 11.05.2020
4234 Clouds 12 999 94 0 1.86 129 03:52 11.05.2020
4235 Clouds 13 1006 84 0 1.57 165 02:36 11.05.2020
4236 Clear 13 1001 91 0 1.59 164 01:55 11.05.2020
4237 Clear 14 1002 91 0 1.74 152 01:18 11.05.2020
4238 Clear 14 1002 90 0 1.74 152 00:40 11.05.2020
4239 Clear 14 1008 81 0 2.06 145 00:18 11.05.2020
4240 Clear 15 1008 80 0 2.34 131 23:39 10.05.2020
4241 Clear 15 1008 79 0 2.34 131 23:20 10.05.2020
4242 Clear 16 1049 65 0 2.24 127 22:54 10.05.2020
4243 Clear 16 1048 65 0 1.79 102 22:36 10.05.2020
4244 Clear 16 1009 76 0 2.29 122 22:18 10.05.2020
4245 Clear 17 1048 66 0 2.29 122 21:42 10.05.2020
4246 Clear 17 1009 73 0 2.2 114 21:18 10.05.2020
4247 Clear 19 1009 70 0 2.2 114 20:43 10.05.2020
4248 Clouds 20 1005 68 0 2.15 102 20:24 10.05.2020
4249 Clouds 21 1005 68 0 2.15 102 19:59 10.05.2020
4250 Clouds 21 1005 68 0 2.15 102 19:39 10.05.2020
4251 Clouds 21 1005 68 0 2.15 102 19:39 10.05.2020
4252 Clouds 21 1005 68 0 1.41 113 19:21 10.05.2020
4253 Clouds 22 1005 68 0 1.41 113 18:56 10.05.2020
4254 Clouds 22 1010 60 0 0.89 177 18:37 10.05.2020
4255 Clouds 22 1010 59 0 0.89 177 18:19 10.05.2020
4256 Clouds 22 1010 53 0 0.89 177 17:58 10.05.2020
4257 Clouds 22 1010 53 0 0.89 177 17:40 10.05.2020
4258 Clouds 22 1010 53 0 0.89 177 17:40 10.05.2020
4259 Clouds 22 1007 60 10000 2.1 0 17:21 10.05.2020
4260 Clouds 22 1003 53 0 0.45 140 16:56 10.05.2020
4261 Clouds 22 1004 56 0 0.89 51 16:38 10.05.2020
4262 Clouds 22 1011 52 0 1.78 220 16:19 10.05.2020
4263 Clouds 22 1004 59 0 0.89 178 15:44 10.05.2020
4264 Clouds 20 1008 64 10000 2.1 180 15:24 10.05.2020
4265 Clouds 18 1009 72 10000 1 0 14:58 10.05.2020
4266 Clouds 18 1009 72 10000 2.1 190 14:38 10.05.2020
4267 Clouds 18 1009 72 10000 2.1 190 14:38 10.05.2020
4268 Clouds 17 1009 77 10000 2.1 170 14:20 10.05.2020
4269 Clouds 17 1009 77 10000 2.1 170 13:59 10.05.2020
4270 Clouds 18 1009 72 10000 1 0 13:38 10.05.2020
4271 Rain 18 1009 72 10000 1 0 13:20 10.05.2020
4272 Rain 16 1010 87 10000 2.1 210 12:57 10.05.2020
4273 Rain 17 1013 81 0 2.97 224 12:39 10.05.2020
4274 Rain 15 1010 87 10000 2.6 200 12:21 10.05.2020
4275 Rain 15 1010 93 10000 3.1 220 11:57 10.05.2020
4276 Rain 15 1010 93 10000 3.1 240 11:39 10.05.2020
4277 Rain 15 1008 93 0 3.92 239 11:19 10.05.2020
4278 Rain 15 1049 66 0 0.89 340 10:46 10.05.2020
4279 Rain 14 1008 94 0 3.8 261 10:28 10.05.2020
4280 Rain 15 1013 82 0 3.8 261 09:58 10.05.2020
4281 Rain 14 1013 82 0 2.62 239 09:40 10.05.2020
4282 Rain 14 1008 93 0 3.93 265 09:21 10.05.2020
4283 Rain 14 1008 93 0 2.62 239 08:51 10.05.2020
4284 Rain 14 1008 93 0 1.85 241 08:24 10.05.2020
4285 Rain 14 1008 93 0 1.85 241 07:45 10.05.2020
4286 Rain 14 1008 93 0 1.73 240 07:21 10.05.2020
4287 Clouds 13 1008 92 0 1.73 240 06:58 10.05.2020
4288 Clouds 13 1008 91 0 1.73 240 06:37 10.05.2020
4289 Rain 13 1008 91 0 1.88 241 06:18 10.05.2020
4290 Rain 13 1008 91 0 1.88 241 05:41 10.05.2020
4291 Clouds 14 1008 91 0 2.25 224 04:39 10.05.2020
4292 Clouds 14 1008 91 0 1.72 216 04:20 10.05.2020
4293 Clouds 14 1009 90 0 1.72 216 03:39 10.05.2020
4294 Rain 13 1009 89 0 1.54 226 02:53 10.05.2020
4295 Clouds 13 1009 87 0 2.3 206 02:24 10.05.2020
4296 Clouds 13 1009 85 0 2.3 206 01:43 10.05.2020
4297 Clouds 14 1009 84 0 1.87 207 01:23 10.05.2020
4298 Clouds 14 1009 83 0 1.87 207 00:57 10.05.2020
4299 Clouds 15 1009 81 0 1.55 205 00:36 10.05.2020
4300 Clouds 15 1009 80 0 1.55 205 00:18 10.05.2020
4301 Clouds 16 1009 77 0 1.55 205 23:39 09.05.2020
4302 Rain 16 1009 76 0 0.98 163 23:21 09.05.2020
4303 Rain 17 1009 75 0 0.98 163 22:55 09.05.2020
4304 Rain 17 1010 75 0 0.33 150 22:37 09.05.2020
4305 Rain 18 1010 75 0 0.33 150 22:19 09.05.2020
4306 Rain 19 1010 72 0 0.33 150 21:55 09.05.2020
4307 Rain 19 1009 68 0 0.33 150 21:36 09.05.2020
4308 Rain 20 1008 56 0 1.36 160 21:18 09.05.2020
4309 Rain 21 1008 53 0 0.45 173 20:54 09.05.2020
4310 Rain 22 1009 60 0 0.96 113 20:36 09.05.2020
4311 Rain 22 1009 59 0 0.96 113 20:18 09.05.2020
4312 Rain 24 1008 50 0 0.96 113 19:39 09.05.2020
4313 Rain 24 1009 55 0 0.97 80 19:20 09.05.2020
4314 Rain 23 1010 52 0 0.97 80 18:55 09.05.2020
4315 Rain 24 1010 51 0 0.97 80 18:37 09.05.2020
4316 Rain 23 1010 50 0 1.34 43 18:18 09.05.2020
4317 Rain 25 1010 50 0 1.34 43 17:42 09.05.2020
4318 Clouds 25 1010 50 0 1.32 8 17:22 09.05.2020
4319 Clouds 25 1010 46 0 1.32 8 16:41 09.05.2020
4320 Clouds 25 1011 47 0 1.62 348 16:20 09.05.2020
4321 Clouds 25 1011 47 0 1.62 348 15:57 09.05.2020
4322 Clouds 25 1011 47 0 1.62 348 15:39 09.05.2020
4323 Clouds 25 1011 49 0 0.45 96 15:21 09.05.2020
4324 Clouds 25 1012 50 0 1.79 325 14:43 09.05.2020
4325 Clouds 25 1012 49 0 2.34 320 14:20 09.05.2020
4326 Clouds 25 1013 40 10000 3.1 240 13:59 09.05.2020
4327 Clouds 25 1013 49 0 2.34 320 13:41 09.05.2020
4328 Clouds 24 1013 53 0 1.99 296 13:21 09.05.2020
4329 Clouds 23 1013 56 0 1.99 296 12:57 09.05.2020
4330 Clouds 23 1014 53 10000 3.1 250 12:39 09.05.2020
4331 Rain 21 1014 60 10000 3.1 240 12:21 09.05.2020
4332 Rain 21 1013 60 0 0.89 255 11:43 09.05.2020
4333 Rain 19 1013 62 0 0.45 261 11:20 09.05.2020
4334 Rain 17 1014 84 0 1.19 222 10:48 09.05.2020
4335 Rain 17 1014 81 0 1.64 240 10:27 09.05.2020
4336 Rain 17 1015 76 0 1.64 240 09:59 09.05.2020
4337 Rain 18 1015 75 0 1.64 240 09:41 09.05.2020
4338 Rain 16 1015 77 10000 3.6 210 09:20 09.05.2020
4339 Rain 16 1014 85 0 1.57 272 08:52 09.05.2020
4340 Rain 15 1014 87 0 1.57 272 08:34 09.05.2020
4341 Rain 13 1014 91 0 1.57 275 07:56 09.05.2020
4342 Rain 12 1014 90 0 1.53 273 07:38 09.05.2020
4343 Rain 12 1014 89 0 1.53 273 07:20 09.05.2020
4344 Rain 11 1014 87 0 2.14 235 06:27 09.05.2020
4345 Rain 11 1014 87 0 2.14 235 05:50 09.05.2020
4346 Clouds 11 1014 86 0 2 225 05:20 09.05.2020
4347 Clouds 12 1014 86 0 1.98 225 03:39 09.05.2020
4348 Rain 12 1014 85 0 1.33 233 02:54 09.05.2020
4349 Rain 12 1015 84 0 0.75 242 02:30 09.05.2020
4350 Rain 13 1015 84 0 0.75 242 01:49 09.05.2020
4351 Rain 13 1015 84 0 0.38 177 01:21 09.05.2020
4352 Rain 13 1015 87 0 0.38 177 00:42 09.05.2020
4353 Rain 13 1015 87 0 0.8 200 00:19 09.05.2020
4354 Rain 14 1015 84 0 0.8 200 23:44 08.05.2020
4355 Rain 14 1015 83 0 1.11 163 23:25 08.05.2020
4356 Rain 15 1015 81 0 1.11 163 22:56 08.05.2020
4357 Rain 15 1016 79 0 1.37 149 22:38 08.05.2020
4358 Rain 16 1016 76 0 1.37 149 22:19 08.05.2020
4359 Rain 16 1016 77 0 1.37 149 22:19 08.05.2020
4360 Rain 16 1016 74 0 1.37 149 21:55 08.05.2020
4361 Rain 17 1016 71 0 1.37 149 21:36 08.05.2020
4362 Clouds 19 1016 63 0 1.06 97 21:18 08.05.2020
4363 Clouds 19 1015 60 0 1.06 97 20:56 08.05.2020
4364 Clouds 22 1015 43 10000 2.1 340 20:37 08.05.2020
4365 Clouds 22 1015 43 10000 2.1 340 20:19 08.05.2020
4366 Clouds 22 1015 43 10000 2.6 330 20:19 08.05.2020
4367 Clouds 22 1015 40 10000 3.1 340 19:42 08.05.2020
4368 Clouds 23 1015 40 10000 3.1 340 19:21 08.05.2020
4369 Clouds 24 1016 40 10000 4.1 290 18:50 08.05.2020
4370 Clouds 24 1015 46 0 2.76 333 18:31 08.05.2020
4371 Clouds 24 1016 43 10000 4.6 300 17:43 08.05.2020
4372 Clouds 24 1016 43 10000 4.6 300 17:20 08.05.2020
4373 Clouds 24 1016 43 10000 4.1 310 16:58 08.05.2020
4374 Clouds 24 1016 43 10000 4.1 250 16:39 08.05.2020
4375 Clouds 24 1016 43 10000 4.1 250 16:21 08.05.2020
4376 Clouds 25 1016 42 0 0.45 319 15:54 08.05.2020
4377 Clouds 24 1017 40 10000 3.6 260 15:36 08.05.2020
4378 Clouds 24 1017 38 10000 3.1 300 15:18 08.05.2020
4379 Clouds 24 1018 37 10000 3.6 290 14:41 08.05.2020
4380 Clouds 24 1018 37 10000 3.6 290 14:20 08.05.2020
4381 Clouds 25 1018 39 0 0.89 297 13:58 08.05.2020
4382 Clouds 25 1018 39 0 0.89 297 13:58 08.05.2020
4383 Clouds 24 1018 39 0 0.45 306 13:39 08.05.2020
4384 Clouds 23 1061 21 0 0.45 266 13:39 08.05.2020
4385 Clouds 24 1018 38 0 0.45 213 13:19 08.05.2020
4386 Clouds 24 1018 38 0 0.45 286 12:45 08.05.2020
4387 Clouds 22 1019 37 10000 2.6 230 12:25 08.05.2020
4388 Clouds 21 1017 40 0 2.16 279 11:55 08.05.2020
4389 Clouds 21 1063 29 0 0.45 118 11:37 08.05.2020
4390 Clouds 21 1063 29 0 0.45 118 11:37 08.05.2020
4391 Clouds 21 1063 31 0 0.45 164 11:18 08.05.2020
4392 Clouds 21 1019 47 0 1.94 269 10:55 08.05.2020
4393 Clouds 20 1019 46 0 1.94 269 10:37 08.05.2020
4394 Clouds 19 1019 50 0 1.85 253 10:18 08.05.2020
4395 Clouds 15 1019 60 0 1.81 255 09:41 08.05.2020
4396 Clouds 12 1020 71 10000 3.1 220 09:19 08.05.2020
4397 Clouds 13 1019 72 0 1.51 245 08:56 08.05.2020
4398 Clouds 13 1020 76 0 1.09 223 08:37 08.05.2020
4399 Clouds 12 1020 78 0 1.09 223 08:18 08.05.2020
4400 Clouds 9 1020 88 0 1.09 223 07:39 08.05.2020
4401 Clouds 8 1020 89 0 1.33 222 07:19 08.05.2020
4402 Clouds 7 1020 88 0 1.33 222 06:48 08.05.2020
4403 Clouds 7 1019 87 0 1.35 198 06:20 08.05.2020
4404 Clouds 7 1019 85 0 1.23 205 05:34 08.05.2020
4405 Clouds 7 1020 84 0 1.34 208 03:55 08.05.2020
4406 Clouds 8 1020 84 0 1.36 183 02:31 08.05.2020
4407 Clouds 9 1021 79 0 1.35 185 01:41 08.05.2020
4408 Clear 8 1021 77 0 1.54 168 01:21 08.05.2020
4409 Clear 9 1021 73 0 1.54 168 00:48 08.05.2020
4410 Clear 9 1021 73 0 1.78 168 00:28 08.05.2020
4411 Clear 10 1021 72 0 1.78 168 23:57 07.05.2020
4412 Clear 9 1022 70 10000 2.1 140 23:39 07.05.2020
4413 Clear 9 1022 70 10000 2.1 140 23:39 07.05.2020
4414 Clear 11 1021 74 0 1.71 150 23:21 07.05.2020
4415 Clear 11 1022 75 0 1.71 150 22:54 07.05.2020
4416 Clear 12 1022 73 0 1.71 150 22:36 07.05.2020
4417 Clear 12 1022 69 0 1.68 140 22:18 07.05.2020
4418 Clear 13 1064 41 0 1.68 140 21:54 07.05.2020
4419 Clear 14 1064 41 0 1.68 140 21:36 07.05.2020
4420 Clear 14 1021 53 0 1.52 103 21:18 07.05.2020
4421 Clear 15 1021 41 10000 2.6 30 20:41 07.05.2020
4422 Clear 17 1021 46 0 1.92 71 20:21 07.05.2020
4423 Clear 17 1021 44 0 1.92 71 20:21 07.05.2020
4424 Clear 18 1021 34 10000 3.1 30 19:54 07.05.2020
4425 Clear 18 1021 31 10000 2.1 20 19:36 07.05.2020
4426 Clear 19 1021 40 0 2.32 51 19:18 07.05.2020
4427 Clear 19 1021 39 0 2.32 51 18:41 07.05.2020
4428 Clear 19 1021 38 0 2.7 48 18:23 07.05.2020
4429 Clear 19 1022 41 0 2.7 48 17:43 07.05.2020
4430 Clear 19 1022 40 0 2.76 42 17:21 07.05.2020
4431 Clear 19 1022 40 0 2.76 42 17:21 07.05.2020
4432 Clear 20 1022 43 0 0.45 34 16:59 07.05.2020
4433 Clear 20 1022 40 0 0.45 255 16:40 07.05.2020
4434 Clear 20 1022 39 0 2.49 28 16:18 07.05.2020
4435 Clear 20 1022 35 0 0.45 5 15:56 07.05.2020
4436 Clear 20 1022 33 0 2.11 32 15:37 07.05.2020
4437 Clear 20 1023 33 0 2.11 32 15:18 07.05.2020
4438 Clear 19 1023 35 0 2.11 32 14:43 07.05.2020
4439 Clear 19 1023 36 0 1.97 49 14:21 07.05.2020
4440 Clear 19 1024 40 0 0.45 168 13:45 07.05.2020
4441 Clear 19 1024 41 0 0.45 161 13:26 07.05.2020
4442 Clear 17 1024 41 0 1.64 44 12:55 07.05.2020
4443 Clear 18 1024 44 0 1.64 44 12:37 07.05.2020
4444 Clear 17 1024 40 0 0.45 206 12:18 07.05.2020
4445 Clear 16 1024 46 0 1.34 45 11:39 07.05.2020
4446 Clear 15 1024 45 0 0.79 43 11:21 07.05.2020
4447 Clear 15 1025 47 0 0.79 43 10:44 07.05.2020
4448 Clear 14 1025 47 0 0.3 21 10:26 07.05.2020
4449 Clear 13 1025 51 0 0.3 21 09:57 07.05.2020
4450 Clear 11 1024 65 0 0.3 21 09:38 07.05.2020
4451 Clear 10 1025 66 10000 1.5 220 09:38 07.05.2020
4452 Clear 10 1058 47 0 0.67 244 09:18 07.05.2020
4453 Clear 9 1025 76 0 0.67 244 08:43 07.05.2020
4454 Clear 8 1025 83 0 1.2 231 08:22 07.05.2020
4455 Clear 6 1025 90 0 1.2 231 07:58 07.05.2020
4456 Clear 5 1025 92 0 1.2 231 07:39 07.05.2020
4457 Clear 4 1025 92 0 1.46 229 07:20 07.05.2020
4458 Clear 3 1024 92 0 1.46 229 06:37 07.05.2020
4459 Clear 3 1024 91 0 1.81 219 05:58 07.05.2020
4460 Clear 4 1025 91 0 1.76 217 04:28 07.05.2020
4461 Clear 4 1024 89 0 1.76 217 03:38 07.05.2020
4462 Clear 4 1024 90 0 1.52 221 03:18 07.05.2020
4463 Clear 4 1024 88 0 1.04 222 02:26 07.05.2020
4464 Clear 5 1024 86 0 1.04 222 01:37 07.05.2020
4465 Clear 3 1024 71 10000 1.5 160 01:19 07.05.2020
4466 Clear 5 1024 86 0 0.98 232 00:42 07.05.2020
4467 Clear 6 1024 86 0 0.86 251 00:21 07.05.2020
4468 Clear 6 1024 85 0 0.86 251 23:44 06.05.2020
4469 Clear 6 1023 84 0 0.87 258 23:22 06.05.2020
4470 Clear 7 1024 83 0 0.87 258 22:56 06.05.2020
4471 Clear 8 1023 83 0 0.87 258 22:37 06.05.2020
4472 Clear 8 1024 82 0 1.23 216 22:19 06.05.2020
4473 Clear 9 1023 79 0 1.23 216 21:55 06.05.2020
4474 Clear 9 1023 77 0 1.23 216 21:37 06.05.2020
4475 Clear 10 1023 71 0 1.09 185 21:18 06.05.2020
4476 Clear 11 1022 62 0 1.09 185 20:42 06.05.2020
4477 Clear 12 1022 54 0 0.83 96 20:22 06.05.2020
4478 Clear 13 1022 50 0 0.83 96 19:57 06.05.2020
4479 Clear 13 1022 52 0 0.83 96 19:38 06.05.2020
4480 Clear 14 1022 47 0 1.89 49 19:19 06.05.2020
4481 Clear 14 1022 47 0 1.89 49 18:58 06.05.2020
4482 Clear 14 1022 47 0 2.81 40 18:38 06.05.2020
4483 Clear 14 1022 44 0 2.81 40 18:20 06.05.2020
4484 Clear 14 1022 43 0 2.81 40 17:56 06.05.2020
4485 Clear 14 1022 42 0 2.87 39 17:38 06.05.2020
4486 Clear 14 1022 40 0 2.87 39 17:20 06.05.2020
4487 Clear 14 1022 39 0 0.45 182 16:58 06.05.2020
4488 Clear 14 1022 39 0 2.87 39 16:40 06.05.2020
4489 Clear 14 1022 37 0 2.74 42 16:20 06.05.2020
4490 Clear 14 1022 39 0 2.74 42 15:57 06.05.2020
4491 Clear 14 1022 41 0 2.74 42 15:39 06.05.2020
4492 Clear 14 1022 38 0 2.8 43 15:20 06.05.2020
4493 Clear 14 1022 42 0 0.45 22 14:42 06.05.2020
4494 Clouds 14 1022 43 0 0.45 187 14:19 06.05.2020
4495 Clouds 13 1022 45 0 0.45 15 13:59 06.05.2020
4496 Clouds 13 1022 41 0 3.04 44 13:40 06.05.2020
4497 Clouds 13 1022 42 0 2.93 47 13:22 06.05.2020
4498 Clouds 13 1022 46 0 2.93 47 12:54 06.05.2020
4499 Clouds 12 1022 44 0 2.75 52 12:36 06.05.2020
4500 Clouds 12 1022 46 0 0.45 17 12:18 06.05.2020
4501 Clouds 12 1022 46 0 2.75 52 11:40 06.05.2020
4502 Clouds 11 1023 47 0 2.58 62 11:21 06.05.2020
4503 Clouds 11 1022 50 0 2.58 62 10:57 06.05.2020
4504 Clouds 10 1022 52 0 2.58 62 10:37 06.05.2020
4505 Clouds 10 1022 55 0 2.57 66 10:18 06.05.2020
4506 Clouds 10 1022 63 0 2.36 56 09:43 06.05.2020
4507 Clouds 7 1022 75 10000 3.1 30 09:22 06.05.2020
4508 Clouds 6 1022 86 0 2.14 54 08:49 06.05.2020
4509 Clouds 5 1022 91 0 1.41 57 08:23 06.05.2020
4510 Clouds 4 1022 92 0 1.41 57 07:59 06.05.2020
4511 Clouds 3 1022 91 0 1.41 57 07:39 06.05.2020
4512 Clouds 3 1022 89 0 1.21 56 07:20 06.05.2020
4513 Clouds 2 1021 88 0 1.21 56 06:53 06.05.2020
4514 Clear 2 1021 87 0 1.43 47 06:22 06.05.2020
4515 Clear 2 1021 85 0 1.43 47 05:55 06.05.2020
4516 Clear 2 1021 93 10000 1.5 30 05:37 06.05.2020
4517 Clear 3 1065 61 0 1.84 40 04:38 06.05.2020
4518 Clear 4 1020 90 0 2.15 40 03:44 06.05.2020
4519 Clear 4 1020 91 0 2.24 39 03:22 06.05.2020
4520 Clear 5 1020 92 0 2.43 44 02:30 06.05.2020
4521 Clear 6 1020 92 0 2.43 44 01:55 06.05.2020
4522 Clear 6 1020 92 0 2.43 44 01:33 06.05.2020
4523 Clear 6 1020 91 0 2.31 44 00:54 06.05.2020
4524 Clouds 6 1019 89 0 1.36 349 00:27 06.05.2020
4525 Clouds 6 1019 89 0 1.36 349 23:57 05.05.2020
4526 Clouds 7 1019 88 0 1.36 349 23:39 05.05.2020
4527 Clouds 7 1019 88 0 1.71 292 23:19 05.05.2020
4528 Clouds 7 1019 88 0 1.71 292 23:19 05.05.2020
4529 Clouds 7 1019 87 0 1.71 292 22:42 05.05.2020
4530 Clouds 8 1019 87 0 2.21 275 22:20 05.05.2020
4531 Clouds 8 1019 87 0 2.21 275 21:59 05.05.2020
4532 Clouds 9 1018 87 0 2.21 275 21:41 05.05.2020
4533 Clouds 9 1018 87 0 1.99 275 21:21 05.05.2020
4534 Clouds 10 1018 87 0 1.99 275 20:59 05.05.2020
4535 Clouds 10 1017 86 0 1.99 275 20:39 05.05.2020
4536 Clouds 11 1017 85 0 2.16 255 20:19 05.05.2020
4537 Clouds 11 1017 85 0 0.45 203 19:58 05.05.2020
4538 Clouds 12 1017 85 0 2.16 255 19:37 05.05.2020
4539 Clouds 12 1017 84 0 1.32 260 19:19 05.05.2020
4540 Rain 12 1017 83 0 1.32 260 18:56 05.05.2020
4541 Rain 12 1017 82 0 1.32 260 18:38 05.05.2020
4542 Rain 12 1017 81 0 1.32 260 18:38 05.05.2020
4543 Rain 12 1017 81 0 1.13 289 18:19 05.05.2020
4544 Clouds 11 1017 81 10000 3.1 220 17:44 05.05.2020
4545 Clouds 11 1017 81 10000 3.1 220 17:44 05.05.2020
4546 Clouds 11 1017 81 10000 3.1 220 17:25 05.05.2020
4547 Clouds 11 1017 81 10000 3.1 210 16:59 05.05.2020
4548 Clouds 11 1017 81 10000 3.1 220 16:37 05.05.2020
4549 Clouds 12 1017 78 0 0.45 200 16:18 05.05.2020
4550 Clouds 12 1017 78 0 0.45 147 15:57 05.05.2020
4551 Clouds 12 1017 78 0 1.12 307 15:38 05.05.2020
4552 Clouds 11 1017 79 0 1.12 307 15:20 05.05.2020
4553 Clouds 10 1017 76 10000 1 0 14:54 05.05.2020
4554 Clouds 11 1017 81 0 1.12 307 14:36 05.05.2020
4555 Rain 11 1017 81 0 0.71 278 14:18 05.05.2020
4556 Rain 11 1017 80 0 0.71 278 13:54 05.05.2020
4557 Rain 11 1017 82 0 0.71 278 13:36 05.05.2020
4558 Rain 11 1017 81 0 0.71 278 13:36 05.05.2020
4559 Rain 10 1017 82 0 0.44 20 13:18 05.05.2020
4560 Rain 10 1017 85 0 0.44 20 12:41 05.05.2020
4561 Clouds 9 1017 87 0 1.3 35 12:22 05.05.2020
4562 Clouds 9 1017 87 0 1.3 35 11:59 05.05.2020
4563 Clouds 9 1017 89 0 1.3 35 11:40 05.05.2020
4564 Rain 9 1017 89 0 1.81 18 11:19 05.05.2020
4565 Rain 8 1017 91 0 1.81 18 10:55 05.05.2020
4566 Clouds 8 1017 92 0 2.41 12 10:37 05.05.2020
4567 Clouds 9 1017 92 0 2.41 12 10:18 05.05.2020
4568 Clouds 8 1017 93 0 2.41 12 09:44 05.05.2020
4569 Clouds 8 1016 93 0 2.29 15 09:26 05.05.2020
4570 Clouds 8 1016 93 0 2.29 15 08:59 05.05.2020
4571 Clouds 8 1016 93 0 2.29 15 08:39 05.05.2020
4572 Clouds 8 1016 93 0 2.24 22 08:18 05.05.2020
4573 Clouds 8 1016 94 0 2.24 22 07:44 05.05.2020
4574 Clouds 8 1016 94 0 1.75 26 07:22 05.05.2020
4575 Clouds 8 1016 95 0 0.45 11 06:58 05.05.2020
4576 Clouds 8 1016 95 0 1.75 26 06:39 05.05.2020
4577 Clouds 8 1015 96 0 1.84 16 05:56 05.05.2020
4578 Clouds 8 1016 96 0 2.07 357 05:25 05.05.2020
4579 Rain 10 1017 97 0 3.16 353 02:46 05.05.2020
4580 Clouds 11 1017 97 0 3.3 354 01:19 05.05.2020
4581 Clouds 11 1017 97 0 3.3 354 00:47 05.05.2020
4582 Clouds 11 1016 97 0 2.91 326 23:56 04.05.2020
4583 Clouds 11 1016 97 0 2.45 316 23:38 04.05.2020
4584 Clouds 11 1016 97 0 2.45 316 23:19 04.05.2020
4585 Clouds 11 1016 96 0 2.45 316 22:55 04.05.2020
4586 Clouds 11 1016 96 0 2.3 315 22:36 04.05.2020
4587 Clouds 11 1016 96 0 2.3 315 22:18 04.05.2020
4588 Clouds 12 1016 95 0 2.3 315 21:52 04.05.2020
4589 Clouds 12 1015 95 0 2.3 315 21:52 04.05.2020
4590 Clouds 12 1015 95 0 2.3 315 21:52 04.05.2020
4591 Clouds 12 1016 95 0 2.3 315 21:51 04.05.2020
4592 Clouds 12 1016 95 0 2.3 315 21:51 04.05.2020
4593 Rain 12 1015 95 0 2.87 299 21:25 04.05.2020
4594 Rain 12 1015 95 0 2.87 299 21:25 04.05.2020
4595 Rain 12 1015 95 0 2.87 299 21:25 04.05.2020
4596 Rain 12 1015 95 0 2.87 299 21:25 04.05.2020
4597 Rain 12 1015 95 0 2.87 299 21:25 04.05.2020
4598 Rain 12 1015 93 0 2.87 299 20:43 04.05.2020
4599 Rain 12 1015 93 0 2.87 299 20:43 04.05.2020
4600 Rain 12 1015 93 0 2.87 299 20:43 04.05.2020
4601 Rain 13 1015 92 0 2.99 302 20:21 04.05.2020
4602 Rain 14 1015 88 0 2.99 302 19:59 04.05.2020
4603 Rain 14 1015 88 0 2.99 302 19:59 04.05.2020
4604 Rain 15 1014 88 0 2.99 302 19:40 04.05.2020
4605 Rain 15 1014 88 0 3.56 287 19:19 04.05.2020
4606 Rain 16 1014 85 0 3.56 287 18:54 04.05.2020
4607 Rain 16 1015 76 0 3.56 287 18:36 04.05.2020
4608 Rain 16 1015 72 0 4.25 281 18:18 04.05.2020
4609 Rain 17 1015 70 0 4.25 281 17:54 04.05.2020
4610 Rain 16 1015 70 0 4.25 281 17:36 04.05.2020
4611 Rain 16 1015 71 0 0.45 221 17:18 04.05.2020
4612 Rain 16 1015 71 0 4.26 276 16:41 04.05.2020
4613 Rain 16 1016 72 0 4.03 269 16:20 04.05.2020
4614 Rain 17 1016 76 0 4.03 269 15:45 04.05.2020
4615 Rain 16 1017 75 0 0.45 316 15:24 04.05.2020
4616 Rain 16 1017 76 0 3.59 263 14:56 04.05.2020
4617 Rain 15 1017 80 0 0.45 194 14:37 04.05.2020
4618 Rain 15 1017 80 0 0.45 194 14:37 04.05.2020
4619 Rain 16 1017 78 0 0.45 202 14:37 04.05.2020
4620 Rain 15 1017 80 0 0.45 194 14:37 04.05.2020
4621 Rain 15 1017 80 0 0.45 194 14:37 04.05.2020
4622 Rain 14 1017 84 0 3.02 263 13:41 04.05.2020
4623 Rain 15 1017 74 0 3.14 255 12:45 04.05.2020
4624 Rain 15 1017 74 0 3.14 255 12:45 04.05.2020
4625 Rain 15 1017 74 0 3.14 255 12:45 04.05.2020
4626 Rain 15 1017 71 0 0.45 196 12:00 04.05.2020
4627 Rain 15 1017 71 0 0.45 292 11:57 04.05.2020
4628 Rain 15 1017 71 0 0.45 292 11:57 04.05.2020
4629 Rain 15 1017 72 0 0.45 279 11:56 04.05.2020
4630 Rain 15 1017 72 0 0.45 279 11:56 04.05.2020
4631 Clouds 12 1018 76 10000 4.1 220 09:32 04.05.2020
4632 Clouds 11 1059 72 0 2.53 202 08:41 04.05.2020
4633 Clouds 11 1016 80 0 2.75 186 08:38 04.05.2020
4634 Clouds 11 1016 80 0 2.75 186 08:38 04.05.2020
4635 Clouds 11 1016 80 0 2.75 186 08:37 04.05.2020
4636 Clouds 11 1016 80 0 2.75 186 08:37 04.05.2020
4637 Clouds 10 1018 85 0 0.45 154 07:43 04.05.2020
4638 Clouds 9 1018 84 0 2.61 179 06:43 04.05.2020
4639 Clouds 9 1018 84 0 0.45 170 06:43 04.05.2020
4640 Clouds 9 1018 84 0 0.45 170 06:43 04.05.2020
4641 Clouds 9 1018 84 0 2.61 179 06:43 04.05.2020
4642 Clouds 8 1016 80 0 2.56 194 04:55 04.05.2020
4643 Clouds 8 1018 83 0 3.52 214 03:18 04.05.2020
4644 Clouds 8 1018 83 0 3.52 214 03:18 04.05.2020
4645 Clouds 8 1018 83 0 3.52 214 03:18 04.05.2020
4646 Clouds 7 1018 83 0 3.08 206 02:30 04.05.2020
4647 Clouds 8 1018 80 0 2.93 204 00:38 04.05.2020
4648 Clouds 8 1018 80 0 1.97 176 23:46 03.05.2020
4649 Clouds 8 1018 78 0 1.91 145 23:24 03.05.2020
4650 Clouds 8 1019 76 0 1.91 145 22:56 03.05.2020
4651 Clouds 9 1019 77 0 1.03 137 22:38 03.05.2020
4652 Clouds 9 1019 76 0 1.03 137 22:20 03.05.2020
4653 Clouds 9 1019 77 0 1.03 137 21:41 03.05.2020
4654 Clouds 10 1018 68 0 0.21 18 21:20 03.05.2020
4655 Clouds 12 1018 62 0 0.46 54 20:47 03.05.2020
4656 Clouds 13 1017 45 0 0.84 337 20:23 03.05.2020
4657 Clouds 14 1017 45 0 0.84 337 19:56 03.05.2020
4658 Clouds 15 1017 45 0 0.84 337 19:37 03.05.2020
4659 Clouds 15 1017 45 0 1.38 323 19:18 03.05.2020
4660 Clouds 15 1018 47 0 1.38 323 18:39 03.05.2020
4661 Clouds 15 1018 45 0 1.9 304 18:20 03.05.2020
4662 Clouds 15 1018 47 0 1.9 304 17:56 03.05.2020
4663 Clouds 15 1018 47 0 1.9 304 17:37 03.05.2020
4664 Clouds 14 1018 35 10000 2.6 0 17:19 03.05.2020
4665 Clouds 14 1018 35 10000 2.6 0 17:19 03.05.2020
4666 Clouds 15 1019 47 0 0.45 146 16:40 03.05.2020
4667 Clouds 15 1018 45 0 1.85 302 16:40 03.05.2020
4668 Clouds 15 1019 46 0 0.45 321 16:19 03.05.2020
4669 Clouds 15 1019 49 0 2.6 293 15:57 03.05.2020
4670 Clouds 14 1019 50 10000 3.6 320 15:38 03.05.2020
4671 Clouds 14 1019 50 10000 3.6 320 15:38 03.05.2020
4672 Clouds 13 1019 50 10000 3.6 320 15:19 03.05.2020
4673 Clouds 13 1019 50 10000 2.6 40 14:56 03.05.2020
4674 Clear 14 1019 46 10000 3.1 240 14:38 03.05.2020
4675 Clouds 13 1019 46 10000 3.1 240 14:19 03.05.2020
4676 Clear 13 1019 54 10000 2.6 310 14:19 03.05.2020
4677 Clouds 13 1019 46 10000 3.1 240 14:19 03.05.2020
4678 Clear 13 1019 58 0 0.45 219 13:38 03.05.2020
4679 Clear 13 1019 58 0 0.45 219 13:38 03.05.2020
4680 Clear 13 1019 55 0 2.98 289 13:38 03.05.2020
4681 Clear 13 1020 60 0 0.45 269 12:57 03.05.2020
4682 Clear 13 1020 54 0 0.45 200 12:57 03.05.2020
4683 Clear 13 1019 55 0 0.45 190 12:57 03.05.2020
4684 Clear 13 1020 54 0 0.45 200 12:57 03.05.2020
4685 Clear 12 1020 59 0 0.45 213 12:37 03.05.2020
4686 Clear 11 1020 67 0 2.91 277 11:58 03.05.2020
4687 Clear 11 1020 71 0 0.45 91 11:40 03.05.2020
4688 Clear 12 1020 61 0 0.45 289 11:21 03.05.2020
4689 Clear 11 1020 69 0 2.61 266 10:55 03.05.2020
4690 Clear 11 1020 68 0 0.45 304 10:32 03.05.2020
4691 Clear 11 1020 68 0 0.45 304 10:32 03.05.2020
4692 Clear 11 1020 68 0 0.45 304 10:32 03.05.2020
4693 Clear 10 1019 79 0 0.45 294 09:45 03.05.2020
4694 Clear 7 1018 84 0 0.89 100 09:26 03.05.2020
4695 Clear 8 1018 84 0 0.89 100 09:26 03.05.2020
4696 Clear 8 1018 84 0 0.89 100 09:26 03.05.2020
4697 Clear 7 1019 93 0 2.81 251 08:36 03.05.2020
4698 Clouds 6 1019 94 0 2.79 241 08:00 03.05.2020
4699 Clouds 5 1018 94 0 2.72 239 07:38 03.05.2020
4700 Clouds 5 1019 94 0 2.79 241 07:38 03.05.2020
4701 Clouds 5 1018 94 0 2.72 239 07:38 03.05.2020
4702 Clouds 4 1017 93 0 2.88 242 06:18 03.05.2020
4703 Clouds 4 1017 93 0 2.88 242 05:44 03.05.2020
4704 Clouds 5 1016 94 0 2.93 253 04:29 03.05.2020
4705 Clouds 5 1016 94 0 2.93 253 03:58 03.05.2020
4706 Clouds 5 1016 93 0 3.05 259 02:47 03.05.2020
4707 Clouds 5 1016 93 0 3.48 250 02:22 03.05.2020
4708 Clouds 5 1016 93 0 3.48 250 01:41 03.05.2020
4709 Clouds 5 1016 93 0 3.51 240 01:23 03.05.2020
4710 Clouds 5 1016 93 0 3.51 240 00:40 03.05.2020
4711 Clouds 6 1016 93 0 3.78 237 00:21 03.05.2020
4712 Clouds 6 1016 93 0 3.78 237 23:56 02.05.2020
4713 Clouds 6 1016 93 0 3.78 237 23:38 02.05.2020
4714 Rain 6 1015 93 0 4.29 231 23:19 02.05.2020
4715 Rain 7 1015 93 0 4.29 231 22:42 02.05.2020
4716 Rain 7 1015 93 0 4.98 229 22:23 02.05.2020
4717 Rain 7 1015 93 0 4.98 229 21:55 02.05.2020
4718 Rain 7 1014 93 0 0.45 195 21:37 02.05.2020
4719 Rain 8 1014 93 0 0.45 189 21:18 02.05.2020
4720 Rain 8 1013 93 0 0.45 178 20:55 02.05.2020
4721 Rain 8 1013 94 0 0.45 234 20:37 02.05.2020
4722 Rain 8 1013 93 0 0.45 203 20:18 02.05.2020
4723 Rain 8 1011 94 0 4.31 251 19:55 02.05.2020
4724 Rain 8 1011 93 0 4.31 251 19:36 02.05.2020
4725 Rain 8 1011 93 0 4.09 278 19:18 02.05.2020
4726 Rain 8 1011 93 0 4.09 278 18:40 02.05.2020
4727 Rain 8 1011 92 0 0.45 312 18:22 02.05.2020
4728 Rain 9 1011 92 0 0.89 252 17:57 02.05.2020
4729 Rain 9 1010 91 0 0.45 194 17:39 02.05.2020
4730 Rain 10 1009 91 0 5.52 300 17:20 02.05.2020
4731 Rain 10 1009 89 0 5.52 300 16:58 02.05.2020
4732 Rain 10 1009 85 0 5.52 300 16:39 02.05.2020
4733 Rain 11 1010 85 0 0.45 327 16:21 02.05.2020
4734 Rain 11 1010 81 0 0.45 286 15:42 02.05.2020
4735 Rain 12 1054 62 0 2.68 0 15:20 02.05.2020
4736 Rain 11 1010 81 0 5.92 259 14:57 02.05.2020
4737 Rain 10 1011 91 0 0.89 191 14:39 02.05.2020
4738 Rain 10 1012 91 0 0.45 196 14:20 02.05.2020
4739 Rain 9 1011 92 0 0.45 211 14:20 02.05.2020
4740 Rain 9 1011 89 0 0.45 204 13:40 02.05.2020
4741 Rain 9 1011 84 0 0.45 188 13:22 02.05.2020
4742 Rain 10 1011 86 0 5.59 248 12:44 02.05.2020
4743 Rain 10 1012 85 0 0.45 196 12:25 02.05.2020
4744 Rain 10 1012 78 0 0.45 228 11:59 02.05.2020
4745 Rain 10 1011 79 0 0.89 205 11:41 02.05.2020
4746 Rain 11 1012 78 0 0.89 210 11:22 02.05.2020
4747 Rain 11 1011 75 0 0.89 210 10:58 02.05.2020
4748 Rain 11 1011 76 0 0.45 287 10:38 02.05.2020
4749 Rain 11 1011 77 0 0.45 220 10:20 02.05.2020
4750 Rain 11 1011 74 0 0.45 275 10:20 02.05.2020
4751 Rain 10 1011 81 0 0.89 173 09:57 02.05.2020
4752 Rain 9 1050 60 0 1.79 85 09:38 02.05.2020
4753 Rain 9 1050 60 0 2.68 72 09:20 02.05.2020
4754 Rain 8 1011 93 0 0.89 147 08:49 02.05.2020
4755 Rain 8 1011 94 0 0.89 203 08:30 02.05.2020
4756 Rain 7 1011 94 0 0.89 250 07:48 02.05.2020
4757 Clouds 7 1011 94 0 0.45 214 07:29 02.05.2020
4758 Clouds 7 1010 94 0 0.45 207 06:52 02.05.2020
4759 Rain 7 1009 94 0 0.45 211 06:18 02.05.2020
4760 Rain 7 1009 95 0 0.45 327 05:27 02.05.2020
4761 Clouds 8 1008 95 0 3.84 243 04:25 02.05.2020
4762 Clear 7 1008 94 0 3.66 242 03:34 02.05.2020
4763 Clouds 7 1007 94 0 4.25 240 02:37 02.05.2020
4764 Clouds 7 1007 93 0 3.29 247 01:51 02.05.2020
4765 Rain 7 1007 93 0 3.46 237 00:58 02.05.2020
4766 Rain 8 1007 93 0 3 232 00:39 02.05.2020
4767 Clouds 8 1007 93 0 3 232 00:18 02.05.2020
4768 Clouds 8 1007 93 0 3 232 23:40 01.05.2020
4769 Clouds 8 1007 93 0 3.36 240 23:20 01.05.2020
4770 Clouds 8 1007 93 0 3.36 240 22:58 01.05.2020
4771 Clouds 8 1007 93 0 3.36 240 22:38 01.05.2020
4772 Clouds 8 1007 93 0 3.44 232 22:19 01.05.2020
4773 Clouds 8 1007 93 0 3.44 232 21:57 01.05.2020
4774 Rain 9 1007 94 0 2.77 243 21:38 01.05.2020
4775 Rain 9 1007 94 0 3.84 252 21:18 01.05.2020
4776 Rain 9 1006 94 0 3.84 252 20:56 01.05.2020
4777 Rain 9 1006 93 0 4.08 269 20:37 01.05.2020
4778 Rain 10 1006 93 0 4.08 269 20:19 01.05.2020
4779 Rain 10 1005 84 0 4.08 269 19:42 01.05.2020
4780 Rain 11 1005 84 0 5.01 276 19:23 01.05.2020
4781 Rain 11 1005 84 0 5.01 276 18:59 01.05.2020
4782 Rain 11 1006 91 0 5.01 276 18:41 01.05.2020
4783 Rain 11 1005 89 0 5.41 287 18:21 01.05.2020
4784 Rain 11 1005 87 0 5.41 287 17:59 01.05.2020
4785 Rain 12 1005 86 0 3.86 273 17:39 01.05.2020
4786 Rain 13 1005 82 0 3.86 273 17:21 01.05.2020
4787 Rain 13 1005 75 0 3.86 273 16:57 01.05.2020
4788 Rain 14 1004 71 0 3.63 249 16:38 01.05.2020
4789 Rain 13 1005 75 0 3.63 249 16:20 01.05.2020
4790 Rain 14 1005 69 0 3.63 249 15:57 01.05.2020
4791 Rain 14 1005 65 0 3.63 249 15:38 01.05.2020
4792 Rain 14 1005 65 0 3.94 258 15:19 01.05.2020
4793 Rain 15 1005 59 0 0.45 197 14:43 01.05.2020
4794 Rain 15 1005 60 0 0.45 298 14:24 01.05.2020
4795 Rain 14 1006 61 0 3.89 263 13:54 01.05.2020
4796 Rain 14 1044 57 0 2.68 11 13:36 01.05.2020
4797 Rain 15 1006 61 0 0.45 296 13:18 01.05.2020
4798 Rain 15 1006 61 0 0.45 295 12:54 01.05.2020
4799 Rain 14 1006 61 0 0.45 247 12:36 01.05.2020
4800 Rain 13 1044 55 0 3.13 329 12:18 01.05.2020
4801 Rain 13 1045 61 0 1.79 25 11:41 01.05.2020
4802 Rain 12 1044 61 0 3.13 20 11:21 01.05.2020
4803 Rain 12 1044 61 0 3.13 20 11:21 01.05.2020
4804 Rain 12 1045 63 0 1.34 326 10:56 01.05.2020
4805 Rain 11 1008 76 0 4.26 258 10:37 01.05.2020
4806 Rain 11 1046 63 0 2.68 14 10:19 01.05.2020
4807 Rain 11 1046 63 0 2.68 14 10:19 01.05.2020
4808 Rain 10 1008 84 0 0.89 190 09:43 01.05.2020
4809 Clouds 10 1008 87 0 0.45 209 09:19 01.05.2020
4810 Clouds 9 1008 90 0 0.45 208 08:55 01.05.2020
4811 Clouds 9 1008 91 0 3.49 252 08:37 01.05.2020
4812 Clouds 9 1008 92 0 3.12 249 08:19 01.05.2020
4813 Clouds 8 1008 94 0 0.45 216 07:42 01.05.2020
4814 Clouds 8 1008 94 0 0.45 205 07:22 01.05.2020
4815 Clouds 7 1008 94 0 3.61 240 06:39 01.05.2020
4816 Clouds 7 1008 94 0 3.61 240 06:39 01.05.2020
4817 Clouds 7 1008 94 0 3.18 237 05:34 01.05.2020
4818 Clouds 7 1008 94 0 3.8 237 04:21 01.05.2020
4819 Clouds 8 1008 94 0 3.75 231 03:24 01.05.2020
4820 Clouds 8 1008 94 0 3.75 231 02:43 01.05.2020
4821 Clouds 8 1009 94 0 3.78 228 02:18 01.05.2020
4822 Clouds 8 1009 94 0 3.63 217 01:28 01.05.2020
4823 Clouds 8 1009 94 0 3.63 217 00:59 01.05.2020
4824 Clouds 9 1009 94 0 3.63 217 00:37 01.05.2020
4825 Rain 8 1009 94 0 3.78 215 00:18 01.05.2020
4826 Rain 9 1009 94 0 3.78 215 23:54 30.04.2020
4827 Rain 9 1009 94 0 3.78 215 23:36 30.04.2020
4828 Rain 9 1008 94 0 4.82 227 23:18 30.04.2020
4829 Rain 9 1008 94 0 4.27 221 22:41 30.04.2020
4830 Rain 9 1009 93 0 4.27 221 22:20 30.04.2020
4831 Rain 9 1009 93 0 0.45 204 21:55 30.04.2020
4832 Rain 9 1009 92 0 0.45 178 21:37 30.04.2020
4833 Rain 9 1009 92 0 4.34 241 21:19 30.04.2020
4834 Rain 9 1009 91 0 4.34 241 20:42 30.04.2020
4835 Rain 9 1008 89 0 4.87 248 20:19 30.04.2020
4836 Rain 10 1008 88 0 4.87 248 19:58 30.04.2020
4837 Rain 10 1008 86 0 4.87 248 19:40 30.04.2020
4838 Rain 10 1008 83 0 0.45 210 19:22 30.04.2020
4839 Rain 11 1008 80 0 0.45 241 18:56 30.04.2020
4840 Rain 13 1007 72 0 0.45 323 18:37 30.04.2020
4841 Rain 14 1007 67 0 0.45 196 18:18 30.04.2020
4842 Rain 13 1007 67 0 0.45 252 17:55 30.04.2020
4843 Clouds 14 1007 64 0 0.45 290 17:37 30.04.2020
4844 Clouds 14 1007 61 0 0.89 296 17:18 30.04.2020
4845 Clouds 15 1007 60 0 0.45 321 16:54 30.04.2020
4846 Clouds 15 1007 58 0 2.32 24 16:36 30.04.2020
4847 Rain 16 1007 51 0 0.45 144 16:18 30.04.2020
4848 Rain 16 1007 52 0 3.38 5 15:43 30.04.2020
4849 Rain 16 1007 53 0 0.45 320 15:21 30.04.2020
4850 Rain 16 1008 53 0 0.45 309 14:42 30.04.2020
4851 Rain 16 1008 53 0 0.45 309 14:42 30.04.2020
4852 Clouds 16 1008 53 0 0.45 279 14:21 30.04.2020
4853 Clouds 16 1008 54 0 0.45 290 13:58 30.04.2020
4854 Clouds 16 1008 54 0 0.89 207 13:40 30.04.2020
4855 Clouds 16 1008 56 0 0.45 316 13:22 30.04.2020
4856 Clouds 17 1008 53 0 0.45 273 12:59 30.04.2020
4857 Clouds 17 1008 51 0 0.45 312 12:40 30.04.2020
4858 Clouds 17 1008 51 0 0.62 4 12:19 30.04.2020
4859 Clouds 16 1008 53 0 0.62 4 11:38 30.04.2020
4860 Clouds 16 1008 59 0 1.47 133 11:19 30.04.2020
4861 Clouds 16 1008 54 0 1.47 133 10:58 30.04.2020
4862 Clouds 15 1009 61 0 2.13 148 10:39 30.04.2020
4863 Clouds 14 1008 60 0 0.45 190 10:20 30.04.2020
4864 Clouds 14 1008 66 0 0.45 178 09:56 30.04.2020
4865 Clouds 13 1009 70 0 0.45 169 09:37 30.04.2020
4866 Clouds 11 1045 66 0 2.68 336 09:18 30.04.2020
4867 Clouds 10 1009 85 0 0.45 229 08:44 30.04.2020
4868 Clouds 9 1009 87 0 0.89 167 08:24 30.04.2020
4869 Clouds 7 1009 91 0 0.45 166 07:44 30.04.2020
4870 Clouds 7 1009 91 0 0.45 166 07:44 30.04.2020
4871 Clouds 7 1009 93 0 2.01 185 07:25 30.04.2020
4872 Clouds 6 1009 93 0 2.01 185 06:53 30.04.2020
4873 Clouds 6 1009 94 0 2.24 188 06:19 30.04.2020
4874 Clouds 6 1009 94 0 2.24 188 05:45 30.04.2020
4875 Clouds 6 1010 94 0 2.34 193 04:43 30.04.2020
4876 Clouds 6 1010 94 0 2.34 192 04:19 30.04.2020
4877 Clear 6 1010 93 0 2.47 205 02:48 30.04.2020
4878 Clouds 6 1011 93 0 2.64 211 02:26 30.04.2020
4879 Clouds 7 1011 93 0 2.71 219 01:37 30.04.2020
4880 Clouds 7 1011 93 0 2.71 219 00:42 30.04.2020
4881 Clouds 8 1011 93 0 2.74 223 00:20 30.04.2020
4882 Clouds 8 1011 93 0 2.74 223 23:58 29.04.2020
4883 Clouds 8 1011 93 0 2.74 223 23:39 29.04.2020
4884 Clouds 8 1011 92 0 2.79 218 23:21 29.04.2020
4885 Clouds 9 1011 92 0 2.79 218 22:56 29.04.2020
4886 Clouds 9 1011 91 0 2.79 218 22:38 29.04.2020
4887 Clouds 10 1011 90 0 2.66 209 22:18 29.04.2020
4888 Clouds 11 1010 79 0 2.48 213 21:38 29.04.2020
4889 Clouds 11 1010 79 0 2.39 216 21:20 29.04.2020
4890 Clouds 11 1010 79 0 2.39 216 20:58 29.04.2020
4891 Clouds 11 1010 79 0 2.39 216 20:58 29.04.2020
4892 Clouds 11 1010 79 0 2.39 216 20:39 29.04.2020
4893 Clouds 12 1010 77 0 2.54 223 20:19 29.04.2020
4894 Clouds 13 1009 73 0 2.54 223 19:54 29.04.2020
4895 Clouds 13 1009 72 0 2.54 223 19:36 29.04.2020
4896 Clouds 13 1009 72 0 2.74 226 19:18 29.04.2020
4897 Clouds 13 1010 71 0 2.74 226 18:41 29.04.2020
4898 Clouds 14 1010 71 0 3.37 237 18:20 29.04.2020
4899 Clouds 13 1009 70 0 3.37 237 17:55 29.04.2020
4900 Clouds 13 1010 71 0 3.37 237 17:55 29.04.2020
4901 Clouds 13 1009 70 0 4.21 246 17:37 29.04.2020
4902 Clouds 13 1009 71 0 4.21 246 17:18 29.04.2020
4903 Clouds 13 1009 74 0 4.21 246 16:37 29.04.2020
4904 Clouds 12 1011 84 0 0.89 217 16:19 29.04.2020
4905 Clouds 12 1009 77 0 5.03 245 16:19 29.04.2020
4906 Clouds 12 1011 84 0 1.34 226 15:57 29.04.2020
4907 Clouds 12 1010 81 10000 6.2 240 15:38 29.04.2020
4908 Clouds 12 1009 82 0 5.55 245 15:20 29.04.2020
4909 Clouds 11 1010 87 10000 6.2 230 14:45 29.04.2020
4910 Clouds 11 1010 87 10000 6.2 230 14:26 29.04.2020
4911 Clouds 11 1011 93 0 0.89 219 13:58 29.04.2020
4912 Clouds 11 1011 94 0 0.45 203 13:40 29.04.2020
4913 Rain 10 1010 94 0 0.89 200 13:20 29.04.2020
4914 Rain 10 1010 95 0 0.89 268 12:56 29.04.2020
4915 Rain 10 1010 96 0 0.45 260 12:38 29.04.2020
4916 Rain 10 1010 96 0 0.45 260 12:38 29.04.2020
4917 Rain 10 1010 96 0 0.45 218 12:18 29.04.2020
4918 Rain 9 1010 96 0 5.08 256 11:39 29.04.2020
4919 Rain 9 1010 97 0 5.08 256 11:39 29.04.2020
4920 Rain 9 1010 96 0 4.86 251 11:20 29.04.2020
4921 Rain 9 1010 96 0 4.86 251 10:57 29.04.2020
4922 Rain 9 1010 96 0 4.74 257 10:37 29.04.2020
4923 Rain 9 1010 96 0 4.74 257 10:37 29.04.2020
4924 Rain 9 1010 96 0 0.45 196 10:19 29.04.2020
4925 Rain 9 1010 97 0 0.45 203 09:42 29.04.2020
4926 Rain 9 1010 97 0 0.89 281 09:23 29.04.2020
4927 Rain 8 1009 97 0 0.45 176 08:56 29.04.2020
4928 Rain 8 1009 97 0 0.89 205 08:37 29.04.2020
4929 Rain 8 1009 97 0 0.89 213 08:19 29.04.2020
4930 Rain 8 1009 97 0 4.8 261 07:41 29.04.2020
4931 Rain 9 1009 97 0 0.45 198 07:23 29.04.2020
4932 Rain 9 1008 97 0 0.45 202 06:50 29.04.2020
4933 Rain 9 1008 97 0 0.45 232 06:30 29.04.2020
4934 Rain 9 1008 97 0 0.89 193 05:21 29.04.2020
4935 Rain 9 1008 97 0 0.45 198 05:21 29.04.2020
4936 Rain 9 1008 97 0 0.45 198 05:21 29.04.2020
4937 Rain 10 1008 97 0 0.45 222 04:38 29.04.2020
4938 Rain 10 1008 97 0 0.45 191 04:18 29.04.2020
4939 Rain 10 1007 97 0 4.1 283 02:39 29.04.2020
4940 Rain 11 1007 97 0 4.34 256 01:44 29.04.2020
4941 Rain 11 1007 97 0 3.92 253 01:22 29.04.2020
4942 Rain 11 1007 97 0 3.92 253 00:41 29.04.2020
4943 Rain 11 1007 96 0 4.22 256 00:19 29.04.2020
4944 Rain 11 1007 96 0 4.22 256 23:49 28.04.2020
4945 Rain 12 1007 97 0 3.63 246 23:24 28.04.2020
4946 Rain 12 1007 97 0 3.63 246 22:55 28.04.2020
4947 Rain 12 1007 96 0 3.63 246 22:37 28.04.2020
4948 Rain 12 1007 96 0 2.8 245 22:18 28.04.2020
4949 Rain 12 1007 96 0 2.8 245 21:54 28.04.2020
4950 Rain 12 1007 96 0 3.04 253 21:36 28.04.2020
4951 Rain 12 1007 96 0 3.42 260 21:18 28.04.2020
4952 Rain 12 1007 96 0 3.42 260 20:55 28.04.2020
4953 Rain 12 1007 96 0 3.42 260 20:36 28.04.2020
4954 Rain 12 1007 96 0 3.66 264 20:18 28.04.2020
4955 Rain 13 1007 95 0 3.66 264 19:42 28.04.2020
4956 Rain 13 1007 95 0 3.05 274 19:22 28.04.2020
4957 Rain 13 1007 95 0 3.05 274 18:59 28.04.2020
4958 Rain 14 1007 94 0 0.45 196 18:40 28.04.2020
4959 Rain 14 1007 93 0 3.33 296 18:19 28.04.2020
4960 Rain 14 1007 93 0 3.33 296 17:57 28.04.2020
4961 Rain 14 1007 92 0 3.33 296 17:36 28.04.2020
4962 Rain 15 1007 85 0 0.45 130 17:18 28.04.2020
4963 Rain 17 1006 73 0 0.89 276 16:43 28.04.2020
4964 Rain 18 1006 63 10000 6.2 290 16:23 28.04.2020
4965 Rain 18 1006 63 10000 6.2 290 15:58 28.04.2020
4966 Clouds 18 1006 59 10000 5.7 300 15:39 28.04.2020
4967 Clouds 19 1006 48 10000 4.1 360 15:21 28.04.2020
4968 Clouds 19 1006 48 10000 4.1 360 14:59 28.04.2020
4969 Rain 20 1005 53 0 1.79 5 14:41 28.04.2020
4970 Rain 20 1005 52 0 2.54 318 14:21 28.04.2020
4971 Rain 20 1006 52 0 2.54 318 13:58 28.04.2020
4972 Rain 20 1006 54 0 1.34 20 13:38 28.04.2020
4973 Clouds 20 1007 48 10000 3.6 260 13:19 28.04.2020
4974 Clouds 20 1005 53 0 2.4 318 12:46 28.04.2020
4975 Clouds 19 1006 52 0 2.24 246 12:26 28.04.2020
4976 Clouds 19 1006 51 0 1.34 313 11:59 28.04.2020
4977 Clouds 19 1006 58 0 1.79 281 11:39 28.04.2020
4978 Clouds 19 1006 60 0 1.79 257 11:20 28.04.2020
4979 Clouds 17 1007 59 10000 5.1 230 10:39 28.04.2020
4980 Clouds 17 1007 59 10000 5.1 230 10:39 28.04.2020
4981 Clouds 17 1007 59 10000 5.1 230 10:19 28.04.2020
4982 Clouds 16 1047 60 0 0.45 338 09:59 28.04.2020
4983 Clouds 17 1007 58 0 0.45 213 09:40 28.04.2020
4984 Clouds 14 1007 67 10000 3.6 210 09:22 28.04.2020
4985 Clouds 13 1047 62 0 1.97 253 08:46 28.04.2020
4986 Clouds 13 1047 62 0 0.45 299 08:46 28.04.2020
4987 Clouds 13 1008 71 0 1.87 238 08:27 28.04.2020
4988 Clouds 12 1008 76 0 1.87 238 07:58 28.04.2020
4989 Clouds 11 1008 81 0 1.87 238 07:39 28.04.2020
4990 Clouds 9 1008 85 0 1.6 212 07:18 28.04.2020
4991 Clouds 8 1007 86 0 1.51 226 06:28 28.04.2020
4992 Clouds 8 1007 85 0 1.51 226 05:47 28.04.2020
4993 Clouds 9 1007 84 0 1.65 220 05:29 28.04.2020
4994 Clouds 8 1008 83 0 1.66 204 04:33 28.04.2020
4995 Clouds 9 1008 79 0 0.45 192 02:37 28.04.2020
4996 Clear 9 1008 78 0 1.83 182 01:27 28.04.2020
4997 Clear 10 1008 78 0 1.83 182 00:59 28.04.2020
4998 Clear 11 1008 77 0 1.82 172 00:29 28.04.2020
4999 Clear 11 1008 78 0 1.82 172 23:56 27.04.2020
5000 Clear 11 1008 77 0 1.82 172 23:38 27.04.2020
5001 Clear 12 1009 76 0 1.72 162 23:19 27.04.2020
5002 Clouds 13 1009 72 0 1.44 158 22:42 27.04.2020
5003 Clouds 14 1009 71 0 1.16 155 22:23 27.04.2020
5004 Clouds 14 1009 68 0 1.16 155 21:57 27.04.2020
5005 Clouds 14 1009 65 0 1.16 155 21:39 27.04.2020
5006 Clouds 15 1009 65 0 0.37 135 21:19 27.04.2020
5007 Clouds 16 1009 61 0 0.37 135 20:56 27.04.2020
5008 Clouds 17 1049 40 0 0.37 135 20:38 27.04.2020
5009 Clouds 17 1008 57 0 0.74 323 20:19 27.04.2020
5010 Clouds 18 1008 50 0 0.74 323 19:55 27.04.2020
5011 Clouds 19 1008 48 0 1.77 300 19:37 27.04.2020
5012 Clouds 19 1008 49 0 1.77 300 19:19 27.04.2020
5013 Clouds 20 1009 46 0 1.77 300 18:55 27.04.2020
5014 Clouds 20 1009 46 0 1.77 300 18:37 27.04.2020
5015 Clouds 20 1009 46 0 2.72 286 18:18 27.04.2020
5016 Clouds 19 1009 48 10000 2.6 270 17:41 27.04.2020
5017 Clouds 19 1009 47 0 3.41 280 17:19 27.04.2020
5018 Clouds 19 1009 51 0 3.41 280 16:54 27.04.2020
5019 Clouds 19 1010 54 0 3.41 280 16:36 27.04.2020
5020 Clear 18 1010 55 0 3.58 281 16:18 27.04.2020
5021 Clear 18 1010 52 0 3.58 281 15:55 27.04.2020
5022 Clouds 18 1010 48 10000 5.1 310 15:36 27.04.2020
5023 Rain 19 1010 46 0 3.16 285 15:18 27.04.2020
5024 Rain 19 1010 54 0 3.16 285 14:40 27.04.2020
5025 Rain 19 1010 52 0 2.92 290 14:19 27.04.2020
5026 Rain 18 1010 57 0 0.45 182 13:57 27.04.2020
5027 Rain 18 1010 51 0 0.45 302 13:38 27.04.2020
5028 Rain 18 1011 58 0 0.45 180 13:18 27.04.2020
5029 Rain 17 1011 57 0 0.45 221 12:43 27.04.2020
5030 Rain 17 1011 61 0 0.89 194 12:22 27.04.2020
5031 Rain 16 1009 65 0 2.6 222 11:57 27.04.2020
5032 Rain 16 1011 67 0 0.45 140 11:38 27.04.2020
5033 Clouds 16 1012 62 10000 4.6 220 11:19 27.04.2020
5034 Clouds 15 1011 67 10000 5.7 220 10:42 27.04.2020
5035 Clouds 14 1011 67 10000 5.7 220 10:24 27.04.2020
5036 Rain 14 1011 71 10000 4.6 210 09:58 27.04.2020
5037 Rain 12 1011 76 10000 2.6 200 09:40 27.04.2020
5038 Rain 12 1011 76 10000 2.6 200 09:18 27.04.2020
5039 Rain 12 1011 76 10000 2.6 200 08:53 27.04.2020
5040 Rain 10 1011 87 10000 2.6 200 08:33 27.04.2020
5041 Rain 10 1011 87 10000 2.6 150 07:46 27.04.2020
5042 Rain 10 1011 87 10000 2.6 150 07:27 27.04.2020
5043 Rain 9 1011 87 10000 2.6 160 06:59 27.04.2020
5044 Rain 9 1011 93 10000 2.6 140 06:37 27.04.2020
5045 Rain 9 1011 87 10000 1.5 120 06:18 27.04.2020
5046 Rain 9 1011 87 10000 1.5 120 05:48 27.04.2020
5047 Rain 9 1010 81 10000 1 0 04:40 27.04.2020
5048 Rain 8 1010 70 10000 1.5 180 03:49 27.04.2020
5049 Clouds 8 1010 61 10000 2.6 230 02:40 27.04.2020
5050 Clouds 8 1010 75 10000 0.5 0 01:22 27.04.2020
5051 Clouds 8 1010 65 10000 0.5 0 00:46 27.04.2020
5052 Clear 9 1010 65 10000 0.5 0 00:19 27.04.2020
5053 Clear 9 1010 65 10000 2.1 150 23:55 26.04.2020
5054 Clear 9 1010 61 10000 1 110 23:37 26.04.2020
5055 Clear 9 1010 61 10000 1 110 23:18 26.04.2020
5056 Clear 10 1010 57 10000 1.5 130 22:55 26.04.2020
5057 Clear 11 1010 46 10000 1 70 22:37 26.04.2020
5058 Clear 11 1009 50 10000 2.1 50 22:18 26.04.2020
5059 Clear 11 1009 50 10000 2.1 50 21:56 26.04.2020
5060 Clear 13 1009 59 10000 2.1 60 21:37 26.04.2020
5061 Clouds 13 1009 53 10000 2.1 60 21:37 26.04.2020
5062 Clouds 14 1009 53 10000 2.6 30 21:18 26.04.2020
5063 Clouds 16 1009 53 10000 3.6 30 20:39 26.04.2020
5064 Clouds 17 1009 53 10000 3.6 30 20:20 26.04.2020
5065 Clouds 17 1009 33 10000 2.1 20 19:59 26.04.2020
5066 Clouds 17 1008 53 10000 3.1 40 19:38 26.04.2020
5067 Clouds 18 1008 53 10000 3.6 340 19:20 26.04.2020
5068 Clouds 18 1008 53 10000 3.6 340 18:54 26.04.2020
5069 Clouds 18 1008 53 10000 3.1 360 18:36 26.04.2020
5070 Clouds 19 1008 37 10000 3.1 360 18:18 26.04.2020
5071 Clouds 19 1009 29 10000 1.5 0 17:40 26.04.2020
5072 Clouds 19 1009 29 10000 2.1 0 17:22 26.04.2020
5073 Clouds 19 1009 29 10000 2.1 0 16:55 26.04.2020
5074 Clouds 19 1009 37 10000 3.6 30 16:36 26.04.2020
5075 Clouds 19 1009 31 10000 2.6 0 16:18 26.04.2020
5076 Clouds 19 1009 31 10000 2.6 0 15:54 26.04.2020
5077 Clouds 19 1009 37 10000 4.1 330 15:36 26.04.2020
5078 Clear 19 1010 36 10000 2.6 320 15:18 26.04.2020
5079 Clear 19 1010 33 10000 2.1 0 14:40 26.04.2020
5080 Clouds 19 1010 33 10000 2.1 0 14:19 26.04.2020
5081 Clouds 18 1010 36 10000 3.1 50 13:58 26.04.2020
5082 Clouds 18 1010 36 10000 2.1 0 13:38 26.04.2020
5083 Clouds 18 1010 36 10000 2.1 0 13:20 26.04.2020
5084 Clouds 18 1010 36 10000 4.6 360 12:55 26.04.2020
5085 Clouds 17 1010 38 10000 4.1 20 12:36 26.04.2020
5086 Clouds 16 1011 41 10000 3.1 30 12:18 26.04.2020
5087 Clouds 16 1010 41 10000 3.1 50 11:43 26.04.2020
5088 Clouds 15 1010 41 10000 3.1 50 11:23 26.04.2020
5089 Clouds 15 1010 43 10000 3.1 20 10:59 26.04.2020
5090 Clouds 15 1010 43 10000 3.1 20 10:59 26.04.2020
5091 Clouds 15 1010 43 10000 3.1 20 10:59 26.04.2020
5092 Clouds 15 1010 43 10000 3.1 20 10:59 26.04.2020
5093 Clouds 14 1010 54 10000 2.6 10 10:41 26.04.2020
5094 Clouds 13 1010 54 10000 2.6 10 10:23 26.04.2020
5095 Clouds 12 1010 53 10000 1.5 360 09:57 26.04.2020
5096 Clouds 10 1010 57 10000 1 0 09:37 26.04.2020
5097 Clouds 10 1010 61 10000 1 0 09:19 26.04.2020
5098 Clouds 8 1010 70 10000 0.5 0 08:41 26.04.2020
5099 Clouds 7 1010 70 10000 0.5 0 08:22 26.04.2020
5100 Clouds 4 1010 80 10000 1 130 07:48 26.04.2020
5101 Clouds 3 1010 61 10000 1 0 07:24 26.04.2020
5102 Clouds 3 1010 61 10000 1 0 06:50 26.04.2020
5103 Clouds 4 1010 70 10000 1 40 06:25 26.04.2020
5104 Clouds 4 1010 70 10000 1 40 05:51 26.04.2020
5105 Clouds 4 1010 70 10000 1.5 20 05:32 26.04.2020
5106 Clouds 5 1010 70 10000 2.1 30 04:39 26.04.2020
5107 Clouds 6 1010 65 10000 2.6 20 03:43 26.04.2020
5108 Clouds 7 1010 59 10000 1.5 10 02:38 26.04.2020
5109 Clouds 7 1010 59 10000 1 0 02:19 26.04.2020
5110 Clouds 8 1010 59 10000 0.5 330 01:37 26.04.2020
5111 Clouds 8 1010 59 10000 1 0 01:18 26.04.2020
5112 Clouds 9 1009 59 10000 0.75 38 00:37 26.04.2020
5113 Clouds 10 1009 46 10000 0.68 33 00:18 26.04.2020
5114 Clouds 10 1009 46 10000 2.1 30 23:38 25.04.2020
5115 Clouds 11 1009 46 10000 2.1 30 23:19 25.04.2020
5116 Clouds 11 1009 56 10000 2.1 10 22:43 25.04.2020
5117 Clouds 12 1009 37 10000 2.1 30 22:21 25.04.2020
5118 Clouds 12 1009 37 10000 2.1 30 21:59 25.04.2020
5119 Clear 12 1009 37 10000 2.6 30 21:39 25.04.2020
5120 Clouds 13 1009 35 10000 2.6 30 21:20 25.04.2020
5121 Clouds 14 1009 35 10000 2.6 30 20:56 25.04.2020
5122 Clouds 15 1008 52 10000 4.6 20 20:37 25.04.2020
5123 Clouds 16 1008 52 10000 4.6 20 20:19 25.04.2020
5124 Clouds 17 1008 33 10000 4.1 340 19:41 25.04.2020
5125 Clouds 18 1008 33 10000 4.1 340 19:23 25.04.2020
5126 Clouds 18 1008 52 10000 6.2 320 18:58 25.04.2020
5127 Clouds 18 1008 37 10000 6.2 320 18:39 25.04.2020
5128 Clouds 18 1008 37 10000 6.7 330 18:20 25.04.2020
5129 Clouds 19 1008 37 10000 6.7 330 17:58 25.04.2020
5130 Clouds 18 1009 37 10000 5.1 270 17:38 25.04.2020
5131 Clouds 19 1009 29 10000 6.2 260 17:19 25.04.2020
5132 Clouds 19 1009 29 10000 6.2 260 16:55 25.04.2020
5133 Clouds 19 1009 34 10000 3.6 280 16:37 25.04.2020
5134 Clouds 18 1009 36 10000 5.1 280 16:18 25.04.2020
5135 Clouds 18 1010 34 10000 5.1 240 15:41 25.04.2020
5136 Clouds 19 1010 36 10000 3.6 0 15:20 25.04.2020
5137 Clouds 19 1010 36 10000 3.6 0 14:58 25.04.2020
5138 Clouds 18 1010 36 10000 3.6 300 14:39 25.04.2020
5139 Clouds 18 1010 36 10000 3.6 300 14:20 25.04.2020
5140 Clouds 17 1011 39 10000 5.1 310 13:43 25.04.2020
5141 Clouds 18 1011 39 10000 5.1 310 13:22 25.04.2020
5142 Clouds 17 1011 41 10000 3.6 300 12:58 25.04.2020
5143 Clouds 17 1011 44 10000 3.1 250 12:40 25.04.2020
5144 Clouds 17 1011 44 10000 3.1 250 12:21 25.04.2020
5145 Clouds 16 1011 47 10000 4.1 290 11:59 25.04.2020
5146 Clouds 16 1011 47 10000 3.6 310 11:40 25.04.2020
5147 Clouds 15 1011 47 10000 3.6 310 11:22 25.04.2020
5148 Clouds 15 1011 47 10000 3.6 310 11:22 25.04.2020
5149 Clouds 15 1011 47 10000 4.6 300 10:45 25.04.2020
5150 Clouds 14 1011 50 10000 3.6 280 10:25 25.04.2020
5151 Clouds 14 1011 50 10000 3.6 280 09:57 25.04.2020
5152 Clouds 13 1011 54 10000 3.1 270 09:39 25.04.2020
5153 Clouds 13 1011 58 10000 3.1 280 09:21 25.04.2020
5154 Clouds 12 1010 62 10000 3.6 250 08:41 25.04.2020
5155 Clouds 12 1010 62 10000 3.6 250 08:22 25.04.2020
5156 Clouds 11 1010 66 10000 3.1 250 07:59 25.04.2020
5157 Clouds 10 1010 66 10000 3.1 250 07:41 25.04.2020
5158 Clouds 10 1010 61 10000 3.1 250 06:57 25.04.2020
5159 Clouds 9 1010 66 10000 3.1 230 06:36 25.04.2020
5160 Clouds 10 1010 66 10000 3.1 240 05:42 25.04.2020
5161 Clouds 10 1010 70 10000 4.1 230 05:24 25.04.2020
5162 Clouds 11 1010 70 10000 3.6 230 03:56 25.04.2020
5163 Clouds 11 1010 66 10000 4.6 230 02:36 25.04.2020
5164 Clouds 11 1011 62 10000 5.1 220 01:56 25.04.2020
5165 Clouds 11 1011 62 10000 5.1 220 01:38 25.04.2020
5166 Clouds 11 1011 62 10000 5.1 220 01:19 25.04.2020
5167 Clouds 12 1011 57 10000 4.6 220 00:39 25.04.2020
5168 Clouds 12 1011 57 10000 4.1 220 00:18 25.04.2020
5169 Clouds 12 1011 57 10000 3.6 220 23:41 24.04.2020
5170 Clouds 12 1011 57 10000 3.6 220 23:20 24.04.2020
5171 Clouds 14 1011 47 10000 4.1 250 22:41 24.04.2020
5172 Clouds 14 1011 47 10000 4.1 250 22:21 24.04.2020
5173 Clouds 14 1011 58 10000 3.6 220 21:59 24.04.2020
5174 Clouds 14 1011 58 10000 3.6 220 21:59 24.04.2020
5175 Clouds 15 1011 41 10000 2.1 240 21:41 24.04.2020
5176 Clouds 16 1011 41 10000 2.1 240 21:23 24.04.2020
5177 Clouds 16 1011 41 10000 2.1 240 21:23 24.04.2020
5178 Clouds 17 1010 41 10000 2.6 250 20:59 24.04.2020
5179 Clouds 19 1010 36 10000 3.1 260 20:41 24.04.2020
5180 Clouds 19 1010 37 10000 4.6 250 20:19 24.04.2020
5181 Clouds 19 1010 37 10000 4.6 250 19:57 24.04.2020
5182 Clouds 20 1010 34 10000 5.1 250 19:38 24.04.2020
5183 Clouds 20 1011 34 10000 5.1 250 19:20 24.04.2020
5184 Clouds 20 1011 34 10000 6.7 270 18:41 24.04.2020
5185 Clouds 20 1011 34 10000 6.7 270 18:23 24.04.2020
5186 Clouds 21 1011 30 10000 5.7 260 17:54 24.04.2020
5187 Clouds 21 1011 30 10000 5.1 270 17:36 24.04.2020
5188 Clouds 21 1011 32 10000 6.7 260 17:18 24.04.2020
5189 Clouds 21 1011 32 10000 6.7 260 16:55 24.04.2020
5190 Clouds 21 1012 32 10000 6.2 270 16:37 24.04.2020
5191 Clouds 21 1012 32 10000 7.2 280 16:19 24.04.2020
5192 Clouds 20 1012 32 10000 7.7 270 15:40 24.04.2020
5193 Clouds 21 1012 32 10000 7.7 270 15:20 24.04.2020
5194 Clouds 21 1013 32 10000 9.3 280 14:41 24.04.2020
5195 Clouds 21 1013 32 10000 9.3 280 14:22 24.04.2020
5196 Clouds 21 1013 30 10000 9.3 260 13:59 24.04.2020
5197 Clouds 21 1013 28 10000 8.2 270 13:40 24.04.2020
5198 Clouds 21 1013 28 10000 8.2 270 13:20 24.04.2020
5199 Clouds 21 1014 32 10000 7.7 260 12:57 24.04.2020
5200 Clouds 19 1014 34 10000 7.2 260 12:39 24.04.2020
5201 Clouds 19 1014 34 10000 7.2 260 12:19 24.04.2020
5202 Clouds 18 1014 39 10000 5.7 250 11:40 24.04.2020
5203 Clouds 19 1014 39 10000 5.7 250 11:21 24.04.2020
5204 Clouds 18 1014 45 10000 5.1 260 10:57 24.04.2020
5205 Clouds 18 1014 44 10000 4.6 250 10:38 24.04.2020
5206 Clouds 17 1014 44 10000 4.6 250 10:20 24.04.2020
5207 Clouds 16 1014 47 10000 4.6 220 09:55 24.04.2020
5208 Clear 13 1014 58 10000 3.1 210 09:36 24.04.2020
5209 Clear 10 1015 66 10000 1 0 09:18 24.04.2020
5210 Clear 9 1015 76 10000 1 0 08:42 24.04.2020
5211 Clear 9 1015 76 10000 1 0 08:19 24.04.2020
5212 Clear 7 1015 81 10000 0.5 0 07:56 24.04.2020
5213 Clear 7 1015 81 10000 0.5 0 07:56 24.04.2020
5214 Clear 5 1015 66 10000 2.1 200 07:38 24.04.2020
5215 Clear 5 1015 66 10000 2.1 200 07:19 24.04.2020
5216 Clear 4 1015 93 10000 2.6 210 06:42 24.04.2020
5217 Clear 4 1015 75 10000 2.6 200 05:51 24.04.2020
5218 Clear 4 1015 75 10000 2.6 200 05:20 24.04.2020
5219 Clear 5 1016 75 10000 1.5 190 03:34 24.04.2020
5220 Clear 6 1016 75 10000 2.1 210 02:50 24.04.2020
5221 Clear 6 1016 75 10000 2.1 210 02:30 24.04.2020
5222 Clear 6 1016 75 10000 1 0 01:46 24.04.2020
5223 Clear 7 1016 75 10000 1.33 207 00:54 24.04.2020
5224 Clear 7 1017 80 10000 1 150 00:19 24.04.2020
5225 Clear 7 1017 66 10000 1.5 150 23:47 23.04.2020
5226 Clear 8 1017 66 10000 1.5 150 23:27 23.04.2020
5227 Clear 9 1017 66 10000 0.5 170 22:58 23.04.2020
5228 Clear 9 1017 66 10000 0.5 170 22:58 23.04.2020
5229 Clear 10 1017 57 10000 0.5 160 22:39 23.04.2020
5230 Clear 10 1017 57 10000 0.5 160 22:39 23.04.2020
5231 Clear 10 1017 57 10000 0.5 160 22:20 23.04.2020
5232 Clear 10 1017 57 10000 1.28 132 21:57 23.04.2020
5233 Clear 12 1017 50 10000 1 90 21:39 23.04.2020
5234 Clear 13 1017 38 10000 2.1 30 21:20 23.04.2020
5235 Clear 14 1017 38 10000 2.1 30 20:57 23.04.2020
5236 Clear 16 1017 41 10000 3.1 20 20:39 23.04.2020
5237 Clear 17 1016 36 10000 4.1 30 20:20 23.04.2020
5238 Clear 17 1016 36 10000 4.1 30 19:56 23.04.2020
5239 Clear 19 1017 31 10000 5.1 20 19:38 23.04.2020
5240 Clear 19 1017 31 10000 5.1 20 19:20 23.04.2020
5241 Clear 19 1017 32 10000 4.1 10 18:43 23.04.2020
5242 Clear 19 1017 29 10000 4.6 10 18:25 23.04.2020
5243 Clear 19 1017 29 10000 4.6 10 17:59 23.04.2020
5244 Clear 19 1017 29 10000 4.6 10 17:59 23.04.2020
5245 Clear 20 1017 32 10000 4.6 20 17:40 23.04.2020
5246 Clear 20 1017 32 10000 4.6 20 17:22 23.04.2020
5247 Clear 20 1017 32 10000 5.1 10 16:57 23.04.2020
5248 Clear 20 1017 34 10000 5.1 360 16:38 23.04.2020
5249 Clear 20 1017 34 10000 5.1 360 16:19 23.04.2020
5250 Clear 19 1018 36 10000 3.6 20 15:42 23.04.2020
5251 Clear 19 1018 36 10000 3.6 20 15:23 23.04.2020
5252 Clear 19 1018 39 10000 3.1 10 14:57 23.04.2020
5253 Clear 19 1018 39 10000 3.6 10 14:38 23.04.2020
5254 Clear 18 1018 39 10000 3.6 10 14:19 23.04.2020
5255 Clear 18 1019 39 10000 2.6 20 13:55 23.04.2020
5256 Clear 18 1019 41 10000 3.6 50 13:36 23.04.2020
5257 Clear 18 1019 41 10000 3.1 350 13:18 23.04.2020
5258 Clear 17 1019 41 10000 3.1 0 12:44 23.04.2020
5259 Clear 15 1019 41 10000 3.1 0 12:25 23.04.2020
5260 Clear 16 1019 44 10000 2.6 360 11:58 23.04.2020
5261 Clear 15 1020 47 10000 4.1 80 11:40 23.04.2020
5262 Clear 15 1019 49 10000 1 0 11:21 23.04.2020
5263 Clear 14 1019 43 10000 2.1 70 10:42 23.04.2020
5264 Clear 13 1019 43 10000 2.1 70 10:22 23.04.2020
5265 Clear 12 1019 46 10000 2.6 70 09:55 23.04.2020
5266 Clear 10 1019 49 10000 3.1 80 09:37 23.04.2020
5267 Clear 9 1019 63 10000 3.1 60 09:18 23.04.2020
5268 Clear 8 1019 56 10000 2.6 50 08:45 23.04.2020
5269 Clear 7 1019 56 10000 2.6 50 08:27 23.04.2020
5270 Clear 4 1019 74 10000 0.5 0 07:43 23.04.2020
5271 Clear 3 1019 74 10000 0.5 0 07:23 23.04.2020
5272 Clear 3 1018 74 10000 0.91 102 06:49 23.04.2020
5273 Clear 3 1018 74 10000 1.49 60 06:27 23.04.2020
5274 Clear 4 1018 74 10000 1.49 60 05:31 23.04.2020
5275 Clear 4 1018 65 10000 1.49 60 04:53 23.04.2020
5276 Clear 6 1018 52 10000 3.1 50 02:25 23.04.2020
5277 Clear 6 1017 49 10000 3.6 60 01:51 23.04.2020
5278 Clear 7 1017 46 10000 4.6 50 01:33 23.04.2020
5279 Clear 9 1017 46 10000 4.1 50 00:47 23.04.2020
5280 Clear 9 1017 43 10000 4.6 50 00:23 23.04.2020
5281 Clear 10 1017 58 10000 4.1 50 23:50 22.04.2020
5282 Clear 10 1017 58 10000 4.6 50 23:25 22.04.2020
5283 Clear 11 1017 58 10000 4.6 60 22:58 22.04.2020
5284 Clear 11 1017 37 10000 4.1 60 22:39 22.04.2020
5285 Clear 13 1017 37 10000 3.1 50 22:19 22.04.2020
5286 Clear 14 1016 35 10000 3.6 60 21:56 22.04.2020
5287 Clear 14 1016 35 10000 3.6 60 21:38 22.04.2020
5288 Clear 14 1016 35 10000 3.6 60 21:20 22.04.2020
5289 Clear 15 1016 33 10000 4.1 60 20:55 22.04.2020
5290 Clear 16 1015 31 10000 5.1 60 20:36 22.04.2020
5291 Clear 16 1015 31 10000 5.1 60 20:18 22.04.2020
5292 Clear 17 1015 29 10000 6.2 60 19:55 22.04.2020
5293 Clear 18 1015 27 10000 7.2 50 19:36 22.04.2020
5294 Clear 18 1015 55 10000 7.2 50 19:18 22.04.2020
5295 Clear 19 1015 55 10000 7.2 50 18:55 22.04.2020
5296 Clear 19 1015 25 10000 7.2 50 18:37 22.04.2020
5297 Clear 19 1015 24 10000 7.7 40 18:18 22.04.2020
5298 Clear 20 1015 25 10000 7.7 50 17:42 22.04.2020
5299 Clear 20 1015 25 10000 7.7 50 17:23 22.04.2020
5300 Clear 20 1015 25 10000 7.7 50 16:56 22.04.2020
5301 Clear 20 1015 25 10000 8.7 50 16:36 22.04.2020
5302 Clear 20 1015 25 10000 6.7 70 16:18 22.04.2020
5303 Clear 20 1015 25 10000 7.7 60 15:38 22.04.2020
5304 Clear 20 1015 25 10000 7.7 60 15:20 22.04.2020
5305 Clear 19 1015 39 10000 6.2 50 14:56 22.04.2020
5306 Clear 19 1016 27 10000 7.2 50 14:37 22.04.2020
5307 Clear 19 1016 29 10000 5.1 80 14:18 22.04.2020
5308 Clear 18 1016 29 10000 5.1 80 14:18 22.04.2020
5309 Clear 18 1016 39 10000 5.7 40 13:44 22.04.2020
5310 Clear 18 1016 39 10000 5.7 40 13:20 22.04.2020
5311 Clear 17 1016 30 10000 5.7 60 12:44 22.04.2020
5312 Clear 17 1016 30 10000 5.7 60 12:44 22.04.2020
5313 Clear 14 1016 33 10000 6.7 50 12:26 22.04.2020
5314 Clear 14 1016 33 10000 6.7 50 11:59 22.04.2020
5315 Clear 14 1016 35 10000 4.1 60 11:39 22.04.2020
5316 Clear 14 1016 43 10000 5.1 40 11:20 22.04.2020
5317 Clear 14 1016 43 10000 5.1 40 10:57 22.04.2020
5318 Clear 13 1017 43 10000 6.7 80 10:38 22.04.2020
5319 Clear 13 1017 43 10000 6.2 80 10:18 22.04.2020
5320 Clear 11 1016 49 10000 4.6 80 09:39 22.04.2020
5321 Clear 9 1016 52 10000 5.1 80 09:19 22.04.2020
5322 Clear 9 1016 52 10000 5.1 80 08:55 22.04.2020
5323 Clear 7 1016 56 10000 4.1 70 08:37 22.04.2020
5324 Clear 6 1015 60 10000 3.1 60 08:18 22.04.2020
5325 Clear 6 1015 60 10000 3.1 60 07:51 22.04.2020
5326 Clear 4 1015 59 10000 3.1 60 07:23 22.04.2020
5327 Clear 4 1015 59 10000 3.1 60 06:52 22.04.2020
5328 Clear 5 1015 56 10000 3.1 80 05:47 22.04.2020
5329 Clear 5 1015 56 10000 3.1 80 05:27 22.04.2020
5330 Clear 5 1015 56 10000 3.1 80 05:27 22.04.2020
5331 Clear 6 1015 52 10000 3.1 70 04:18 22.04.2020
5332 Clear 8 1015 45 10000 5.1 70 02:40 22.04.2020
5333 Clear 8 1015 45 10000 3.6 80 01:44 22.04.2020
5334 Clear 8 1015 45 10000 3.6 80 01:24 22.04.2020
5335 Clear 9 1015 39 10000 6.2 70 00:47 22.04.2020
5336 Clear 10 1015 39 10000 6.2 70 00:22 22.04.2020
5337 Clear 10 1015 37 10000 7.7 70 23:59 21.04.2020
5338 Clear 10 1015 37 10000 7.7 60 23:40 21.04.2020
5339 Clear 11 1014 34 10000 9.3 70 23:18 21.04.2020
5340 Clear 11 1014 37 10000 9.3 70 22:40 21.04.2020
5341 Clear 12 1014 35 10000 6.7 70 22:21 21.04.2020
5342 Clear 12 1014 35 10000 6.7 70 21:59 21.04.2020
5343 Clear 13 1014 35 10000 6.7 60 21:40 21.04.2020
5344 Clouds 13 1014 35 10000 6.7 60 21:22 21.04.2020
5345 Clear 14 1013 30 10000 8.7 80 20:55 21.04.2020
5346 Clouds 14 1013 30 10000 8.7 80 20:37 21.04.2020
5347 Clear 15 1013 30 10000 7.7 70 20:19 21.04.2020
5348 Clear 16 1013 31 10000 8.2 70 19:41 21.04.2020
5349 Clouds 16 1012 29 10000 9.3 70 19:20 21.04.2020
5350 Clouds 16 1012 29 10000 9.3 70 18:57 21.04.2020
5351 Clear 17 1012 29 10000 9.3 70 18:38 21.04.2020
5352 Clouds 17 1012 42 10000 9.3 60 18:19 21.04.2020
5353 Clear 17 1012 43 10000 9.3 60 17:55 21.04.2020
5354 Clear 18 1012 43 10000 8.7 60 17:37 21.04.2020
5355 Clear 18 1012 43 10000 8.7 60 17:37 21.04.2020
5356 Clear 18 1012 33 10000 8.7 60 17:18 21.04.2020
5357 Clear 18 1013 27 10000 9.3 70 16:39 21.04.2020
5358 Clouds 18 1012 33 10000 9.3 50 16:19 21.04.2020
5359 Clouds 18 1012 33 10000 9.3 50 16:19 21.04.2020
5360 Clear 18 1013 27 10000 12.3 90 16:19 21.04.2020
5361 Clear 18 1012 33 10000 9.3 50 15:57 21.04.2020
5362 Clouds 18 1012 33 10000 8.7 60 15:39 21.04.2020
5363 Clouds 18 1012 33 10000 8.2 60 15:21 21.04.2020
5364 Clouds 18 1012 33 10000 8.2 60 14:58 21.04.2020
5365 Clouds 17 1012 36 10000 8.2 80 14:39 21.04.2020
5366 Clouds 17 1012 36 10000 8.2 80 14:21 21.04.2020
5367 Clouds 16 1012 41 10000 8.7 70 13:42 21.04.2020
5368 Clouds 17 1012 41 10000 9.3 60 13:23 21.04.2020
5369 Clouds 16 1012 41 10000 9.3 60 12:58 21.04.2020
5370 Clouds 15 1012 43 10000 8.2 50 12:37 21.04.2020
5371 Clouds 15 1012 44 10000 7.7 60 12:19 21.04.2020
5372 Clouds 14 1012 44 10000 7.7 60 11:56 21.04.2020
5373 Clouds 14 1012 43 10000 7.7 60 11:37 21.04.2020
5374 Clouds 13 1012 50 10000 7.7 70 11:18 21.04.2020
5375 Clouds 13 1012 50 10000 7.7 70 10:56 21.04.2020
5376 Clouds 12 1012 50 10000 5.7 70 10:38 21.04.2020
5377 Clouds 12 1012 50 10000 5.7 70 10:20 21.04.2020
5378 Clouds 9 1012 64 10000 6.2 70 09:38 21.04.2020
5379 Clouds 9 1012 52 10000 6.7 70 09:20 21.04.2020
5380 Clouds 9 1012 52 10000 6.7 70 08:58 21.04.2020
5381 Clouds 8 1012 52 10000 4.6 60 08:40 21.04.2020
5382 Clouds 8 1011 56 10000 5.1 60 08:19 21.04.2020
5383 Clouds 7 1011 56 10000 4.1 60 07:49 21.04.2020
5384 Clouds 7 1011 56 10000 4.1 60 07:26 21.04.2020
5385 Clouds 7 1011 56 10000 5.1 60 06:50 21.04.2020
5386 Clouds 7 1011 56 10000 5.1 60 06:24 21.04.2020
5387 Clouds 7 1012 56 10000 5.1 60 05:49 21.04.2020
5388 Clouds 7 1012 56 10000 4.1 60 04:54 21.04.2020
5389 Clouds 8 1012 52 10000 5.1 70 03:45 21.04.2020
5390 Clouds 9 1013 63 10000 6.2 70 01:53 21.04.2020
5391 Clouds 9 1013 63 10000 6.2 70 01:29 21.04.2020
5392 Clouds 10 1013 63 10000 5.7 70 00:38 21.04.2020
5393 Clouds 10 1013 50 10000 7.2 70 23:55 20.04.2020
5394 Clouds 10 1013 50 10000 7.7 70 23:37 20.04.2020
5395 Clouds 10 1013 50 10000 7.7 70 23:19 20.04.2020
5396 Clouds 11 1013 50 10000 7.7 70 22:54 20.04.2020
5397 Clouds 11 1013 50 10000 7.2 70 22:36 20.04.2020
5398 Clouds 12 1013 50 10000 7.2 70 22:18 20.04.2020
5399 Clouds 12 1013 50 10000 7.7 60 21:54 20.04.2020
5400 Clouds 13 1013 50 10000 8.2 70 21:36 20.04.2020
5401 Clouds 13 1013 50 10000 7.7 70 21:18 20.04.2020
5402 Clouds 14 1012 47 10000 8.2 70 20:40 20.04.2020
5403 Clouds 14 1012 47 10000 8.2 70 20:19 20.04.2020
5404 Clouds 14 1012 47 10000 8.2 70 19:59 20.04.2020
5405 Clouds 15 1012 47 10000 7.7 70 19:40 20.04.2020
5406 Clouds 15 1012 44 10000 8.7 80 19:20 20.04.2020
5407 Clouds 16 1012 44 10000 8.7 80 18:55 20.04.2020
5408 Clouds 16 1012 44 10000 6.7 70 18:37 20.04.2020
5409 Clouds 16 1012 44 10000 8.7 60 18:19 20.04.2020
5410 Clouds 17 1012 41 10000 8.2 60 17:43 20.04.2020
5411 Clouds 17 1012 41 10000 8.2 60 17:23 20.04.2020
5412 Clouds 17 1012 41 10000 7.7 80 16:59 20.04.2020
5413 Clouds 17 1012 41 10000 7.7 80 16:59 20.04.2020
5414 Clouds 17 1012 41 10000 8.7 70 16:41 20.04.2020
5415 Clouds 17 1014 39 10000 8.2 70 16:20 20.04.2020
5416 Clouds 17 1012 44 10000 8.7 50 15:56 20.04.2020
5417 Clouds 17 1013 44 10000 9.3 80 15:38 20.04.2020
5418 Clouds 17 1013 44 10000 9.3 60 15:19 20.04.2020
5419 Clouds 17 1013 48 0 1.34 273 14:42 20.04.2020
5420 Clouds 16 1013 47 0 1.34 355 14:19 20.04.2020
5421 Clouds 16 1014 47 0 1.34 21 13:58 20.04.2020
5422 Clouds 16 1014 47 0 1.34 21 13:58 20.04.2020
5423 Clouds 15 1014 49 0 1.34 134 13:39 20.04.2020
5424 Clouds 15 1014 50 0 1.34 285 13:20 20.04.2020
5425 Clouds 15 1014 50 0 1.34 15 12:44 20.04.2020
5426 Clouds 10 1013 51 0 6.67 79 12:24 20.04.2020
5427 Clouds 10 1013 51 0 6.67 79 11:58 20.04.2020
5428 Clouds 13 1014 47 0 4.47 91 11:38 20.04.2020
5429 Clouds 12 1015 59 0 0.45 227 11:19 20.04.2020
5430 Clouds 11 1014 59 0 0.89 98 10:55 20.04.2020
5431 Clouds 10 1014 58 0 0.89 188 10:36 20.04.2020
5432 Clouds 9 1014 61 0 0.45 194 10:18 20.04.2020
5433 Clouds 9 1014 60 0 0.89 312 09:44 20.04.2020
5434 Clouds 8 1015 59 0 0.89 20 09:25 20.04.2020
5435 Clouds 8 1015 58 0 0.45 15 08:59 20.04.2020
5436 Clouds 8 1015 59 0 0.45 33 08:40 20.04.2020
5437 Clouds 8 1014 62 0 0.89 194 08:19 20.04.2020
5438 Clouds 7 1015 60 0 0.45 19 07:52 20.04.2020
5439 Clouds 7 1015 59 0 6.15 77 07:28 20.04.2020
5440 Clouds 8 1015 58 0 0.45 5 06:54 20.04.2020
5441 Clouds 8 1014 57 0 0.45 344 06:35 20.04.2020
5442 Clouds 8 1013 51 0 0.45 330 05:33 20.04.2020
5443 Clouds 9 1014 57 0 0.45 82 03:36 20.04.2020
5444 Clouds 7 1015 67 0 6.09 81 02:42 20.04.2020
5445 Clouds 10 1015 68 0 0.45 37 01:32 20.04.2020
5446 Clouds 10 1015 68 0 0.45 37 01:32 20.04.2020
5447 Clouds 10 1014 66 0 0.89 320 00:58 20.04.2020
5448 Clouds 11 1015 74 0 0.45 78 00:34 20.04.2020
5449 Clouds 11 1015 78 0 0.45 344 23:56 19.04.2020
5450 Clouds 12 1015 78 0 0.45 32 23:37 19.04.2020
5451 Clouds 12 1015 78 0 0.45 304 23:19 19.04.2020
5452 Clouds 12 1015 75 0 3.58 106 22:40 19.04.2020
5453 Clouds 13 1015 73 0 4.02 99 22:22 19.04.2020
5454 Clouds 13 1015 71 0 3.13 127 21:58 19.04.2020
5455 Rain 14 1015 74 0 0.45 19 21:39 19.04.2020
5456 Rain 14 1015 74 0 0.89 50 21:20 19.04.2020
5457 Rain 14 1014 67 0 2.68 70 20:55 19.04.2020
5458 Rain 14 1014 66 0 2.24 33 20:36 19.04.2020
5459 Rain 16 1014 71 0 1.34 38 20:18 19.04.2020
5460 Rain 17 1012 61 0 4.66 78 19:41 19.04.2020
5461 Rain 18 1012 61 0 4.66 78 19:22 19.04.2020
5462 Rain 18 1012 61 0 4.66 78 18:58 19.04.2020
5463 Rain 18 1013 58 0 4.47 59 18:40 19.04.2020
5464 Rain 18 1013 58 0 4.47 59 18:40 19.04.2020
5465 Rain 18 1013 58 0 0.89 82 18:20 19.04.2020
5466 Rain 19 1013 57 0 0.89 62 17:59 19.04.2020
5467 Rain 19 1013 57 0 0.45 38 17:40 19.04.2020
5468 Rain 19 1013 57 0 0.45 18 17:22 19.04.2020
5469 Rain 19 1013 57 0 0.45 77 16:58 19.04.2020
5470 Rain 19 1013 58 0 0.45 159 16:39 19.04.2020
5471 Rain 19 1013 58 0 0.89 42 16:21 19.04.2020
5472 Rain 19 1014 58 0 0.45 84 15:54 19.04.2020
5473 Rain 20 1014 53 0 0.45 9 15:36 19.04.2020
5474 Rain 20 1014 53 0 0.45 22 15:18 19.04.2020
5475 Rain 20 1011 45 0 0.45 323 14:38 19.04.2020
5476 Rain 20 1014 50 0 0.45 134 14:20 19.04.2020
5477 Rain 20 1014 57 0 2.24 57 13:54 19.04.2020
5478 Rain 19 1011 47 0 1.79 319 13:36 19.04.2020
5479 Rain 20 1015 52 0 0.45 190 13:18 19.04.2020
5480 Rain 19 1015 55 0 0.45 265 12:42 19.04.2020
5481 Rain 18 1012 55 0 0.45 319 12:23 19.04.2020
5482 Rain 18 1015 62 0 1.79 290 11:39 19.04.2020
5483 Rain 18 1014 63 0 1.34 150 11:20 19.04.2020
5484 Rain 17 1012 63 0 2.52 317 10:59 19.04.2020
5485 Rain 17 1012 64 0 2.52 317 10:41 19.04.2020
5486 Rain 17 1012 64 0 2.52 317 10:41 19.04.2020
5487 Rain 17 1016 66 0 2.52 317 10:20 19.04.2020
5488 Rain 16 1016 68 0 2.52 317 09:55 19.04.2020
5489 Rain 16 1016 73 0 0.45 225 09:36 19.04.2020
5490 Clouds 15 1014 76 0 1.34 0 09:18 19.04.2020
5491 Clouds 13 1015 94 0 2.63 254 08:39 19.04.2020
5492 Clouds 13 1015 94 0 2.63 254 08:20 19.04.2020
5493 Clouds 11 1015 93 0 2.63 254 07:45 19.04.2020
5494 Clouds 11 1015 93 0 2.82 260 07:25 19.04.2020
5495 Clouds 11 1015 93 0 2.82 260 06:56 19.04.2020
5496 Rain 11 1015 92 0 2.71 245 06:22 19.04.2020
5497 Rain 12 1015 91 0 2.71 245 04:57 19.04.2020
5498 Rain 13 1015 92 0 2.71 245 03:40 19.04.2020
5499 Rain 12 1015 91 0 2.9 254 02:23 19.04.2020
5500 Rain 12 1015 91 0 2.9 254 01:58 19.04.2020
5501 Rain 12 1015 90 0 2.9 254 01:22 19.04.2020
5502 Rain 13 1015 90 0 2.9 254 00:41 19.04.2020
5503 Rain 13 1015 89 0 2.88 233 00:19 19.04.2020
5504 Rain 14 1016 87 0 2.88 233 23:43 18.04.2020
5505 Rain 14 1016 86 0 2.88 233 23:19 18.04.2020
5506 Rain 14 1014 85 0 2.88 233 22:55 18.04.2020
5507 Rain 14 1016 80 0 2.88 233 22:37 18.04.2020
5508 Rain 14 1016 79 0 2.88 233 22:18 18.04.2020
5509 Rain 14 1015 73 0 0.45 282 21:42 18.04.2020
5510 Rain 15 1016 75 0 1.67 239 21:22 18.04.2020
5511 Rain 15 1016 73 0 1.67 239 20:59 18.04.2020
5512 Rain 16 1015 71 0 1.67 239 20:40 18.04.2020
5513 Rain 17 1015 68 0 1.67 239 20:21 18.04.2020
5514 Rain 18 1015 65 0 1.67 239 19:43 18.04.2020
5515 Rain 18 1015 64 0 1.67 239 19:25 18.04.2020
5516 Rain 18 1015 63 0 1.67 239 19:25 18.04.2020
5517 Rain 19 1014 63 0 1.67 239 18:58 18.04.2020
5518 Rain 18 1015 63 0 0.45 39 18:36 18.04.2020
5519 Rain 19 1015 64 0 0.89 51 18:18 18.04.2020
5520 Rain 22 1014 44 0 3.13 283 17:41 18.04.2020
5521 Rain 23 1013 43 0 1.79 318 17:21 18.04.2020
5522 Rain 23 1013 40 0 1.34 295 16:56 18.04.2020
5523 Rain 23 1013 40 0 0.89 282 16:36 18.04.2020
5524 Rain 23 1013 40 0 0.89 282 16:36 18.04.2020
5525 Rain 24 1014 39 0 0.45 202 16:18 18.04.2020
5526 Rain 20 1015 46 0 2.23 295 15:38 18.04.2020
5527 Rain 20 1015 46 0 2.23 295 15:20 18.04.2020
5528 Rain 23 1014 43 0 1.34 360 14:45 18.04.2020
5529 Rain 23 1015 43 0 0.45 217 14:26 18.04.2020
5530 Rain 23 1015 44 0 0.45 325 13:56 18.04.2020
5531 Rain 23 1015 44 0 0.45 171 13:38 18.04.2020
5532 Rain 23 1015 42 0 0.45 213 13:18 18.04.2020
5533 Rain 22 1012 41 0 0.45 299 12:41 18.04.2020
5534 Clouds 16 1016 63 0 1.96 273 12:22 18.04.2020
5535 Clouds 16 1016 63 0 1.96 273 11:43 18.04.2020
5536 Clouds 16 1016 63 0 1.96 273 11:25 18.04.2020
5537 Clouds 16 1016 63 0 1.96 273 10:58 18.04.2020
5538 Clouds 16 1016 63 0 1.96 273 10:39 18.04.2020
5539 Clouds 18 1057 45 0 0.89 281 10:19 18.04.2020
5540 Clouds 17 1013 51 0 0.45 294 09:55 18.04.2020
5541 Clouds 17 1013 52 0 0.89 300 09:37 18.04.2020
5542 Rain 14 1058 53 0 1.79 329 09:18 18.04.2020
5543 Rain 13 1016 77 0 1.5 237 08:39 18.04.2020
5544 Rain 12 1016 79 0 1.5 237 08:20 18.04.2020
5545 Rain 10 1016 84 0 1.5 237 07:38 18.04.2020
5546 Rain 9 1016 85 0 1.5 237 07:19 18.04.2020
5547 Clouds 9 1015 83 0 1.68 214 06:30 18.04.2020
5548 Clouds 9 1015 83 0 1.68 214 05:43 18.04.2020
5549 Clouds 8 1015 83 0 1.68 214 04:47 18.04.2020
5550 Clouds 8 1015 83 0 1.68 214 04:47 18.04.2020
5551 Clouds 8 1015 83 0 1.68 214 04:28 18.04.2020
5552 Rain 10 1015 79 0 1.21 213 02:58 18.04.2020
5553 Rain 10 1015 78 0 1.21 213 02:40 18.04.2020
5554 Rain 11 1015 75 0 1.55 196 02:19 18.04.2020
5555 Rain 11 1015 71 0 1.55 196 01:36 18.04.2020
5556 Rain 12 1015 69 0 1.55 196 00:54 18.04.2020
5557 Rain 13 1015 69 0 0.87 264 00:24 18.04.2020
5558 Rain 14 1015 69 0 0.87 264 23:57 17.04.2020
5559 Rain 14 1015 69 0 0.87 264 23:57 17.04.2020
5560 Rain 13 1015 69 0 0.87 264 23:39 17.04.2020
5561 Rain 13 1015 72 0 0.87 264 23:19 17.04.2020
5562 Rain 14 1015 71 0 0.87 264 22:58 17.04.2020
5563 Rain 14 1015 71 0 0.87 264 22:58 17.04.2020
5564 Rain 14 1015 68 0 0.87 264 22:40 17.04.2020
5565 Rain 15 1015 65 0 0.87 264 22:19 17.04.2020
5566 Rain 15 1015 63 0 0.87 264 21:57 17.04.2020
5567 Clouds 17 1015 59 0 0.62 335 21:38 17.04.2020
5568 Clouds 18 1013 45 0 0.62 335 21:18 17.04.2020
5569 Clouds 20 1013 45 0 0.62 335 20:55 17.04.2020
5570 Clouds 20 1013 45 0 0.62 335 20:36 17.04.2020
5571 Clouds 20 1013 45 0 0.62 335 20:36 17.04.2020
5572 Clouds 20 1013 45 0 0.62 335 20:36 17.04.2020
5573 Clouds 20 1013 45 0 0.62 335 20:18 17.04.2020
5574 Clouds 22 1013 42 0 0.89 44 19:42 17.04.2020
5575 Clouds 22 1014 39 0 0.62 335 19:23 17.04.2020
5576 Clouds 22 1013 41 0 0.89 34 18:47 17.04.2020
5577 Clouds 23 1014 37 0 1.6 340 18:25 17.04.2020
5578 Clouds 23 1014 35 0 1.6 340 17:58 17.04.2020
5579 Clouds 24 1014 33 0 1.6 340 17:37 17.04.2020
5580 Clouds 24 1014 34 0 1.6 340 17:19 17.04.2020
5581 Clouds 23 1013 38 0 1.34 46 16:44 17.04.2020
5582 Clouds 24 1014 34 0 1.6 340 16:23 17.04.2020
5583 Clouds 24 1015 34 0 1.6 340 15:58 17.04.2020
5584 Clouds 24 1015 34 0 1.6 340 15:38 17.04.2020
5585 Clouds 24 1015 33 0 1.39 349 15:19 17.04.2020
5586 Clouds 23 1014 35 0 1.34 265 14:41 17.04.2020
5587 Clouds 23 1014 36 0 1.34 259 14:41 17.04.2020
5588 Clouds 24 1015 34 0 0.45 199 14:22 17.04.2020
5589 Clouds 24 1015 33 0 0.45 199 13:58 17.04.2020
5590 Clouds 22 1016 35 10000 2.1 300 13:37 17.04.2020
5591 Clouds 22 1017 34 10000 2.6 240 13:19 17.04.2020
5592 Clouds 22 1017 37 10000 2.1 240 12:48 17.04.2020
5593 Clouds 20 1017 37 10000 2.1 240 12:26 17.04.2020
5594 Clouds 20 1017 39 10000 3.1 240 11:58 17.04.2020
5595 Clouds 19 1017 45 10000 3.1 240 11:38 17.04.2020
5596 Clouds 19 1017 45 10000 3.1 240 11:19 17.04.2020
5597 Clouds 17 1017 45 10000 2.6 220 10:40 17.04.2020
5598 Clouds 17 1017 45 10000 2.6 220 10:20 17.04.2020
5599 Clouds 16 1017 58 10000 2.1 230 09:55 17.04.2020
5600 Clouds 16 1017 58 10000 2.1 230 09:55 17.04.2020
5601 Clouds 12 1017 66 10000 3.1 220 09:36 17.04.2020
5602 Clouds 11 1017 76 10000 1 0 09:18 17.04.2020
5603 Clouds 10 1017 76 10000 1 0 08:45 17.04.2020
5604 Clouds 9 1017 71 10000 1 0 08:26 17.04.2020
5605 Clouds 8 1017 81 10000 3.6 220 07:56 17.04.2020
5606 Clouds 7 1017 81 10000 2.1 220 07:38 17.04.2020
5607 Clouds 7 1017 81 10000 2.1 220 07:18 17.04.2020
5608 Clouds 7 1017 75 10000 1 190 06:40 17.04.2020
5609 Clouds 7 1017 75 10000 2.6 220 05:58 17.04.2020
5610 Clouds 7 1017 65 10000 1.5 220 03:23 17.04.2020
5611 Clouds 7 1017 70 10000 2.1 190 02:50 17.04.2020
5612 Clouds 8 1017 68 10000 1.5 200 01:41 17.04.2020
5613 Clouds 8 1017 70 10000 1.5 160 01:19 17.04.2020
5614 Clouds 9 1017 75 10000 2.1 170 00:21 17.04.2020
5615 Clouds 9 1017 70 10000 2.6 180 23:55 16.04.2020
5616 Clouds 10 1017 66 10000 1 0 23:37 16.04.2020
5617 Clouds 10 1017 66 10000 1 0 23:19 16.04.2020
5618 Clouds 11 1017 57 10000 1.5 150 22:40 16.04.2020
5619 Clouds 11 1017 57 10000 2.1 150 22:22 16.04.2020
5620 Clouds 12 1017 57 10000 2.6 150 21:59 16.04.2020
5621 Clouds 12 1017 57 10000 2.6 150 21:40 16.04.2020
5622 Clouds 13 1017 54 10000 1.5 150 21:19 16.04.2020
5623 Clouds 15 1016 50 10000 1.5 200 20:43 16.04.2020
5624 Clouds 18 1016 31 10000 1 220 20:23 16.04.2020
5625 Clouds 19 1016 64 10000 1 200 19:59 16.04.2020
5626 Clouds 20 1016 29 10000 1.5 250 19:39 16.04.2020
5627 Clouds 20 1016 29 10000 1.5 250 19:20 16.04.2020
5628 Clouds 20 1017 30 10000 1.5 240 18:57 16.04.2020
5629 Clouds 20 1017 64 10000 2.1 260 18:38 16.04.2020
5630 Clouds 20 1017 40 10000 2.1 260 18:20 16.04.2020
5631 Clouds 21 1017 40 10000 3.6 270 17:45 16.04.2020
5632 Clouds 21 1017 24 10000 4.6 290 17:26 16.04.2020
5633 Clouds 21 1017 24 10000 3.1 270 17:00 16.04.2020
5634 Clouds 21 1017 24 10000 3.1 270 17:00 16.04.2020
5635 Clouds 21 1017 24 10000 3.1 270 16:59 16.04.2020
5636 Clouds 21 1017 24 10000 3.1 270 16:41 16.04.2020
5637 Clouds 21 1018 40 10000 4.1 290 16:19 16.04.2020
5638 Clouds 21 1018 22 10000 3.6 330 15:44 16.04.2020
5639 Clouds 21 1018 24 10000 3.1 320 15:19 16.04.2020
5640 Clouds 20 1018 24 10000 4.1 340 14:58 16.04.2020
5641 Clouds 20 1018 28 10000 4.1 320 14:39 16.04.2020
5642 Clouds 20 1018 28 10000 4.1 320 14:19 16.04.2020
5643 Clouds 19 1019 25 10000 4.6 320 13:57 16.04.2020
5644 Clouds 19 1019 25 10000 4.6 320 13:37 16.04.2020
5645 Clouds 19 1019 24 10000 4.6 280 13:37 16.04.2020
5646 Clouds 19 1019 24 10000 4.6 280 13:19 16.04.2020
5647 Clouds 19 1019 33 10000 4.6 250 12:56 16.04.2020
5648 Clouds 18 1019 33 10000 4.6 250 12:38 16.04.2020
5649 Clouds 17 1019 31 10000 4.6 240 12:19 16.04.2020
5650 Clouds 16 1019 36 10000 4.1 250 11:55 16.04.2020
5651 Clouds 16 1019 38 10000 3.6 250 11:37 16.04.2020
5652 Clouds 16 1019 38 10000 3.6 250 11:18 16.04.2020
5653 Clouds 15 1019 38 10000 4.1 250 10:40 16.04.2020
5654 Clouds 14 1019 41 10000 4.1 230 10:19 16.04.2020
5655 Clouds 12 1019 50 10000 1.5 220 09:59 16.04.2020
5656 Clouds 11 1019 50 10000 1.5 220 09:38 16.04.2020
5657 Clouds 7 1020 57 10000 2.6 230 09:20 16.04.2020
5658 Clouds 6 1020 65 10000 3.6 210 08:45 16.04.2020
5659 Clouds 5 1020 75 10000 2.1 200 08:25 16.04.2020
5660 Clouds 3 1019 74 10000 1.5 190 07:58 16.04.2020
5661 Clouds 2 1019 80 10000 4.1 210 07:39 16.04.2020
5662 Clouds 1 1019 80 10000 4.1 210 07:20 16.04.2020
5663 Clouds 1 1019 74 10000 1.5 200 06:40 16.04.2020
5664 Clouds 1 1019 74 10000 1.5 200 06:22 16.04.2020
5665 Clouds 2 1019 74 10000 2.6 210 04:52 16.04.2020
5666 Clouds 3 1020 64 10000 0.5 0 03:25 16.04.2020
5667 Clouds 3 1020 74 10000 1 170 02:58 16.04.2020
5668 Clouds 3 1020 74 10000 1 170 02:34 16.04.2020
5669 Clouds 5 1021 52 10000 1.5 20 01:28 16.04.2020
5670 Clouds 5 1021 52 10000 0.5 0 00:53 16.04.2020
5671 Clouds 6 1021 48 10000 1.5 150 00:21 16.04.2020
5672 Clouds 7 1021 42 10000 1.5 80 23:55 15.04.2020
5673 Clouds 7 1021 42 10000 1.5 80 23:36 15.04.2020
5674 Clouds 7 1021 45 10000 2.1 110 23:18 15.04.2020
5675 Clouds 8 1022 39 10000 2.6 80 22:39 15.04.2020
5676 Clouds 9 1022 39 10000 2.6 80 22:20 15.04.2020
5677 Clouds 9 1022 37 10000 2.1 90 21:56 15.04.2020
5678 Clouds 10 1022 37 10000 2.1 90 21:38 15.04.2020
5679 Clear 10 1021 37 10000 2.1 50 21:20 15.04.2020
5680 Clear 12 1021 34 10000 3.1 30 20:55 15.04.2020
5681 Clear 12 1021 34 10000 3.1 30 20:55 15.04.2020
5682 Clear 12 1021 34 10000 3.1 30 20:37 15.04.2020
5683 Clear 13 1021 30 10000 3.1 40 20:19 15.04.2020
5684 Clear 15 1021 30 10000 4.1 20 19:41 15.04.2020
5685 Clear 16 1021 26 10000 4.6 20 19:20 15.04.2020
5686 Clear 16 1021 26 10000 4.6 20 19:20 15.04.2020
5687 Clear 16 1021 23 10000 4.6 20 18:54 15.04.2020
5688 Clear 16 1021 25 10000 4.6 20 18:36 15.04.2020
5689 Clear 16 1021 25 10000 4.6 20 18:18 15.04.2020
5690 Clear 16 1022 23 10000 4.6 30 17:40 15.04.2020
5691 Clear 16 1022 23 10000 4.6 30 17:40 15.04.2020
5692 Clear 16 1022 21 10000 3.6 30 17:20 15.04.2020
5693 Clear 16 1022 21 10000 3.1 340 16:57 15.04.2020
5694 Clear 16 1022 21 10000 3.1 340 16:38 15.04.2020
5695 Clear 16 1022 21 10000 3.1 340 16:38 15.04.2020
5696 Clear 16 1022 23 10000 3.6 10 16:19 15.04.2020
5697 Clear 16 1023 19 10000 1.5 0 15:58 15.04.2020
5698 Clouds 16 1023 24 10000 2.1 0 15:39 15.04.2020
5699 Clouds 15 1023 24 10000 2.1 0 15:19 15.04.2020
5700 Clouds 15 1023 26 10000 3.6 30 14:58 15.04.2020
5701 Clear 15 1023 26 10000 3.6 30 14:39 15.04.2020
5702 Clear 15 1024 30 10000 2.1 360 14:21 15.04.2020
5703 Clear 14 1024 25 10000 2.6 90 13:58 15.04.2020
5704 Clear 13 1024 25 10000 2.6 90 13:39 15.04.2020
5705 Clear 12 1024 29 10000 3.1 100 13:20 15.04.2020
5706 Clear 12 1024 32 10000 2.6 50 12:56 15.04.2020
5707 Clear 11 1024 37 10000 3.1 40 12:38 15.04.2020
5708 Clear 11 1024 37 10000 3.1 40 12:20 15.04.2020
5709 Clear 10 1024 42 10000 3.6 50 11:44 15.04.2020
5710 Clear 9 1024 39 10000 3.6 80 11:25 15.04.2020
5711 Clear 8 1024 45 10000 4.1 70 10:58 15.04.2020
5712 Clear 8 1024 45 10000 4.1 70 10:37 15.04.2020
5713 Clear 7 1024 48 10000 3.6 80 10:19 15.04.2020
5714 Clear 5 1024 52 10000 3.1 80 09:55 15.04.2020
5715 Clear 3 1024 59 10000 2.1 40 09:37 15.04.2020
5716 Clear 3 1024 59 10000 2.1 40 09:18 15.04.2020
5717 Clear 1 1024 59 10000 1.5 80 08:41 15.04.2020
5718 Clear 1 1024 59 10000 1.5 80 08:41 15.04.2020
5719 Clear 0 1024 69 10000 1.5 90 08:21 15.04.2020
5720 Clear -1 1023 61 10000 1.5 130 07:57 15.04.2020
5721 Clear -3 1023 73 10000 2.1 130 07:38 15.04.2020
5722 Clear -3 1024 68 10000 2.6 100 06:49 15.04.2020
5723 Clear -3 1023 68 10000 1.5 10 06:24 15.04.2020
5724 Clear -3 1023 73 10000 1 0 05:23 15.04.2020
5725 Clear -3 1023 68 10000 1.5 150 04:46 15.04.2020
5726 Clear -3 1023 68 10000 1 0 04:18 15.04.2020
5727 Clear -2 1023 63 10000 2.1 130 03:22 15.04.2020
5728 Clear -2 1024 75 10000 2.6 140 02:45 15.04.2020
5729 Clear -2 1025 63 10000 1.5 130 01:51 15.04.2020
5730 Clear -2 1025 79 10000 1 120 01:25 15.04.2020
5731 Clear -1 1024 74 10000 2.6 140 00:47 15.04.2020
5732 Clear -1 1025 74 10000 1 130 00:24 15.04.2020
5733 Clear -1 1024 68 10000 0.5 0 23:56 14.04.2020
5734 Clear -1 1024 68 10000 0.5 0 23:38 14.04.2020
5735 Clear 0 1024 68 10000 0.71 144 23:20 14.04.2020
5736 Clear 0 1024 70 10000 1 160 22:56 14.04.2020
5737 Clear 0 1024 70 10000 1 160 22:38 14.04.2020
5738 Clear 1 1024 70 10000 1.5 60 22:20 14.04.2020
5739 Clear 2 1024 51 10000 2.6 30 21:56 14.04.2020
5740 Clear 2 1024 51 10000 2.6 30 21:38 14.04.2020
5741 Clouds 3 1024 51 10000 2.6 30 21:19 14.04.2020
5742 Clouds 4 1023 47 10000 3.1 10 20:55 14.04.2020
5743 Clouds 5 1023 44 10000 3.6 10 20:36 14.04.2020
5744 Clouds 5 1023 44 10000 3.6 10 20:36 14.04.2020
5745 Clouds 5 1023 44 10000 3.6 10 20:18 14.04.2020
5746 Clouds 6 1023 41 10000 3.6 20 19:41 14.04.2020
5747 Clouds 6 1023 38 10000 4.1 360 19:22 14.04.2020
5748 Clouds 7 1023 38 10000 3.6 30 18:58 14.04.2020
5749 Clouds 7 1022 35 10000 2.6 350 18:39 14.04.2020
5750 Clouds 7 1022 35 10000 2.6 350 18:21 14.04.2020
5751 Clouds 7 1022 39 10000 2.1 310 17:58 14.04.2020
5752 Clouds 7 1022 35 10000 2.6 310 17:38 14.04.2020
5753 Clouds 7 1022 35 10000 2.6 310 17:19 14.04.2020
5754 Clouds 8 1022 38 10000 3.6 320 16:56 14.04.2020
5755 Clouds 7 1022 38 10000 3.6 320 16:38 14.04.2020
5756 Clouds 7 1022 39 10000 3.6 0 16:19 14.04.2020
5757 Clouds 7 1023 38 10000 4.1 330 15:56 14.04.2020
5758 Clouds 7 1023 35 10000 2.1 0 15:37 14.04.2020
5759 Clouds 7 1023 35 10000 2.1 0 15:18 14.04.2020
5760 Clouds 7 1023 33 10000 4.1 330 14:55 14.04.2020
5761 Clouds 7 1023 33 10000 4.1 330 14:37 14.04.2020
5762 Clouds 7 1022 32 10000 2.1 360 14:19 14.04.2020
5763 Clouds 7 1022 38 10000 3.6 290 13:43 14.04.2020
5764 Clouds 6 1022 41 10000 2.1 0 13:24 14.04.2020
5765 Clouds 6 1022 41 10000 1.5 0 12:56 14.04.2020
5766 Clouds 6 1022 44 10000 4.1 330 12:37 14.04.2020
5767 Clouds 5 1022 44 10000 4.1 330 12:18 14.04.2020
5768 Clouds 5 1022 47 10000 4.1 340 11:40 14.04.2020
5769 Clouds 5 1022 48 10000 4.6 20 11:22 14.04.2020
5770 Clouds 5 1022 47 10000 3.6 330 10:55 14.04.2020
5771 Clouds 5 1021 51 10000 4.1 340 10:37 14.04.2020
5772 Clouds 4 1021 51 10000 4.1 340 10:18 14.04.2020
5773 Clouds 4 1021 51 10000 4.6 350 09:41 14.04.2020
5774 Clouds 2 1021 51 10000 4.6 360 09:22 14.04.2020
5775 Clouds 1 1023 70 0 2.57 338 08:55 14.04.2020
5776 Clouds 1 1023 70 0 2.57 338 08:36 14.04.2020
5777 Clouds 1 1021 59 10000 4.6 10 08:18 14.04.2020
5778 Clouds 1 1023 70 0 2.57 338 07:49 14.04.2020
5779 Clouds 1 1020 55 10000 3.6 340 07:25 14.04.2020
5780 Clouds 1 1023 70 0 2.57 338 06:45 14.04.2020
5781 Clouds 1 1023 70 0 2.57 338 06:45 14.04.2020
5782 Clouds 2 1020 55 10000 2.6 360 05:43 14.04.2020
5783 Clouds 2 1020 55 10000 2.6 360 05:43 14.04.2020
5784 Clouds 3 1019 80 10000 1.5 190 03:28 14.04.2020
5785 Snow 4 1019 64 10000 2.1 30 02:34 14.04.2020
5786 Snow 4 1019 69 10000 3.6 20 01:27 14.04.2020
5787 Snow 5 1019 60 10000 6.2 20 00:50 14.04.2020
5788 Clouds 5 1017 67 10000 6.7 350 00:24 14.04.2020
5789 Clouds 6 1017 67 10000 6.7 350 23:59 13.04.2020
5790 Clouds 6 1017 60 10000 7.7 340 23:37 13.04.2020
5791 Clouds 6 1017 60 10000 7.7 340 23:19 13.04.2020
5792 Clouds 7 1017 75 10000 7.7 350 22:54 13.04.2020
5793 Clouds 7 1017 75 10000 7.7 350 22:36 13.04.2020
5794 Clouds 8 1016 75 10000 6.7 330 22:18 13.04.2020
5795 Clouds 9 1016 76 10000 6.2 350 21:41 13.04.2020
5796 Rain 9 1015 81 10000 5.1 360 21:21 13.04.2020
5797 Rain 10 1014 76 10000 6.2 350 20:58 13.04.2020
5798 Rain 10 1014 76 10000 6.2 350 20:58 13.04.2020
5799 Rain 10 1014 76 10000 6.2 350 20:40 13.04.2020
5800 Rain 11 1014 71 10000 6.2 340 20:19 13.04.2020
5801 Rain 12 1013 66 10000 7.7 350 19:58 13.04.2020
5802 Rain 13 1013 66 10000 9.3 340 19:37 13.04.2020
5803 Rain 13 1013 66 10000 9.3 340 19:19 13.04.2020
5804 Rain 14 1013 48 10000 8.2 340 18:57 13.04.2020
5805 Rain 16 1012 45 10000 8.2 340 18:37 13.04.2020
5806 Rain 16 1012 45 10000 8.2 340 18:18 13.04.2020
5807 Rain 17 1012 36 10000 8.2 340 17:56 13.04.2020
5808 Rain 18 1012 36 10000 8.2 340 17:37 13.04.2020
5809 Rain 19 1012 45 10000 6.7 300 17:19 13.04.2020
5810 Rain 19 1012 45 10000 6.7 300 17:19 13.04.2020
5811 Rain 19 1012 45 10000 6.7 300 17:19 13.04.2020
5812 Rain 19 1012 45 10000 6.7 300 17:19 13.04.2020
5813 Rain 19 1012 28 10000 6.2 290 16:58 13.04.2020
5814 Rain 19 1012 28 10000 6.2 290 16:38 13.04.2020
5815 Rain 19 1012 37 10000 6.7 320 16:19 13.04.2020
5816 Rain 19 1012 39 10000 6.2 330 15:55 13.04.2020
5817 Rain 19 1012 39 10000 6.2 330 15:37 13.04.2020
5818 Rain 19 1012 32 10000 7.7 280 15:18 13.04.2020
5819 Rain 19 1012 32 10000 5.1 260 14:41 13.04.2020
5820 Rain 19 1013 37 10000 4.1 250 14:22 13.04.2020
5821 Rain 19 1013 37 10000 5.1 260 13:56 13.04.2020
5822 Rain 19 1014 39 10000 6.2 300 13:38 13.04.2020
5823 Rain 19 1014 39 10000 6.2 300 13:20 13.04.2020
5824 Rain 19 1014 39 10000 4.6 270 12:59 13.04.2020
5825 Rain 19 1014 39 10000 4.6 270 12:40 13.04.2020
5826 Rain 18 1014 39 10000 4.1 250 12:20 13.04.2020
5827 Rain 17 1014 45 10000 4.1 290 11:58 13.04.2020
5828 Rain 17 1014 45 10000 4.1 290 11:40 13.04.2020
5829 Rain 16 1014 42 10000 4.6 280 11:18 13.04.2020
5830 Rain 16 1014 45 10000 5.1 270 10:55 13.04.2020
5831 Rain 16 1014 45 10000 5.1 270 10:37 13.04.2020
5832 Rain 16 1014 42 10000 4.1 250 10:18 13.04.2020
5833 Rain 15 1014 48 10000 3.6 220 09:44 13.04.2020
5834 Clouds 13 1014 47 10000 3.1 240 09:26 13.04.2020
5835 Clouds 12 1014 58 10000 1 0 08:49 13.04.2020
5836 Clouds 11 1014 70 10000 1 110 08:30 13.04.2020
5837 Clouds 9 1013 70 10000 0.5 0 07:59 13.04.2020
5838 Clouds 9 1013 66 10000 2.6 220 07:39 13.04.2020
5839 Clouds 9 1013 66 10000 2.6 220 07:20 13.04.2020
5840 Clouds 9 1013 76 10000 3.1 210 06:47 13.04.2020
5841 Clouds 9 1014 76 10000 3.6 220 05:59 13.04.2020
5842 Clouds 9 1014 71 10000 4.6 220 05:30 13.04.2020
5843 Clouds 9 1014 71 10000 3.1 200 04:53 13.04.2020
5844 Clouds 10 1013 66 10000 2.1 160 04:23 13.04.2020
5845 Clouds 10 1014 62 10000 1.5 130 03:47 13.04.2020
5846 Rain 10 1014 66 10000 3.6 210 02:59 13.04.2020
5847 Clouds 10 1014 66 10000 3.1 250 02:25 13.04.2020
5848 Clouds 10 1014 62 10000 1.5 150 01:42 13.04.2020
5849 Clouds 10 1014 66 10000 1.5 0 01:23 13.04.2020
5850 Clouds 10 1014 54 10000 1 0 00:42 13.04.2020
5851 Rain 11 1014 50 10000 4.1 320 00:20 13.04.2020
5852 Rain 11 1014 47 10000 5.7 340 23:48 12.04.2020
5853 Rain 11 1014 41 10000 3.1 0 23:23 12.04.2020
5854 Rain 12 1014 36 10000 2.6 40 22:58 12.04.2020
5855 Rain 12 1014 66 10000 2.1 220 22:37 12.04.2020
5856 Rain 12 1014 66 10000 2.1 220 22:19 12.04.2020
5857 Rain 14 1014 47 10000 1 0 21:41 12.04.2020
5858 Rain 15 1014 38 10000 1 0 21:22 12.04.2020
5859 Rain 15 1014 38 10000 0.5 0 20:59 12.04.2020
5860 Rain 16 1014 38 10000 0.5 0 20:40 12.04.2020
5861 Rain 18 1014 39 10000 0.5 0 20:22 12.04.2020
5862 Rain 19 1014 29 10000 0.5 0 19:56 12.04.2020
5863 Rain 19 1014 29 10000 0.5 0 19:56 12.04.2020
5864 Rain 20 1014 32 10000 0.5 0 19:38 12.04.2020
5865 Rain 20 1014 32 10000 0.5 0 19:18 12.04.2020
5866 Rain 21 1014 68 10000 1.5 330 18:41 12.04.2020
5867 Clouds 21 1015 28 10000 3.1 220 18:23 12.04.2020
5868 Clouds 22 1015 28 10000 3.1 220 17:58 12.04.2020
5869 Clouds 22 1015 28 10000 3.1 220 17:40 12.04.2020
5870 Clouds 22 1015 28 10000 2.1 310 17:21 12.04.2020
5871 Clouds 22 1015 30 10000 3.1 310 16:58 12.04.2020
5872 Clouds 22 1016 24 10000 2.1 0 16:39 12.04.2020
5873 Clouds 22 1016 24 10000 2.1 0 16:20 12.04.2020
5874 Clouds 22 1016 28 10000 3.6 240 15:48 12.04.2020
5875 Clear 22 1016 28 10000 3.1 0 15:29 12.04.2020
5876 Clear 22 1017 32 10000 1.5 0 14:54 12.04.2020
5877 Clear 22 1017 32 10000 1.5 0 14:36 12.04.2020
5878 Clear 22 1017 28 10000 3.6 320 14:18 12.04.2020
5879 Clear 22 1017 28 10000 3.6 320 14:18 12.04.2020
5880 Clear 21 1018 30 10000 2.6 0 13:42 12.04.2020
5881 Clear 21 1018 31 10000 2.1 280 13:23 12.04.2020
5882 Clear 21 1018 31 10000 3.1 280 12:55 12.04.2020
5883 Clear 20 1019 40 10000 2.1 220 12:37 12.04.2020
5884 Clear 20 1019 40 10000 2.1 220 12:18 12.04.2020
5885 Clear 20 1019 39 10000 2.1 200 11:55 12.04.2020
5886 Clear 19 1019 39 10000 2.1 200 11:36 12.04.2020
5887 Clear 18 1019 45 10000 2.1 210 11:18 12.04.2020
5888 Clear 17 1019 51 10000 1.5 190 10:54 12.04.2020
5889 Clear 16 1019 51 10000 1.5 190 10:36 12.04.2020
5890 Clear 15 1020 54 10000 1.5 260 10:18 12.04.2020
5891 Clear 12 1020 58 10000 2.1 250 09:40 12.04.2020
5892 Clear 10 1020 66 10000 0.5 0 09:40 12.04.2020
5893 Clear 9 1020 70 10000 1 0 09:21 12.04.2020
5894 Clear 10 1020 62 10000 1 0 08:55 12.04.2020
5895 Clear 9 1020 62 10000 1 0 08:37 12.04.2020
5896 Clear 7 1020 81 10000 2.6 220 08:19 12.04.2020
5897 Clear 6 1020 81 10000 2.1 190 07:42 12.04.2020
5898 Clear 6 1020 81 10000 3.1 200 07:18 12.04.2020
5899 Clear 6 1020 75 10000 2.1 190 06:35 12.04.2020
5900 Clear 5 1020 80 10000 1.5 200 05:55 12.04.2020
5901 Clear 6 1020 80 10000 1.5 200 05:36 12.04.2020
5902 Clear 6 1021 80 10000 2.1 200 03:44 12.04.2020
5903 Clear 6 1021 80 10000 2.1 200 03:44 12.04.2020
5904 Clear 6 1021 86 10000 2.1 180 03:24 12.04.2020
5905 Clear 6 1021 86 10000 0.5 220 02:34 12.04.2020
5906 Clear 6 1022 86 10000 0.5 0 01:51 12.04.2020
5907 Clear 7 1022 70 10000 0.5 0 00:59 12.04.2020
5908 Clear 7 1022 70 10000 0.5 0 00:41 12.04.2020
5909 Clear 8 1022 81 10000 0.5 160 00:20 12.04.2020
5910 Clear 8 1022 81 10000 1 150 23:46 11.04.2020
5911 Clear 9 1022 75 10000 2.1 150 23:26 11.04.2020
5912 Clear 10 1022 70 10000 1.5 150 22:55 11.04.2020
5913 Clear 10 1022 70 10000 1.5 150 22:36 11.04.2020
5914 Clear 11 1022 66 10000 1.5 140 22:18 11.04.2020
5915 Clear 11 1022 58 10000 1 140 21:54 11.04.2020
5916 Clear 12 1022 54 10000 1 90 21:36 11.04.2020
5917 Clear 12 1022 54 10000 1 90 21:18 11.04.2020
5918 Clear 12 1022 54 10000 1 90 21:18 11.04.2020
5919 Clear 14 1022 47 10000 1.5 50 20:54 11.04.2020
5920 Clear 15 1022 47 10000 1.5 50 20:36 11.04.2020
5921 Clear 16 1022 41 10000 3.1 10 20:18 11.04.2020
5922 Clear 17 1022 39 10000 2.6 350 19:54 11.04.2020
5923 Clear 18 1022 39 10000 3.1 360 19:36 11.04.2020
5924 Clear 19 1022 39 10000 3.1 360 19:18 11.04.2020
5925 Clear 19 1022 37 10000 3.1 10 18:54 11.04.2020
5926 Clear 19 1022 37 10000 3.1 10 18:54 11.04.2020
5927 Clear 20 1022 34 10000 2.6 360 18:36 11.04.2020
5928 Clear 20 1022 34 10000 2.6 360 18:18 11.04.2020
5929 Clear 20 1022 34 10000 2.6 360 18:18 11.04.2020
5930 Clear 20 1022 34 10000 2.6 330 17:55 11.04.2020
5931 Clear 20 1022 34 10000 2.6 330 17:36 11.04.2020
5932 Clear 20 1022 37 10000 2.6 330 17:18 11.04.2020
5933 Clear 20 1022 37 10000 2.6 30 16:42 11.04.2020
5934 Clear 20 1022 37 10000 2.6 30 16:21 11.04.2020
5935 Clear 20 1023 37 10000 2.1 10 15:41 11.04.2020
5936 Clouds 20 1023 37 10000 2.1 0 15:21 11.04.2020
5937 Clouds 20 1023 36 10000 3.6 360 14:57 11.04.2020
5938 Clear 20 1023 36 10000 3.6 360 14:39 11.04.2020
5939 Clear 20 1023 36 10000 3.6 320 14:20 11.04.2020
5940 Clear 19 1024 39 10000 2.6 0 13:42 11.04.2020
5941 Clear 19 1024 39 10000 2.1 0 13:24 11.04.2020
5942 Clear 19 1024 39 10000 3.1 10 12:59 11.04.2020
5943 Clouds 17 1024 42 10000 2.6 20 12:37 11.04.2020
5944 Clouds 17 1024 42 10000 2.6 20 12:18 11.04.2020
5945 Clouds 17 1024 42 10000 3.1 20 11:43 11.04.2020
5946 Clouds 17 1024 48 10000 1.5 360 11:21 11.04.2020
5947 Clouds 16 1024 54 10000 1.5 20 10:57 11.04.2020
5948 Clouds 15 1024 54 10000 1.5 20 10:39 11.04.2020
5949 Clouds 13 1024 58 10000 1.5 20 10:21 11.04.2020
5950 Clouds 13 1024 62 10000 1 0 09:57 11.04.2020
5951 Clouds 12 1024 62 10000 1 0 09:38 11.04.2020
5952 Clouds 10 1024 76 10000 2.6 360 09:20 11.04.2020
5953 Clouds 8 1024 76 10000 2.1 230 08:43 11.04.2020
5954 Clouds 7 1024 87 10000 1.5 190 08:25 11.04.2020
5955 Clouds 5 1024 86 10000 2.1 200 07:49 11.04.2020
5956 Clouds 4 1023 86 10000 1 0 07:28 11.04.2020
5957 Clouds 4 1023 86 10000 1 0 06:47 11.04.2020
5958 Clouds 5 1023 86 10000 1.5 170 06:18 11.04.2020
5959 Clouds 5 1023 86 10000 0.5 0 04:35 11.04.2020
5960 Clear 6 1023 75 10000 1 190 03:40 11.04.2020
5961 Clear 7 1023 75 10000 1 190 01:55 11.04.2020
5962 Clear 8 1023 75 10000 1 190 01:23 11.04.2020
5963 Clear 8 1023 81 10000 1.5 160 00:44 11.04.2020
5964 Clear 9 1023 81 10000 1 180 00:19 11.04.2020
5965 Clear 9 1023 81 10000 0.43 40 23:57 10.04.2020
5966 Clear 10 1023 65 10000 1.5 180 23:38 10.04.2020
5967 Clear 10 1023 65 10000 1.5 180 23:19 10.04.2020
5968 Clear 10 1023 70 10000 0.5 0 22:44 10.04.2020
5969 Clear 12 1023 66 10000 1 150 22:22 10.04.2020
5970 Clear 12 1023 58 10000 0.5 130 21:58 10.04.2020
5971 Clear 13 1023 58 10000 0.5 130 21:40 10.04.2020
5972 Clear 14 1022 50 10000 1.25 38 21:20 10.04.2020
5973 Clear 15 1022 44 10000 1 360 20:55 10.04.2020
5974 Clear 17 1022 41 10000 2.6 10 20:37 10.04.2020
5975 Clear 17 1022 41 10000 2.6 10 20:18 10.04.2020
5976 Clear 18 1022 39 10000 3.1 360 19:54 10.04.2020
5977 Clear 19 1022 34 10000 3.6 360 19:36 10.04.2020
5978 Clear 19 1022 34 10000 3.6 360 19:18 10.04.2020
5979 Clear 20 1021 32 10000 3.6 350 18:54 10.04.2020
5980 Clear 20 1021 32 10000 3.6 350 18:36 10.04.2020
5981 Clear 21 1022 30 10000 3.6 350 18:18 10.04.2020
5982 Clear 21 1022 30 10000 3.1 360 17:55 10.04.2020
5983 Clear 21 1022 30 10000 4.1 360 17:37 10.04.2020
5984 Clear 21 1022 30 10000 4.1 360 17:18 10.04.2020
5985 Clear 21 1022 34 10000 5.1 330 16:41 10.04.2020
5986 Clear 21 1022 30 10000 2.6 10 16:22 10.04.2020
5987 Clear 21 1022 30 10000 1.5 0 15:58 10.04.2020
5988 Clear 21 1022 30 10000 1.5 0 15:38 10.04.2020
5989 Clouds 21 1023 30 10000 3.1 340 15:20 10.04.2020
5990 Clouds 21 1023 30 10000 3.6 30 14:58 10.04.2020
5991 Clouds 21 1023 30 10000 3.6 30 14:39 10.04.2020
5992 Clouds 21 1023 30 10000 3.6 30 14:39 10.04.2020
5993 Clear 21 1023 29 10000 3.6 340 14:20 10.04.2020
5994 Clear 20 1023 32 10000 3.1 350 13:45 10.04.2020
5995 Clear 20 1024 32 10000 2.6 350 13:23 10.04.2020
5996 Clear 20 1024 34 10000 2.6 350 12:56 10.04.2020
5997 Clear 19 1024 34 10000 1 0 12:37 10.04.2020
5998 Clear 19 1024 34 10000 1 0 12:19 10.04.2020
5999 Clear 18 1024 39 10000 1 0 11:43 10.04.2020
6000 Clear 17 1024 42 10000 1 0 11:24 10.04.2020
6001 Clear 16 1024 51 10000 0.5 0 10:58 10.04.2020
6002 Clear 16 1024 51 10000 0.5 0 10:39 10.04.2020
6003 Clear 14 1024 47 10000 0.5 0 10:19 10.04.2020
6004 Clear 12 1024 54 10000 1 240 09:43 10.04.2020
6005 Clear 12 1024 54 10000 1 240 09:43 10.04.2020
6006 Clear 10 1024 66 10000 1.5 230 09:22 10.04.2020
6007 Clear 8 1024 75 10000 2.1 230 08:50 10.04.2020
6008 Clear 5 1024 86 10000 1.5 220 08:27 10.04.2020
6009 Clear 5 1024 86 10000 2.1 190 07:58 10.04.2020
6010 Clear 4 1024 59 10000 1 200 07:40 10.04.2020
6011 Clear 4 1024 59 10000 1 200 07:21 10.04.2020
6012 Clear 4 1023 86 10000 0.5 0 06:39 10.04.2020
6013 Clear 4 1023 86 10000 0.5 0 06:21 10.04.2020
6014 Clear 5 1023 80 10000 1.5 160 05:33 10.04.2020
6015 Clear 5 1023 62 10000 2.1 170 04:57 10.04.2020
6016 Clear 5 1023 80 10000 2.1 190 03:37 10.04.2020
6017 Clear 6 1024 80 10000 2.1 160 02:59 10.04.2020
6018 Clear 6 1024 80 10000 1 170 02:38 10.04.2020
6019 Clear 6 1024 80 10000 1 170 02:19 10.04.2020
6020 Clear 7 1024 80 10000 2.6 180 01:29 10.04.2020
6021 Clear 8 1024 57 10000 2.1 170 00:49 10.04.2020
6022 Clear 9 1024 70 10000 2.1 170 00:22 10.04.2020
6023 Clear 9 1024 70 10000 2.1 170 23:44 09.04.2020
6024 Clear 9 1024 70 10000 1.5 160 23:26 09.04.2020
6025 Clear 10 1024 65 10000 2.1 170 22:59 09.04.2020
6026 Clear 11 1024 65 10000 2.1 170 22:41 09.04.2020
6027 Clear 11 1024 70 10000 1.5 150 22:22 09.04.2020
6028 Clear 12 1024 65 10000 2.1 170 21:45 09.04.2020
6029 Clear 14 1023 47 10000 1 200 21:26 09.04.2020
6030 Clear 14 1023 43 10000 1.16 10 20:59 09.04.2020
6031 Clear 15 1023 43 10000 1.16 10 20:40 09.04.2020
6032 Clear 17 1023 38 10000 1.5 350 20:20 09.04.2020
6033 Clear 18 1023 33 10000 2.6 340 19:56 09.04.2020
6034 Clear 18 1023 31 10000 2.6 340 19:36 09.04.2020
6035 Clear 19 1023 31 10000 2.6 340 19:18 09.04.2020
6036 Clear 20 1022 48 10000 2.1 340 18:41 09.04.2020
6037 Clear 20 1022 33 10000 2.1 330 18:18 09.04.2020
6038 Clear 20 1023 33 10000 3.1 340 17:40 09.04.2020
6039 Clear 21 1023 33 10000 3.1 340 17:22 09.04.2020
6040 Clear 21 1023 29 10000 3.6 290 16:56 09.04.2020
6041 Clear 21 1023 29 10000 3.6 290 16:56 09.04.2020
6042 Clear 21 1023 29 10000 3.6 290 16:37 09.04.2020
6043 Clear 21 1023 33 10000 2.1 300 16:18 09.04.2020
6044 Clear 20 1023 29 10000 3.6 10 15:54 09.04.2020
6045 Clear 21 1023 29 10000 3.6 10 15:36 09.04.2020
6046 Clear 21 1023 30 10000 2.1 290 15:36 09.04.2020
6047 Clear 21 1023 30 10000 2.1 290 15:18 09.04.2020
6048 Clear 20 1024 32 10000 3.1 360 14:39 09.04.2020
6049 Clear 20 1024 32 10000 3.1 360 14:20 09.04.2020
6050 Clear 21 1024 32 10000 2.6 0 13:43 09.04.2020
6051 Clear 20 1024 31 10000 1.5 0 13:25 09.04.2020
6052 Clear 20 1024 32 10000 1.5 0 12:59 09.04.2020
6053 Clear 20 1024 32 10000 1.5 0 12:41 09.04.2020
6054 Clear 18 1024 31 10000 1 0 12:21 09.04.2020
6055 Clear 18 1024 45 10000 2.1 220 11:57 09.04.2020
6056 Clear 17 1024 45 10000 2.1 220 11:38 09.04.2020
6057 Clear 16 1024 50 10000 2.6 220 11:20 09.04.2020
6058 Clear 16 1024 54 10000 3.6 220 10:56 09.04.2020
6059 Clear 14 1024 62 10000 3.1 210 10:37 09.04.2020
6060 Clear 14 1024 62 10000 3.1 210 10:18 09.04.2020
6061 Clear 12 1024 66 10000 2.1 220 09:55 09.04.2020
6062 Clear 10 1024 75 10000 3.1 210 09:37 09.04.2020
6063 Clear 9 1024 75 10000 3.1 210 09:19 09.04.2020
6064 Clear 8 1024 75 10000 3.1 210 08:42 09.04.2020
6065 Clear 6 1023 81 10000 2.1 210 08:23 09.04.2020
6066 Clear 5 1023 86 10000 3.1 210 07:51 09.04.2020
6067 Clear 5 1023 66 10000 2.1 190 07:23 09.04.2020
6068 Clear 5 1023 66 10000 2.1 200 06:51 09.04.2020
6069 Clear 5 1022 80 10000 2.1 200 05:56 09.04.2020
6070 Clear 5 1022 80 10000 1.5 210 05:37 09.04.2020
6071 Clouds 6 1023 75 10000 1.5 180 03:20 09.04.2020
6072 Clear 6 1023 80 10000 2.1 180 02:21 09.04.2020
6073 Clear 7 1023 80 10000 1.5 240 01:40 09.04.2020
6074 Clear 7 1023 65 10000 3.1 210 01:20 09.04.2020
6075 Clear 8 1023 61 10000 3.1 210 00:40 09.04.2020
6076 Clouds 8 1023 75 10000 1.5 180 00:19 09.04.2020
6077 Clouds 8 1023 75 10000 1.5 180 00:19 09.04.2020
6078 Clouds 8 1023 70 10000 2.1 170 23:56 08.04.2020
6079 Clouds 9 1023 70 10000 2.1 170 23:37 08.04.2020
6080 Clouds 9 1023 70 10000 1.5 200 23:19 08.04.2020
6081 Clouds 10 1023 70 10000 2.1 170 22:42 08.04.2020
6082 Clouds 10 1023 70 10000 2.1 170 22:24 08.04.2020
6083 Clouds 11 1023 66 10000 2.1 160 21:56 08.04.2020
6084 Clear 12 1023 53 10000 1 170 21:37 08.04.2020
6085 Clear 13 1023 53 10000 1 170 21:19 08.04.2020
6086 Clear 14 1023 41 10000 0.5 0 20:56 08.04.2020
6087 Clear 17 1023 33 10000 1.5 290 20:38 08.04.2020
6088 Clear 17 1023 33 10000 1.5 290 20:19 08.04.2020
6089 Clear 19 1023 32 10000 3.1 280 19:42 08.04.2020
6090 Clear 20 1023 28 10000 3.1 280 19:22 08.04.2020
6091 Clear 20 1023 28 10000 3.1 280 18:58 08.04.2020
6092 Clear 20 1023 26 10000 2.6 250 18:58 08.04.2020
6093 Clear 20 1023 26 10000 2.6 250 18:40 08.04.2020
6094 Clear 20 1023 26 10000 2.6 250 18:40 08.04.2020
6095 Clear 21 1023 26 10000 1 0 18:21 08.04.2020
6096 Clear 21 1022 30 10000 1.5 280 17:44 08.04.2020
6097 Clear 21 1023 40 10000 1.5 220 17:22 08.04.2020
6098 Clear 21 1023 40 10000 1.5 220 16:59 08.04.2020
6099 Clear 21 1023 40 10000 2.1 260 16:41 08.04.2020
6100 Clear 21 1023 40 10000 2.1 260 16:22 08.04.2020
6101 Clear 21 1024 32 10000 2.6 0 15:55 08.04.2020
6102 Clear 20 1024 32 10000 2.6 0 15:36 08.04.2020
6103 Clear 20 1024 34 10000 3.6 230 15:18 08.04.2020
6104 Clear 21 1024 34 10000 3.6 230 14:41 08.04.2020
6105 Clear 19 1025 32 10000 3.6 270 14:23 08.04.2020
6106 Clear 20 1025 34 10000 3.6 250 13:45 08.04.2020
6107 Clear 20 1025 34 10000 4.1 270 13:22 08.04.2020
6108 -273 0 0 0 0 0 13:00 08.04.2020
6109 Clear 19 1025 36 10000 4.6 240 12:41 08.04.2020
6110 Clear 17 1026 39 10000 4.6 260 12:18 08.04.2020
6111 Clear 17 1026 41 10000 3.1 260 11:55 08.04.2020
6112 Clear 16 1026 41 10000 3.1 260 11:37 08.04.2020
6113 Clear 16 1026 41 10000 1 0 11:19 08.04.2020
6114 Clear 16 1026 44 10000 0.5 0 10:55 08.04.2020
6115 Clear 14 1026 50 10000 0.5 0 10:37 08.04.2020
6116 Clear 14 1026 50 10000 0.5 0 10:18 08.04.2020
6117 Clear 11 1026 62 10000 0.5 0 09:42 08.04.2020
6118 Clear 8 1026 70 10000 1 0 09:20 08.04.2020
6119 Clear 8 1026 75 10000 1 0 08:59 08.04.2020
6120 Clear 7 1026 75 10000 1 0 08:41 08.04.2020
6121 Clear 5 1026 86 10000 1 180 08:21 08.04.2020
6122 Clear 3 1026 86 10000 1.5 200 07:43 08.04.2020
6123 Clear 3 1026 86 10000 1.5 200 07:23 08.04.2020
6124 Clear 3 1026 80 10000 2.1 170 06:55 08.04.2020
6125 Clear 4 1026 80 10000 1.5 220 05:56 08.04.2020
6126 Clear 6 1026 75 10000 0.5 0 03:34 08.04.2020
6127 Clear 7 1026 80 10000 1 50 02:49 08.04.2020
6128 Clear 7 1027 70 10000 1.32 96 02:19 08.04.2020
6129 Clear 7 1027 70 10000 1 0 01:43 08.04.2020
6130 Clear 8 1027 70 10000 1 0 01:22 08.04.2020
6131 Clear 8 1027 70 10000 1.32 96 00:41 08.04.2020
6132 Clear 9 1027 61 10000 0.5 150 00:21 08.04.2020
6133 Clear 10 1027 46 10000 2.6 90 23:39 07.04.2020
6134 Clear 10 1027 46 10000 2.6 90 23:20 07.04.2020
6135 Clear 10 1027 46 10000 2.6 100 22:57 07.04.2020
6136 Clear 10 1027 46 10000 2.6 100 22:57 07.04.2020
6137 Clear 11 1027 46 10000 2.1 70 22:39 07.04.2020
6138 Clear 12 1027 46 10000 2.1 70 22:19 07.04.2020
6139 Clear 12 1027 63 10000 2.6 70 21:56 07.04.2020
6140 Clear 12 1027 63 10000 2.6 70 21:56 07.04.2020
6141 Clear 13 1027 58 10000 2.6 70 21:38 07.04.2020
6142 Clear 14 1027 60 10000 2.6 70 21:19 07.04.2020
6143 Clear 15 1027 60 10000 3.1 60 20:56 07.04.2020
6144 Clear 16 1027 60 10000 3.1 60 20:37 07.04.2020
6145 Clear 16 1027 60 10000 3.1 60 20:19 07.04.2020
6146 Clear 17 1027 60 10000 4.1 50 19:56 07.04.2020
6147 Clear 18 1027 31 10000 5.1 50 19:36 07.04.2020
6148 Clear 19 1027 31 10000 5.1 50 19:18 07.04.2020
6149 Clear 19 1027 29 10000 5.1 30 18:54 07.04.2020
6150 Clear 19 1027 29 10000 6.2 40 18:36 07.04.2020
6151 Clear 20 1027 29 10000 5.7 40 18:18 07.04.2020
6152 Clear 20 1027 32 10000 5.7 40 17:44 07.04.2020
6153 Clear 20 1027 32 10000 5.7 40 17:20 07.04.2020
6154 Clear 21 1028 28 10000 3.6 60 16:46 07.04.2020
6155 Clear 21 1028 39 10000 3.6 50 16:27 07.04.2020
6156 Clear 21 1028 39 10000 3.6 50 15:56 07.04.2020
6157 Clear 21 1028 25 10000 4.6 10 15:38 07.04.2020
6158 Clear 21 1029 28 10000 4.6 20 15:19 07.04.2020
6159 Clear 20 1029 28 10000 4.6 20 14:41 07.04.2020
6160 Clear 20 1029 29 10000 4.6 40 14:22 07.04.2020
6161 Clear 20 1029 37 10000 5.7 30 13:57 07.04.2020
6162 Clear 20 1029 37 10000 5.1 70 13:37 07.04.2020
6163 Clear 20 1029 37 10000 5.1 70 13:18 07.04.2020
6164 Clear 19 1030 37 10000 5.7 30 12:55 07.04.2020
6165 Clear 17 1030 31 10000 4.6 30 12:36 07.04.2020
6166 Clear 18 1030 31 10000 4.6 30 12:18 07.04.2020
6167 Clear 17 1030 34 10000 4.1 40 11:42 07.04.2020
6168 Clear 16 1030 38 10000 1.5 340 11:24 07.04.2020
6169 Clear 16 1030 47 10000 0.5 0 10:58 07.04.2020
6170 Clear 15 1030 47 10000 0.5 0 10:37 07.04.2020
6171 Clear 13 1030 50 10000 1 0 10:19 07.04.2020
6172 Clear 11 1030 62 10000 2.1 220 09:45 07.04.2020
6173 Clear 9 1030 66 10000 1.5 220 09:18 07.04.2020
6174 Clear 6 1030 70 10000 2.1 210 08:55 07.04.2020
6175 Clear 5 1030 70 10000 2.1 210 08:36 07.04.2020
6176 Clear 4 1029 80 10000 2.1 220 08:18 07.04.2020
6177 Clear 3 1029 86 10000 2.1 210 07:40 07.04.2020
6178 Clear 3 1029 86 10000 3.1 220 07:21 07.04.2020
6179 Clear 3 1028 74 10000 3.1 210 06:51 07.04.2020
6180 Clear 4 1028 73 10000 1.5 190 06:23 07.04.2020
6181 Clear 4 1028 73 10000 2.1 170 05:43 07.04.2020
6182 Clear 4 1028 80 10000 1.5 200 05:22 07.04.2020
6183 Clear 4 1027 69 10000 1.5 190 03:32 07.04.2020
6184 Clear 5 1027 80 10000 2.1 190 02:59 07.04.2020
6185 Clear 5 1027 72 10000 1.5 180 01:58 07.04.2020
6186 Clear 6 1027 72 10000 2.6 160 01:32 07.04.2020
6187 Clear 7 1026 75 10000 1 210 00:44 07.04.2020
6188 Clear 7 1026 65 10000 2.6 220 00:25 07.04.2020
6189 Clear 8 1026 61 10000 1.5 170 23:39 06.04.2020
6190 Clear 8 1026 61 10000 1.5 170 23:20 06.04.2020
6191 Clear 9 1025 61 10000 0.5 290 22:41 06.04.2020
6192 Clear 9 1025 61 10000 0.5 0 22:23 06.04.2020
6193 Clear 10 1025 57 10000 1 150 21:59 06.04.2020
6194 Clear 11 1025 58 10000 0.68 12 21:40 06.04.2020
6195 Clear 12 1025 61 10000 0.95 14 21:19 06.04.2020
6196 Clear 13 1025 61 10000 1 50 20:56 06.04.2020
6197 Clear 14 1025 61 10000 1 50 20:38 06.04.2020
6198 Clear 16 1024 31 10000 2.6 340 20:19 06.04.2020
6199 Clear 16 1024 61 10000 3.6 340 19:56 06.04.2020
6200 Clear 18 1024 27 10000 3.1 340 19:38 06.04.2020
6201 Clear 18 1024 27 10000 3.1 340 19:19 06.04.2020
6202 Clear 18 1024 27 10000 3.1 340 19:19 06.04.2020
6203 Clear 19 1023 25 10000 2.6 340 18:42 06.04.2020
6204 Clear 20 1023 39 10000 3.1 350 18:23 06.04.2020
6205 Clear 20 1023 25 10000 3.6 340 17:57 06.04.2020
6206 Clear 20 1023 25 10000 2.6 340 17:38 06.04.2020
6207 Clear 20 1023 25 10000 2.6 340 17:18 06.04.2020
6208 Clear 20 1023 25 10000 2.6 0 16:47 06.04.2020
6209 Clear 20 1023 25 10000 2.6 0 16:47 06.04.2020
6210 Clear 20 1023 29 10000 3.1 340 16:29 06.04.2020
6211 Clear 19 1024 29 10000 1.5 0 14:47 06.04.2020
6212 Clear 19 1024 29 10000 1.5 0 14:46 06.04.2020
6213 Clear 20 1024 29 10000 1.5 0 14:46 06.04.2020
6214 Clear 20 1024 29 10000 1.5 0 14:46 06.04.2020
6215 Clear 19 1024 29 10000 1.5 0 14:46 06.04.2020
6216 Clear 19 1024 31 10000 3.1 290 13:44 06.04.2020
6217 Clear 19 1024 34 10000 2.1 230 13:22 06.04.2020
6218 Clear 19 1024 34 10000 2.1 230 13:22 06.04.2020
6219 Clear 18 1024 33 10000 2.6 0 12:46 06.04.2020
6220 Clear 18 1024 33 10000 2.6 0 12:46 06.04.2020
6221 Clear 18 1024 33 10000 2.6 0 12:46 06.04.2020
6222 Clear 18 1024 33 10000 2.6 0 12:46 06.04.2020
6223 Clear 18 1024 33 10000 2.6 0 12:46 06.04.2020
6224 Clear 17 1024 41 10000 3.1 260 12:19 06.04.2020
6225 Clear 16 1024 38 10000 4.1 230 11:40 06.04.2020
6226 Clear 14 1024 38 10000 4.6 250 11:02 06.04.2020
6227 Clear 14 1024 38 10000 4.6 250 11:02 06.04.2020
6228 Clear 15 1024 38 10000 4.6 250 11:02 06.04.2020
6229 Clear 15 1024 38 10000 4.6 250 11:02 06.04.2020
6230 Clear 15 1024 38 10000 4.6 250 11:02 06.04.2020
6231 Clear 14 1023 43 10000 4.1 220 10:37 06.04.2020
6232 Clear 13 1023 46 10000 4.6 220 10:19 06.04.2020
6233 Clear 13 1023 46 10000 4.6 220 10:19 06.04.2020
6234 Clear 13 1023 46 10000 4.6 220 10:19 06.04.2020
6235 Clear 13 1023 46 10000 4.6 220 10:19 06.04.2020
6236 Clear 11 1023 61 10000 3.6 210 09:39 06.04.2020
6237 Clear 11 1023 61 10000 3.6 210 09:39 06.04.2020
6238 Clear 6 1023 70 10000 2.6 200 09:19 06.04.2020
6239 Clear 4 1022 86 10000 2.6 220 08:43 06.04.2020
6240 Clear 5 1022 86 10000 2.6 220 08:43 06.04.2020
6241 Clear 5 1022 86 10000 2.6 220 08:43 06.04.2020
6242 Clear 5 1022 86 10000 2.6 220 08:43 06.04.2020
6243 Clear 5 1022 86 10000 2.6 220 08:43 06.04.2020
6244 Clear 3 1022 63 10000 1.5 180 08:23 06.04.2020
6245 Clear 1 1021 63 10000 3.1 210 07:23 06.04.2020
6246 Clear 1 1021 63 10000 3.1 210 07:23 06.04.2020
6247 Clear 1 1021 63 10000 3.1 210 07:23 06.04.2020
6248 Clear 1 1021 63 10000 3.1 210 07:23 06.04.2020
6249 Clear 1 1021 74 10000 1 0 06:27 06.04.2020
6250 Clear 1 1020 92 10000 1 0 05:51 06.04.2020
6251 Clear 2 1020 86 10000 1.5 140 03:57 06.04.2020
6252 Clear 3 1020 71 10000 1 150 02:52 06.04.2020
6253 Clear 5 1020 80 10000 1.5 150 01:56 06.04.2020
6254 Clear 4 1020 80 10000 1.5 150 01:56 06.04.2020
6255 Clear 5 1020 80 10000 1 0 00:55 06.04.2020
6256 Clear 6 1020 71 10000 1 0 00:28 06.04.2020
6257 Clear 7 1020 69 10000 1.5 70 00:28 06.04.2020
6258 Clear 7 1020 49 10000 4.1 80 23:55 05.04.2020
6259 Clear 7 1020 69 10000 0.5 0 23:37 05.04.2020
6260 Clear 7 1020 56 10000 0.5 0 23:19 05.04.2020
6261 Clear 8 1020 69 10000 2.1 80 22:54 05.04.2020
6262 Clear 8 1020 69 10000 2.1 80 22:36 05.04.2020
6263 Clear 9 1020 69 10000 2.1 90 22:18 05.04.2020
6264 Clear 9 1020 69 10000 3.6 80 21:41 05.04.2020
6265 Clear 11 1020 60 10000 3.1 70 21:23 05.04.2020
6266 Clear 12 1020 64 10000 3.6 70 20:24 05.04.2020
6267 Clear 12 1020 64 10000 3.6 70 20:24 05.04.2020
6268 Clear 14 1020 64 10000 4.6 70 19:43 05.04.2020
6269 Clear 15 1020 64 10000 4.1 70 19:24 05.04.2020
6270 Clear 16 1020 64 10000 5.1 50 18:49 05.04.2020
6271 Clear 16 1020 43 10000 5.1 50 18:18 05.04.2020
6272 Clear 17 1021 31 10000 5.7 50 17:49 05.04.2020
6273 Clear 17 1021 31 10000 5.7 50 17:49 05.04.2020
6274 Clear 17 1021 31 10000 5.7 50 17:49 05.04.2020
6275 Clear 17 1021 31 10000 5.7 50 17:49 05.04.2020
6276 Clear 17 1021 31 10000 6.7 40 17:22 05.04.2020
6277 Clear 17 1021 43 10000 5.1 50 16:47 05.04.2020
6278 Clear 17 1021 43 10000 5.1 50 16:47 05.04.2020
6279 Clear 17 1021 43 10000 5.1 50 16:47 05.04.2020
6280 Clear 17 1021 31 10000 5.7 50 16:19 05.04.2020
6281 Clear 16 1022 43 10000 5.1 40 15:46 05.04.2020
6282 Clear 16 1022 39 10000 4.6 80 15:27 05.04.2020
6283 Clear 16 1022 39 10000 4.6 80 15:27 05.04.2020
6284 Clear 15 1022 33 10000 5.1 70 14:48 05.04.2020
6285 Clear 15 1022 33 10000 5.1 70 14:48 05.04.2020
6286 Clear 15 1022 33 10000 5.1 70 14:48 05.04.2020
6287 Clear 15 1022 33 10000 5.1 70 14:48 05.04.2020
6288 Clear 15 1023 40 10000 5.1 70 13:59 05.04.2020
6289 Clear 15 1023 40 10000 5.1 70 13:40 05.04.2020
6290 Clear 15 1023 40 10000 5.1 70 13:40 05.04.2020
6291 Clear 15 1023 40 10000 5.1 70 13:40 05.04.2020
6292 Clear 15 1023 40 10000 5.1 70 13:40 05.04.2020
6293 Clear 15 1023 40 10000 5.1 70 13:40 05.04.2020
6294 Clear 11 1024 40 10000 3.6 70 12:21 05.04.2020
6295 Clear 12 1024 46 10000 4.1 80 11:40 05.04.2020
6296 Clear 11 1024 46 10000 3.6 80 11:20 05.04.2020
6297 Clear 10 1024 52 10000 3.6 80 10:47 05.04.2020
6298 Clear 10 1024 46 10000 3.6 90 10:23 05.04.2020
6299 Clear 10 1024 52 10000 3.6 80 10:23 05.04.2020
6300 Clear 8 1024 46 10000 5.1 70 09:55 05.04.2020
6301 Clear 7 1024 46 10000 5.1 70 09:27 05.04.2020
6302 Clear 3 1024 74 10000 3.1 80 08:34 05.04.2020
6303 Clear 3 1024 74 10000 3.1 80 08:34 05.04.2020
6304 Clear 4 1024 74 10000 3.1 80 08:34 05.04.2020
6305 Clear 1 1023 92 10000 2.1 100 07:21 05.04.2020
6306 Clear 2 1023 74 10000 1 0 04:32 05.04.2020
6307 Clear 3 1024 74 10000 2.1 60 03:29 05.04.2020
6308 Clear 3 1024 74 10000 2.1 60 03:29 05.04.2020
6309 Clear 3 1023 73 10000 1.5 80 02:46 05.04.2020
6310 Clear 3 1024 74 10000 0.5 0 01:45 05.04.2020
6311 Clear 4 1024 69 10000 1.5 80 01:23 05.04.2020
6312 Clear 5 1024 65 10000 2.1 80 00:42 05.04.2020
6313 Clear 5 1024 56 10000 2.6 90 00:21 05.04.2020
6314 Clear 5 1024 56 10000 2.6 80 23:42 04.04.2020
6315 Clear 6 1024 56 10000 2.6 80 23:23 04.04.2020
6316 Clear 6 1024 56 10000 2.6 80 22:57 04.04.2020
6317 Clear 7 1024 56 10000 3.1 70 22:39 04.04.2020
6318 Clear 7 1024 56 10000 1.5 40 22:21 04.04.2020
6319 Clear 7 1024 49 10000 2.6 60 21:58 04.04.2020
6320 Clear 7 1024 49 10000 2.6 60 21:39 04.04.2020
6321 Clouds 8 1023 45 10000 2.6 60 21:19 04.04.2020
6322 Clear 8 1023 45 10000 2.6 60 20:58 04.04.2020
6323 Clouds 9 1023 45 10000 3.1 60 20:39 04.04.2020
6324 Clouds 10 1022 46 10000 3.6 60 20:20 04.04.2020
6325 Clear 11 1022 43 10000 4.1 50 19:57 04.04.2020
6326 Clouds 11 1022 43 10000 4.1 50 19:37 04.04.2020
6327 Clear 12 1022 40 10000 4.6 50 19:19 04.04.2020
6328 Clouds 12 1022 40 10000 4.6 50 19:19 04.04.2020
6329 Clouds 13 1022 37 10000 4.6 70 18:55 04.04.2020
6330 Clear 13 1022 37 10000 4.6 70 18:37 04.04.2020
6331 Clouds 14 1022 35 10000 4.6 40 18:18 04.04.2020
6332 Clouds 14 1022 37 10000 4.6 50 17:41 04.04.2020
6333 Clouds 14 1022 37 10000 4.6 50 17:41 04.04.2020
6334 Clouds 14 1022 37 10000 4.6 30 17:20 04.04.2020
6335 Clouds 14 1022 35 10000 5.1 30 16:59 04.04.2020
6336 Clouds 14 1022 35 10000 5.1 30 16:41 04.04.2020
6337 Clouds 14 1022 37 10000 4.6 40 16:22 04.04.2020
6338 Clouds 14 1022 37 10000 3.6 20 15:55 04.04.2020
6339 Clouds 14 1022 37 10000 3.6 20 15:36 04.04.2020
6340 Clear 14 1022 40 10000 4.6 50 15:18 04.04.2020
6341 Clear 14 1022 35 10000 4.1 30 14:42 04.04.2020
6342 Clear 14 1022 37 10000 3.6 0 14:22 04.04.2020
6343 Clear 13 1022 37 10000 3.6 0 13:56 04.04.2020
6344 Clear 13 1022 40 10000 3.1 20 13:37 04.04.2020
6345 Clear 13 1023 39 10000 1 0 13:19 04.04.2020
6346 Clear 13 1023 43 10000 3.1 50 12:44 04.04.2020
6347 Clear 11 1023 39 10000 2.1 0 12:24 04.04.2020
6348 Clear 11 1023 49 10000 2.1 0 11:59 04.04.2020
6349 Clear 11 1023 49 10000 2.6 0 11:38 04.04.2020
6350 Clear 11 1023 53 10000 2.6 100 11:19 04.04.2020
6351 Clear 11 1023 53 10000 2.6 100 10:56 04.04.2020
6352 Clear 9 1023 57 10000 3.1 80 10:38 04.04.2020
6353 Clear 9 1022 61 10000 2.6 40 10:19 04.04.2020
6354 Clear 8 1022 61 10000 2.6 40 09:55 04.04.2020
6355 Clear 7 1022 65 10000 2.1 20 09:36 04.04.2020
6356 Clouds 5 1022 75 10000 0.57 195 09:18 04.04.2020
6357 Clouds 3 1022 86 10000 0.5 0 08:42 04.04.2020
6358 Clouds 1 1021 71 10000 1.5 180 08:21 04.04.2020
6359 Clouds 1 1021 92 10000 2.1 160 07:47 04.04.2020
6360 Clouds 1 1021 100 10000 1.5 150 07:27 04.04.2020
6361 Clouds 1 1021 86 10000 2.1 200 06:57 04.04.2020
6362 Clouds 2 1020 86 10000 0.5 0 06:20 04.04.2020
6363 Clouds 2 1020 77 10000 0.96 228 05:43 04.04.2020
6364 Clouds 3 1020 77 10000 1 0 05:24 04.04.2020
6365 Clouds 3 1020 77 10000 1 220 04:33 04.04.2020
6366 Clouds 3 1020 77 10000 1.5 160 03:55 04.04.2020
6367 Clouds 3 1020 77 10000 1.5 160 03:27 04.04.2020
6368 Clouds 4 1020 75 10000 1 220 02:40 04.04.2020
6369 Clouds 3 1020 75 10000 1.5 190 02:22 04.04.2020
6370 Clouds 3 1020 75 10000 1.5 220 01:27 04.04.2020
6371 Clouds 3 1020 75 10000 1.5 210 00:55 04.04.2020
6372 Clouds 3 1020 75 10000 1.5 180 00:30 04.04.2020
6373 Clouds 3 1020 72 10000 1 230 23:56 03.04.2020
6374 Clouds 4 1019 86 10000 1.5 190 23:37 03.04.2020
6375 Clouds 4 1019 74 10000 1 190 23:18 03.04.2020
6376 Clouds 5 1019 69 10000 0.5 160 22:40 03.04.2020
6377 Clouds 5 1019 64 10000 0.43 181 22:19 03.04.2020
6378 Clouds 6 1018 60 10000 1 340 21:56 03.04.2020
6379 Clouds 6 1018 60 10000 1 340 21:56 03.04.2020
6380 Clouds 6 1018 60 10000 1 340 21:37 03.04.2020
6381 Clouds 7 1018 52 10000 1.5 330 21:19 03.04.2020
6382 Clouds 8 1017 49 10000 2.1 340 20:55 03.04.2020
6383 Clouds 8 1017 49 10000 2.1 340 20:36 03.04.2020
6384 Clouds 9 1017 49 10000 2.6 340 20:18 03.04.2020
6385 Clouds 9 1016 45 10000 4.6 350 19:54 03.04.2020
6386 Clouds 10 1016 45 10000 4.6 350 19:36 03.04.2020
6387 Clouds 11 1016 39 10000 4.1 340 19:18 03.04.2020
6388 Clouds 11 1016 34 10000 4.6 310 18:56 03.04.2020
6389 Clouds 11 1016 34 10000 4.6 310 18:38 03.04.2020
6390 Clouds 12 1015 34 10000 4.1 300 18:20 03.04.2020
6391 Clouds 12 1015 34 10000 4.6 300 17:41 03.04.2020
6392 Clouds 12 1015 32 10000 6.2 300 17:19 03.04.2020
6393 Clouds 12 1015 32 10000 6.2 300 16:55 03.04.2020
6394 Clouds 12 1015 34 10000 6.2 290 16:36 03.04.2020
6395 Clouds 12 1015 37 10000 5.1 290 16:18 03.04.2020
6396 Clouds 12 1015 34 10000 5.1 290 15:55 03.04.2020
6397 Clouds 12 1015 37 10000 5.1 270 15:36 03.04.2020
6398 Clouds 12 1015 34 10000 4.1 270 15:18 03.04.2020
6399 Clouds 12 1016 40 10000 6.7 260 14:40 03.04.2020
6400 Clouds 12 1016 40 10000 6.7 260 14:22 03.04.2020
6401 Clouds 11 1016 40 10000 6.7 260 13:54 03.04.2020
6402 Clouds 11 1015 45 10000 5.7 250 13:36 03.04.2020
6403 Clouds 11 1016 45 10000 5.1 280 13:18 03.04.2020
6404 Clouds 10 1016 45 10000 4.1 270 12:42 03.04.2020
6405 Clouds 10 1016 49 10000 4.1 250 12:20 03.04.2020
6406 Clouds 10 1015 49 10000 4.1 280 11:56 03.04.2020
6407 Clouds 10 1015 49 10000 4.1 280 11:37 03.04.2020
6408 Clouds 9 1015 52 10000 3.1 250 11:18 03.04.2020
6409 Clouds 8 1015 56 10000 2.1 280 10:57 03.04.2020
6410 Clouds 8 1015 56 10000 2.1 280 10:38 03.04.2020
6411 Clouds 7 1015 52 10000 3.1 260 10:20 03.04.2020
6412 Clouds 6 1015 52 10000 3.1 260 09:57 03.04.2020
6413 Clouds 6 1015 56 10000 3.6 240 09:39 03.04.2020
6414 Clouds 4 1015 60 10000 3.1 250 09:21 03.04.2020
6415 Clouds 3 1015 60 10000 3.1 250 08:55 03.04.2020
6416 Clouds 2 1014 74 10000 3.1 230 08:37 03.04.2020
6417 Clouds 1 1014 74 10000 2.6 230 08:18 03.04.2020
6418 Clouds 1 1014 74 10000 2.6 250 07:46 03.04.2020
6419 Clouds 1 1013 74 10000 3.1 240 07:27 03.04.2020
6420 Clouds 0 1013 74 10000 4.1 220 06:40 03.04.2020
6421 Clouds 0 1013 74 10000 3.1 220 06:21 03.04.2020
6422 Clouds 1 1012 69 10000 3.1 230 05:34 03.04.2020
6423 Clouds 1 1012 74 10000 4.1 230 03:40 03.04.2020
6424 Clouds 1 1012 86 10000 4.1 220 02:55 03.04.2020
6425 Clouds 0 1011 75 10000 4.6 230 02:18 03.04.2020
6426 Clouds 1 1011 79 10000 2.6 220 01:20 03.04.2020
6427 Clouds 2 1011 75 10000 1.5 0 00:34 03.04.2020
6428 Clear 2 1010 80 10000 1 0 23:58 02.04.2020
6429 Clear 2 1010 80 10000 1 0 23:39 02.04.2020
6430 Clear 2 1010 80 10000 1 0 23:39 02.04.2020
6431 Clear 2 1010 80 10000 1 0 23:39 02.04.2020
6432 Clear 3 1010 68 10000 1.5 200 23:21 02.04.2020
6433 Clear 3 1010 69 10000 2.1 180 22:57 02.04.2020
6434 Clear 4 1010 69 10000 2.1 180 22:37 02.04.2020
6435 Clear 4 1010 74 10000 2.1 150 22:18 02.04.2020
6436 Clear 5 1010 74 10000 2.1 170 21:39 02.04.2020
6437 Clear 6 1010 56 10000 1.5 150 21:19 02.04.2020
6438 Clear 6 1010 56 10000 1.5 150 20:58 02.04.2020
6439 Clear 6 1010 42 10000 1 0 20:58 02.04.2020
6440 Clear 7 1010 42 10000 1 0 20:40 02.04.2020
6441 Clear 9 1009 34 10000 2.1 290 20:21 02.04.2020
6442 Clear 10 1009 31 10000 2.6 310 19:44 02.04.2020
6443 Clear 12 1009 29 10000 3.6 310 19:21 02.04.2020
6444 Clear 12 1009 27 10000 3.6 290 18:58 02.04.2020
6445 Clear 12 1009 27 10000 3.6 290 18:39 02.04.2020
6446 Clear 12 1009 27 10000 3.6 290 18:39 02.04.2020
6447 Clear 12 1009 27 10000 3.6 290 18:20 02.04.2020
6448 Clear 13 1009 27 10000 2.6 300 17:56 02.04.2020
6449 Clear 13 1009 27 10000 2.6 300 17:38 02.04.2020
6450 Clear 13 1010 27 10000 3.6 280 17:20 02.04.2020
6451 Clear 13 1010 27 10000 3.6 280 16:55 02.04.2020
6452 Clear 13 1010 25 10000 3.6 280 16:37 02.04.2020
6453 Clear 13 1010 27 10000 3.6 270 16:19 02.04.2020
6454 Clear 13 1010 25 10000 2.6 0 15:54 02.04.2020
6455 Clear 12 1010 25 10000 2.6 0 15:36 02.04.2020
6456 Clear 12 1011 27 10000 3.1 280 15:18 02.04.2020
6457 Clear 12 1011 25 10000 3.1 330 14:40 02.04.2020
6458 Clear 12 1011 25 10000 3.1 330 14:40 02.04.2020
6459 Clear 12 1011 29 10000 3.1 210 14:20 02.04.2020
6460 Clear 11 1012 29 10000 3.6 210 13:58 02.04.2020
6461 Clear 11 1012 29 10000 3.6 210 13:39 02.04.2020
6462 Clear 11 1012 29 10000 2.6 0 13:21 02.04.2020
6463 Clear 10 1012 34 10000 1.5 0 12:56 02.04.2020
6464 Clear 10 1012 34 10000 1.5 0 12:38 02.04.2020
6465 Clear 10 1012 39 10000 1.5 0 12:19 02.04.2020
6466 Clear 9 1012 39 10000 1.5 0 12:19 02.04.2020
6467 Clear 9 1012 39 10000 1.5 0 11:57 02.04.2020
6468 Clear 9 1013 36 10000 1 0 11:38 02.04.2020
6469 Clear 8 1013 48 10000 1.5 230 11:19 02.04.2020
6470 Clear 8 1013 48 10000 1.5 230 10:55 02.04.2020
6471 Clear 6 1013 60 10000 1 0 10:37 02.04.2020
6472 Clear 6 1013 60 10000 1 0 10:37 02.04.2020
6473 Clear 4 1013 60 10000 1 0 10:19 02.04.2020
6474 Clear 3 1014 60 10000 1 0 09:55 02.04.2020
6475 Clear 2 1013 74 10000 0.76 225 09:37 02.04.2020
6476 Clear 0 1013 72 10000 0.5 0 09:18 02.04.2020
6477 Clear -1 1013 80 10000 1 190 08:45 02.04.2020
6478 Clear -2 1013 80 10000 1 190 08:26 02.04.2020
6479 Clear -4 1013 92 10000 0.5 0 07:45 02.04.2020
6480 Clear -4 1013 92 10000 2.1 210 07:20 02.04.2020
6481 Clear -4 1013 92 10000 2.1 210 06:58 02.04.2020
6482 Clear -4 1013 85 10000 1.5 190 06:22 02.04.2020
6483 Clear -4 1013 85 10000 2.1 210 05:45 02.04.2020
6484 Clear -3 1013 86 10000 2.1 190 04:35 02.04.2020
6485 Clear -2 1014 85 10000 0.5 130 01:52 02.04.2020
6486 Clear -2 1015 79 10000 0.5 150 00:51 02.04.2020
6487 Clear -2 1015 79 10000 0.5 150 00:29 02.04.2020
6488 Clear -1 1015 79 10000 0.5 120 23:57 01.04.2020
6489 Clear -1 1016 74 10000 0.5 40 23:37 01.04.2020
6490 Clear -1 1015 79 10000 1 0 23:18 01.04.2020
6491 Clear 0 1015 79 10000 1.15 135 22:41 01.04.2020
6492 Clear 0 1015 74 10000 1 140 22:22 01.04.2020
6493 Clear 1 1015 68 10000 1 130 21:58 01.04.2020
6494 Clear 1 1015 68 10000 1 130 21:39 01.04.2020
6495 Clouds 2 1015 51 10000 1 50 21:19 01.04.2020
6496 Clouds 2 1015 51 10000 1 50 20:56 01.04.2020
6497 Clouds 4 1015 44 10000 2.1 10 20:38 01.04.2020
6498 Clouds 5 1015 44 10000 3.1 30 20:19 01.04.2020
6499 Clouds 6 1015 41 10000 3.6 20 19:57 01.04.2020
6500 Clouds 7 1015 41 10000 3.6 20 19:37 01.04.2020
6501 Clouds 7 1015 41 10000 3.6 20 19:37 01.04.2020
6502 Clouds 8 1015 39 10000 3.6 10 19:19 01.04.2020
6503 Clouds 8 1015 36 10000 3.6 10 18:42 01.04.2020
6504 Clear 8 1015 36 10000 3.6 10 18:22 01.04.2020
6505 Clear 9 1015 36 10000 3.6 360 17:57 01.04.2020
6506 Clear 9 1015 36 10000 3.6 360 17:37 01.04.2020
6507 Clear 9 1016 36 10000 3.6 20 17:19 01.04.2020
6508 Clear 9 1016 36 10000 3.6 20 16:57 01.04.2020
6509 Clear 9 1016 36 10000 4.6 10 16:39 01.04.2020
6510 Clear 9 1016 36 10000 4.6 10 16:20 01.04.2020
6511 Clear 9 1017 39 10000 4.6 30 15:56 01.04.2020
6512 Clear 8 1017 39 10000 4.6 30 15:37 01.04.2020
6513 Clear 8 1017 39 10000 4.1 20 15:18 01.04.2020
6514 Clear 8 1017 42 10000 3.6 10 14:40 01.04.2020
6515 Clear 8 1018 41 10000 3.1 60 14:22 01.04.2020
6516 Clear 8 1018 41 10000 3.1 60 13:59 01.04.2020
6517 Clear 7 1018 41 10000 3.6 30 13:40 01.04.2020
6518 Clear 6 1019 41 10000 3.1 50 13:20 01.04.2020
6519 Clear 6 1019 41 10000 3.1 50 13:20 01.04.2020
6520 Clear 7 1019 41 10000 3.1 50 12:59 01.04.2020
6521 Clear 6 1019 44 10000 3.6 70 12:41 01.04.2020
6522 Clear 5 1019 44 10000 3.6 100 12:22 01.04.2020
6523 Clear 5 1020 44 10000 4.6 60 11:59 01.04.2020
6524 Clear 5 1020 44 10000 4.6 60 11:39 01.04.2020
6525 Clear 4 1020 47 10000 2.6 80 11:20 01.04.2020
6526 Clear 3 1020 51 10000 3.1 90 10:41 01.04.2020
6527 Clear 3 1020 51 10000 3.1 90 10:22 01.04.2020
6528 Clear 2 1020 59 10000 1.5 80 09:59 01.04.2020
6529 Clear 0 1020 50 10000 1 0 09:40 01.04.2020
6530 Clear 0 1020 50 10000 1 0 09:40 01.04.2020
6531 Clear -2 1020 80 10000 1.25 110 09:21 01.04.2020
6532 Clouds -2 1021 92 7000 2.1 60 08:59 01.04.2020
6533 Clear -3 1020 79 3900 1.25 110 08:40 01.04.2020
6534 Clear -4 1020 85 10000 1 110 08:18 01.04.2020
6535 Clear -5 1020 85 10000 0.5 150 07:42 01.04.2020
6536 Clear -5 1020 92 9000 1.25 110 07:19 01.04.2020
6537 Clear -5 1020 92 10000 0.5 100 06:47 01.04.2020
6538 Clear -5 1020 92 10000 1 140 06:21 01.04.2020
6539 Clear -5 1021 85 10000 1 0 05:53 01.04.2020
6540 Clear -4 1021 92 10000 0.5 0 04:30 01.04.2020
6541 Clear -4 1022 85 10000 0.5 0 03:27 01.04.2020
6542 Clear -3 1022 73 10000 2.02 107 02:46 01.04.2020
6543 Clear -3 1022 73 10000 2.28 105 01:54 01.04.2020
6544 Clear -3 1023 73 10000 0.5 0 01:29 01.04.2020
6545 Clear -2 1023 73 10000 1.5 70 00:58 01.04.2020
6546 Clear -2 1024 74 10000 2.1 90 00:40 01.04.2020
6547 Clear -2 1024 74 10000 2.1 90 00:18 01.04.2020
6548 Clear -2 1024 63 10000 2.1 60 23:41 31.03.2020
6549 Clear -1 1024 68 10000 2.6 50 23:23 31.03.2020
6550 Clear -1 1024 68 10000 2.6 50 23:23 31.03.2020
6551 Clear -1 1024 81 10000 2.1 60 22:57 31.03.2020
6552 Clear -1 1024 81 10000 2.1 60 22:36 31.03.2020
6553 Clear 0 1024 68 10000 2.1 70 22:18 31.03.2020
6554 Clear 0 1024 81 10000 2.6 50 21:55 31.03.2020
6555 Clear 0 1024 81 10000 2.6 50 21:37 31.03.2020
6556 Clouds 1 1024 67 10000 3.6 30 21:19 31.03.2020
6557 Clouds 1 1025 64 10000 2.6 20 20:55 31.03.2020
6558 Clouds 2 1024 55 10000 4.6 10 20:36 31.03.2020
6559 Clouds 3 1024 55 10000 4.6 10 20:18 31.03.2020
6560 Clouds 3 1023 44 10000 1.5 320 19:41 31.03.2020
6561 Clouds 4 1023 44 10000 2.1 260 19:22 31.03.2020
6562 Clouds 4 1023 40 10000 0.5 0 18:58 31.03.2020
6563 Clouds 4 1023 40 10000 2.6 30 18:39 31.03.2020
6564 Clouds 4 1023 40 10000 2.6 30 18:18 31.03.2020
6565 Clouds 5 1023 38 10000 4.6 20 17:55 31.03.2020
6566 Clouds 5 1023 38 10000 4.6 20 17:37 31.03.2020
6567 Clouds 6 1023 35 10000 3.1 350 17:18 31.03.2020
6568 Clouds 5 1023 32 10000 1.5 20 16:40 31.03.2020
6569 Clouds 5 1023 41 10000 3.1 360 16:19 31.03.2020
6570 Clouds 5 1023 41 10000 3.1 360 15:57 31.03.2020
6571 Clouds 5 1023 38 10000 1.5 330 15:39 31.03.2020
6572 Rain 5 1024 44 10000 3.6 10 15:21 31.03.2020
6573 Rain 5 1024 40 10000 3.6 360 14:57 31.03.2020
6574 Rain 5 1024 40 10000 3.6 360 14:39 31.03.2020
6575 Clouds 5 1024 41 10000 3.6 330 14:20 31.03.2020
6576 Clouds 5 1024 37 10000 2.6 0 13:43 31.03.2020
6577 Clouds 5 1024 34 10000 2.1 0 13:20 31.03.2020
6578 Clouds 5 1024 44 10000 2.6 30 12:59 31.03.2020
6579 Clouds 5 1024 44 10000 2.6 30 12:40 31.03.2020
6580 Clouds 5 1024 47 10000 2.6 30 12:19 31.03.2020
6581 Clouds 4 1024 47 10000 2.6 330 11:41 31.03.2020
6582 Clouds 4 1024 55 10000 1 0 11:20 31.03.2020
6583 Clouds 4 1024 55 10000 1 0 11:20 31.03.2020
6584 Clouds 3 1024 64 10000 0.5 0 10:59 31.03.2020
6585 Clouds 2 1024 64 10000 0.5 0 10:41 31.03.2020
6586 Clouds 1 1024 47 10000 1 0 10:22 31.03.2020
6587 Clouds 0 1024 74 10000 1 0 09:59 31.03.2020
6588 Clouds 0 1024 74 10000 1 0 09:41 31.03.2020
6589 Clear -2 1024 80 10000 0.37 217 09:22 31.03.2020
6590 Clear -2 1024 80 10000 0.37 217 08:57 31.03.2020
6591 Clear -4 1024 85 10000 0.5 0 08:38 31.03.2020
6592 Clear -4 1023 92 10000 2.1 220 08:19 31.03.2020
6593 Clear -5 1023 85 10000 2.1 220 07:56 31.03.2020
6594 Clear -5 1023 85 10000 2.1 220 07:38 31.03.2020
6595 Clear -5 1023 92 10000 3.1 220 07:19 31.03.2020
6596 Clear -5 1023 92 10000 1 200 06:47 31.03.2020
6597 Clear -6 1023 92 10000 1 180 06:22 31.03.2020
6598 Clear -6 1023 92 10000 1 170 05:39 31.03.2020
6599 Clear -5 1023 92 10000 1.5 190 03:43 31.03.2020
6600 Clear -4 1023 92 10000 1 210 02:19 31.03.2020
6601 Clear -4 1023 85 10000 1 220 01:45 31.03.2020
6602 Clear -3 1023 85 10000 1.5 190 00:51 31.03.2020
6603 Clear -3 1023 86 10000 1.5 180 00:25 31.03.2020
6604 Clouds -2 1023 86 10000 1 200 23:59 30.03.2020
6605 Clouds -2 1023 86 10000 1 200 23:38 30.03.2020
6606 Clouds -2 1023 86 10000 1 190 23:18 30.03.2020
6607 Clouds -2 1023 86 10000 2.1 180 22:56 30.03.2020
6608 Clouds -1 1023 86 10000 2.1 180 22:37 30.03.2020
6609 Clouds -1 1023 86 10000 2.1 210 22:18 30.03.2020
6610 Clouds -1 1023 80 10000 2.6 210 21:55 30.03.2020
6611 Clouds -1 1023 80 10000 2.6 210 21:36 30.03.2020
6612 Clouds 0 1023 80 10000 3.1 200 21:18 30.03.2020
6613 Clouds 1 1022 86 10000 3.1 180 20:42 30.03.2020
6614 Clouds 2 1022 74 10000 2.6 170 20:24 30.03.2020
6615 Clouds 2 1022 74 10000 2.6 170 20:24 30.03.2020
6616 Clouds 2 1022 74 10000 2.6 170 19:59 30.03.2020
6617 Clouds 3 1022 64 10000 3.6 170 19:40 30.03.2020
6618 Clouds 3 1022 37 10000 2.1 0 19:22 30.03.2020
6619 Clouds 4 1022 37 10000 2.1 0 18:57 30.03.2020
6620 Clouds 4 1022 37 10000 2.6 30 18:38 30.03.2020
6621 Clouds 4 1021 44 10000 2.6 10 18:20 30.03.2020
6622 Clouds 4 1022 47 10000 3.6 40 17:57 30.03.2020
6623 Clouds 4 1022 47 10000 3.6 40 17:38 30.03.2020
6624 Clouds 4 1022 51 10000 3.6 30 17:19 30.03.2020
6625 Clouds 4 1022 51 10000 3.6 30 16:55 30.03.2020
6626 Clouds 4 1022 51 10000 3.6 30 16:37 30.03.2020
6627 Clouds 4 1022 51 10000 3.1 70 16:19 30.03.2020
6628 Clouds 4 1022 51 10000 3.1 70 15:54 30.03.2020
6629 Clouds 4 1022 59 10000 3.1 20 15:36 30.03.2020
6630 Clouds 4 1022 64 10000 4.1 30 15:18 30.03.2020
6631 Clouds 3 1022 64 10000 3.6 40 14:54 30.03.2020
6632 Clouds 3 1022 64 10000 3.6 40 14:36 30.03.2020
6633 Clouds 3 1022 64 10000 2.6 60 14:18 30.03.2020
6634 Clouds 3 1023 53 10000 3.1 50 13:43 30.03.2020
6635 Clouds 2 1023 53 10000 4.1 30 13:21 30.03.2020
6636 Rain 2 1023 53 10000 4.1 40 12:58 30.03.2020
6637 Rain 2 1023 53 10000 4.1 40 12:40 30.03.2020
6638 Rain 1 1023 74 10000 4.6 40 12:19 30.03.2020
6639 Clouds 1 1023 68 10000 6.2 40 11:56 30.03.2020
6640 Clouds 0 1023 68 10000 6.2 40 11:38 30.03.2020
6641 Clouds 0 1023 74 10000 6.7 40 11:20 30.03.2020
6642 Clouds 0 1023 74 10000 6.7 30 10:40 30.03.2020
6643 Clouds -1 1023 74 10000 6.2 30 10:22 30.03.2020
6644 Clouds 0 1023 74 10000 7.2 20 09:56 30.03.2020
6645 Clouds -1 1023 74 10000 7.2 20 09:38 30.03.2020
6646 Snow -1 1023 79 10000 5.7 30 09:19 30.03.2020
6647 Snow -1 1023 79 3400 7.2 30 08:42 30.03.2020
6648 Snow -1 1022 86 4900 6.7 20 08:22 30.03.2020
6649 Snow -1 1022 80 9000 6.2 30 07:49 30.03.2020
6650 Snow -1 1022 80 9000 6.2 30 07:31 30.03.2020
6651 Snow -1 1022 86 10000 5.7 30 06:57 30.03.2020
6652 Snow -1 1022 86 6000 5.1 20 06:33 30.03.2020
6653 Snow 0 1022 92 3900 4.1 20 05:54 30.03.2020
6654 Snow 0 1022 92 10000 4.6 40 05:22 30.03.2020
6655 Snow 0 1022 92 5000 5.7 40 04:23 30.03.2020
6656 Snow 1 1022 81 4000 6.2 30 03:44 30.03.2020
6657 Snow 1 1022 75 4000 5.7 20 02:42 30.03.2020
6658 Rain 1 1021 75 8000 5.1 20 01:44 30.03.2020
6659 Snow 2 1021 80 10000 5.1 20 00:55 30.03.2020
6660 Clouds 3 1021 80 10000 5.1 10 00:24 30.03.2020
6661 Clouds 3 1020 69 10000 7.2 20 23:43 29.03.2020
6662 Clouds 3 1020 65 10000 3.6 10 23:24 29.03.2020
6663 Clouds 3 1020 65 10000 3.6 10 22:59 29.03.2020
6664 Clouds 4 1020 65 10000 4.6 10 22:39 29.03.2020
6665 Clouds 4 1020 65 10000 3.6 10 22:20 29.03.2020
6666 -273 0 0 0 0 0 21:58 29.03.2020
6667 Clouds 4 1019 65 10000 6.2 10 21:37 29.03.2020
6668 Rain 4 1019 86 10000 6.7 360 21:18 29.03.2020
6669 Rain 4 1019 93 10000 4.6 360 20:55 29.03.2020
6670 Rain 4 1019 93 10000 4.6 360 20:37 29.03.2020
6671 Rain 5 1018 93 8000 4.1 340 20:18 29.03.2020
6672 Rain 5 1018 93 6000 4.1 350 19:55 29.03.2020
6673 Rain 5 1018 93 6000 4.1 350 19:37 29.03.2020
6674 Rain 5 1018 93 7000 4.6 10 19:18 29.03.2020
6675 Rain 5 1018 86 7000 6.2 360 18:55 29.03.2020
6676 Rain 6 1018 86 7000 6.2 360 18:37 29.03.2020
6677 Rain 6 1017 80 10000 5.7 20 18:18 29.03.2020
6678 Rain 6 1017 80 10000 4.6 360 17:54 29.03.2020
6679 Rain 6 1017 80 10000 4.6 360 17:36 29.03.2020
6680 Rain 6 1017 75 10000 3.6 360 17:18 29.03.2020
6681 Rain 7 1017 75 10000 3.6 360 16:55 29.03.2020
6682 Rain 7 1017 75 10000 3.6 360 16:36 29.03.2020
6683 Rain 7 1017 75 10000 3.6 360 16:36 29.03.2020
6684 Rain 7 1017 75 10000 3.6 360 16:36 29.03.2020
6685 Rain 7 1017 75 10000 3.6 360 16:36 29.03.2020
6686 Rain 7 1017 70 10000 3.6 30 16:18 29.03.2020
6687 Rain 8 1017 70 10000 3.6 10 15:40 29.03.2020
6688 Clouds 8 1017 49 10000 4.6 330 15:22 29.03.2020
6689 Rain 8 1017 70 10000 5.7 20 14:57 29.03.2020
6690 Rain 8 1017 57 10000 4.6 10 14:39 29.03.2020
6691 Rain 8 1017 58 10000 4.1 20 14:19 29.03.2020
6692 Rain 8 1017 58 10000 2.1 10 13:56 29.03.2020
6693 Rain 8 1017 58 10000 2.1 10 13:38 29.03.2020
6694 Rain 8 1017 58 10000 1 0 13:19 29.03.2020
6695 Rain 8 1017 58 10000 1 0 12:55 29.03.2020
6696 Rain 8 1017 58 10000 1 0 12:37 29.03.2020
6697 Rain 8 1017 58 10000 1 0 12:18 29.03.2020
6698 Rain 7 1017 58 10000 1 0 11:40 29.03.2020
6699 Rain 7 1017 58 10000 2.1 40 11:21 29.03.2020
6700 Rain 7 1017 58 10000 2.1 350 10:59 29.03.2020
6701 Rain 6 1017 58 10000 2.1 350 10:38 29.03.2020
6702 Rain 6 1017 58 10000 1.5 10 10:18 29.03.2020
6703 Rain 6 1017 58 10000 1.5 10 10:18 29.03.2020
6704 Rain 5 1017 69 10000 2.6 10 09:40 29.03.2020
6705 Rain 5 1017 76 10000 1.5 340 09:20 29.03.2020
6706 Rain 5 1017 76 10000 1.5 340 08:54 29.03.2020
6707 Rain 4 1016 76 10000 1.5 340 08:54 29.03.2020
6708 Rain 4 1016 76 10000 2.1 360 08:30 29.03.2020
6709 Rain 4 1016 76 10000 2.1 360 07:59 29.03.2020
6710 Rain 4 1016 76 10000 0.5 0 07:41 29.03.2020
6711 Rain 3 1016 76 10000 0.5 0 07:20 29.03.2020
6712 Clouds 3 1016 74 10000 0.5 0 05:46 29.03.2020
6713 Clouds 4 1016 74 10000 0.5 200 04:27 29.03.2020
6714 Clouds 5 1016 74 10000 1 0 03:31 29.03.2020
6715 Clouds 5 1016 70 10000 1.38 349 01:51 29.03.2020
6716 Clouds 5 1016 73 10000 1.42 329 01:23 29.03.2020
6717 Clouds 5 1016 70 10000 1.38 349 01:23 29.03.2020
6718 Clouds 5 1016 73 10000 1.5 330 00:58 29.03.2020
6719 Clouds 5 1016 73 10000 0.5 0 00:33 29.03.2020
6720 Clouds 5 1016 74 10000 1.42 329 23:57 28.03.2020
6721 Clouds 5 1016 74 10000 1.42 329 23:39 28.03.2020
6722 Clouds 6 1016 70 10000 1 210 23:19 28.03.2020
6723 Clouds 6 1016 73 10000 1 0 22:41 28.03.2020
6724 Clouds 7 1016 73 10000 1.5 210 22:22 28.03.2020
6725 Clouds 7 1016 73 10000 1.5 210 22:22 28.03.2020
6726 Clouds 6 1016 80 10000 1.5 200 21:56 28.03.2020
6727 Clouds 7 1016 80 10000 1.5 200 21:38 28.03.2020
6728 Clouds 7 1015 73 10000 2.6 260 21:19 28.03.2020
6729 Clouds 7 1016 70 10000 1.5 200 20:54 28.03.2020
6730 Clouds 7 1016 70 10000 1.5 200 20:36 28.03.2020
6731 Clouds 7 1016 70 10000 1.5 190 20:18 28.03.2020
6732 Clouds 8 1016 70 10000 1.5 190 19:54 28.03.2020
6733 Clouds 9 1015 70 10000 1 250 19:36 28.03.2020
6734 Clouds 10 1015 70 10000 1.5 310 19:18 28.03.2020
6735 Clouds 12 1015 46 10000 2.6 330 18:39 28.03.2020
6736 Clouds 13 1015 70 10000 3.1 10 18:20 28.03.2020
6737 Clouds 14 1015 70 10000 3.1 350 17:40 28.03.2020
6738 Clouds 15 1014 53 10000 4.1 330 17:22 28.03.2020
6739 Clouds 15 1015 53 10000 2.1 10 16:59 28.03.2020
6740 Clouds 15 1015 53 10000 2.1 10 16:38 28.03.2020
6741 Clouds 15 1015 53 10000 4.1 340 16:18 28.03.2020
6742 Clouds 15 1015 53 10000 4.1 340 16:18 28.03.2020
6743 Clouds 15 1015 33 10000 3.6 10 15:40 28.03.2020
6744 Clouds 15 1015 53 10000 4.1 30 15:19 28.03.2020
6745 Clouds 15 1015 53 10000 4.1 30 15:19 28.03.2020
6746 Clouds 15 1015 35 10000 3.1 10 14:58 28.03.2020
6747 Clouds 15 1015 35 10000 3.1 10 14:40 28.03.2020
6748 Clouds 15 1015 50 10000 3.1 340 14:21 28.03.2020
6749 Clouds 15 1015 50 10000 2.6 20 13:43 28.03.2020
6750 Clouds 14 1016 49 10000 2.6 40 13:23 28.03.2020
6751 Clouds 14 1016 49 10000 2.1 0 12:41 28.03.2020
6752 Clouds 14 1016 49 10000 1.5 360 12:23 28.03.2020
6753 Clouds 13 1016 49 10000 1.5 360 11:59 28.03.2020
6754 Clouds 13 1016 49 10000 2.6 10 11:41 28.03.2020
6755 Clouds 11 1016 50 10000 2.1 10 11:20 28.03.2020
6756 Clouds 10 1016 53 10000 2.1 330 10:40 28.03.2020
6757 Clouds 10 1016 61 10000 1 0 10:22 28.03.2020
6758 Clouds 10 1016 61 10000 1 0 09:56 28.03.2020
6759 Clouds 9 1016 65 10000 2.6 230 09:37 28.03.2020
6760 Clouds 8 1016 75 10000 1.5 230 09:19 28.03.2020
6761 Clouds 5 1016 80 10000 2.6 220 08:42 28.03.2020
6762 Clouds 4 1016 80 10000 2.6 220 08:22 28.03.2020
6763 Clear 1 1016 78 10000 2.1 210 07:49 28.03.2020
6764 Clear 1 1016 78 10000 2.1 210 07:31 28.03.2020
6765 Clear 0 1015 100 10000 1.5 200 06:42 28.03.2020
6766 Clear 0 1015 78 10000 1.5 190 06:18 28.03.2020
6767 Clear 0 1015 79 10000 1.5 250 05:24 28.03.2020
6768 Clear 0 1015 92 10000 2.6 220 04:48 28.03.2020
6769 Clear 1